﻿<?xml version="1.0" encoding="utf-8"?><gpx creator="Garmin Desktop App" version="1.1" xsi:schemaLocation="http://www.topografix.com/GPX/1/1 http://www.topografix.com/GPX/1/1/gpx.xsd http://www.garmin.com/xmlschemas/WaypointExtension/v1 http://www8.garmin.com/xmlschemas/WaypointExtensionv1.xsd http://www.garmin.com/xmlschemas/TrackPointExtension/v1 http://www.garmin.com/xmlschemas/TrackPointExtensionv1.xsd http://www.garmin.com/xmlschemas/GpxExtensions/v3 http://www8.garmin.com/xmlschemas/GpxExtensionsv3.xsd http://www.garmin.com/xmlschemas/ActivityExtension/v1 http://www8.garmin.com/xmlschemas/ActivityExtensionv1.xsd http://www.garmin.com/xmlschemas/AdventuresExtensions/v1 http://www8.garmin.com/xmlschemas/AdventuresExtensionv1.xsd http://www.garmin.com/xmlschemas/PressureExtension/v1 http://www.garmin.com/xmlschemas/PressureExtensionv1.xsd http://www.garmin.com/xmlschemas/TripExtensions/v1 http://www.garmin.com/xmlschemas/TripExtensionsv1.xsd http://www.garmin.com/xmlschemas/TripMetaDataExtensions/v1 http://www.garmin.com/xmlschemas/TripMetaDataExtensionsv1.xsd http://www.garmin.com/xmlschemas/ViaPointTransportationModeExtensions/v1 http://www.garmin.com/xmlschemas/ViaPointTransportationModeExtensionsv1.xsd http://www.garmin.com/xmlschemas/CreationTimeExtension/v1 http://www.garmin.com/xmlschemas/CreationTimeExtensionsv1.xsd http://www.garmin.com/xmlschemas/AccelerationExtension/v1 http://www.garmin.com/xmlschemas/AccelerationExtensionv1.xsd http://www.garmin.com/xmlschemas/PowerExtension/v1 http://www.garmin.com/xmlschemas/PowerExtensionv1.xsd http://www.garmin.com/xmlschemas/VideoExtension/v1 http://www.garmin.com/xmlschemas/VideoExtensionv1.xsd" xmlns="http://www.topografix.com/GPX/1/1" xmlns:xsi="http://www.w3.org/2001/XMLSchema-instance" xmlns:wptx1="http://www.garmin.com/xmlschemas/WaypointExtension/v1" xmlns:gpxtrx="http://www.garmin.com/xmlschemas/GpxExtensions/v3" xmlns:gpxtpx="http://www.garmin.com/xmlschemas/TrackPointExtension/v1" xmlns:gpxx="http://www.garmin.com/xmlschemas/GpxExtensions/v3" xmlns:trp="http://www.garmin.com/xmlschemas/TripExtensions/v1" xmlns:adv="http://www.garmin.com/xmlschemas/AdventuresExtensions/v1" xmlns:prs="http://www.garmin.com/xmlschemas/PressureExtension/v1" xmlns:tmd="http://www.garmin.com/xmlschemas/TripMetaDataExtensions/v1" xmlns:vptm="http://www.garmin.com/xmlschemas/ViaPointTransportationModeExtensions/v1" xmlns:ctx="http://www.garmin.com/xmlschemas/CreationTimeExtension/v1" xmlns:gpxacc="http://www.garmin.com/xmlschemas/AccelerationExtension/v1" xmlns:gpxpx="http://www.garmin.com/xmlschemas/PowerExtension/v1" xmlns:vidx1="http://www.garmin.com/xmlschemas/VideoExtension/v1">

  <metadata>
    <link href="http://www.garmin.com">
      <text>Garmin International</text>
    </link>
    <time>2021-01-25T14:18:52Z</time>
    <bounds maxlat="46.150315962731838" maxlon="7.995060654357076" minlat="46.13708789460361" minlon="7.963727423921228" />
  </metadata>

  <trk>
    <name>jegihorn2016-07-30</name>
    <extensions>
      <gpxx:TrackExtension>
        <gpxx:DisplayColor>Yellow</gpxx:DisplayColor>
      </gpxx:TrackExtension>
      <gpxtrkx:TrackStatsExtension xmlns:gpxtrkx="http://www.garmin.com/xmlschemas/TrackStatsExtension/v1">
        <gpxtrkx:Distance>4705</gpxtrkx:Distance>
        <gpxtrkx:TotalElapsedTime>9495</gpxtrkx:TotalElapsedTime>
        <gpxtrkx:MovingTime>6472</gpxtrkx:MovingTime>
        <gpxtrkx:StoppedTime>3019</gpxtrkx:StoppedTime>
        <gpxtrkx:MovingSpeed>1</gpxtrkx:MovingSpeed>
        <gpxtrkx:MaxSpeed>2</gpxtrkx:MaxSpeed>
        <gpxtrkx:MaxElevation>3064</gpxtrkx:MaxElevation>
        <gpxtrkx:MinElevation>2715</gpxtrkx:MinElevation>
        <gpxtrkx:Ascent>414</gpxtrkx:Ascent>
        <gpxtrkx:Descent>408</gpxtrkx:Descent>
        <gpxtrkx:AvgAscentRate>0</gpxtrkx:AvgAscentRate>
        <gpxtrkx:MaxAscentRate>0</gpxtrkx:MaxAscentRate>
        <gpxtrkx:AvgDescentRate>0</gpxtrkx:AvgDescentRate>
        <gpxtrkx:MaxDescentRate>-0</gpxtrkx:MaxDescentRate>
      </gpxtrkx:TrackStatsExtension>
    </extensions>
    <trkseg>
      <trkpt lat="46.144047640264034" lon="7.977941455319524">
        <ele>2732.1999999999998</ele>
        <time>2016-07-30T12:02:57Z</time>
      </trkpt>
      <trkpt lat="46.144053172320127" lon="7.9779461491853">
        <ele>2732.1999999999998</ele>
        <time>2016-07-30T12:02:58Z</time>
      </trkpt>
      <trkpt lat="46.144129196181893" lon="7.978017060086131">
        <ele>2732.6799999999998</ele>
        <time>2016-07-30T12:03:11Z</time>
      </trkpt>
      <trkpt lat="46.144144702702761" lon="7.978033488616347">
        <ele>2732.6799999999998</ele>
        <time>2016-07-30T12:03:30Z</time>
      </trkpt>
      <trkpt lat="46.144170267507434" lon="7.978076990693808">
        <ele>2733.6500000000001</ele>
        <time>2016-07-30T12:03:37Z</time>
      </trkpt>
      <trkpt lat="46.144190216436982" lon="7.978161899372935">
        <ele>2735.0900000000001</ele>
        <time>2016-07-30T12:03:49Z</time>
      </trkpt>
      <trkpt lat="46.144222989678383" lon="7.978206994011998">
        <ele>2734.6100000000001</ele>
        <time>2016-07-30T12:03:57Z</time>
      </trkpt>
      <trkpt lat="46.144298762083054" lon="7.978233145549893">
        <ele>2733.1700000000001</ele>
        <time>2016-07-30T12:04:07Z</time>
      </trkpt>
      <trkpt lat="46.144336648285389" lon="7.978278575465083">
        <ele>2733.1700000000001</ele>
        <time>2016-07-30T12:04:12Z</time>
      </trkpt>
      <trkpt lat="46.144353579729795" lon="7.978314030915499">
        <ele>2733.1700000000001</ele>
        <time>2016-07-30T12:04:15Z</time>
      </trkpt>
      <trkpt lat="46.144369002431631" lon="7.978332806378603">
        <ele>2733.1700000000001</ele>
        <time>2016-07-30T12:04:17Z</time>
      </trkpt>
      <trkpt lat="46.144434213638306" lon="7.978400783613324">
        <ele>2732.1999999999998</ele>
        <time>2016-07-30T12:04:29Z</time>
      </trkpt>
      <trkpt lat="46.144443936645985" lon="7.978391228243709">
        <ele>2731.7199999999998</ele>
        <time>2016-07-30T12:04:42Z</time>
      </trkpt>
      <trkpt lat="46.14444812759757" lon="7.978387288749218">
        <ele>2731.2399999999998</ele>
        <time>2016-07-30T12:04:51Z</time>
      </trkpt>
      <trkpt lat="46.14451065659523" lon="7.978483764454722">
        <ele>2730.2800000000002</ele>
        <time>2016-07-30T12:05:00Z</time>
      </trkpt>
      <trkpt lat="46.144575783982873" lon="7.978566577658057">
        <ele>2728.3600000000001</ele>
        <time>2016-07-30T12:05:07Z</time>
      </trkpt>
      <trkpt lat="46.144586680456996" lon="7.978566074743867">
        <ele>2728.8400000000001</ele>
        <time>2016-07-30T12:05:08Z</time>
      </trkpt>
      <trkpt lat="46.144671086221933" lon="7.978504551574588">
        <ele>2729.3200000000002</ele>
        <time>2016-07-30T12:05:18Z</time>
      </trkpt>
      <trkpt lat="46.144676618278027" lon="7.978503461927176">
        <ele>2729.3200000000002</ele>
        <time>2016-07-30T12:05:19Z</time>
      </trkpt>
      <trkpt lat="46.144853727892041" lon="7.978561464697123">
        <ele>2728.3600000000001</ele>
        <time>2016-07-30T12:05:32Z</time>
      </trkpt>
      <trkpt lat="46.144938552752137" lon="7.978631285950542">
        <ele>2727.4000000000001</ele>
        <time>2016-07-30T12:05:43Z</time>
      </trkpt>
      <trkpt lat="46.144992616027594" lon="7.97867520712316">
        <ele>2726.9200000000001</ele>
        <time>2016-07-30T12:05:52Z</time>
      </trkpt>
      <trkpt lat="46.145011559128761" lon="7.978684762492776">
        <ele>2727.4000000000001</ele>
        <time>2016-07-30T12:05:54Z</time>
      </trkpt>
      <trkpt lat="46.145084816962481" lon="7.978704879060388">
        <ele>2728.3600000000001</ele>
        <time>2016-07-30T12:06:02Z</time>
      </trkpt>
      <trkpt lat="46.145117925480008" lon="7.97872013412416">
        <ele>2728.8400000000001</ele>
        <time>2016-07-30T12:06:06Z</time>
      </trkpt>
      <trkpt lat="46.145183974877" lon="7.978744693100452">
        <ele>2731.2399999999998</ele>
        <time>2016-07-30T12:06:17Z</time>
      </trkpt>
      <trkpt lat="46.145285312086344" lon="7.978763300925493">
        <ele>2733.1700000000001</ele>
        <time>2016-07-30T12:06:29Z</time>
      </trkpt>
      <trkpt lat="46.145362425595522" lon="7.978841839358211">
        <ele>2735.0900000000001</ele>
        <time>2016-07-30T12:06:41Z</time>
      </trkpt>
      <trkpt lat="46.145427217707038" lon="7.978847371414304">
        <ele>2736.0500000000002</ele>
        <time>2016-07-30T12:06:51Z</time>
      </trkpt>
      <trkpt lat="46.14545370452106" lon="7.978826332837343">
        <ele>2736.0500000000002</ele>
        <time>2016-07-30T12:07:02Z</time>
      </trkpt>
      <trkpt lat="46.145483627915382" lon="7.978785177692771">
        <ele>2736.5300000000002</ele>
        <time>2016-07-30T12:07:08Z</time>
      </trkpt>
      <trkpt lat="46.145502319559455" lon="7.978756008669734">
        <ele>2736.5300000000002</ele>
        <time>2016-07-30T12:07:11Z</time>
      </trkpt>
      <trkpt lat="46.145490249618888" lon="7.978718290105462">
        <ele>2736.0500000000002</ele>
        <time>2016-07-30T12:07:19Z</time>
      </trkpt>
      <trkpt lat="46.14547424018383" lon="7.978651989251375">
        <ele>2735.5700000000002</ele>
        <time>2016-07-30T12:07:24Z</time>
      </trkpt>
      <trkpt lat="46.145467618480325" lon="7.978623658418655">
        <ele>2735.0900000000001</ele>
        <time>2016-07-30T12:07:26Z</time>
      </trkpt>
      <trkpt lat="46.14544540643692" lon="7.978589544072747">
        <ele>2734.1300000000001</ele>
        <time>2016-07-30T12:07:29Z</time>
      </trkpt>
      <trkpt lat="46.145438449457288" lon="7.978548305109143">
        <ele>2734.1300000000001</ele>
        <time>2016-07-30T12:07:32Z</time>
      </trkpt>
      <trkpt lat="46.145437443628907" lon="7.978519974276424">
        <ele>2734.1300000000001</ele>
        <time>2016-07-30T12:07:34Z</time>
      </trkpt>
      <trkpt lat="46.145441131666303" lon="7.978448644280434">
        <ele>2733.1700000000001</ele>
        <time>2016-07-30T12:07:39Z</time>
      </trkpt>
      <trkpt lat="46.145441550761461" lon="7.978418972343206">
        <ele>2733.1700000000001</ele>
        <time>2016-07-30T12:07:41Z</time>
      </trkpt>
      <trkpt lat="46.145430067554116" lon="7.978303888812661">
        <ele>2731.7199999999998</ele>
        <time>2016-07-30T12:07:51Z</time>
      </trkpt>
      <trkpt lat="46.145423445850611" lon="7.978247059509158">
        <ele>2731.7199999999998</ele>
        <time>2016-07-30T12:07:55Z</time>
      </trkpt>
      <trkpt lat="46.145412968471646" lon="7.978225937113166">
        <ele>2732.1999999999998</ele>
        <time>2016-07-30T12:08:07Z</time>
      </trkpt>
      <trkpt lat="46.145420428365469" lon="7.978182099759579">
        <ele>2731.7199999999998</ele>
        <time>2016-07-30T12:08:11Z</time>
      </trkpt>
      <trkpt lat="46.145453453063965" lon="7.978075984865427">
        <ele>2731.7199999999998</ele>
        <time>2016-07-30T12:08:20Z</time>
      </trkpt>
      <trkpt lat="46.145435515791178" lon="7.977964170277119">
        <ele>2729.8000000000002</ele>
        <time>2016-07-30T12:08:27Z</time>
      </trkpt>
      <trkpt lat="46.145460912957788" lon="7.977918069809675">
        <ele>2730.7600000000002</ele>
        <time>2016-07-30T12:08:39Z</time>
      </trkpt>
      <trkpt lat="46.145438449457288" lon="7.977920584380627">
        <ele>2731.7199999999998</ele>
        <time>2016-07-30T12:08:58Z</time>
      </trkpt>
      <trkpt lat="46.145454626530409" lon="7.977886134758592">
        <ele>2730.2800000000002</ele>
        <time>2016-07-30T12:09:00Z</time>
      </trkpt>
      <trkpt lat="46.145467702299356" lon="7.977845901623368">
        <ele>2732.1999999999998</ele>
        <time>2016-07-30T12:09:04Z</time>
      </trkpt>
      <trkpt lat="46.145475413650274" lon="7.977774236351252">
        <ele>2731.2399999999998</ele>
        <time>2016-07-30T12:09:12Z</time>
      </trkpt>
      <trkpt lat="46.145497793331742" lon="7.977703828364611">
        <ele>2732.1999999999998</ele>
        <time>2016-07-30T12:09:18Z</time>
      </trkpt>
      <trkpt lat="46.14548496901989" lon="7.977644735947251">
        <ele>2731.7199999999998</ele>
        <time>2016-07-30T12:09:21Z</time>
      </trkpt>
      <trkpt lat="46.145504247397184" lon="7.977576004341245">
        <ele>2732.6799999999998</ele>
        <time>2016-07-30T12:09:26Z</time>
      </trkpt>
      <trkpt lat="46.145511623471975" lon="7.977550020441413">
        <ele>2732.6799999999998</ele>
        <time>2016-07-30T12:09:28Z</time>
      </trkpt>
      <trkpt lat="46.145606758072972" lon="7.977480450645089">
        <ele>2732.6799999999998</ele>
        <time>2016-07-30T12:09:38Z</time>
      </trkpt>
      <trkpt lat="46.145608434453607" lon="7.977416748180986">
        <ele>2731.7199999999998</ele>
        <time>2016-07-30T12:09:44Z</time>
      </trkpt>
      <trkpt lat="46.145628718659282" lon="7.977367462590337">
        <ele>2731.7199999999998</ele>
        <time>2016-07-30T12:09:49Z</time>
      </trkpt>
      <trkpt lat="46.145689738914371" lon="7.977312812581658">
        <ele>2732.6799999999998</ele>
        <time>2016-07-30T12:09:57Z</time>
      </trkpt>
      <trkpt lat="46.145793087780476" lon="7.977257492020726">
        <ele>2733.1700000000001</ele>
        <time>2016-07-30T12:10:08Z</time>
      </trkpt>
      <trkpt lat="46.145815970376134" lon="7.977151712402701">
        <ele>2731.2399999999998</ele>
        <time>2016-07-30T12:10:18Z</time>
      </trkpt>
      <trkpt lat="46.145840277895331" lon="7.977083316072822">
        <ele>2731.2399999999998</ele>
        <time>2016-07-30T12:10:26Z</time>
      </trkpt>
      <trkpt lat="46.145842624828219" lon="7.977036461234093">
        <ele>2731.7199999999998</ele>
        <time>2016-07-30T12:10:29Z</time>
      </trkpt>
      <trkpt lat="46.14587782882154" lon="7.976887179538608">
        <ele>2731.2399999999998</ele>
        <time>2016-07-30T12:10:42Z</time>
      </trkpt>
      <trkpt lat="46.145884869620204" lon="7.976841162890196">
        <ele>2731.2399999999998</ele>
        <time>2016-07-30T12:10:46Z</time>
      </trkpt>
      <trkpt lat="46.145846731960773" lon="7.976718870922923">
        <ele>2731.7199999999998</ele>
        <time>2016-07-30T12:10:56Z</time>
      </trkpt>
      <trkpt lat="46.145872380584478" lon="7.976626083254814">
        <ele>2730.2800000000002</ele>
        <time>2016-07-30T12:11:06Z</time>
      </trkpt>
      <trkpt lat="46.145887887105346" lon="7.97658383846283">
        <ele>2731.2399999999998</ele>
        <time>2016-07-30T12:11:11Z</time>
      </trkpt>
      <trkpt lat="46.14592325873673" lon="7.976506222039461">
        <ele>2731.2399999999998</ele>
        <time>2016-07-30T12:11:21Z</time>
      </trkpt>
      <trkpt lat="46.14597606472671" lon="7.976459786295891">
        <ele>2730.7600000000002</ele>
        <time>2016-07-30T12:11:30Z</time>
      </trkpt>
      <trkpt lat="46.146041192114353" lon="7.976519968360663">
        <ele>2732.1999999999998</ele>
        <time>2016-07-30T12:11:42Z</time>
      </trkpt>
      <trkpt lat="46.146102966740727" lon="7.976524913683534">
        <ele>2734.6100000000001</ele>
        <time>2016-07-30T12:11:52Z</time>
      </trkpt>
      <trkpt lat="46.146147726103663" lon="7.976591214537621">
        <ele>2736.5300000000002</ele>
        <time>2016-07-30T12:12:05Z</time>
      </trkpt>
      <trkpt lat="46.146163735538721" lon="7.9766078107059">
        <ele>2736.5300000000002</ele>
        <time>2016-07-30T12:12:08Z</time>
      </trkpt>
      <trkpt lat="46.14623012021184" lon="7.976674865931273">
        <ele>2737.0100000000002</ele>
        <time>2016-07-30T12:12:18Z</time>
      </trkpt>
      <trkpt lat="46.146271107718349" lon="7.976730018854141">
        <ele>2738.9299999999998</ele>
        <time>2016-07-30T12:12:31Z</time>
      </trkpt>
      <trkpt lat="46.146308407187462" lon="7.976697245612741">
        <ele>2740.3800000000001</ele>
        <time>2016-07-30T12:12:41Z</time>
      </trkpt>
      <trkpt lat="46.14636791869998" lon="7.976657515391707">
        <ele>2739.8899999999999</ele>
        <time>2016-07-30T12:12:50Z</time>
      </trkpt>
      <trkpt lat="46.146350065246224" lon="7.976590627804399">
        <ele>2737.0100000000002</ele>
        <time>2016-07-30T12:12:56Z</time>
      </trkpt>
      <trkpt lat="46.146355513483286" lon="7.976527512073517">
        <ele>2736.5300000000002</ele>
        <time>2016-07-30T12:13:05Z</time>
      </trkpt>
      <trkpt lat="46.146360039710999" lon="7.976486524567008">
        <ele>2736.0500000000002</ele>
        <time>2016-07-30T12:13:09Z</time>
      </trkpt>
      <trkpt lat="46.146358866244555" lon="7.976434389129281">
        <ele>2735.0900000000001</ele>
        <time>2016-07-30T12:13:14Z</time>
      </trkpt>
      <trkpt lat="46.14637085236609" lon="7.976371692493558">
        <ele>2734.6100000000001</ele>
        <time>2016-07-30T12:13:26Z</time>
      </trkpt>
      <trkpt lat="46.146365739405155" lon="7.976340092718601">
        <ele>2733.6500000000001</ele>
        <time>2016-07-30T12:13:39Z</time>
      </trkpt>
      <trkpt lat="46.146373450756073" lon="7.976308660581708">
        <ele>2731.2399999999998</ele>
        <time>2016-07-30T12:13:50Z</time>
      </trkpt>
      <trkpt lat="46.146395662799478" lon="7.976216040551662">
        <ele>2729.3200000000002</ele>
        <time>2016-07-30T12:14:00Z</time>
      </trkpt>
      <trkpt lat="46.146386861801147" lon="7.976187374442816">
        <ele>2728.8400000000001</ele>
        <time>2016-07-30T12:14:02Z</time>
      </trkpt>
      <trkpt lat="46.146394154056907" lon="7.976104058325291">
        <ele>2727.4000000000001</ele>
        <time>2016-07-30T12:14:08Z</time>
      </trkpt>
      <trkpt lat="46.146411839872599" lon="7.976075978949666">
        <ele>2727.4000000000001</ele>
        <time>2016-07-30T12:14:17Z</time>
      </trkpt>
      <trkpt lat="46.1464480496943" lon="7.976017221808434">
        <ele>2727.8800000000001</ele>
        <time>2016-07-30T12:14:28Z</time>
      </trkpt>
      <trkpt lat="46.146495742723346" lon="7.975981431081891">
        <ele>2725.48</ele>
        <time>2016-07-30T12:14:35Z</time>
      </trkpt>
      <trkpt lat="46.14654628559947" lon="7.975988388061523">
        <ele>2725.48</ele>
        <time>2016-07-30T12:14:42Z</time>
      </trkpt>
      <trkpt lat="46.146559193730354" lon="7.975962152704597">
        <ele>2724.5100000000002</ele>
        <time>2016-07-30T12:14:45Z</time>
      </trkpt>
      <trkpt lat="46.146578136831522" lon="7.975920997560024">
        <ele>2724.0300000000002</ele>
        <time>2016-07-30T12:14:50Z</time>
      </trkpt>
      <trkpt lat="46.146594062447548" lon="7.975883362814784">
        <ele>2723.0700000000002</ele>
        <time>2016-07-30T12:14:53Z</time>
      </trkpt>
      <trkpt lat="46.146686347201467" lon="7.975875483825803">
        <ele>2723.0700000000002</ele>
        <time>2016-07-30T12:15:04Z</time>
      </trkpt>
      <trkpt lat="46.146758263930678" lon="7.975847404450178">
        <ele>2722.5900000000001</ele>
        <time>2016-07-30T12:15:13Z</time>
      </trkpt>
      <trkpt lat="46.146831102669239" lon="7.975908927619457">
        <ele>2723.0700000000002</ele>
        <time>2016-07-30T12:15:23Z</time>
      </trkpt>
      <trkpt lat="46.146905869245529" lon="7.975931977853179">
        <ele>2724.0300000000002</ele>
        <time>2016-07-30T12:15:35Z</time>
      </trkpt>
      <trkpt lat="46.146979127079248" lon="7.975902305915952">
        <ele>2723.0700000000002</ele>
        <time>2016-07-30T12:15:46Z</time>
      </trkpt>
      <trkpt lat="46.147037548944354" lon="7.975852517411113">
        <ele>2722.1100000000001</ele>
        <time>2016-07-30T12:15:56Z</time>
      </trkpt>
      <trkpt lat="46.147072752937675" lon="7.975832736119628">
        <ele>2721.1500000000001</ele>
        <time>2016-07-30T12:16:06Z</time>
      </trkpt>
      <trkpt lat="46.147080715745687" lon="7.975827539339662">
        <ele>2719.23</ele>
        <time>2016-07-30T12:16:11Z</time>
      </trkpt>
      <trkpt lat="46.147091863676906" lon="7.975783869624138">
        <ele>2717.7800000000002</ele>
        <time>2016-07-30T12:16:17Z</time>
      </trkpt>
      <trkpt lat="46.147125056013465" lon="7.975766183808446">
        <ele>2716.8200000000002</ele>
        <time>2016-07-30T12:16:27Z</time>
      </trkpt>
      <trkpt lat="46.14713167771697" lon="7.975748497992754">
        <ele>2718.75</ele>
        <time>2016-07-30T12:16:30Z</time>
      </trkpt>
      <trkpt lat="46.147138215601444" lon="7.975706001743674">
        <ele>2716.8200000000002</ele>
        <time>2016-07-30T12:16:38Z</time>
      </trkpt>
      <trkpt lat="46.147144334390759" lon="7.975717736408114">
        <ele>2715.8600000000001</ele>
        <time>2016-07-30T12:16:49Z</time>
      </trkpt>
      <trkpt lat="46.147149195894599" lon="7.97572779469192">
        <ele>2717.7800000000002</ele>
        <time>2016-07-30T12:16:53Z</time>
      </trkpt>
      <trkpt lat="46.14717023447156" lon="7.975735254585743">
        <ele>2717.3000000000002</ele>
        <time>2016-07-30T12:17:07Z</time>
      </trkpt>
      <trkpt lat="46.147172749042511" lon="7.975730979815126">
        <ele>2717.3000000000002</ele>
        <time>2016-07-30T12:17:08Z</time>
      </trkpt>
      <trkpt lat="46.147206025198102" lon="7.975724274292588">
        <ele>2716.8200000000002</ele>
        <time>2016-07-30T12:17:12Z</time>
      </trkpt>
      <trkpt lat="46.147255059331656" lon="7.975715724751353">
        <ele>2715.8600000000001</ele>
        <time>2016-07-30T12:17:22Z</time>
      </trkpt>
      <trkpt lat="46.147253131493926" lon="7.975703403353691">
        <ele>2715.8600000000001</ele>
        <time>2016-07-30T12:17:37Z</time>
      </trkpt>
      <trkpt lat="46.147255226969719" lon="7.975683957338333">
        <ele>2716.3400000000001</ele>
        <time>2016-07-30T12:17:43Z</time>
      </trkpt>
      <trkpt lat="46.147233936935663" lon="7.97569015994668">
        <ele>2716.8200000000002</ele>
        <time>2016-07-30T12:17:51Z</time>
      </trkpt>
      <trkpt lat="46.147239888086915" lon="7.975694518536329">
        <ele>2716.8200000000002</ele>
        <time>2016-07-30T12:17:53Z</time>
      </trkpt>
      <trkpt lat="46.147259334102273" lon="7.975691333413124">
        <ele>2716.8200000000002</ele>
        <time>2016-07-30T12:17:55Z</time>
      </trkpt>
      <trkpt lat="46.147357989102602" lon="7.975722011178732">
        <ele>2717.3000000000002</ele>
        <time>2016-07-30T12:18:05Z</time>
      </trkpt>
      <trkpt lat="46.14743267185986" lon="7.975711701437831">
        <ele>2717.3000000000002</ele>
        <time>2016-07-30T12:18:13Z</time>
      </trkpt>
      <trkpt lat="46.147502744570374" lon="7.975643808022142">
        <ele>2717.3000000000002</ele>
        <time>2016-07-30T12:18:21Z</time>
      </trkpt>
      <trkpt lat="46.147564938291907" lon="7.975679682567716">
        <ele>2717.3000000000002</ele>
        <time>2016-07-30T12:18:28Z</time>
      </trkpt>
      <trkpt lat="46.147675076499581" lon="7.975649423897266">
        <ele>2719.71</ele>
        <time>2016-07-30T12:18:41Z</time>
      </trkpt>
      <trkpt lat="46.147747663781047" lon="7.975647915154696">
        <ele>2721.1500000000001</ele>
        <time>2016-07-30T12:18:50Z</time>
      </trkpt>
      <trkpt lat="46.14780399017036" lon="7.975600473582745">
        <ele>2723.0700000000002</ele>
        <time>2016-07-30T12:18:58Z</time>
      </trkpt>
      <trkpt lat="46.147888228297234" lon="7.97554942779243">
        <ele>2726.4400000000001</ele>
        <time>2016-07-30T12:19:08Z</time>
      </trkpt>
      <trkpt lat="46.147894347086549" lon="7.975552026182413">
        <ele>2725.48</ele>
        <time>2016-07-30T12:19:09Z</time>
      </trkpt>
      <trkpt lat="46.147983949631453" lon="7.975535430014134">
        <ele>2725.96</ele>
        <time>2016-07-30T12:19:21Z</time>
      </trkpt>
      <trkpt lat="46.148050837218761" lon="7.975509446114302">
        <ele>2729.3200000000002</ele>
        <time>2016-07-30T12:19:31Z</time>
      </trkpt>
      <trkpt lat="46.148059889674187" lon="7.975503075867891">
        <ele>2728.8400000000001</ele>
        <time>2016-07-30T12:19:32Z</time>
      </trkpt>
      <trkpt lat="46.148167513310909" lon="7.975473739206791">
        <ele>2730.7600000000002</ele>
        <time>2016-07-30T12:19:43Z</time>
      </trkpt>
      <trkpt lat="46.148227360099554" lon="7.975410120561719">
        <ele>2731.7199999999998</ele>
        <time>2016-07-30T12:19:53Z</time>
      </trkpt>
      <trkpt lat="46.148296091705561" lon="7.975375503301621">
        <ele>2734.6100000000001</ele>
        <time>2016-07-30T12:20:04Z</time>
      </trkpt>
      <trkpt lat="46.148358369246125" lon="7.975370557978749">
        <ele>2737.4899999999998</ele>
        <time>2016-07-30T12:20:19Z</time>
      </trkpt>
      <trkpt lat="46.148369684815407" lon="7.975370055064559">
        <ele>2734.1300000000001</ele>
        <time>2016-07-30T12:20:21Z</time>
      </trkpt>
      <trkpt lat="46.14839231595397" lon="7.975363014265895">
        <ele>2737.0100000000002</ele>
        <time>2016-07-30T12:20:24Z</time>
      </trkpt>
      <trkpt lat="46.148490384221077" lon="7.97527433373034">
        <ele>2735.5700000000002</ele>
        <time>2016-07-30T12:20:36Z</time>
      </trkpt>
      <trkpt lat="46.148509411141276" lon="7.97523912973702">
        <ele>2737.4899999999998</ele>
        <time>2016-07-30T12:20:39Z</time>
      </trkpt>
      <trkpt lat="46.148550901561975" lon="7.975180624052882">
        <ele>2737.4899999999998</ele>
        <time>2016-07-30T12:20:45Z</time>
      </trkpt>
      <trkpt lat="46.148618794977665" lon="7.975149694830179">
        <ele>2736.0500000000002</ele>
        <time>2016-07-30T12:20:57Z</time>
      </trkpt>
      <trkpt lat="46.148623991757631" lon="7.975116083398461">
        <ele>2734.6100000000001</ele>
        <time>2016-07-30T12:21:11Z</time>
      </trkpt>
      <trkpt lat="46.148673696443439" lon="7.975053889676929">
        <ele>2736.5300000000002</ele>
        <time>2016-07-30T12:21:24Z</time>
      </trkpt>
      <trkpt lat="46.148764556273818" lon="7.975085657089949">
        <ele>2738.9299999999998</ele>
        <time>2016-07-30T12:21:35Z</time>
      </trkpt>
      <trkpt lat="46.148835048079491" lon="7.97499580308795">
        <ele>2739.8899999999999</ele>
        <time>2016-07-30T12:21:46Z</time>
      </trkpt>
      <trkpt lat="46.148908389732242" lon="7.975004687905312">
        <ele>2741.8200000000002</ele>
        <time>2016-07-30T12:21:58Z</time>
      </trkpt>
      <trkpt lat="46.148933367803693" lon="7.974958587437868">
        <ele>2742.7800000000002</ele>
        <time>2016-07-30T12:22:03Z</time>
      </trkpt>
      <trkpt lat="46.148996399715543" lon="7.974884826689959">
        <ele>2745.1799999999998</ele>
        <time>2016-07-30T12:22:17Z</time>
      </trkpt>
      <trkpt lat="46.149017857387662" lon="7.974814167246223">
        <ele>2746.6199999999999</ele>
        <time>2016-07-30T12:22:29Z</time>
      </trkpt>
      <trkpt lat="46.149041829630733" lon="7.974809054285288">
        <ele>2747.5900000000001</ele>
        <time>2016-07-30T12:22:38Z</time>
      </trkpt>
      <trkpt lat="46.149066807702184" lon="7.974750380963087">
        <ele>2749.5100000000002</ele>
        <time>2016-07-30T12:22:48Z</time>
      </trkpt>
      <trkpt lat="46.149070831015706" lon="7.974710399284959">
        <ele>2751.9099999999999</ele>
        <time>2016-07-30T12:22:59Z</time>
      </trkpt>
      <trkpt lat="46.149097820743918" lon="7.974688187241554">
        <ele>2754.3099999999999</ele>
        <time>2016-07-30T12:23:10Z</time>
      </trkpt>
      <trkpt lat="46.149113243445754" lon="7.97461710870266">
        <ele>2755.2800000000002</ele>
        <time>2016-07-30T12:23:23Z</time>
      </trkpt>
      <trkpt lat="46.149142328649759" lon="7.974574360996485">
        <ele>2756.7199999999998</ele>
        <time>2016-07-30T12:23:38Z</time>
      </trkpt>
      <trkpt lat="46.1491902731359" lon="7.974532535299659">
        <ele>2758.6399999999999</ele>
        <time>2016-07-30T12:23:49Z</time>
      </trkpt>
      <trkpt lat="46.149220615625381" lon="7.974470006301999">
        <ele>2760.5599999999999</ele>
        <time>2016-07-30T12:24:00Z</time>
      </trkpt>
      <trkpt lat="46.149222711101174" lon="7.974421977996826">
        <ele>2762.4899999999998</ele>
        <time>2016-07-30T12:24:11Z</time>
      </trkpt>
      <trkpt lat="46.149243665859103" lon="7.97437084838748">
        <ele>2763.9299999999998</ele>
        <time>2016-07-30T12:24:22Z</time>
      </trkpt>
      <trkpt lat="46.149294711649418" lon="7.974334973841906">
        <ele>2766.3299999999999</ele>
        <time>2016-07-30T12:24:34Z</time>
      </trkpt>
      <trkpt lat="46.149274930357933" lon="7.974275797605515">
        <ele>2767.77</ele>
        <time>2016-07-30T12:24:45Z</time>
      </trkpt>
      <trkpt lat="46.1493129003793" lon="7.974236570298672">
        <ele>2770.1799999999998</ele>
        <time>2016-07-30T12:24:57Z</time>
      </trkpt>
      <trkpt lat="46.149299070239067" lon="7.974188625812531">
        <ele>2771.6199999999999</ele>
        <time>2016-07-30T12:25:09Z</time>
      </trkpt>
      <trkpt lat="46.149336788803339" lon="7.974163983017206">
        <ele>2774.98</ele>
        <time>2016-07-30T12:25:23Z</time>
      </trkpt>
      <trkpt lat="46.149323545396328" lon="7.974105812609196">
        <ele>2776.9099999999999</ele>
        <time>2016-07-30T12:25:33Z</time>
      </trkpt>
      <trkpt lat="46.149365203455091" lon="7.974102962762117">
        <ele>2778.8299999999999</ele>
        <time>2016-07-30T12:25:43Z</time>
      </trkpt>
      <trkpt lat="46.149397222325206" lon="7.974004810675979">
        <ele>2780.27</ele>
        <time>2016-07-30T12:25:55Z</time>
      </trkpt>
      <trkpt lat="46.14942530170083" lon="7.973966924473643">
        <ele>2781.71</ele>
        <time>2016-07-30T12:26:06Z</time>
      </trkpt>
      <trkpt lat="46.149408705532551" lon="7.973944963887334">
        <ele>2782.6700000000001</ele>
        <time>2016-07-30T12:26:17Z</time>
      </trkpt>
      <trkpt lat="46.14945019595325" lon="7.973911520093679">
        <ele>2784.1199999999999</ele>
        <time>2016-07-30T12:26:29Z</time>
      </trkpt>
      <trkpt lat="46.149484226480126" lon="7.973838010802865">
        <ele>2786.04</ele>
        <time>2016-07-30T12:26:39Z</time>
      </trkpt>
      <trkpt lat="46.14951373077929" lon="7.973772464320064">
        <ele>2788.4400000000001</ele>
        <time>2016-07-30T12:26:51Z</time>
      </trkpt>
      <trkpt lat="46.149528566747904" lon="7.973763160407543">
        <ele>2789.8800000000001</ele>
        <time>2016-07-30T12:27:02Z</time>
      </trkpt>
      <trkpt lat="46.149544660001993" lon="7.973696189001203">
        <ele>2791.8099999999999</ele>
        <time>2016-07-30T12:27:13Z</time>
      </trkpt>
      <trkpt lat="46.149558238685131" lon="7.973644137382507">
        <ele>2793.25</ele>
        <time>2016-07-30T12:27:25Z</time>
      </trkpt>
      <trkpt lat="46.149595286697149" lon="7.973621170967817">
        <ele>2793.73</ele>
        <time>2016-07-30T12:27:36Z</time>
      </trkpt>
      <trkpt lat="46.149608446285129" lon="7.973636006936431">
        <ele>2796.1300000000001</ele>
        <time>2016-07-30T12:27:44Z</time>
      </trkpt>
      <trkpt lat="46.149597465991974" lon="7.973597953096032">
        <ele>2796.1300000000001</ele>
        <time>2016-07-30T12:27:53Z</time>
      </trkpt>
      <trkpt lat="46.149558322504163" lon="7.973578926175833">
        <ele>2799.02</ele>
        <time>2016-07-30T12:28:02Z</time>
      </trkpt>
      <trkpt lat="46.149571146816015" lon="7.973546907305718">
        <ele>2800.9400000000001</ele>
        <time>2016-07-30T12:28:14Z</time>
      </trkpt>
      <trkpt lat="46.149578606709838" lon="7.973506841808558">
        <ele>2802.8600000000001</ele>
        <time>2016-07-30T12:28:24Z</time>
      </trkpt>
      <trkpt lat="46.149562010541558" lon="7.973468955606222">
        <ele>2804.3000000000002</ele>
        <time>2016-07-30T12:28:34Z</time>
      </trkpt>
      <trkpt lat="46.149609116837382" lon="7.973429393023253">
        <ele>2806.23</ele>
        <time>2016-07-30T12:28:42Z</time>
      </trkpt>
      <trkpt lat="46.149606686085463" lon="7.9733941052109">
        <ele>2806.71</ele>
        <time>2016-07-30T12:28:50Z</time>
      </trkpt>
      <trkpt lat="46.149594616144896" lon="7.973359320312738">
        <ele>2809.1100000000001</ele>
        <time>2016-07-30T12:29:02Z</time>
      </trkpt>
      <trkpt lat="46.149601489305496" lon="7.973306598141789">
        <ele>2811.9899999999998</ele>
        <time>2016-07-30T12:29:14Z</time>
      </trkpt>
      <trkpt lat="46.149644069373608" lon="7.9732611682266">
        <ele>2812.96</ele>
        <time>2016-07-30T12:29:25Z</time>
      </trkpt>
      <trkpt lat="46.14965639077127" lon="7.973217414692044">
        <ele>2814.8800000000001</ele>
        <time>2016-07-30T12:29:36Z</time>
      </trkpt>
      <trkpt lat="46.149635603651404" lon="7.973184641450644">
        <ele>2815.8400000000001</ele>
        <time>2016-07-30T12:29:46Z</time>
      </trkpt>
      <trkpt lat="46.149608865380287" lon="7.973153628408909">
        <ele>2817.7600000000002</ele>
        <time>2016-07-30T12:29:57Z</time>
      </trkpt>
      <trkpt lat="46.149552371352911" lon="7.973131416365504">
        <ele>2819.1999999999998</ele>
        <time>2016-07-30T12:30:10Z</time>
      </trkpt>
      <trkpt lat="46.149546504020691" lon="7.973067713901401">
        <ele>2820.6500000000001</ele>
        <time>2016-07-30T12:30:22Z</time>
      </trkpt>
      <trkpt lat="46.149517670273781" lon="7.973017925396562">
        <ele>2822.5700000000002</ele>
        <time>2016-07-30T12:30:33Z</time>
      </trkpt>
      <trkpt lat="46.149503169581294" lon="7.972979536280036">
        <ele>2824.0100000000002</ele>
        <time>2016-07-30T12:30:43Z</time>
      </trkpt>
      <trkpt lat="46.149522112682462" lon="7.972990097478032">
        <ele>2825.4499999999998</ele>
        <time>2016-07-30T12:30:55Z</time>
      </trkpt>
      <trkpt lat="46.149488165974617" lon="7.972934022545815">
        <ele>2826.8899999999999</ele>
        <time>2016-07-30T12:31:03Z</time>
      </trkpt>
      <trkpt lat="46.149464445188642" lon="7.972915582358837">
        <ele>2827.8499999999999</ele>
        <time>2016-07-30T12:31:14Z</time>
      </trkpt>
      <trkpt lat="46.149452542886138" lon="7.972853472456336">
        <ele>2830.7399999999998</ele>
        <time>2016-07-30T12:31:25Z</time>
      </trkpt>
      <trkpt lat="46.149450866505504" lon="7.972836876288056">
        <ele>2830.7399999999998</ele>
        <time>2016-07-30T12:31:35Z</time>
      </trkpt>
      <trkpt lat="46.149437120184302" lon="7.972819609567523">
        <ele>2832.1799999999998</ele>
        <time>2016-07-30T12:31:44Z</time>
      </trkpt>
      <trkpt lat="46.149406358599663" lon="7.972772922366858">
        <ele>2834.5799999999999</ele>
        <time>2016-07-30T12:31:55Z</time>
      </trkpt>
      <trkpt lat="46.149401497095823" lon="7.972740232944489">
        <ele>2835.0599999999999</ele>
        <time>2016-07-30T12:32:04Z</time>
      </trkpt>
      <trkpt lat="46.149393199011683" lon="7.972703436389566">
        <ele>2836.9899999999998</ele>
        <time>2016-07-30T12:32:16Z</time>
      </trkpt>
      <trkpt lat="46.149444999173284" lon="7.972697820514441">
        <ele>2837.9499999999998</ele>
        <time>2016-07-30T12:32:27Z</time>
      </trkpt>
      <trkpt lat="46.149465618655086" lon="7.972681224346161">
        <ele>2839.8699999999999</ele>
        <time>2016-07-30T12:32:36Z</time>
      </trkpt>
      <trkpt lat="46.149448100477457" lon="7.972636464983225">
        <ele>2840.8299999999999</ele>
        <time>2016-07-30T12:32:46Z</time>
      </trkpt>
      <trkpt lat="46.149492356926203" lon="7.972643505781889">
        <ele>2842.7600000000002</ele>
        <time>2016-07-30T12:32:57Z</time>
      </trkpt>
      <trkpt lat="46.149495793506503" lon="7.972598662599921">
        <ele>2844.6799999999998</ele>
        <time>2016-07-30T12:33:08Z</time>
      </trkpt>
      <trkpt lat="46.149527728557587" lon="7.972593046724796">
        <ele>2847.0799999999999</ele>
        <time>2016-07-30T12:33:17Z</time>
      </trkpt>
      <trkpt lat="46.14952202886343" lon="7.972554657608271">
        <ele>2847.0799999999999</ele>
        <time>2016-07-30T12:33:27Z</time>
      </trkpt>
      <trkpt lat="46.149558741599321" lon="7.972533535212278">
        <ele>2849</ele>
        <time>2016-07-30T12:33:39Z</time>
      </trkpt>
      <trkpt lat="46.149568632245064" lon="7.972505623474717">
        <ele>2849.9699999999998</ele>
        <time>2016-07-30T12:33:49Z</time>
      </trkpt>
      <trkpt lat="46.149625210091472" lon="7.972487350925803">
        <ele>2852.3699999999999</ele>
        <time>2016-07-30T12:34:03Z</time>
      </trkpt>
      <trkpt lat="46.149680865928531" lon="7.972486596554518">
        <ele>2854.29</ele>
        <time>2016-07-30T12:34:16Z</time>
      </trkpt>
      <trkpt lat="46.149678518995643" lon="7.972460109740496">
        <ele>2855.25</ele>
        <time>2016-07-30T12:34:28Z</time>
      </trkpt>
      <trkpt lat="46.149696288630366" lon="7.972441585734487">
        <ele>2857.1799999999998</ele>
        <time>2016-07-30T12:34:41Z</time>
      </trkpt>
      <trkpt lat="46.149681704118848" lon="7.972422810271382">
        <ele>2858.6199999999999</ele>
        <time>2016-07-30T12:34:52Z</time>
      </trkpt>
      <trkpt lat="46.149747921153903" lon="7.972414093092084">
        <ele>2860.0599999999999</ele>
        <time>2016-07-30T12:35:03Z</time>
      </trkpt>
      <trkpt lat="46.14972285926342" lon="7.972396239638329">
        <ele>2861.02</ele>
        <time>2016-07-30T12:35:12Z</time>
      </trkpt>
      <trkpt lat="46.149752950295806" lon="7.97236698679626">
        <ele>2862.46</ele>
        <time>2016-07-30T12:35:21Z</time>
      </trkpt>
      <trkpt lat="46.149749346077442" lon="7.97233471646905">
        <ele>2864.3899999999999</ele>
        <time>2016-07-30T12:35:30Z</time>
      </trkpt>
      <trkpt lat="46.149790501222014" lon="7.972321473062038">
        <ele>2866.3099999999999</ele>
        <time>2016-07-30T12:35:40Z</time>
      </trkpt>
      <trkpt lat="46.149769797921181" lon="7.972281407564879">
        <ele>2866.3099999999999</ele>
        <time>2016-07-30T12:35:48Z</time>
      </trkpt>
      <trkpt lat="46.149758230894804" lon="7.972278976812959">
        <ele>2867.75</ele>
        <time>2016-07-30T12:35:54Z</time>
      </trkpt>
      <trkpt lat="46.149761835113168" lon="7.972264559939504">
        <ele>2868.71</ele>
        <time>2016-07-30T12:36:04Z</time>
      </trkpt>
      <trkpt lat="46.149763762950897" lon="7.972258105874062">
        <ele>2870.1500000000001</ele>
        <time>2016-07-30T12:36:15Z</time>
      </trkpt>
      <trkpt lat="46.149773066863418" lon="7.972224159166217">
        <ele>2871.1100000000001</ele>
        <time>2016-07-30T12:36:22Z</time>
      </trkpt>
      <trkpt lat="46.14977172575891" lon="7.972183842211962">
        <ele>2872.0799999999999</ele>
        <time>2016-07-30T12:36:33Z</time>
      </trkpt>
      <trkpt lat="46.149790668860078" lon="7.972158445045352">
        <ele>2872.5599999999999</ele>
        <time>2016-07-30T12:36:43Z</time>
      </trkpt>
      <trkpt lat="46.149811372160912" lon="7.972140004858375">
        <ele>2875.9200000000001</ele>
        <time>2016-07-30T12:36:52Z</time>
      </trkpt>
      <trkpt lat="46.14979662001133" lon="7.97210848890245">
        <ele>2875.9200000000001</ele>
        <time>2016-07-30T12:37:04Z</time>
      </trkpt>
      <trkpt lat="46.149853114038706" lon="7.972080577164888">
        <ele>2877.8400000000001</ele>
        <time>2016-07-30T12:37:15Z</time>
      </trkpt>
      <trkpt lat="46.149842720478773" lon="7.972064819186926">
        <ele>2880.73</ele>
        <time>2016-07-30T12:37:27Z</time>
      </trkpt>
      <trkpt lat="46.149834841489792" lon="7.972046043723822">
        <ele>2881.6900000000001</ele>
        <time>2016-07-30T12:37:35Z</time>
      </trkpt>
      <trkpt lat="46.149852527305484" lon="7.972026178613305">
        <ele>2883.6100000000001</ele>
        <time>2016-07-30T12:37:46Z</time>
      </trkpt>
      <trkpt lat="46.149837607517838" lon="7.972024502232671">
        <ele>2885.0500000000002</ele>
        <time>2016-07-30T12:37:58Z</time>
      </trkpt>
      <trkpt lat="46.149836266413331" lon="7.971958536654711">
        <ele>2886.98</ele>
        <time>2016-07-30T12:38:08Z</time>
      </trkpt>
      <trkpt lat="46.149841463193297" lon="7.971914699301124">
        <ele>2888.4200000000001</ele>
        <time>2016-07-30T12:38:18Z</time>
      </trkpt>
      <trkpt lat="46.149825872853398" lon="7.971891649067402">
        <ele>2890.3400000000001</ele>
        <time>2016-07-30T12:38:30Z</time>
      </trkpt>
      <trkpt lat="46.149793602526188" lon="7.971845716238022">
        <ele>2892.2600000000002</ele>
        <time>2016-07-30T12:38:43Z</time>
      </trkpt>
      <trkpt lat="46.149785807356238" lon="7.971830628812313">
        <ele>2894.1900000000001</ele>
        <time>2016-07-30T12:38:53Z</time>
      </trkpt>
      <trkpt lat="46.14973065443337" lon="7.971797520294786">
        <ele>2895.1500000000001</ele>
        <time>2016-07-30T12:39:04Z</time>
      </trkpt>
      <trkpt lat="46.149691259488463" lon="7.971765669062734">
        <ele>2897.5500000000002</ele>
        <time>2016-07-30T12:39:17Z</time>
      </trkpt>
      <trkpt lat="46.149652451276779" lon="7.971723675727844">
        <ele>2898.5100000000002</ele>
        <time>2016-07-30T12:39:29Z</time>
      </trkpt>
      <trkpt lat="46.149621186777949" lon="7.971670953556895">
        <ele>2899.9499999999998</ele>
        <time>2016-07-30T12:39:40Z</time>
      </trkpt>
      <trkpt lat="46.149620600044727" lon="7.971646981313825">
        <ele>2900.9200000000001</ele>
        <time>2016-07-30T12:39:43Z</time>
      </trkpt>
      <trkpt lat="46.149591095745564" lon="7.971642958000302">
        <ele>2902.3600000000001</ele>
        <time>2016-07-30T12:39:51Z</time>
      </trkpt>
      <trkpt lat="46.149585228413343" lon="7.971609765663743">
        <ele>2903.8000000000002</ele>
        <time>2016-07-30T12:39:58Z</time>
      </trkpt>
      <trkpt lat="46.149584809318185" lon="7.971602138131857">
        <ele>2905.2399999999998</ele>
        <time>2016-07-30T12:40:06Z</time>
      </trkpt>
      <trkpt lat="46.149601824581623" lon="7.971572801470757">
        <ele>2906.1999999999998</ele>
        <time>2016-07-30T12:40:15Z</time>
      </trkpt>
      <trkpt lat="46.149657312780619" lon="7.971578165888786">
        <ele>2906.6799999999998</ele>
        <time>2016-07-30T12:40:31Z</time>
      </trkpt>
      <trkpt lat="46.14965345710516" lon="7.971532819792628">
        <ele>2909.0900000000001</ele>
        <time>2016-07-30T12:40:39Z</time>
      </trkpt>
      <trkpt lat="46.149642979726195" lon="7.971527874469757">
        <ele>2909.0900000000001</ele>
        <time>2016-07-30T12:40:50Z</time>
      </trkpt>
      <trkpt lat="46.149660078808665" lon="7.971520917490125">
        <ele>2908.6100000000001</ele>
        <time>2016-07-30T12:40:53Z</time>
      </trkpt>
      <trkpt lat="46.149681117385626" lon="7.971456544473767">
        <ele>2910.0500000000002</ele>
        <time>2016-07-30T12:41:04Z</time>
      </trkpt>
      <trkpt lat="46.149660581722856" lon="7.971495352685452">
        <ele>2911.0100000000002</ele>
        <time>2016-07-30T12:41:15Z</time>
      </trkpt>
      <trkpt lat="46.149660833179951" lon="7.971529802307487">
        <ele>2911.9699999999998</ele>
        <time>2016-07-30T12:41:24Z</time>
      </trkpt>
      <trkpt lat="46.149659659713507" lon="7.971507925540209">
        <ele>2912.4499999999998</ele>
        <time>2016-07-30T12:41:38Z</time>
      </trkpt>
      <trkpt lat="46.14965102635324" lon="7.971440199762583">
        <ele>2911.9699999999998</ele>
        <time>2016-07-30T12:41:52Z</time>
      </trkpt>
      <trkpt lat="46.149625377729535" lon="7.971416143700481">
        <ele>2912.9299999999998</ele>
        <time>2016-07-30T12:42:05Z</time>
      </trkpt>
      <trkpt lat="46.149626132100821" lon="7.971431398764253">
        <ele>2911.9699999999998</ele>
        <time>2016-07-30T12:42:16Z</time>
      </trkpt>
      <trkpt lat="46.149622276425362" lon="7.971445983275771">
        <ele>2911.9699999999998</ele>
        <time>2016-07-30T12:42:24Z</time>
      </trkpt>
      <trkpt lat="46.149644991382957" lon="7.971419831737876">
        <ele>2913.4099999999999</ele>
        <time>2016-07-30T12:42:36Z</time>
      </trkpt>
      <trkpt lat="46.149641973897815" lon="7.971442043781281">
        <ele>2914.8499999999999</ele>
        <time>2016-07-30T12:42:44Z</time>
      </trkpt>
      <trkpt lat="46.14965446293354" lon="7.971460148692131">
        <ele>2915.8200000000002</ele>
        <time>2016-07-30T12:42:59Z</time>
      </trkpt>
      <trkpt lat="46.149634178727865" lon="7.97147230245173">
        <ele>2917.2600000000002</ele>
        <time>2016-07-30T12:43:10Z</time>
      </trkpt>
      <trkpt lat="46.149598807096481" lon="7.971453191712499">
        <ele>2918.2199999999998</ele>
        <time>2016-07-30T12:43:18Z</time>
      </trkpt>
      <trkpt lat="46.149596963077784" lon="7.971437266096473">
        <ele>2918.6999999999998</ele>
        <time>2016-07-30T12:43:28Z</time>
      </trkpt>
      <trkpt lat="46.149589419364929" lon="7.971417820081115">
        <ele>2918.2199999999998</ele>
        <time>2016-07-30T12:43:44Z</time>
      </trkpt>
      <trkpt lat="46.149609284475446" lon="7.971418993547559">
        <ele>2918.6999999999998</ele>
        <time>2016-07-30T12:44:04Z</time>
      </trkpt>
      <trkpt lat="46.149605009704828" lon="7.971395356580615">
        <ele>2918.6999999999998</ele>
        <time>2016-07-30T12:44:09Z</time>
      </trkpt>
      <trkpt lat="46.149584809318185" lon="7.971367863938212">
        <ele>2920.6199999999999</ele>
        <time>2016-07-30T12:44:18Z</time>
      </trkpt>
      <trkpt lat="46.149581288918853" lon="7.971319165080786">
        <ele>2920.6199999999999</ele>
        <time>2016-07-30T12:44:29Z</time>
      </trkpt>
      <trkpt lat="46.149572236463428" lon="7.97133450396359">
        <ele>2920.1399999999999</ele>
        <time>2016-07-30T12:44:44Z</time>
      </trkpt>
      <trkpt lat="46.14957332611084" lon="7.971344981342554">
        <ele>2920.6199999999999</ele>
        <time>2016-07-30T12:44:54Z</time>
      </trkpt>
      <trkpt lat="46.149582378566265" lon="7.971370378509164">
        <ele>2920.6199999999999</ele>
        <time>2016-07-30T12:45:12Z</time>
      </trkpt>
      <trkpt lat="46.149610374122858" lon="7.971339533105493">
        <ele>2920.6199999999999</ele>
        <time>2016-07-30T12:45:32Z</time>
      </trkpt>
      <trkpt lat="46.14963686093688" lon="7.97130131162703">
        <ele>2923.0300000000002</ele>
        <time>2016-07-30T12:45:45Z</time>
      </trkpt>
      <trkpt lat="46.149667371064425" lon="7.971315979957581">
        <ele>2923.9899999999998</ele>
        <time>2016-07-30T12:45:54Z</time>
      </trkpt>
      <trkpt lat="46.149675250053406" lon="7.971314555034041">
        <ele>2925.4299999999998</ele>
        <time>2016-07-30T12:46:06Z</time>
      </trkpt>
      <trkpt lat="46.14969058893621" lon="7.971325535327196">
        <ele>2925.9099999999999</ele>
        <time>2016-07-30T12:46:20Z</time>
      </trkpt>
      <trkpt lat="46.149698048830032" lon="7.971350848674774">
        <ele>2926.3899999999999</ele>
        <time>2016-07-30T12:46:35Z</time>
      </trkpt>
      <trkpt lat="46.149682626128197" lon="7.971358895301819">
        <ele>2925.9099999999999</ele>
        <time>2016-07-30T12:46:52Z</time>
      </trkpt>
      <trkpt lat="46.149684134870768" lon="7.971349926665425">
        <ele>2925.9099999999999</ele>
        <time>2016-07-30T12:47:11Z</time>
      </trkpt>
      <trkpt lat="46.149679021909833" lon="7.971338862553239">
        <ele>2926.3899999999999</ele>
        <time>2016-07-30T12:47:25Z</time>
      </trkpt>
      <trkpt lat="46.149674411863089" lon="7.971302317455411">
        <ele>2927.8299999999999</ele>
        <time>2016-07-30T12:47:35Z</time>
      </trkpt>
      <trkpt lat="46.149718835949898" lon="7.971272058784962">
        <ele>2930.2399999999998</ele>
        <time>2016-07-30T12:47:47Z</time>
      </trkpt>
      <trkpt lat="46.149699976667762" lon="7.971234088763595">
        <ele>2931.1999999999998</ele>
        <time>2016-07-30T12:47:57Z</time>
      </trkpt>
      <trkpt lat="46.149686397984624" lon="7.971205422654748">
        <ele>2932.6399999999999</ele>
        <time>2016-07-30T12:48:12Z</time>
      </trkpt>
      <trkpt lat="46.149678351357579" lon="7.97118010930717">
        <ele>2933.5999999999999</ele>
        <time>2016-07-30T12:48:23Z</time>
      </trkpt>
      <trkpt lat="46.149713303893805" lon="7.971180863678455">
        <ele>2935.04</ele>
        <time>2016-07-30T12:48:31Z</time>
      </trkpt>
      <trkpt lat="46.149710202589631" lon="7.971133254468441">
        <ele>2936.48</ele>
        <time>2016-07-30T12:48:43Z</time>
      </trkpt>
      <trkpt lat="46.149694276973605" lon="7.971107941120863">
        <ele>2938.4099999999999</ele>
        <time>2016-07-30T12:48:52Z</time>
      </trkpt>
      <trkpt lat="46.14974046126008" lon="7.97111364081502">
        <ele>2939.3699999999999</ele>
        <time>2016-07-30T12:49:01Z</time>
      </trkpt>
      <trkpt lat="46.14976049400866" lon="7.971106767654419">
        <ele>2940.3299999999999</ele>
        <time>2016-07-30T12:49:13Z</time>
      </trkpt>
      <trkpt lat="46.149746999144554" lon="7.971066785976291">
        <ele>2941.77</ele>
        <time>2016-07-30T12:49:25Z</time>
      </trkpt>
      <trkpt lat="46.149752615019679" lon="7.970995120704174">
        <ele>2942.73</ele>
        <time>2016-07-30T12:49:41Z</time>
      </trkpt>
      <trkpt lat="46.149794859811664" lon="7.971022697165608">
        <ele>2944.6599999999999</ele>
        <time>2016-07-30T12:49:55Z</time>
      </trkpt>
      <trkpt lat="46.149807265028358" lon="7.971014901995659">
        <ele>2947.0599999999999</ele>
        <time>2016-07-30T12:50:05Z</time>
      </trkpt>
      <trkpt lat="46.149841295555234" lon="7.971001071855426">
        <ele>2948.02</ele>
        <time>2016-07-30T12:50:14Z</time>
      </trkpt>
      <trkpt lat="46.149818999692798" lon="7.970989588648081">
        <ele>2948.5</ele>
        <time>2016-07-30T12:50:27Z</time>
      </trkpt>
      <trkpt lat="46.149824531748891" lon="7.970979530364275">
        <ele>2948.98</ele>
        <time>2016-07-30T12:50:39Z</time>
      </trkpt>
      <trkpt lat="46.149797039106488" lon="7.970922952517867">
        <ele>2949.46</ele>
        <time>2016-07-30T12:51:00Z</time>
      </trkpt>
      <trkpt lat="46.149818412959576" lon="7.970944242551923">
        <ele>2949.46</ele>
        <time>2016-07-30T12:51:12Z</time>
      </trkpt>
      <trkpt lat="46.149838697165251" lon="7.970968466252089">
        <ele>2948.98</ele>
        <time>2016-07-30T12:51:37Z</time>
      </trkpt>
      <trkpt lat="46.149815814569592" lon="7.970959497615695">
        <ele>2949.9400000000001</ele>
        <time>2016-07-30T12:51:50Z</time>
      </trkpt>
      <trkpt lat="46.149827800691128" lon="7.970976009964943">
        <ele>2949.9400000000001</ele>
        <time>2016-07-30T12:52:14Z</time>
      </trkpt>
      <trkpt lat="46.149849258363247" lon="7.97099738381803">
        <ele>2949.9400000000001</ele>
        <time>2016-07-30T12:52:27Z</time>
      </trkpt>
      <trkpt lat="46.149834422394633" lon="7.970978356897831">
        <ele>2949.9400000000001</ele>
        <time>2016-07-30T12:52:39Z</time>
      </trkpt>
      <trkpt lat="46.149824028834701" lon="7.970943991094828">
        <ele>2951.3800000000001</ele>
        <time>2016-07-30T12:52:45Z</time>
      </trkpt>
      <trkpt lat="46.149804415181279" lon="7.970937453210354">
        <ele>2951.3800000000001</ele>
        <time>2016-07-30T12:53:00Z</time>
      </trkpt>
      <trkpt lat="46.149784969165921" lon="7.970913732424378">
        <ele>2952.8299999999999</ele>
        <time>2016-07-30T12:53:10Z</time>
      </trkpt>
      <trkpt lat="46.149747921153903" lon="7.970890682190657">
        <ele>2954.75</ele>
        <time>2016-07-30T12:53:20Z</time>
      </trkpt>
      <trkpt lat="46.149760410189629" lon="7.970833852887154">
        <ele>2956.1900000000001</ele>
        <time>2016-07-30T12:53:30Z</time>
      </trkpt>
      <trkpt lat="46.149750435724854" lon="7.970812562853098">
        <ele>2957.1500000000001</ele>
        <time>2016-07-30T12:53:41Z</time>
      </trkpt>
      <trkpt lat="46.149778179824352" lon="7.970789428800345">
        <ele>2957.6300000000001</ele>
        <time>2016-07-30T12:53:56Z</time>
      </trkpt>
      <trkpt lat="46.149763846769929" lon="7.970771910622716">
        <ele>2957.6300000000001</ele>
        <time>2016-07-30T12:54:15Z</time>
      </trkpt>
      <trkpt lat="46.149759655818343" lon="7.970783226191998">
        <ele>2958.5900000000001</ele>
        <time>2016-07-30T12:54:29Z</time>
      </trkpt>
      <trkpt lat="46.149700898677111" lon="7.970759253948927">
        <ele>2961</ele>
        <time>2016-07-30T12:54:41Z</time>
      </trkpt>
      <trkpt lat="46.149684302508831" lon="7.970725391060114">
        <ele>2963.8800000000001</ele>
        <time>2016-07-30T12:54:49Z</time>
      </trkpt>
      <trkpt lat="46.1496617551893" lon="7.970694629475474">
        <ele>2962.9200000000001</ele>
        <time>2016-07-30T12:55:01Z</time>
      </trkpt>
      <trkpt lat="46.149650774896145" lon="7.970693288370967">
        <ele>2962.9200000000001</ele>
        <time>2016-07-30T12:55:18Z</time>
      </trkpt>
      <trkpt lat="46.149681536480784" lon="7.970698568969965">
        <ele>2963.4000000000001</ele>
        <time>2016-07-30T12:55:35Z</time>
      </trkpt>
      <trkpt lat="46.149664856493473" lon="7.97069194726646">
        <ele>2963.8800000000001</ele>
        <time>2016-07-30T12:55:48Z</time>
      </trkpt>
      <trkpt lat="46.149685140699148" lon="7.970715500414372">
        <ele>2964.3600000000001</ele>
        <time>2016-07-30T12:56:08Z</time>
      </trkpt>
      <trkpt lat="46.149725625291467" lon="7.97070762142539">
        <ele>2964.3600000000001</ele>
        <time>2016-07-30T12:56:31Z</time>
      </trkpt>
      <trkpt lat="46.149712046608329" lon="7.970695300027728">
        <ele>2964.3600000000001</ele>
        <time>2016-07-30T12:56:47Z</time>
      </trkpt>
      <trkpt lat="46.149690421298146" lon="7.970714243128896">
        <ele>2964.8400000000001</ele>
        <time>2016-07-30T12:57:03Z</time>
      </trkpt>
      <trkpt lat="46.149687739089131" lon="7.970709716901183">
        <ele>2964.8400000000001</ele>
        <time>2016-07-30T12:57:20Z</time>
      </trkpt>
      <trkpt lat="46.149708023294806" lon="7.970711644738913">
        <ele>2965.8000000000002</ele>
        <time>2016-07-30T12:57:40Z</time>
      </trkpt>
      <trkpt lat="46.149734845384955" lon="7.970736790448427">
        <ele>2966.29</ele>
        <time>2016-07-30T12:58:03Z</time>
      </trkpt>
      <trkpt lat="46.149693103507161" lon="7.970671663060784">
        <ele>2966.29</ele>
        <time>2016-07-30T12:58:18Z</time>
      </trkpt>
      <trkpt lat="46.149711543694139" lon="7.970637297257781">
        <ele>2967.25</ele>
        <time>2016-07-30T12:58:32Z</time>
      </trkpt>
      <trkpt lat="46.149748507887125" lon="7.970607625320554">
        <ele>2970.1300000000001</ele>
        <time>2016-07-30T12:58:46Z</time>
      </trkpt>
      <trkpt lat="46.149774827063084" lon="7.970592621713877">
        <ele>2972.0500000000002</ele>
        <time>2016-07-30T12:58:57Z</time>
      </trkpt>
      <trkpt lat="46.149757895618677" lon="7.970564626157284">
        <ele>2973.5</ele>
        <time>2016-07-30T12:59:09Z</time>
      </trkpt>
      <trkpt lat="46.149749178439379" lon="7.970531350001693">
        <ele>2975.4200000000001</ele>
        <time>2016-07-30T12:59:20Z</time>
      </trkpt>
      <trkpt lat="46.149793434888124" lon="7.970557501539588">
        <ele>2976.3800000000001</ele>
        <time>2016-07-30T12:59:29Z</time>
      </trkpt>
      <trkpt lat="46.149796117097139" lon="7.970559597015381">
        <ele>2975.9000000000001</ele>
        <time>2016-07-30T12:59:30Z</time>
      </trkpt>
      <trkpt lat="46.149842301383615" lon="7.970536798238754">
        <ele>2977.3400000000001</ele>
        <time>2016-07-30T12:59:38Z</time>
      </trkpt>
      <trkpt lat="46.149853868409991" lon="7.970500253140926">
        <ele>2978.7800000000002</ele>
        <time>2016-07-30T12:59:49Z</time>
      </trkpt>
      <trkpt lat="46.149856885895133" lon="7.970472760498524">
        <ele>2980.2199999999998</ele>
        <time>2016-07-30T12:59:59Z</time>
      </trkpt>
      <trkpt lat="46.149867195636034" lon="7.970459768548608">
        <ele>2980.2199999999998</ele>
        <time>2016-07-30T13:00:11Z</time>
      </trkpt>
      <trkpt lat="46.149889910593629" lon="7.970454068854451">
        <ele>2980.71</ele>
        <time>2016-07-30T13:00:24Z</time>
      </trkpt>
      <trkpt lat="46.149871638044715" lon="7.970430850982666">
        <ele>2982.1500000000001</ele>
        <time>2016-07-30T13:00:27Z</time>
      </trkpt>
      <trkpt lat="46.149898879230022" lon="7.970402939245105">
        <ele>2984.5500000000002</ele>
        <time>2016-07-30T13:00:37Z</time>
      </trkpt>
      <trkpt lat="46.149932071566582" lon="7.970379972830415">
        <ele>2985.9899999999998</ele>
        <time>2016-07-30T13:00:48Z</time>
      </trkpt>
      <trkpt lat="46.149948164820671" lon="7.970346193760634">
        <ele>2987.9099999999999</ele>
        <time>2016-07-30T13:01:00Z</time>
      </trkpt>
      <trkpt lat="46.149968449026346" lon="7.97032356262207">
        <ele>2988.8800000000001</ele>
        <time>2016-07-30T13:01:09Z</time>
      </trkpt>
      <trkpt lat="46.149937771260738" lon="7.970330268144608">
        <ele>2989.8400000000001</ele>
        <time>2016-07-30T13:01:18Z</time>
      </trkpt>
      <trkpt lat="46.149945985525846" lon="7.970299841836095">
        <ele>2991.7600000000002</ele>
        <time>2016-07-30T13:01:27Z</time>
      </trkpt>
      <trkpt lat="46.149982362985611" lon="7.970267655327916">
        <ele>2993.1999999999998</ele>
        <time>2016-07-30T13:01:39Z</time>
      </trkpt>
      <trkpt lat="46.149998540058732" lon="7.970217783004046">
        <ele>2994.6399999999999</ele>
        <time>2016-07-30T13:01:51Z</time>
      </trkpt>
      <trkpt lat="46.149998540058732" lon="7.970186183229089">
        <ele>2995.5999999999999</ele>
        <time>2016-07-30T13:02:02Z</time>
      </trkpt>
      <trkpt lat="46.150026703253388" lon="7.97018576413393">
        <ele>2997.5300000000002</ele>
        <time>2016-07-30T13:02:11Z</time>
      </trkpt>
      <trkpt lat="46.150046149268746" lon="7.97018232755363">
        <ele>2998.0100000000002</ele>
        <time>2016-07-30T13:02:20Z</time>
      </trkpt>
      <trkpt lat="46.150043299421668" lon="7.970167575404048">
        <ele>2998.9699999999998</ele>
        <time>2016-07-30T13:02:31Z</time>
      </trkpt>
      <trkpt lat="46.150057800114155" lon="7.970153158530593">
        <ele>3000.8899999999999</ele>
        <time>2016-07-30T13:02:43Z</time>
      </trkpt>
      <trkpt lat="46.150071127340198" lon="7.97013932839036">
        <ele>3002.8200000000002</ele>
        <time>2016-07-30T13:02:54Z</time>
      </trkpt>
      <trkpt lat="46.150063332170248" lon="7.970103872939944">
        <ele>3002.3299999999999</ele>
        <time>2016-07-30T13:03:05Z</time>
      </trkpt>
      <trkpt lat="46.150051513686776" lon="7.970086270943284">
        <ele>3004.2600000000002</ele>
        <time>2016-07-30T13:03:18Z</time>
      </trkpt>
      <trkpt lat="46.150052016600966" lon="7.970070848241448">
        <ele>3005.2199999999998</ele>
        <time>2016-07-30T13:03:29Z</time>
      </trkpt>
      <trkpt lat="46.150059644132853" lon="7.970029525458813">
        <ele>3007.1399999999999</ele>
        <time>2016-07-30T13:03:39Z</time>
      </trkpt>
      <trkpt lat="46.150057716295123" lon="7.97003866173327">
        <ele>3007.1399999999999</ele>
        <time>2016-07-30T13:03:49Z</time>
      </trkpt>
      <trkpt lat="46.150047825649381" lon="7.970035476610065">
        <ele>3006.1799999999998</ele>
        <time>2016-07-30T13:04:06Z</time>
      </trkpt>
      <trkpt lat="46.150060566142201" lon="7.970033716410399">
        <ele>3007.6199999999999</ele>
        <time>2016-07-30T13:04:14Z</time>
      </trkpt>
      <trkpt lat="46.150084035471082" lon="7.970030950382352">
        <ele>3007.6199999999999</ele>
        <time>2016-07-30T13:04:35Z</time>
      </trkpt>
      <trkpt lat="46.150092585012317" lon="7.970011672005057">
        <ele>3009.0599999999999</ele>
        <time>2016-07-30T13:04:46Z</time>
      </trkpt>
      <trkpt lat="46.150084538385272" lon="7.970008570700884">
        <ele>3010.0300000000002</ele>
        <time>2016-07-30T13:04:56Z</time>
      </trkpt>
      <trkpt lat="46.150076491758227" lon="7.969998177140951">
        <ele>3011.4699999999998</ele>
        <time>2016-07-30T13:05:05Z</time>
      </trkpt>
      <trkpt lat="46.150060398504138" lon="7.969975713640451">
        <ele>3014.3499999999999</ele>
        <time>2016-07-30T13:05:16Z</time>
      </trkpt>
      <trkpt lat="46.150048580020666" lon="7.969936486333609">
        <ele>3016.75</ele>
        <time>2016-07-30T13:05:26Z</time>
      </trkpt>
      <trkpt lat="46.150014298036695" lon="7.96990480273962">
        <ele>3019.1599999999999</ele>
        <time>2016-07-30T13:05:36Z</time>
      </trkpt>
      <trkpt lat="46.150028379634023" lon="7.96986909583211">
        <ele>3019.6399999999999</ele>
        <time>2016-07-30T13:05:48Z</time>
      </trkpt>
      <trkpt lat="46.150024607777596" lon="7.969862306490541">
        <ele>3020.1199999999999</ele>
        <time>2016-07-30T13:05:50Z</time>
      </trkpt>
      <trkpt lat="46.149999210610986" lon="7.969857361167669">
        <ele>3021.0799999999999</ele>
        <time>2016-07-30T13:05:59Z</time>
      </trkpt>
      <trkpt lat="46.149977752938867" lon="7.969853421673179">
        <ele>3021.5599999999999</ele>
        <time>2016-07-30T13:06:09Z</time>
      </trkpt>
      <trkpt lat="46.149985380470753" lon="7.96983347274363">
        <ele>3020.5999999999999</ele>
        <time>2016-07-30T13:06:14Z</time>
      </trkpt>
      <trkpt lat="46.150036090984941" lon="7.969820313155651">
        <ele>3020.5999999999999</ele>
        <time>2016-07-30T13:06:36Z</time>
      </trkpt>
      <trkpt lat="46.150000970810652" lon="7.969798101112247">
        <ele>3020.5999999999999</ele>
        <time>2016-07-30T13:06:58Z</time>
      </trkpt>
      <trkpt lat="46.149967443197966" lon="7.969849985092878">
        <ele>3020.5999999999999</ele>
        <time>2016-07-30T13:07:07Z</time>
      </trkpt>
      <trkpt lat="46.149989403784275" lon="7.969837998971343">
        <ele>3021.0799999999999</ele>
        <time>2016-07-30T13:07:17Z</time>
      </trkpt>
      <trkpt lat="46.15002678707242" lon="7.969874376431108">
        <ele>3021.0799999999999</ele>
        <time>2016-07-30T13:07:34Z</time>
      </trkpt>
      <trkpt lat="46.150020333006978" lon="7.9698471352458">
        <ele>3021.0799999999999</ele>
        <time>2016-07-30T13:07:49Z</time>
      </trkpt>
      <trkpt lat="46.150047993287444" lon="7.969802040606737">
        <ele>3022.04</ele>
        <time>2016-07-30T13:08:02Z</time>
      </trkpt>
      <trkpt lat="46.150013208389282" lon="7.969799609854817">
        <ele>3023</ele>
        <time>2016-07-30T13:08:13Z</time>
      </trkpt>
      <trkpt lat="46.150017399340868" lon="7.969754263758659">
        <ele>3024.4400000000001</ele>
        <time>2016-07-30T13:08:21Z</time>
      </trkpt>
      <trkpt lat="46.150030475109816" lon="7.969696931540966">
        <ele>3027.8099999999999</ele>
        <time>2016-07-30T13:08:31Z</time>
      </trkpt>
      <trkpt lat="46.150016225874424" lon="7.969653429463506">
        <ele>3030.21</ele>
        <time>2016-07-30T13:08:42Z</time>
      </trkpt>
      <trkpt lat="46.14996082149446" lon="7.969599952921271">
        <ele>3031.1700000000001</ele>
        <time>2016-07-30T13:08:51Z</time>
      </trkpt>
      <trkpt lat="46.149947661906481" lon="7.969593163579702">
        <ele>3031.1700000000001</ele>
        <time>2016-07-30T13:08:54Z</time>
      </trkpt>
      <trkpt lat="46.149922935292125" lon="7.969578914344311">
        <ele>3031.6599999999999</ele>
        <time>2016-07-30T13:09:02Z</time>
      </trkpt>
      <trkpt lat="46.149914301931858" lon="7.9695984441787">
        <ele>3031.1700000000001</ele>
        <time>2016-07-30T13:09:29Z</time>
      </trkpt>
      <trkpt lat="46.149930730462074" lon="7.969572963193059">
        <ele>3033.0999999999999</ele>
        <time>2016-07-30T13:09:42Z</time>
      </trkpt>
      <trkpt lat="46.149987811222672" lon="7.969555612653494">
        <ele>3033.0999999999999</ele>
        <time>2016-07-30T13:09:51Z</time>
      </trkpt>
      <trkpt lat="46.149989990517497" lon="7.96951144002378">
        <ele>3034.54</ele>
        <time>2016-07-30T13:10:00Z</time>
      </trkpt>
      <trkpt lat="46.149989822879434" lon="7.969484031200409">
        <ele>3037.4200000000001</ele>
        <time>2016-07-30T13:10:10Z</time>
      </trkpt>
      <trkpt lat="46.150025613605976" lon="7.969439690932632">
        <ele>3038.8600000000001</ele>
        <time>2016-07-30T13:10:20Z</time>
      </trkpt>
      <trkpt lat="46.150064840912819" lon="7.969486964866519">
        <ele>3038.8600000000001</ele>
        <time>2016-07-30T13:10:32Z</time>
      </trkpt>
      <trkpt lat="46.150084706023335" lon="7.969444468617439">
        <ele>3039.3499999999999</ele>
        <time>2016-07-30T13:10:43Z</time>
      </trkpt>
      <trkpt lat="46.150144971907139" lon="7.969399709254503">
        <ele>3042.23</ele>
        <time>2016-07-30T13:10:59Z</time>
      </trkpt>
      <trkpt lat="46.150153940543532" lon="7.969299796968699">
        <ele>3045.5900000000001</ele>
        <time>2016-07-30T13:11:13Z</time>
      </trkpt>
      <trkpt lat="46.150178667157888" lon="7.969231316819787">
        <ele>3047.52</ele>
        <time>2016-07-30T13:11:30Z</time>
      </trkpt>
      <trkpt lat="46.150170620530844" lon="7.969197118654847">
        <ele>3046.5599999999999</ele>
        <time>2016-07-30T13:11:49Z</time>
      </trkpt>
      <trkpt lat="46.150142624974251" lon="7.969114137813449">
        <ele>3049.9200000000001</ele>
        <time>2016-07-30T13:12:02Z</time>
      </trkpt>
      <trkpt lat="46.150129716843367" lon="7.9690873157233">
        <ele>3051.3600000000001</ele>
        <time>2016-07-30T13:12:07Z</time>
      </trkpt>
      <trkpt lat="46.150158131495118" lon="7.96907507814467">
        <ele>3055.21</ele>
        <time>2016-07-30T13:12:25Z</time>
      </trkpt>
      <trkpt lat="46.150156203657389" lon="7.969076335430145">
        <ele>3055.21</ele>
        <time>2016-07-30T13:12:26Z</time>
      </trkpt>
      <trkpt lat="46.150144720450044" lon="7.969020428135991">
        <ele>3055.21</ele>
        <time>2016-07-30T13:12:42Z</time>
      </trkpt>
      <trkpt lat="46.150150252506137" lon="7.968971394002438">
        <ele>3057.1300000000001</ele>
        <time>2016-07-30T13:12:56Z</time>
      </trkpt>
      <trkpt lat="46.150147067382932" lon="7.969012632966042">
        <ele>3056.6500000000001</ele>
        <time>2016-07-30T13:13:10Z</time>
      </trkpt>
      <trkpt lat="46.150157041847706" lon="7.969013974070549">
        <ele>3054.25</ele>
        <time>2016-07-30T13:13:18Z</time>
      </trkpt>
      <trkpt lat="46.150163998827338" lon="7.969001652672887">
        <ele>3053.77</ele>
        <time>2016-07-30T13:13:38Z</time>
      </trkpt>
      <trkpt lat="46.150154527276754" lon="7.96900768764317">
        <ele>3054.73</ele>
        <time>2016-07-30T13:13:56Z</time>
      </trkpt>
      <trkpt lat="46.150138350203633" lon="7.969006346538663">
        <ele>3053.77</ele>
        <time>2016-07-30T13:14:08Z</time>
      </trkpt>
      <trkpt lat="46.150144468992949" lon="7.968993522226811">
        <ele>3053.77</ele>
        <time>2016-07-30T13:14:24Z</time>
      </trkpt>
      <trkpt lat="46.150136170908809" lon="7.968997126445174">
        <ele>3054.25</ele>
        <time>2016-07-30T13:14:37Z</time>
      </trkpt>
      <trkpt lat="46.150139272212982" lon="7.969001233577728">
        <ele>3053.2800000000002</ele>
        <time>2016-07-30T13:14:55Z</time>
      </trkpt>
      <trkpt lat="46.150142960250378" lon="7.968985307961702">
        <ele>3053.2800000000002</ele>
        <time>2016-07-30T13:15:11Z</time>
      </trkpt>
      <trkpt lat="46.150138936936855" lon="7.968987319618464">
        <ele>3055.21</ele>
        <time>2016-07-30T13:15:27Z</time>
      </trkpt>
      <trkpt lat="46.150133069604635" lon="7.968997545540333">
        <ele>3054.25</ele>
        <time>2016-07-30T13:15:44Z</time>
      </trkpt>
      <trkpt lat="46.150144468992949" lon="7.969010872766376">
        <ele>3053.2800000000002</ele>
        <time>2016-07-30T13:16:03Z</time>
      </trkpt>
      <trkpt lat="46.15015871822834" lon="7.968979943543673">
        <ele>3053.77</ele>
        <time>2016-07-30T13:16:17Z</time>
      </trkpt>
      <trkpt lat="46.150159472599626" lon="7.968992097303271">
        <ele>3054.25</ele>
        <time>2016-07-30T13:16:32Z</time>
      </trkpt>
      <trkpt lat="46.150144804269075" lon="7.969006597995758">
        <ele>3053.77</ele>
        <time>2016-07-30T13:16:49Z</time>
      </trkpt>
      <trkpt lat="46.150149162858725" lon="7.969022020697594">
        <ele>3054.25</ele>
        <time>2016-07-30T13:17:17Z</time>
      </trkpt>
      <trkpt lat="46.15014991723001" lon="7.969008106738329">
        <ele>3055.21</ele>
        <time>2016-07-30T13:17:41Z</time>
      </trkpt>
      <trkpt lat="46.150161232799292" lon="7.969024451449513">
        <ele>3055.21</ele>
        <time>2016-07-30T13:18:00Z</time>
      </trkpt>
      <trkpt lat="46.150159472599626" lon="7.969025792554021">
        <ele>3053.77</ele>
        <time>2016-07-30T13:18:04Z</time>
      </trkpt>
      <trkpt lat="46.150152264162898" lon="7.969000646844506">
        <ele>3052.3200000000002</ele>
        <time>2016-07-30T13:18:25Z</time>
      </trkpt>
      <trkpt lat="46.150148743763566" lon="7.969015398994088">
        <ele>3052.8000000000002</ele>
        <time>2016-07-30T13:18:46Z</time>
      </trkpt>
      <trkpt lat="46.15014455281198" lon="7.969002826139331">
        <ele>3053.77</ele>
        <time>2016-07-30T13:19:08Z</time>
      </trkpt>
      <trkpt lat="46.15014455281198" lon="7.969017326831818">
        <ele>3053.77</ele>
        <time>2016-07-30T13:19:30Z</time>
      </trkpt>
      <trkpt lat="46.150149330496788" lon="7.969018751755357">
        <ele>3054.73</ele>
        <time>2016-07-30T13:19:54Z</time>
      </trkpt>
      <trkpt lat="46.150145474821329" lon="7.969013974070549">
        <ele>3055.21</ele>
        <time>2016-07-30T13:20:18Z</time>
      </trkpt>
      <trkpt lat="46.150140780955553" lon="7.969016488641501">
        <ele>3055.21</ele>
        <time>2016-07-30T13:20:47Z</time>
      </trkpt>
      <trkpt lat="46.150137931108475" lon="7.969007855281234">
        <ele>3054.73</ele>
        <time>2016-07-30T13:21:14Z</time>
      </trkpt>
      <trkpt lat="46.150137512013316" lon="7.969012800604105">
        <ele>3056.1700000000001</ele>
        <time>2016-07-30T13:21:29Z</time>
      </trkpt>
      <trkpt lat="46.150139607489109" lon="7.969022355973721">
        <ele>3055.21</ele>
        <time>2016-07-30T13:21:50Z</time>
      </trkpt>
      <trkpt lat="46.150133237242699" lon="7.969003077596426">
        <ele>3055.6900000000001</ele>
        <time>2016-07-30T13:22:12Z</time>
      </trkpt>
      <trkpt lat="46.150125944986939" lon="7.969014644622803">
        <ele>3056.1700000000001</ele>
        <time>2016-07-30T13:22:29Z</time>
      </trkpt>
      <trkpt lat="46.150113875046372" lon="7.969031073153019">
        <ele>3056.1700000000001</ele>
        <time>2016-07-30T13:22:50Z</time>
      </trkpt>
      <trkpt lat="46.150130052119493" lon="7.969030905514956">
        <ele>3056.1700000000001</ele>
        <time>2016-07-30T13:23:12Z</time>
      </trkpt>
      <trkpt lat="46.150136003270745" lon="7.969008525833488">
        <ele>3056.6500000000001</ele>
        <time>2016-07-30T13:23:31Z</time>
      </trkpt>
      <trkpt lat="46.150122927501798" lon="7.969027468934655">
        <ele>3056.6500000000001</ele>
        <time>2016-07-30T13:23:46Z</time>
      </trkpt>
      <trkpt lat="46.150156958028674" lon="7.969002155587077">
        <ele>3057.1300000000001</ele>
        <time>2016-07-30T13:23:57Z</time>
      </trkpt>
      <trkpt lat="46.150156958028674" lon="7.968994108960033">
        <ele>3056.6500000000001</ele>
        <time>2016-07-30T13:24:16Z</time>
      </trkpt>
      <trkpt lat="46.150169530883431" lon="7.969040712341666">
        <ele>3056.6500000000001</ele>
        <time>2016-07-30T13:24:25Z</time>
      </trkpt>
      <trkpt lat="46.150173973292112" lon="7.969026295468211">
        <ele>3058.0900000000001</ele>
        <time>2016-07-30T13:24:35Z</time>
      </trkpt>
      <trkpt lat="46.150172129273415" lon="7.969017075374723">
        <ele>3057.6100000000001</ele>
        <time>2016-07-30T13:24:41Z</time>
      </trkpt>
      <trkpt lat="46.15020071156323" lon="7.969011208042502">
        <ele>3057.6100000000001</ele>
        <time>2016-07-30T13:24:47Z</time>
      </trkpt>
      <trkpt lat="46.150210686028004" lon="7.968997210264206">
        <ele>3058.5700000000002</ele>
        <time>2016-07-30T13:24:55Z</time>
      </trkpt>
      <trkpt lat="46.150218900293112" lon="7.968992600217462">
        <ele>3059.5300000000002</ele>
        <time>2016-07-30T13:25:04Z</time>
      </trkpt>
      <trkpt lat="46.150234909728169" lon="7.968983463943005">
        <ele>3060.0100000000002</ele>
        <time>2016-07-30T13:25:14Z</time>
      </trkpt>
      <trkpt lat="46.150254774838686" lon="7.968990923836827">
        <ele>3060.0100000000002</ele>
        <time>2016-07-30T13:25:26Z</time>
      </trkpt>
      <trkpt lat="46.150259636342525" lon="7.968951696529985">
        <ele>3060.0100000000002</ele>
        <time>2016-07-30T13:25:35Z</time>
      </trkpt>
      <trkpt lat="46.150292744860053" lon="7.96897248364985">
        <ele>3061.46</ele>
        <time>2016-07-30T13:25:44Z</time>
      </trkpt>
      <trkpt lat="46.150292996317148" lon="7.968991259112954">
        <ele>3061.46</ele>
        <time>2016-07-30T13:25:47Z</time>
      </trkpt>
      <trkpt lat="46.150298612192273" lon="7.968987906351686">
        <ele>3062.4200000000001</ele>
        <time>2016-07-30T13:25:57Z</time>
      </trkpt>
      <trkpt lat="46.15028670988977" lon="7.968972148373723">
        <ele>3062.4200000000001</ele>
        <time>2016-07-30T13:26:10Z</time>
      </trkpt>
      <trkpt lat="46.150313448160887" lon="7.968943063169718">
        <ele>3063.3800000000001</ele>
        <time>2016-07-30T13:26:18Z</time>
      </trkpt>
      <trkpt lat="46.150315962731838" lon="7.968974662944675">
        <ele>3063.8600000000001</ele>
        <time>2016-07-30T13:26:30Z</time>
      </trkpt>
      <trkpt lat="46.150302970781922" lon="7.968993438407779">
        <ele>3063.3800000000001</ele>
        <time>2016-07-30T13:26:45Z</time>
      </trkpt>
      <trkpt lat="46.150302216410637" lon="7.969009783118963">
        <ele>3062.9000000000001</ele>
        <time>2016-07-30T13:26:56Z</time>
      </trkpt>
      <trkpt lat="46.15027547813952" lon="7.969018835574389">
        <ele>3061.46</ele>
        <time>2016-07-30T13:27:07Z</time>
      </trkpt>
      <trkpt lat="46.150266509503126" lon="7.96898128464818">
        <ele>3061.46</ele>
        <time>2016-07-30T13:27:15Z</time>
      </trkpt>
      <trkpt lat="46.150264162570238" lon="7.968947337940335">
        <ele>3061.46</ele>
        <time>2016-07-30T13:27:23Z</time>
      </trkpt>
      <trkpt lat="46.150245554745197" lon="7.968936860561371">
        <ele>3060.98</ele>
        <time>2016-07-30T13:27:32Z</time>
      </trkpt>
      <trkpt lat="46.150208842009306" lon="7.968933172523975">
        <ele>3060.0100000000002</ele>
        <time>2016-07-30T13:27:41Z</time>
      </trkpt>
      <trkpt lat="46.150209344923496" lon="7.968887491151691">
        <ele>3060.0100000000002</ele>
        <time>2016-07-30T13:27:54Z</time>
      </trkpt>
      <trkpt lat="46.150188641622663" lon="7.968893107026815">
        <ele>3059.5300000000002</ele>
        <time>2016-07-30T13:28:02Z</time>
      </trkpt>
      <trkpt lat="46.150170955806971" lon="7.968881791457534">
        <ele>3058.5700000000002</ele>
        <time>2016-07-30T13:28:14Z</time>
      </trkpt>
      <trkpt lat="46.150187468156219" lon="7.96888455748558">
        <ele>3059.0500000000002</ele>
        <time>2016-07-30T13:28:24Z</time>
      </trkpt>
      <trkpt lat="46.150171961635351" lon="7.968895453959703">
        <ele>3057.6100000000001</ele>
        <time>2016-07-30T13:28:36Z</time>
      </trkpt>
      <trkpt lat="46.150182103738189" lon="7.968899477273226">
        <ele>3057.6100000000001</ele>
        <time>2016-07-30T13:28:43Z</time>
      </trkpt>
      <trkpt lat="46.150143127888441" lon="7.968926969915628">
        <ele>3057.1300000000001</ele>
        <time>2016-07-30T13:28:51Z</time>
      </trkpt>
      <trkpt lat="46.15016165189445" lon="7.968971729278565">
        <ele>3058.0900000000001</ele>
        <time>2016-07-30T13:28:59Z</time>
      </trkpt>
      <trkpt lat="46.150145307183266" lon="7.969017745926976">
        <ele>3058.0900000000001</ele>
        <time>2016-07-30T13:29:08Z</time>
      </trkpt>
      <trkpt lat="46.150158382952213" lon="7.969056135043502">
        <ele>3057.6100000000001</ele>
        <time>2016-07-30T13:29:17Z</time>
      </trkpt>
      <trkpt lat="46.150147402659059" lon="7.969075413420796">
        <ele>3056.6500000000001</ele>
        <time>2016-07-30T13:29:25Z</time>
      </trkpt>
      <trkpt lat="46.150168525055051" lon="7.969116065651178">
        <ele>3055.21</ele>
        <time>2016-07-30T13:29:35Z</time>
      </trkpt>
      <trkpt lat="46.150150084868073" lon="7.969139870256186">
        <ele>3054.25</ele>
        <time>2016-07-30T13:29:45Z</time>
      </trkpt>
      <trkpt lat="46.150156119838357" lon="7.969177588820458">
        <ele>3053.2800000000002</ele>
        <time>2016-07-30T13:29:56Z</time>
      </trkpt>
      <trkpt lat="46.15015821531415" lon="7.96922167763114">
        <ele>3052.3200000000002</ele>
        <time>2016-07-30T13:30:03Z</time>
      </trkpt>
      <trkpt lat="46.150160059332848" lon="7.969296779483557">
        <ele>3050.8800000000001</ele>
        <time>2016-07-30T13:30:11Z</time>
      </trkpt>
      <trkpt lat="46.150138853117824" lon="7.969374228268862">
        <ele>3048.96</ele>
        <time>2016-07-30T13:30:20Z</time>
      </trkpt>
      <trkpt lat="46.150136087089777" lon="7.969447821378708">
        <ele>3047.04</ele>
        <time>2016-07-30T13:30:30Z</time>
      </trkpt>
      <trkpt lat="46.150109767913818" lon="7.969446647912264">
        <ele>3046.0700000000002</ele>
        <time>2016-07-30T13:30:33Z</time>
      </trkpt>
      <trkpt lat="46.150092501193285" lon="7.969432398676872">
        <ele>3047.52</ele>
        <time>2016-07-30T13:30:41Z</time>
      </trkpt>
      <trkpt lat="46.15012401714921" lon="7.969456957653165">
        <ele>3046.0700000000002</ele>
        <time>2016-07-30T13:30:52Z</time>
      </trkpt>
      <trkpt lat="46.150086298584938" lon="7.969463830813766">
        <ele>3045.5900000000001</ele>
        <time>2016-07-30T13:31:03Z</time>
      </trkpt>
      <trkpt lat="46.150063332170248" lon="7.969475733116269">
        <ele>3045.1100000000001</ele>
        <time>2016-07-30T13:31:13Z</time>
      </trkpt>
      <trkpt lat="46.150050926953554" lon="7.969450671225786">
        <ele>3045.1100000000001</ele>
        <time>2016-07-30T13:31:22Z</time>
      </trkpt>
      <trkpt lat="46.150072384625673" lon="7.969463746994734">
        <ele>3045.1100000000001</ele>
        <time>2016-07-30T13:31:41Z</time>
      </trkpt>
      <trkpt lat="46.150068109855056" lon="7.969470117241144">
        <ele>3044.6300000000001</ele>
        <time>2016-07-30T13:31:51Z</time>
      </trkpt>
      <trkpt lat="46.150061991065741" lon="7.96946651302278">
        <ele>3044.6300000000001</ele>
        <time>2016-07-30T13:32:02Z</time>
      </trkpt>
      <trkpt lat="46.150059057399631" lon="7.969472464174032">
        <ele>3044.6300000000001</ele>
        <time>2016-07-30T13:32:14Z</time>
      </trkpt>
      <trkpt lat="46.150033492594957" lon="7.969496436417103">
        <ele>3044.1500000000001</ele>
        <time>2016-07-30T13:32:26Z</time>
      </trkpt>
      <trkpt lat="46.150014968588948" lon="7.969522085040808">
        <ele>3042.71</ele>
        <time>2016-07-30T13:32:36Z</time>
      </trkpt>
      <trkpt lat="46.150022512301803" lon="7.969519067555666">
        <ele>3042.71</ele>
        <time>2016-07-30T13:32:49Z</time>
      </trkpt>
      <trkpt lat="46.150024188682437" lon="7.969528958201408">
        <ele>3042.23</ele>
        <time>2016-07-30T13:33:00Z</time>
      </trkpt>
      <trkpt lat="46.150028211995959" lon="7.969515630975366">
        <ele>3042.71</ele>
        <time>2016-07-30T13:33:18Z</time>
      </trkpt>
      <trkpt lat="46.150031480938196" lon="7.969527198001742">
        <ele>3042.71</ele>
        <time>2016-07-30T13:33:31Z</time>
      </trkpt>
      <trkpt lat="46.150031900033355" lon="7.969532227143645">
        <ele>3043.1900000000001</ele>
        <time>2016-07-30T13:33:43Z</time>
      </trkpt>
      <trkpt lat="46.150042461231351" lon="7.969556367024779">
        <ele>3042.23</ele>
        <time>2016-07-30T13:33:56Z</time>
      </trkpt>
      <trkpt lat="46.15002335049212" lon="7.969576064497232">
        <ele>3040.3099999999999</ele>
        <time>2016-07-30T13:34:01Z</time>
      </trkpt>
      <trkpt lat="46.149992002174258" lon="7.969603892415762">
        <ele>3038.8600000000001</ele>
        <time>2016-07-30T13:34:08Z</time>
      </trkpt>
      <trkpt lat="46.150039359927177" lon="7.969674803316593">
        <ele>3036.9400000000001</ele>
        <time>2016-07-30T13:34:17Z</time>
      </trkpt>
      <trkpt lat="46.150053357705474" lon="7.969699110835791">
        <ele>3035.02</ele>
        <time>2016-07-30T13:34:26Z</time>
      </trkpt>
      <trkpt lat="46.15004581399262" lon="7.969744708389044">
        <ele>3034.54</ele>
        <time>2016-07-30T13:34:35Z</time>
      </trkpt>
      <trkpt lat="46.150035755708814" lon="7.969773709774017">
        <ele>3032.6199999999999</ele>
        <time>2016-07-30T13:34:45Z</time>
      </trkpt>
      <trkpt lat="46.150033744052052" lon="7.969813020899892">
        <ele>3030.6900000000001</ele>
        <time>2016-07-30T13:34:56Z</time>
      </trkpt>
      <trkpt lat="46.150030307471752" lon="7.969825593754649">
        <ele>3030.21</ele>
        <time>2016-07-30T13:35:05Z</time>
      </trkpt>
      <trkpt lat="46.150020752102137" lon="7.969859372824431">
        <ele>3028.77</ele>
        <time>2016-07-30T13:35:12Z</time>
      </trkpt>
      <trkpt lat="46.150050926953554" lon="7.969873454421759">
        <ele>3027.3299999999999</ele>
        <time>2016-07-30T13:35:22Z</time>
      </trkpt>
      <trkpt lat="46.150069618597627" lon="7.96990136615932">
        <ele>3026.3699999999999</ele>
        <time>2016-07-30T13:35:31Z</time>
      </trkpt>
      <trkpt lat="46.150068277493119" lon="7.969905138015747">
        <ele>3025.8899999999999</ele>
        <time>2016-07-30T13:35:40Z</time>
      </trkpt>
      <trkpt lat="46.150067104026675" lon="7.969926176592708">
        <ele>3024.4400000000001</ele>
        <time>2016-07-30T13:35:51Z</time>
      </trkpt>
      <trkpt lat="46.150074228644371" lon="7.969914274290204">
        <ele>3024.4400000000001</ele>
        <time>2016-07-30T13:36:06Z</time>
      </trkpt>
      <trkpt lat="46.15006098523736" lon="7.969925925135613">
        <ele>3023.96</ele>
        <time>2016-07-30T13:36:14Z</time>
      </trkpt>
      <trkpt lat="46.150061823427677" lon="7.969942018389702">
        <ele>3023.48</ele>
        <time>2016-07-30T13:36:25Z</time>
      </trkpt>
      <trkpt lat="46.150063332170248" lon="7.969948388636112">
        <ele>3023.48</ele>
        <time>2016-07-30T13:36:33Z</time>
      </trkpt>
      <trkpt lat="46.150074396282434" lon="7.969942186027765">
        <ele>3023.96</ele>
        <time>2016-07-30T13:36:45Z</time>
      </trkpt>
      <trkpt lat="46.150065846741199" lon="7.969966493546963">
        <ele>3022.52</ele>
        <time>2016-07-30T13:36:55Z</time>
      </trkpt>
      <trkpt lat="46.150063583627343" lon="7.969997590407729">
        <ele>3021.5599999999999</ele>
        <time>2016-07-30T13:37:15Z</time>
      </trkpt>
      <trkpt lat="46.150063835084438" lon="7.969964314252138">
        <ele>3022.04</ele>
        <time>2016-07-30T13:37:39Z</time>
      </trkpt>
      <trkpt lat="46.150046484544873" lon="7.969962805509567">
        <ele>3022.04</ele>
        <time>2016-07-30T13:37:59Z</time>
      </trkpt>
      <trkpt lat="46.150066014379263" lon="7.969969846308231">
        <ele>3022.04</ele>
        <time>2016-07-30T13:38:21Z</time>
      </trkpt>
      <trkpt lat="46.150049334391952" lon="7.96996439807117">
        <ele>3022.04</ele>
        <time>2016-07-30T13:38:31Z</time>
      </trkpt>
      <trkpt lat="46.150051513686776" lon="7.969973953440785">
        <ele>3020.5999999999999</ele>
        <time>2016-07-30T13:38:43Z</time>
      </trkpt>
      <trkpt lat="46.150059727951884" lon="7.970000356435776">
        <ele>3019.1599999999999</ele>
        <time>2016-07-30T13:38:56Z</time>
      </trkpt>
      <trkpt lat="46.150084538385272" lon="7.970011588186026">
        <ele>3017.7199999999998</ele>
        <time>2016-07-30T13:39:07Z</time>
      </trkpt>
      <trkpt lat="46.150094429031014" lon="7.970056012272835">
        <ele>3016.75</ele>
        <time>2016-07-30T13:39:14Z</time>
      </trkpt>
      <trkpt lat="46.150102140381932" lon="7.970085768029094">
        <ele>3015.3099999999999</ele>
        <time>2016-07-30T13:39:21Z</time>
      </trkpt>
      <trkpt lat="46.150082275271416" lon="7.970088450238109">
        <ele>3014.8299999999999</ele>
        <time>2016-07-30T13:39:34Z</time>
      </trkpt>
      <trkpt lat="46.150077246129513" lon="7.970089791342616">
        <ele>3013.8699999999999</ele>
        <time>2016-07-30T13:39:51Z</time>
      </trkpt>
      <trkpt lat="46.150088142603636" lon="7.970087360590696">
        <ele>3013.8699999999999</ele>
        <time>2016-07-30T13:40:08Z</time>
      </trkpt>
      <trkpt lat="46.150096356868744" lon="7.970116613432765">
        <ele>3011.9499999999998</ele>
        <time>2016-07-30T13:40:14Z</time>
      </trkpt>
      <trkpt lat="46.150073558092117" lon="7.970165899023414">
        <ele>3009.0599999999999</ele>
        <time>2016-07-30T13:40:23Z</time>
      </trkpt>
      <trkpt lat="46.150062158703804" lon="7.970186099410057">
        <ele>3007.6199999999999</ele>
        <time>2016-07-30T13:40:31Z</time>
      </trkpt>
      <trkpt lat="46.150059392675757" lon="7.97019163146615">
        <ele>3007.1399999999999</ele>
        <time>2016-07-30T13:40:32Z</time>
      </trkpt>
      <trkpt lat="46.150024691596627" lon="7.970224656164646">
        <ele>3005.6999999999998</ele>
        <time>2016-07-30T13:40:40Z</time>
      </trkpt>
      <trkpt lat="46.150016812607646" lon="7.970268074423075">
        <ele>3003.3000000000002</ele>
        <time>2016-07-30T13:40:52Z</time>
      </trkpt>
      <trkpt lat="46.149996947497129" lon="7.970286598429084">
        <ele>3001.8499999999999</ele>
        <time>2016-07-30T13:41:01Z</time>
      </trkpt>
      <trkpt lat="46.149975406005979" lon="7.970301602035761">
        <ele>3000.8899999999999</ele>
        <time>2016-07-30T13:41:04Z</time>
      </trkpt>
      <trkpt lat="46.149962246417999" lon="7.970326328650117">
        <ele>3000.4099999999999</ele>
        <time>2016-07-30T13:41:14Z</time>
      </trkpt>
      <trkpt lat="46.150000719353557" lon="7.97035189345479">
        <ele>2998.9699999999998</ele>
        <time>2016-07-30T13:41:23Z</time>
      </trkpt>
      <trkpt lat="46.14995738491416" lon="7.970396485179663">
        <ele>2996.5700000000002</ele>
        <time>2016-07-30T13:41:32Z</time>
      </trkpt>
      <trkpt lat="46.149891167879105" lon="7.970412326976657">
        <ele>2993.1999999999998</ele>
        <time>2016-07-30T13:41:42Z</time>
      </trkpt>
      <trkpt lat="46.149888066574931" lon="7.970417439937592">
        <ele>2993.1999999999998</ele>
        <time>2016-07-30T13:41:43Z</time>
      </trkpt>
      <trkpt lat="46.149892592802644" lon="7.970488937571645">
        <ele>2991.2800000000002</ele>
        <time>2016-07-30T13:41:53Z</time>
      </trkpt>
      <trkpt lat="46.149868201464415" lon="7.970522549003363">
        <ele>2989.3600000000001</ele>
        <time>2016-07-30T13:42:04Z</time>
      </trkpt>
      <trkpt lat="46.149845235049725" lon="7.970560016110539">
        <ele>2987.4299999999998</ele>
        <time>2016-07-30T13:42:13Z</time>
      </trkpt>
      <trkpt lat="46.149803325533867" lon="7.970571331679821">
        <ele>2985.0300000000002</ele>
        <time>2016-07-30T13:42:23Z</time>
      </trkpt>
      <trkpt lat="46.149776251986623" lon="7.970571918413043">
        <ele>2984.0700000000002</ele>
        <time>2016-07-30T13:42:33Z</time>
      </trkpt>
      <trkpt lat="46.149791339412332" lon="7.970598405227065">
        <ele>2984.0700000000002</ele>
        <time>2016-07-30T13:42:45Z</time>
      </trkpt>
      <trkpt lat="46.149816233664751" lon="7.970598237589002">
        <ele>2983.1100000000001</ele>
        <time>2016-07-30T13:42:56Z</time>
      </trkpt>
      <trkpt lat="46.149785052984953" lon="7.970635034143925">
        <ele>2981.1900000000001</ele>
        <time>2016-07-30T13:43:04Z</time>
      </trkpt>
      <trkpt lat="46.149755883961916" lon="7.970641488209367">
        <ele>2980.71</ele>
        <time>2016-07-30T13:43:13Z</time>
      </trkpt>
      <trkpt lat="46.149731324985623" lon="7.970674093812704">
        <ele>2977.8200000000002</ele>
        <time>2016-07-30T13:43:22Z</time>
      </trkpt>
      <trkpt lat="46.149670304730535" lon="7.970740897580981">
        <ele>2974.9400000000001</ele>
        <time>2016-07-30T13:43:33Z</time>
      </trkpt>
      <trkpt lat="46.149721601977944" lon="7.970756823197007">
        <ele>2973.5</ele>
        <time>2016-07-30T13:43:42Z</time>
      </trkpt>
      <trkpt lat="46.149769462645054" lon="7.970776353031397">
        <ele>2971.5700000000002</ele>
        <time>2016-07-30T13:43:52Z</time>
      </trkpt>
      <trkpt lat="46.14979075267911" lon="7.970797978341579">
        <ele>2971.0900000000001</ele>
        <time>2016-07-30T13:44:04Z</time>
      </trkpt>
      <trkpt lat="46.149802235886455" lon="7.9708072822541">
        <ele>2970.6100000000001</ele>
        <time>2016-07-30T13:44:12Z</time>
      </trkpt>
      <trkpt lat="46.149776000529528" lon="7.9708331823349">
        <ele>2969.1700000000001</ele>
        <time>2016-07-30T13:44:22Z</time>
      </trkpt>
      <trkpt lat="46.149796955287457" lon="7.970861094072461">
        <ele>2968.21</ele>
        <time>2016-07-30T13:44:31Z</time>
      </trkpt>
      <trkpt lat="46.149834925308824" lon="7.970892610028386">
        <ele>2965.8000000000002</ele>
        <time>2016-07-30T13:44:42Z</time>
      </trkpt>
      <trkpt lat="46.14985378459096" lon="7.970913397148252">
        <ele>2964.8400000000001</ele>
        <time>2016-07-30T13:44:51Z</time>
      </trkpt>
      <trkpt lat="46.149861160665751" lon="7.970948433503509">
        <ele>2963.4000000000001</ele>
        <time>2016-07-30T13:45:03Z</time>
      </trkpt>
      <trkpt lat="46.149859400466084" lon="7.970971819013357">
        <ele>2963.4000000000001</ele>
        <time>2016-07-30T13:45:17Z</time>
      </trkpt>
      <trkpt lat="46.14986602216959" lon="7.970978440716863">
        <ele>2963.8800000000001</ele>
        <time>2016-07-30T13:45:28Z</time>
      </trkpt>
      <trkpt lat="46.149880355224013" lon="7.970987409353256">
        <ele>2963.4000000000001</ele>
        <time>2016-07-30T13:45:40Z</time>
      </trkpt>
      <trkpt lat="46.149871973320842" lon="7.970976093783975">
        <ele>2962.9200000000001</ele>
        <time>2016-07-30T13:45:54Z</time>
      </trkpt>
      <trkpt lat="46.149910613894463" lon="7.970998473465443">
        <ele>2961.96</ele>
        <time>2016-07-30T13:46:04Z</time>
      </trkpt>
      <trkpt lat="46.149864178150892" lon="7.971043484285474">
        <ele>2960.04</ele>
        <time>2016-07-30T13:46:13Z</time>
      </trkpt>
      <trkpt lat="46.149836769327521" lon="7.97106871381402">
        <ele>2959.0799999999999</ele>
        <time>2016-07-30T13:46:21Z</time>
      </trkpt>
      <trkpt lat="46.149819502606988" lon="7.971076173707843">
        <ele>2958.1100000000001</ele>
        <time>2016-07-30T13:46:29Z</time>
      </trkpt>
      <trkpt lat="46.149822855368257" lon="7.971093524247408">
        <ele>2955.23</ele>
        <time>2016-07-30T13:46:36Z</time>
      </trkpt>
      <trkpt lat="46.14981522783637" lon="7.971097799018025">
        <ele>2955.23</ele>
        <time>2016-07-30T13:46:37Z</time>
      </trkpt>
      <trkpt lat="46.149787735193968" lon="7.971121016889811">
        <ele>2955.23</ele>
        <time>2016-07-30T13:46:45Z</time>
      </trkpt>
      <trkpt lat="46.149796033278108" lon="7.971147419884801">
        <ele>2952.3499999999999</ele>
        <time>2016-07-30T13:46:52Z</time>
      </trkpt>
      <trkpt lat="46.149764014407992" lon="7.971172900870442">
        <ele>2951.3800000000001</ele>
        <time>2016-07-30T13:47:02Z</time>
      </trkpt>
      <trkpt lat="46.149750184267759" lon="7.971174912527204">
        <ele>2950.9000000000001</ele>
        <time>2016-07-30T13:47:12Z</time>
      </trkpt>
      <trkpt lat="46.149741047993302" lon="7.971178516745567">
        <ele>2950.9000000000001</ele>
        <time>2016-07-30T13:47:22Z</time>
      </trkpt>
      <trkpt lat="46.149761248379946" lon="7.97119184397161">
        <ele>2948.98</ele>
        <time>2016-07-30T13:47:30Z</time>
      </trkpt>
      <trkpt lat="46.149758398532867" lon="7.971196873113513">
        <ele>2948.02</ele>
        <time>2016-07-30T13:47:35Z</time>
      </trkpt>
      <trkpt lat="46.149748088791966" lon="7.971202321350575">
        <ele>2947.0599999999999</ele>
        <time>2016-07-30T13:47:47Z</time>
      </trkpt>
      <trkpt lat="46.149722775444388" lon="7.971205338835716">
        <ele>2946.5799999999999</ele>
        <time>2016-07-30T13:47:55Z</time>
      </trkpt>
      <trkpt lat="46.149747502058744" lon="7.97125387005508">
        <ele>2945.1399999999999</ele>
        <time>2016-07-30T13:48:04Z</time>
      </trkpt>
      <trkpt lat="46.149737862870097" lon="7.971279686316848">
        <ele>2943.21</ele>
        <time>2016-07-30T13:48:11Z</time>
      </trkpt>
      <trkpt lat="46.149735599756241" lon="7.971301563084126">
        <ele>2941.77</ele>
        <time>2016-07-30T13:48:20Z</time>
      </trkpt>
      <trkpt lat="46.149714477360249" lon="7.971306424587965">
        <ele>2940.3299999999999</ele>
        <time>2016-07-30T13:48:33Z</time>
      </trkpt>
      <trkpt lat="46.149716656655073" lon="7.9713374376297">
        <ele>2939.3699999999999</ele>
        <time>2016-07-30T13:48:42Z</time>
      </trkpt>
      <trkpt lat="46.149690169841051" lon="7.971337018534541">
        <ele>2938.4099999999999</ele>
        <time>2016-07-30T13:48:51Z</time>
      </trkpt>
      <trkpt lat="46.149671478196979" lon="7.971339700743556">
        <ele>2937.4499999999998</ele>
        <time>2016-07-30T13:49:03Z</time>
      </trkpt>
      <trkpt lat="46.149663180112839" lon="7.971340036019683">
        <ele>2936.9699999999998</ele>
        <time>2016-07-30T13:49:12Z</time>
      </trkpt>
      <trkpt lat="46.149654127657413" lon="7.97134623862803">
        <ele>2936.48</ele>
        <time>2016-07-30T13:49:21Z</time>
      </trkpt>
      <trkpt lat="46.14964172244072" lon="7.971363924443722">
        <ele>2935.52</ele>
        <time>2016-07-30T13:49:33Z</time>
      </trkpt>
      <trkpt lat="46.149646751582623" lon="7.971359901130199">
        <ele>2935.04</ele>
        <time>2016-07-30T13:49:44Z</time>
      </trkpt>
      <trkpt lat="46.149642812088132" lon="7.971389489248395">
        <ele>2934.0799999999999</ele>
        <time>2016-07-30T13:49:55Z</time>
      </trkpt>
      <trkpt lat="46.149618085473776" lon="7.971411952748895">
        <ele>2932.6399999999999</ele>
        <time>2016-07-30T13:50:02Z</time>
      </trkpt>
      <trkpt lat="46.149650020524859" lon="7.971437852829695">
        <ele>2931.6799999999998</ele>
        <time>2016-07-30T13:50:11Z</time>
      </trkpt>
      <trkpt lat="46.149661168456078" lon="7.971447743475437">
        <ele>2930.7199999999998</ele>
        <time>2016-07-30T13:50:21Z</time>
      </trkpt>
      <trkpt lat="46.149673908948898" lon="7.971461741253734">
        <ele>2929.27</ele>
        <time>2016-07-30T13:50:35Z</time>
      </trkpt>
      <trkpt lat="46.149666532874107" lon="7.971454281359911">
        <ele>2928.79</ele>
        <time>2016-07-30T13:50:45Z</time>
      </trkpt>
      <trkpt lat="46.149680279195309" lon="7.971468446776271">
        <ele>2928.3099999999999</ele>
        <time>2016-07-30T13:50:53Z</time>
      </trkpt>
      <trkpt lat="46.149692935869098" lon="7.971481857821345">
        <ele>2926.8699999999999</ele>
        <time>2016-07-30T13:51:00Z</time>
      </trkpt>
      <trkpt lat="46.149695869535208" lon="7.971464758738875">
        <ele>2926.8699999999999</ele>
        <time>2016-07-30T13:51:04Z</time>
      </trkpt>
      <trkpt lat="46.149714644998312" lon="7.971443803980947">
        <ele>2925.9099999999999</ele>
        <time>2016-07-30T13:51:16Z</time>
      </trkpt>
      <trkpt lat="46.149720093235373" lon="7.971509518101811">
        <ele>2925.4299999999998</ele>
        <time>2016-07-30T13:51:29Z</time>
      </trkpt>
      <trkpt lat="46.149721015244722" lon="7.971521085128188">
        <ele>2925.4299999999998</ele>
        <time>2016-07-30T13:51:37Z</time>
      </trkpt>
      <trkpt lat="46.149734174832702" lon="7.971551595255733">
        <ele>2923.9899999999998</ele>
        <time>2016-07-30T13:51:48Z</time>
      </trkpt>
      <trkpt lat="46.149733420461416" lon="7.971516810357571">
        <ele>2923.9899999999998</ele>
        <time>2016-07-30T13:52:09Z</time>
      </trkpt>
      <trkpt lat="46.149688996374607" lon="7.971444306895137">
        <ele>2923.0300000000002</ele>
        <time>2016-07-30T13:52:19Z</time>
      </trkpt>
      <trkpt lat="46.149698635563254" lon="7.971451934427023">
        <ele>2922.0599999999999</ele>
        <time>2016-07-30T13:52:30Z</time>
      </trkpt>
      <trkpt lat="46.14971456117928" lon="7.971531981602311">
        <ele>2921.5799999999999</ele>
        <time>2016-07-30T13:52:39Z</time>
      </trkpt>
      <trkpt lat="46.149685978889465" lon="7.971576657146215">
        <ele>2919.6599999999999</ele>
        <time>2016-07-30T13:52:50Z</time>
      </trkpt>
      <trkpt lat="46.1496686283499" lon="7.971584619954228">
        <ele>2919.6599999999999</ele>
        <time>2016-07-30T13:53:01Z</time>
      </trkpt>
      <trkpt lat="46.149650774896145" lon="7.971594929695129">
        <ele>2919.1799999999998</ele>
        <time>2016-07-30T13:53:04Z</time>
      </trkpt>
      <trkpt lat="46.149625042453408" lon="7.97162820585072">
        <ele>2916.7800000000002</ele>
        <time>2016-07-30T13:53:15Z</time>
      </trkpt>
      <trkpt lat="46.149653792381287" lon="7.971648909151554">
        <ele>2917.2600000000002</ele>
        <time>2016-07-30T13:53:27Z</time>
      </trkpt>
      <trkpt lat="46.149650271981955" lon="7.971639353781939">
        <ele>2916.3000000000002</ele>
        <time>2016-07-30T13:53:38Z</time>
      </trkpt>
      <trkpt lat="46.149626132100821" lon="7.971666594967246">
        <ele>2914.8499999999999</ele>
        <time>2016-07-30T13:53:45Z</time>
      </trkpt>
      <trkpt lat="46.149620516225696" lon="7.971665253862739">
        <ele>2914.8499999999999</ele>
        <time>2016-07-30T13:53:49Z</time>
      </trkpt>
      <trkpt lat="46.149630825966597" lon="7.971644550561905">
        <ele>2913.8899999999999</ele>
        <time>2016-07-30T13:53:53Z</time>
      </trkpt>
      <trkpt lat="46.149641303345561" lon="7.971652848646045">
        <ele>2913.4099999999999</ele>
        <time>2016-07-30T13:54:04Z</time>
      </trkpt>
      <trkpt lat="46.149636190384626" lon="7.971603227779269">
        <ele>2912.4499999999998</ele>
        <time>2016-07-30T13:54:16Z</time>
      </trkpt>
      <trkpt lat="46.149663934484124" lon="7.971658883616328">
        <ele>2911.9699999999998</ele>
        <time>2016-07-30T13:54:28Z</time>
      </trkpt>
      <trkpt lat="46.149661336094141" lon="7.971649076789618">
        <ele>2910.5300000000002</ele>
        <time>2016-07-30T13:54:39Z</time>
      </trkpt>
      <trkpt lat="46.149713052436709" lon="7.971684616059065">
        <ele>2909.0900000000001</ele>
        <time>2016-07-30T13:54:49Z</time>
      </trkpt>
      <trkpt lat="46.149756386876106" lon="7.971736080944538">
        <ele>2906.6799999999998</ele>
        <time>2016-07-30T13:54:59Z</time>
      </trkpt>
      <trkpt lat="46.149782706052065" lon="7.971754772588611">
        <ele>2904.7600000000002</ele>
        <time>2016-07-30T13:55:08Z</time>
      </trkpt>
      <trkpt lat="46.149803409352899" lon="7.971811098977923">
        <ele>2904.2800000000002</ele>
        <time>2016-07-30T13:55:16Z</time>
      </trkpt>
      <trkpt lat="46.149840708822012" lon="7.971875471994281">
        <ele>2901.8800000000001</ele>
        <time>2016-07-30T13:55:26Z</time>
      </trkpt>
      <trkpt lat="46.149859735742211" lon="7.971902042627335">
        <ele>2899.9499999999998</ele>
        <time>2016-07-30T13:55:37Z</time>
      </trkpt>
      <trkpt lat="46.14987381733954" lon="7.971967589110136">
        <ele>2898.0300000000002</ele>
        <time>2016-07-30T13:55:48Z</time>
      </trkpt>
      <trkpt lat="46.149881696328521" lon="7.971989130601287">
        <ele>2897.0700000000002</ele>
        <time>2016-07-30T13:55:56Z</time>
      </trkpt>
      <trkpt lat="46.149899382144213" lon="7.971999440342188">
        <ele>2896.1100000000001</ele>
        <time>2016-07-30T13:56:05Z</time>
      </trkpt>
      <trkpt lat="46.14986945874989" lon="7.97204252332449">
        <ele>2893.71</ele>
        <time>2016-07-30T13:56:15Z</time>
      </trkpt>
      <trkpt lat="46.149882702156901" lon="7.972079487517476">
        <ele>2893.23</ele>
        <time>2016-07-30T13:56:23Z</time>
      </trkpt>
      <trkpt lat="46.149890413507819" lon="7.972091808915138">
        <ele>2891.3000000000002</ele>
        <time>2016-07-30T13:56:33Z</time>
      </trkpt>
      <trkpt lat="46.149883372709155" lon="7.972117457538843">
        <ele>2891.3000000000002</ele>
        <time>2016-07-30T13:56:37Z</time>
      </trkpt>
      <trkpt lat="46.149833835661411" lon="7.972142100334168">
        <ele>2889.3800000000001</ele>
        <time>2016-07-30T13:56:47Z</time>
      </trkpt>
      <trkpt lat="46.149828722700477" lon="7.972161127254367">
        <ele>2887.9400000000001</ele>
        <time>2016-07-30T13:56:54Z</time>
      </trkpt>
      <trkpt lat="46.149820927530527" lon="7.972154086455703">
        <ele>2887.46</ele>
        <time>2016-07-30T13:57:02Z</time>
      </trkpt>
      <trkpt lat="46.149803996086121" lon="7.972196415066719">
        <ele>2885.5300000000002</ele>
        <time>2016-07-30T13:57:10Z</time>
      </trkpt>
      <trkpt lat="46.149777173995972" lon="7.972237151116133">
        <ele>2883.6100000000001</ele>
        <time>2016-07-30T13:57:20Z</time>
      </trkpt>
      <trkpt lat="46.14977709017694" lon="7.972238240763545">
        <ele>2882.1700000000001</ele>
        <time>2016-07-30T13:57:29Z</time>
      </trkpt>
      <trkpt lat="46.149763260036707" lon="7.972280401736498">
        <ele>2881.6900000000001</ele>
        <time>2016-07-30T13:57:44Z</time>
      </trkpt>
      <trkpt lat="46.149792093783617" lon="7.972276713699102">
        <ele>2880.25</ele>
        <time>2016-07-30T13:57:56Z</time>
      </trkpt>
      <trkpt lat="46.149805756285787" lon="7.972307475283742">
        <ele>2879.77</ele>
        <time>2016-07-30T13:58:06Z</time>
      </trkpt>
      <trkpt lat="46.149802571162581" lon="7.972351396456361">
        <ele>2877.8400000000001</ele>
        <time>2016-07-30T13:58:14Z</time>
      </trkpt>
      <trkpt lat="46.149749848991632" lon="7.972350558266044">
        <ele>2876.4000000000001</ele>
        <time>2016-07-30T13:58:21Z</time>
      </trkpt>
      <trkpt lat="46.149740712717175" lon="7.972377547994256">
        <ele>2875.9200000000001</ele>
        <time>2016-07-30T13:58:35Z</time>
      </trkpt>
      <trkpt lat="46.149734677746892" lon="7.972375452518463">
        <ele>2875.4400000000001</ele>
        <time>2016-07-30T13:58:47Z</time>
      </trkpt>
      <trkpt lat="46.14973409101367" lon="7.972376458346844">
        <ele>2875.4400000000001</ele>
        <time>2016-07-30T13:58:58Z</time>
      </trkpt>
      <trkpt lat="46.149716069921851" lon="7.972387690097094">
        <ele>2875.4400000000001</ele>
        <time>2016-07-30T13:59:12Z</time>
      </trkpt>
      <trkpt lat="46.14973652176559" lon="7.972411075606942">
        <ele>2875.4400000000001</ele>
        <time>2016-07-30T13:59:26Z</time>
      </trkpt>
      <trkpt lat="46.149733336642385" lon="7.972450805827975">
        <ele>2874</ele>
        <time>2016-07-30T13:59:34Z</time>
      </trkpt>
      <trkpt lat="46.149729900062084" lon="7.972489278763533">
        <ele>2872.0799999999999</ele>
        <time>2016-07-30T13:59:43Z</time>
      </trkpt>
      <trkpt lat="46.149717411026359" lon="7.97248181886971">
        <ele>2870.6300000000001</ele>
        <time>2016-07-30T13:59:52Z</time>
      </trkpt>
      <trkpt lat="46.14972772076726" lon="7.972519369795919">
        <ele>2868.71</ele>
        <time>2016-07-30T14:00:01Z</time>
      </trkpt>
      <trkpt lat="46.149726547300816" lon="7.972529763355851">
        <ele>2868.23</ele>
        <time>2016-07-30T14:00:03Z</time>
      </trkpt>
      <trkpt lat="46.149685895070434" lon="7.97254485078156">
        <ele>2866.79</ele>
        <time>2016-07-30T14:00:11Z</time>
      </trkpt>
      <trkpt lat="46.149659240618348" lon="7.972557423636317">
        <ele>2864.8699999999999</ele>
        <time>2016-07-30T14:00:17Z</time>
      </trkpt>
      <trkpt lat="46.149612721055746" lon="7.972565805539489">
        <ele>2862.9400000000001</ele>
        <time>2016-07-30T14:00:27Z</time>
      </trkpt>
      <trkpt lat="46.149568548426032" lon="7.97263034619391">
        <ele>2860.0599999999999</ele>
        <time>2016-07-30T14:00:39Z</time>
      </trkpt>
      <trkpt lat="46.149530243128538" lon="7.972625317052007">
        <ele>2858.1399999999999</ele>
        <time>2016-07-30T14:00:49Z</time>
      </trkpt>
      <trkpt lat="46.149525130167603" lon="7.972654066979885">
        <ele>2858.1399999999999</ele>
        <time>2016-07-30T14:01:02Z</time>
      </trkpt>
      <trkpt lat="46.149488165974617" lon="7.972680721431971">
        <ele>2855.73</ele>
        <time>2016-07-30T14:01:10Z</time>
      </trkpt>
      <trkpt lat="46.149481711909175" lon="7.972713997587562">
        <ele>2854.29</ele>
        <time>2016-07-30T14:01:22Z</time>
      </trkpt>
      <trkpt lat="46.149438545107841" lon="7.972740065306425">
        <ele>2851.8899999999999</ele>
        <time>2016-07-30T14:01:30Z</time>
      </trkpt>
      <trkpt lat="46.149415662512183" lon="7.972760600969195">
        <ele>2850.9299999999998</ele>
        <time>2016-07-30T14:01:39Z</time>
      </trkpt>
      <trkpt lat="46.149428151547909" lon="7.972773425281048">
        <ele>2849.9699999999998</ele>
        <time>2016-07-30T14:01:42Z</time>
      </trkpt>
      <trkpt lat="46.149416249245405" lon="7.972802426666021">
        <ele>2849</ele>
        <time>2016-07-30T14:01:50Z</time>
      </trkpt>
      <trkpt lat="46.149448351934552" lon="7.972863195464015">
        <ele>2845.6399999999999</ele>
        <time>2016-07-30T14:02:02Z</time>
      </trkpt>
      <trkpt lat="46.149454722180963" lon="7.972910972312093">
        <ele>2843.2399999999998</ele>
        <time>2016-07-30T14:02:12Z</time>
      </trkpt>
      <trkpt lat="46.149514066055417" lon="7.972983056679368">
        <ele>2840.3499999999999</ele>
        <time>2016-07-30T14:02:23Z</time>
      </trkpt>
      <trkpt lat="46.14951859228313" lon="7.972991103306413">
        <ele>2841.79</ele>
        <time>2016-07-30T14:02:24Z</time>
      </trkpt>
      <trkpt lat="46.149540552869439" lon="7.973083136603236">
        <ele>2836.9899999999998</ele>
        <time>2016-07-30T14:02:33Z</time>
      </trkpt>
      <trkpt lat="46.149565950036049" lon="7.973078526556492">
        <ele>2836.5100000000002</ele>
        <time>2016-07-30T14:02:43Z</time>
      </trkpt>
      <trkpt lat="46.149621522054076" lon="7.973129823803902">
        <ele>2834.0999999999999</ele>
        <time>2016-07-30T14:02:53Z</time>
      </trkpt>
      <trkpt lat="46.149669215083122" lon="7.973168129101396">
        <ele>2831.2199999999998</ele>
        <time>2016-07-30T14:03:03Z</time>
      </trkpt>
      <trkpt lat="46.149686984717846" lon="7.973262090235949">
        <ele>2828.3400000000001</ele>
        <time>2016-07-30T14:03:14Z</time>
      </trkpt>
      <trkpt lat="46.149644488468766" lon="7.973312884569168">
        <ele>2825.9299999999998</ele>
        <time>2016-07-30T14:03:23Z</time>
      </trkpt>
      <trkpt lat="46.149628143757582" lon="7.973375413566828">
        <ele>2823.0500000000002</ele>
        <time>2016-07-30T14:03:35Z</time>
      </trkpt>
      <trkpt lat="46.149620935320854" lon="7.973434422165155">
        <ele>2820.6500000000001</ele>
        <time>2016-07-30T14:03:45Z</time>
      </trkpt>
      <trkpt lat="46.149588748812675" lon="7.973466189578176">
        <ele>2818.2399999999998</ele>
        <time>2016-07-30T14:03:57Z</time>
      </trkpt>
      <trkpt lat="46.149611631408334" lon="7.973513547331095">
        <ele>2815.8400000000001</ele>
        <time>2016-07-30T14:04:07Z</time>
      </trkpt>
      <trkpt lat="46.14957726560533" lon="7.973538776859641">
        <ele>2813.9200000000001</ele>
        <time>2016-07-30T14:04:15Z</time>
      </trkpt>
      <trkpt lat="46.149568464607" lon="7.973585966974497">
        <ele>2813.4400000000001</ele>
        <time>2016-07-30T14:04:25Z</time>
      </trkpt>
      <trkpt lat="46.149574667215347" lon="7.973594851791859">
        <ele>2811.9899999999998</ele>
        <time>2016-07-30T14:04:28Z</time>
      </trkpt>
      <trkpt lat="46.149563351646066" lon="7.973643634468317">
        <ele>2810.0700000000002</ele>
        <time>2016-07-30T14:04:39Z</time>
      </trkpt>
      <trkpt lat="46.149547258391976" lon="7.973673222586513">
        <ele>2808.6300000000001</ele>
        <time>2016-07-30T14:04:47Z</time>
      </trkpt>
      <trkpt lat="46.149502079933882" lon="7.973689567297697">
        <ele>2807.1900000000001</ele>
        <time>2016-07-30T14:04:58Z</time>
      </trkpt>
      <trkpt lat="46.149508450180292" lon="7.973740864545107">
        <ele>2804.7800000000002</ele>
        <time>2016-07-30T14:05:08Z</time>
      </trkpt>
      <trkpt lat="46.149527812376618" lon="7.973816469311714">
        <ele>2802.3800000000001</ele>
        <time>2016-07-30T14:05:19Z</time>
      </trkpt>
      <trkpt lat="46.149478945881128" lon="7.973832730203867">
        <ele>2800.46</ele>
        <time>2016-07-30T14:05:30Z</time>
      </trkpt>
      <trkpt lat="46.149442484602332" lon="7.973837004974484">
        <ele>2799.02</ele>
        <time>2016-07-30T14:05:38Z</time>
      </trkpt>
      <trkpt lat="46.149428654462099" lon="7.973809596151114">
        <ele>2799.02</ele>
        <time>2016-07-30T14:05:54Z</time>
      </trkpt>
      <trkpt lat="46.149432510137558" lon="7.973811104893684">
        <ele>2799.02</ele>
        <time>2016-07-30T14:06:10Z</time>
      </trkpt>
      <trkpt lat="46.149451788514853" lon="7.973846225067973">
        <ele>2799.02</ele>
        <time>2016-07-30T14:06:23Z</time>
      </trkpt>
      <trkpt lat="46.149494955316186" lon="7.973830970004201">
        <ele>2799.5</ele>
        <time>2016-07-30T14:06:43Z</time>
      </trkpt>
      <trkpt lat="46.149526471272111" lon="7.973859384655953">
        <ele>2799.02</ele>
        <time>2016-07-30T14:07:00Z</time>
      </trkpt>
      <trkpt lat="46.149491770192981" lon="7.973946053534746">
        <ele>2797.0900000000001</ele>
        <time>2016-07-30T14:07:11Z</time>
      </trkpt>
      <trkpt lat="46.149450363591313" lon="7.973960051313043">
        <ele>2795.1700000000001</ele>
        <time>2016-07-30T14:07:20Z</time>
      </trkpt>
      <trkpt lat="46.149440472945571" lon="7.974046636372805">
        <ele>2792.77</ele>
        <time>2016-07-30T14:07:32Z</time>
      </trkpt>
      <trkpt lat="46.149424966424704" lon="7.974084690213203">
        <ele>2790.8400000000001</ele>
        <time>2016-07-30T14:07:41Z</time>
      </trkpt>
      <trkpt lat="46.149390852078795" lon="7.974121319130063">
        <ele>2788.4400000000001</ele>
        <time>2016-07-30T14:07:51Z</time>
      </trkpt>
      <trkpt lat="46.149381715804338" lon="7.974161636084318">
        <ele>2787</ele>
        <time>2016-07-30T14:08:00Z</time>
      </trkpt>
      <trkpt lat="46.149390013888478" lon="7.97416758723557">
        <ele>2786.52</ele>
        <time>2016-07-30T14:08:03Z</time>
      </trkpt>
      <trkpt lat="46.149359503760934" lon="7.97419834882021">
        <ele>2783.6300000000001</ele>
        <time>2016-07-30T14:08:13Z</time>
      </trkpt>
      <trkpt lat="46.149333687499166" lon="7.974260458722711">
        <ele>2781.23</ele>
        <time>2016-07-30T14:08:23Z</time>
      </trkpt>
      <trkpt lat="46.149310553446412" lon="7.97429365105927">
        <ele>2779.3099999999999</ele>
        <time>2016-07-30T14:08:30Z</time>
      </trkpt>
      <trkpt lat="46.149309379979968" lon="7.974362298846245">
        <ele>2777.3899999999999</ele>
        <time>2016-07-30T14:08:39Z</time>
      </trkpt>
      <trkpt lat="46.149263866245747" lon="7.974403873085976">
        <ele>2774.98</ele>
        <time>2016-07-30T14:08:50Z</time>
      </trkpt>
      <trkpt lat="46.149294627830386" lon="7.974424073472619">
        <ele>2774.5</ele>
        <time>2016-07-30T14:09:04Z</time>
      </trkpt>
      <trkpt lat="46.149264955893159" lon="7.974481992423534">
        <ele>2772.5799999999999</ele>
        <time>2016-07-30T14:09:13Z</time>
      </trkpt>
      <trkpt lat="46.1492352001369" lon="7.974457265809178">
        <ele>2772.0999999999999</ele>
        <time>2016-07-30T14:09:26Z</time>
      </trkpt>
      <trkpt lat="46.149208880960941" lon="7.974502611905336">
        <ele>2770.6599999999999</ele>
        <time>2016-07-30T14:09:37Z</time>
      </trkpt>
      <trkpt lat="46.14922103472054" lon="7.974527673795819">
        <ele>2769.6999999999998</ele>
        <time>2016-07-30T14:09:41Z</time>
      </trkpt>
      <trkpt lat="46.149186082184315" lon="7.974567823112011">
        <ele>2768.73</ele>
        <time>2016-07-30T14:09:50Z</time>
      </trkpt>
      <trkpt lat="46.149189351126552" lon="7.974576624110341">
        <ele>2768.25</ele>
        <time>2016-07-30T14:09:52Z</time>
      </trkpt>
      <trkpt lat="46.149180885404348" lon="7.974621383473277">
        <ele>2766.3299999999999</ele>
        <time>2016-07-30T14:10:00Z</time>
      </trkpt>
      <trkpt lat="46.149153979495168" lon="7.974644433706999">
        <ele>2765.3699999999999</ele>
        <time>2016-07-30T14:10:05Z</time>
      </trkpt>
      <trkpt lat="46.149154314771295" lon="7.974702268838882">
        <ele>2763.4499999999998</ele>
        <time>2016-07-30T14:10:14Z</time>
      </trkpt>
      <trkpt lat="46.14912623539567" lon="7.974736215546727">
        <ele>2762</ele>
        <time>2016-07-30T14:10:22Z</time>
      </trkpt>
      <trkpt lat="46.149106370285153" lon="7.974753063172102">
        <ele>2761.04</ele>
        <time>2016-07-30T14:10:31Z</time>
      </trkpt>
      <trkpt lat="46.149127157405019" lon="7.974724732339382">
        <ele>2761.04</ele>
        <time>2016-07-30T14:10:39Z</time>
      </trkpt>
      <trkpt lat="46.149128414690495" lon="7.974754320457578">
        <ele>2760.5599999999999</ele>
        <time>2016-07-30T14:10:51Z</time>
      </trkpt>
      <trkpt lat="46.149096060544252" lon="7.974745435640216">
        <ele>2761.04</ele>
        <time>2016-07-30T14:11:02Z</time>
      </trkpt>
      <trkpt lat="46.149086924269795" lon="7.974763121455908">
        <ele>2760.0799999999999</ele>
        <time>2016-07-30T14:11:13Z</time>
      </trkpt>
      <trkpt lat="46.149057252332568" lon="7.974830092862248">
        <ele>2757.1999999999998</ele>
        <time>2016-07-30T14:11:24Z</time>
      </trkpt>
      <trkpt lat="46.149047696962953" lon="7.974866135045886">
        <ele>2756.7199999999998</ele>
        <time>2016-07-30T14:11:28Z</time>
      </trkpt>
      <trkpt lat="46.149026490747929" lon="7.974933441728354">
        <ele>2754.8000000000002</ele>
        <time>2016-07-30T14:11:38Z</time>
      </trkpt>
      <trkpt lat="46.149012995883822" lon="7.974934782832861">
        <ele>2754.8000000000002</ele>
        <time>2016-07-30T14:11:51Z</time>
      </trkpt>
      <trkpt lat="46.149003775790334" lon="7.974943332374096">
        <ele>2755.2800000000002</ele>
        <time>2016-07-30T14:12:06Z</time>
      </trkpt>
      <trkpt lat="46.149006877094507" lon="7.974946768954396">
        <ele>2754.8000000000002</ele>
        <time>2016-07-30T14:12:21Z</time>
      </trkpt>
      <trkpt lat="46.1490314360708" lon="7.974953977391124">
        <ele>2754.8000000000002</ele>
        <time>2016-07-30T14:12:34Z</time>
      </trkpt>
      <trkpt lat="46.149033447727561" lon="7.974917013198137">
        <ele>2754.8000000000002</ele>
        <time>2016-07-30T14:12:47Z</time>
      </trkpt>
      <trkpt lat="46.149033028632402" lon="7.974859680980444">
        <ele>2754.8000000000002</ele>
        <time>2016-07-30T14:13:07Z</time>
      </trkpt>
      <trkpt lat="46.149023976176977" lon="7.974918270483613">
        <ele>2754.8000000000002</ele>
        <time>2016-07-30T14:13:25Z</time>
      </trkpt>
      <trkpt lat="46.14903193898499" lon="7.974898153916001">
        <ele>2754.3099999999999</ele>
        <time>2016-07-30T14:13:42Z</time>
      </trkpt>
      <trkpt lat="46.14902070723474" lon="7.974905697628856">
        <ele>2754.3099999999999</ele>
        <time>2016-07-30T14:13:54Z</time>
      </trkpt>
      <trkpt lat="46.148997573181987" lon="7.974901087582111">
        <ele>2754.3099999999999</ele>
        <time>2016-07-30T14:14:11Z</time>
      </trkpt>
      <trkpt lat="46.149028921499848" lon="7.974922461435199">
        <ele>2754.3099999999999</ele>
        <time>2016-07-30T14:14:24Z</time>
      </trkpt>
      <trkpt lat="46.14904073998332" lon="7.974996976554394">
        <ele>2754.8000000000002</ele>
        <time>2016-07-30T14:14:43Z</time>
      </trkpt>
      <trkpt lat="46.149075692519546" lon="7.974845515564084">
        <ele>2754.3099999999999</ele>
        <time>2016-07-30T14:15:03Z</time>
      </trkpt>
      <trkpt lat="46.149031352251768" lon="7.974863285198808">
        <ele>2754.3099999999999</ele>
        <time>2016-07-30T14:15:24Z</time>
      </trkpt>
      <trkpt lat="46.148996818810701" lon="7.974909134209156">
        <ele>2754.3099999999999</ele>
        <time>2016-07-30T14:15:40Z</time>
      </trkpt>
      <trkpt lat="46.148985419422388" lon="7.974880132824183">
        <ele>2753.8299999999999</ele>
        <time>2016-07-30T14:16:00Z</time>
      </trkpt>
      <trkpt lat="46.148972930386662" lon="7.974945595487952">
        <ele>2753.3499999999999</ele>
        <time>2016-07-30T14:16:08Z</time>
      </trkpt>
      <trkpt lat="46.148940157145262" lon="7.975006699562073">
        <ele>2752.3899999999999</ele>
        <time>2016-07-30T14:16:17Z</time>
      </trkpt>
      <trkpt lat="46.148890117183328" lon="7.975028827786446">
        <ele>2750.4699999999998</ele>
        <time>2016-07-30T14:16:26Z</time>
      </trkpt>
      <trkpt lat="46.148874945938587" lon="7.975007956847549">
        <ele>2750.9499999999998</ele>
        <time>2016-07-30T14:16:38Z</time>
      </trkpt>
      <trkpt lat="46.148828426375985" lon="7.975003849714994">
        <ele>2750.4699999999998</ele>
        <time>2016-07-30T14:16:56Z</time>
      </trkpt>
      <trkpt lat="46.148810237646103" lon="7.975011058151722">
        <ele>2750.4699999999998</ele>
        <time>2016-07-30T14:17:07Z</time>
      </trkpt>
      <trkpt lat="46.148830940946937" lon="7.975024553015828">
        <ele>2749.9899999999998</ele>
        <time>2016-07-30T14:17:18Z</time>
      </trkpt>
      <trkpt lat="46.148815015330911" lon="7.975068055093288">
        <ele>2749.5100000000002</ele>
        <time>2016-07-30T14:17:24Z</time>
      </trkpt>
      <trkpt lat="46.148809734731913" lon="7.975072246044874">
        <ele>2749.0300000000002</ele>
        <time>2016-07-30T14:17:26Z</time>
      </trkpt>
      <trkpt lat="46.148792719468474" lon="7.975106695666909">
        <ele>2749.0300000000002</ele>
        <time>2016-07-30T14:17:29Z</time>
      </trkpt>
      <trkpt lat="46.148786684498191" lon="7.975124884396792">
        <ele>2748.5500000000002</ele>
        <time>2016-07-30T14:17:31Z</time>
      </trkpt>
      <trkpt lat="46.148731363937259" lon="7.97513066790998">
        <ele>2747.0999999999999</ele>
        <time>2016-07-30T14:17:36Z</time>
      </trkpt>
      <trkpt lat="46.148661123588681" lon="7.975138211622834">
        <ele>2746.1399999999999</ele>
        <time>2016-07-30T14:17:43Z</time>
      </trkpt>
      <trkpt lat="46.148625500500202" lon="7.975208284333348">
        <ele>2745.1799999999998</ele>
        <time>2016-07-30T14:17:50Z</time>
      </trkpt>
      <trkpt lat="46.148577723652124" lon="7.975263772532344">
        <ele>2744.6999999999998</ele>
        <time>2016-07-30T14:17:58Z</time>
      </trkpt>
      <trkpt lat="46.148496586829424" lon="7.97531976364553">
        <ele>2742.7800000000002</ele>
        <time>2016-07-30T14:18:09Z</time>
      </trkpt>
      <trkpt lat="46.14838594570756" lon="7.975365361198783">
        <ele>2741.3400000000001</ele>
        <time>2016-07-30T14:18:20Z</time>
      </trkpt>
      <trkpt lat="46.14829558879137" lon="7.97540333122015">
        <ele>2738.9299999999998</ele>
        <time>2016-07-30T14:18:30Z</time>
      </trkpt>
      <trkpt lat="46.148283518850803" lon="7.975405007600784">
        <ele>2738.4499999999998</ele>
        <time>2016-07-30T14:18:31Z</time>
      </trkpt>
      <trkpt lat="46.148221576586366" lon="7.975451862439513">
        <ele>2737.4899999999998</ele>
        <time>2016-07-30T14:18:37Z</time>
      </trkpt>
      <trkpt lat="46.148116383701563" lon="7.975510703399777">
        <ele>2736.0500000000002</ele>
        <time>2016-07-30T14:18:47Z</time>
      </trkpt>
      <trkpt lat="46.148021500557661" lon="7.975561497732997">
        <ele>2734.1300000000001</ele>
        <time>2016-07-30T14:18:58Z</time>
      </trkpt>
      <trkpt lat="46.147947991266847" lon="7.975563760846853">
        <ele>2732.1999999999998</ele>
        <time>2016-07-30T14:19:07Z</time>
      </trkpt>
      <trkpt lat="46.147893676534295" lon="7.975560827180743">
        <ele>2730.7600000000002</ele>
        <time>2016-07-30T14:19:13Z</time>
      </trkpt>
      <trkpt lat="46.147781107574701" lon="7.975636683404446">
        <ele>2729.3200000000002</ele>
        <time>2016-07-30T14:19:25Z</time>
      </trkpt>
      <trkpt lat="46.14772436209023" lon="7.975660404190421">
        <ele>2727.8800000000001</ele>
        <time>2016-07-30T14:19:31Z</time>
      </trkpt>
      <trkpt lat="46.147621935233474" lon="7.975680017843843">
        <ele>2726.4400000000001</ele>
        <time>2016-07-30T14:19:41Z</time>
      </trkpt>
      <trkpt lat="46.147547671571374" lon="7.975696781650186">
        <ele>2725.96</ele>
        <time>2016-07-30T14:19:49Z</time>
      </trkpt>
      <trkpt lat="46.147531326860189" lon="7.975690746679902">
        <ele>2724.9899999999998</ele>
        <time>2016-07-30T14:19:51Z</time>
      </trkpt>
      <trkpt lat="46.147482795640826" lon="7.975708181038499">
        <ele>2724.5100000000002</ele>
        <time>2016-07-30T14:19:56Z</time>
      </trkpt>
      <trkpt lat="46.147421691566706" lon="7.975768698379397">
        <ele>2724.5100000000002</ele>
        <time>2016-07-30T14:20:06Z</time>
      </trkpt>
      <trkpt lat="46.147418841719627" lon="7.97577565535903">
        <ele>2724.9899999999998</ele>
        <time>2016-07-30T14:20:07Z</time>
      </trkpt>
      <trkpt lat="46.147375339642167" lon="7.975777750834823">
        <ele>2724.9899999999998</ele>
        <time>2016-07-30T14:20:12Z</time>
      </trkpt>
      <trkpt lat="46.147334519773722" lon="7.975741624832153">
        <ele>2724.5100000000002</ele>
        <time>2016-07-30T14:20:17Z</time>
      </trkpt>
      <trkpt lat="46.147299483418465" lon="7.97575369477272">
        <ele>2724.0300000000002</ele>
        <time>2016-07-30T14:20:21Z</time>
      </trkpt>
      <trkpt lat="46.147271236404777" lon="7.975746318697929">
        <ele>2724.0300000000002</ele>
        <time>2016-07-30T14:20:24Z</time>
      </trkpt>
      <trkpt lat="46.147173587232828" lon="7.975745229050517">
        <ele>2725.48</ele>
        <time>2016-07-30T14:20:35Z</time>
      </trkpt>
      <trkpt lat="46.147136203944683" lon="7.975805997848511">
        <ele>2724.9899999999998</ele>
        <time>2016-07-30T14:20:44Z</time>
      </trkpt>
      <trkpt lat="46.147124469280243" lon="7.975818822160363">
        <ele>2726.4400000000001</ele>
        <time>2016-07-30T14:20:47Z</time>
      </trkpt>
      <trkpt lat="46.147110806778073" lon="7.975864922627807">
        <ele>2726.9200000000001</ele>
        <time>2016-07-30T14:20:55Z</time>
      </trkpt>
      <trkpt lat="46.147056743502617" lon="7.975924853235483">
        <ele>2728.8400000000001</ele>
        <time>2016-07-30T14:21:05Z</time>
      </trkpt>
      <trkpt lat="46.146985162049532" lon="7.975971205160022">
        <ele>2730.2800000000002</ele>
        <time>2016-07-30T14:21:17Z</time>
      </trkpt>
      <trkpt lat="46.146893044933677" lon="7.975978748872876">
        <ele>2730.7600000000002</ele>
        <time>2016-07-30T14:21:28Z</time>
      </trkpt>
      <trkpt lat="46.146836467087269" lon="7.975936001166701">
        <ele>2729.8000000000002</ele>
        <time>2016-07-30T14:21:37Z</time>
      </trkpt>
      <trkpt lat="46.146788187325001" lon="7.975898617878556">
        <ele>2729.8000000000002</ele>
        <time>2016-07-30T14:21:43Z</time>
      </trkpt>
      <trkpt lat="46.146704200655222" lon="7.975917728617787">
        <ele>2729.8000000000002</ele>
        <time>2016-07-30T14:21:56Z</time>
      </trkpt>
      <trkpt lat="46.146616777405143" lon="7.97593155875802">
        <ele>2729.8000000000002</ele>
        <time>2016-07-30T14:22:07Z</time>
      </trkpt>
      <trkpt lat="46.146566737443209" lon="7.9759930819273">
        <ele>2730.7600000000002</ele>
        <time>2016-07-30T14:22:17Z</time>
      </trkpt>
      <trkpt lat="46.146484427154064" lon="7.976007917895913">
        <ele>2731.7199999999998</ele>
        <time>2016-07-30T14:22:27Z</time>
      </trkpt>
      <trkpt lat="46.146419802680612" lon="7.97608545050025">
        <ele>2733.6500000000001</ele>
        <time>2016-07-30T14:22:39Z</time>
      </trkpt>
      <trkpt lat="46.146417120471597" lon="7.976096346974373">
        <ele>2733.6500000000001</ele>
        <time>2016-07-30T14:22:40Z</time>
      </trkpt>
      <trkpt lat="46.146396081894636" lon="7.976206485182047">
        <ele>2734.6100000000001</ele>
        <time>2016-07-30T14:22:52Z</time>
      </trkpt>
      <trkpt lat="46.14639088511467" lon="7.976264739409089">
        <ele>2736.5300000000002</ele>
        <time>2016-07-30T14:23:06Z</time>
      </trkpt>
      <trkpt lat="46.146374624222517" lon="7.976324083283544">
        <ele>2737.0100000000002</ele>
        <time>2016-07-30T14:23:18Z</time>
      </trkpt>
      <trkpt lat="46.146390717476606" lon="7.976390467956662">
        <ele>2739.8899999999999</ele>
        <time>2016-07-30T14:23:33Z</time>
      </trkpt>
      <trkpt lat="46.146376803517342" lon="7.976497504860163">
        <ele>2741.3400000000001</ele>
        <time>2016-07-30T14:23:46Z</time>
      </trkpt>
      <trkpt lat="46.146380323916674" lon="7.976525416597724">
        <ele>2741.8200000000002</ele>
        <time>2016-07-30T14:23:58Z</time>
      </trkpt>
      <trkpt lat="46.146392645314336" lon="7.976536899805069">
        <ele>2742.3000000000002</ele>
        <time>2016-07-30T14:24:12Z</time>
      </trkpt>
      <trkpt lat="46.14639189094305" lon="7.97660537995398">
        <ele>2743.7399999999998</ele>
        <time>2016-07-30T14:24:21Z</time>
      </trkpt>
      <trkpt lat="46.146401362493634" lon="7.976655503734946">
        <ele>2745.1799999999998</ele>
        <time>2016-07-30T14:24:29Z</time>
      </trkpt>
      <trkpt lat="46.146349143236876" lon="7.97669280320406">
        <ele>2747.0999999999999</ele>
        <time>2016-07-30T14:24:37Z</time>
      </trkpt>
      <trkpt lat="46.146323159337044" lon="7.976715937256813">
        <ele>2745.1799999999998</ele>
        <time>2016-07-30T14:24:48Z</time>
      </trkpt>
      <trkpt lat="46.146301869302988" lon="7.976711327210069">
        <ele>2745.6599999999999</ele>
        <time>2016-07-30T14:25:01Z</time>
      </trkpt>
      <trkpt lat="46.146285776048899" lon="7.976737311109901">
        <ele>2744.6999999999998</ele>
        <time>2016-07-30T14:25:09Z</time>
      </trkpt>
      <trkpt lat="46.146268509328365" lon="7.976695904508233">
        <ele>2743.7399999999998</ele>
        <time>2016-07-30T14:25:15Z</time>
      </trkpt>
      <trkpt lat="46.146232970058918" lon="7.976669250056148">
        <ele>2742.3000000000002</ele>
        <time>2016-07-30T14:25:24Z</time>
      </trkpt>
      <trkpt lat="46.14621302112937" lon="7.976638237014413">
        <ele>2741.8200000000002</ele>
        <time>2016-07-30T14:25:35Z</time>
      </trkpt>
      <trkpt lat="46.146236071363091" lon="7.976631196215749">
        <ele>2741.8200000000002</ele>
        <time>2016-07-30T14:25:47Z</time>
      </trkpt>
      <trkpt lat="46.146236574277282" lon="7.976653072983027">
        <ele>2742.3000000000002</ele>
        <time>2016-07-30T14:26:10Z</time>
      </trkpt>
      <trkpt lat="46.146237915381789" lon="7.976634716615081">
        <ele>2741.8200000000002</ele>
        <time>2016-07-30T14:26:28Z</time>
      </trkpt>
      <trkpt lat="46.146195000037551" lon="7.976601356640458">
        <ele>2743.2600000000002</ele>
        <time>2016-07-30T14:26:38Z</time>
      </trkpt>
      <trkpt lat="46.146189467981458" lon="7.976608062162995">
        <ele>2741.8200000000002</ele>
        <time>2016-07-30T14:26:53Z</time>
      </trkpt>
      <trkpt lat="46.146196676418185" lon="7.976604541763663">
        <ele>2741.3400000000001</ele>
        <time>2016-07-30T14:27:08Z</time>
      </trkpt>
      <trkpt lat="46.146196005865932" lon="7.97659850679338">
        <ele>2741.8200000000002</ele>
        <time>2016-07-30T14:27:23Z</time>
      </trkpt>
      <trkpt lat="46.146203633397818" lon="7.976597500964999">
        <ele>2741.8200000000002</ele>
        <time>2016-07-30T14:27:40Z</time>
      </trkpt>
      <trkpt lat="46.146189887076616" lon="7.976602697744966">
        <ele>2741.8200000000002</ele>
        <time>2016-07-30T14:27:56Z</time>
      </trkpt>
      <trkpt lat="46.146191731095314" lon="7.976605966687203">
        <ele>2741.8200000000002</ele>
        <time>2016-07-30T14:28:09Z</time>
      </trkpt>
      <trkpt lat="46.146205980330706" lon="7.976605044677854">
        <ele>2742.3000000000002</ele>
        <time>2016-07-30T14:28:25Z</time>
      </trkpt>
      <trkpt lat="46.146176559850574" lon="7.976586353033781">
        <ele>2741.8200000000002</ele>
        <time>2016-07-30T14:28:30Z</time>
      </trkpt>
      <trkpt lat="46.146085364744067" lon="7.976507646963">
        <ele>2739.4099999999999</ele>
        <time>2016-07-30T14:28:42Z</time>
      </trkpt>
      <trkpt lat="46.146041443571448" lon="7.976503288373351">
        <ele>2737.9699999999998</ele>
        <time>2016-07-30T14:28:46Z</time>
      </trkpt>
      <trkpt lat="46.145988637581468" lon="7.976460875943303">
        <ele>2736.0500000000002</ele>
        <time>2016-07-30T14:28:52Z</time>
      </trkpt>
      <trkpt lat="46.145921414718032" lon="7.976503623649478">
        <ele>2736.0500000000002</ele>
        <time>2016-07-30T14:28:59Z</time>
      </trkpt>
      <trkpt lat="46.145912446081638" lon="7.97653497196734">
        <ele>2736.0500000000002</ele>
        <time>2016-07-30T14:29:10Z</time>
      </trkpt>
      <trkpt lat="46.145896939560771" lon="7.976558776572347">
        <ele>2736.0500000000002</ele>
        <time>2016-07-30T14:29:26Z</time>
      </trkpt>
      <trkpt lat="46.145874140784144" lon="7.976651731878519">
        <ele>2736.5300000000002</ele>
        <time>2016-07-30T14:29:35Z</time>
      </trkpt>
      <trkpt lat="46.145866680890322" lon="7.976690791547298">
        <ele>2736.0500000000002</ele>
        <time>2016-07-30T14:29:38Z</time>
      </trkpt>
      <trkpt lat="46.145855030044913" lon="7.976750135421753">
        <ele>2737.0100000000002</ele>
        <time>2016-07-30T14:29:44Z</time>
      </trkpt>
      <trkpt lat="46.145864501595497" lon="7.976807383820415">
        <ele>2736.5300000000002</ele>
        <time>2016-07-30T14:29:48Z</time>
      </trkpt>
      <trkpt lat="46.145888306200504" lon="7.976888436824083">
        <ele>2737.0100000000002</ele>
        <time>2016-07-30T14:29:59Z</time>
      </trkpt>
      <trkpt lat="46.14588126540184" lon="7.97690880484879">
        <ele>2737.0100000000002</ele>
        <time>2016-07-30T14:30:01Z</time>
      </trkpt>
      <trkpt lat="46.145875817164779" lon="7.976992120966315">
        <ele>2737.0100000000002</ele>
        <time>2016-07-30T14:30:08Z</time>
      </trkpt>
      <trkpt lat="46.145854610949755" lon="7.977133523672819">
        <ele>2736.5300000000002</ele>
        <time>2016-07-30T14:30:19Z</time>
      </trkpt>
      <trkpt lat="46.145838769152761" lon="7.977239219471812">
        <ele>2737.4899999999998</ele>
        <time>2016-07-30T14:30:31Z</time>
      </trkpt>
      <trkpt lat="46.145822592079639" lon="7.977276351302862">
        <ele>2738.4499999999998</ele>
        <time>2016-07-30T14:30:35Z</time>
      </trkpt>
      <trkpt lat="46.145725948736072" lon="7.977333934977651">
        <ele>2738.4499999999998</ele>
        <time>2016-07-30T14:30:46Z</time>
      </trkpt>
      <trkpt lat="46.145656295120716" lon="7.977402079850435">
        <ele>2737.9699999999998</ele>
        <time>2016-07-30T14:30:56Z</time>
      </trkpt>
      <trkpt lat="46.145633663982153" lon="7.977469218894839">
        <ele>2737.9699999999998</ele>
        <time>2016-07-30T14:31:06Z</time>
      </trkpt>
      <trkpt lat="46.145629556849599" lon="7.977502914145589">
        <ele>2738.9299999999998</ele>
        <time>2016-07-30T14:31:11Z</time>
      </trkpt>
      <trkpt lat="46.145614637061954" lon="7.977513894438744">
        <ele>2738.9299999999998</ele>
        <time>2016-07-30T14:31:13Z</time>
      </trkpt>
      <trkpt lat="46.145543809980154" lon="7.977556139230728">
        <ele>2738.4499999999998</ele>
        <time>2016-07-30T14:31:20Z</time>
      </trkpt>
      <trkpt lat="46.14552310667932" lon="7.977584470063448">
        <ele>2738.4499999999998</ele>
        <time>2016-07-30T14:31:24Z</time>
      </trkpt>
      <trkpt lat="46.145514557138085" lon="7.977645406499505">
        <ele>2738.9299999999998</ele>
        <time>2016-07-30T14:31:29Z</time>
      </trkpt>
      <trkpt lat="46.14551673643291" lon="7.977765519171953">
        <ele>2739.4099999999999</ele>
        <time>2016-07-30T14:31:40Z</time>
      </trkpt>
      <trkpt lat="46.145498631522059" lon="7.977856127545238">
        <ele>2737.4899999999998</ele>
        <time>2016-07-30T14:31:48Z</time>
      </trkpt>
      <trkpt lat="46.145482873544097" lon="7.977903485298157">
        <ele>2737.0100000000002</ele>
        <time>2016-07-30T14:31:51Z</time>
      </trkpt>
      <trkpt lat="46.145457644015551" lon="7.978010019287467">
        <ele>2737.0100000000002</ele>
        <time>2016-07-30T14:32:00Z</time>
      </trkpt>
      <trkpt lat="46.145478766411543" lon="7.978082187473774">
        <ele>2738.4499999999998</ele>
        <time>2016-07-30T14:32:08Z</time>
      </trkpt>
      <trkpt lat="46.145468205213547" lon="7.978116637095809">
        <ele>2738.4499999999998</ele>
        <time>2016-07-30T14:32:10Z</time>
      </trkpt>
      <trkpt lat="46.145439790561795" lon="7.978186458349228">
        <ele>2738.4499999999998</ele>
        <time>2016-07-30T14:32:15Z</time>
      </trkpt>
      <trkpt lat="46.145450854673982" lon="7.978249490261078">
        <ele>2738.4499999999998</ele>
        <time>2016-07-30T14:32:20Z</time>
      </trkpt>
      <trkpt lat="46.145483376458287" lon="7.978378152474761">
        <ele>2739.4099999999999</ele>
        <time>2016-07-30T14:32:32Z</time>
      </trkpt>
      <trkpt lat="46.14547080360353" lon="7.978506647050381">
        <ele>2740.3800000000001</ele>
        <time>2016-07-30T14:32:43Z</time>
      </trkpt>
      <trkpt lat="46.145486477762461" lon="7.97859507612884">
        <ele>2740.3800000000001</ele>
        <time>2016-07-30T14:32:52Z</time>
      </trkpt>
      <trkpt lat="46.145495446398854" lon="7.978686019778252">
        <ele>2741.3400000000001</ele>
        <time>2016-07-30T14:33:01Z</time>
      </trkpt>
      <trkpt lat="46.145501481369138" lon="7.978720888495445">
        <ele>2742.3000000000002</ele>
        <time>2016-07-30T14:33:08Z</time>
      </trkpt>
      <trkpt lat="46.145493434742093" lon="7.97874259762466">
        <ele>2742.3000000000002</ele>
        <time>2016-07-30T14:33:21Z</time>
      </trkpt>
      <trkpt lat="46.145502990111709" lon="7.978776041418314">
        <ele>2742.7800000000002</ele>
        <time>2016-07-30T14:33:31Z</time>
      </trkpt>
      <trkpt lat="46.145450016483665" lon="7.978796325623989">
        <ele>2742.7800000000002</ele>
        <time>2016-07-30T14:33:45Z</time>
      </trkpt>
      <trkpt lat="46.145340632647276" lon="7.978862794116139">
        <ele>2742.3000000000002</ele>
        <time>2016-07-30T14:33:55Z</time>
      </trkpt>
      <trkpt lat="46.145268548280001" lon="7.978859189897776">
        <ele>2741.8200000000002</ele>
        <time>2016-07-30T14:34:05Z</time>
      </trkpt>
      <trkpt lat="46.145264189690351" lon="7.97885307110846">
        <ele>2741.3400000000001</ele>
        <time>2016-07-30T14:34:17Z</time>
      </trkpt>
      <trkpt lat="46.145176682621241" lon="7.978838067501783">
        <ele>2740.8600000000001</ele>
        <time>2016-07-30T14:34:27Z</time>
      </trkpt>
      <trkpt lat="46.1451580747962" lon="7.978845527395606">
        <ele>2740.8600000000001</ele>
        <time>2016-07-30T14:34:29Z</time>
      </trkpt>
      <trkpt lat="46.14505254663527" lon="7.978849466890097">
        <ele>2739.8899999999999</ele>
        <time>2016-07-30T14:34:40Z</time>
      </trkpt>
      <trkpt lat="46.145028909668326" lon="7.978831948712468">
        <ele>2741.3400000000001</ele>
        <time>2016-07-30T14:34:43Z</time>
      </trkpt>
      <trkpt lat="46.144901504740119" lon="7.978718290105462">
        <ele>2738.9299999999998</ele>
        <time>2016-07-30T14:34:57Z</time>
      </trkpt>
      <trkpt lat="46.144846854731441" lon="7.978708148002625">
        <ele>2739.4099999999999</ele>
        <time>2016-07-30T14:35:04Z</time>
      </trkpt>
      <trkpt lat="46.144771501421928" lon="7.978639248758555">
        <ele>2739.4099999999999</ele>
        <time>2016-07-30T14:35:14Z</time>
      </trkpt>
      <trkpt lat="46.144689610227942" lon="7.978641344234347">
        <ele>2739.4099999999999</ele>
        <time>2016-07-30T14:35:25Z</time>
      </trkpt>
      <trkpt lat="46.144630098715425" lon="7.978671519085765">
        <ele>2738.4499999999998</ele>
        <time>2016-07-30T14:35:35Z</time>
      </trkpt>
      <trkpt lat="46.144622722640634" lon="7.978674620389938">
        <ele>2737.9699999999998</ele>
        <time>2016-07-30T14:35:37Z</time>
      </trkpt>
      <trkpt lat="46.144575281068683" lon="7.978621898218989">
        <ele>2736.0500000000002</ele>
        <time>2016-07-30T14:35:46Z</time>
      </trkpt>
      <trkpt lat="46.144574107602239" lon="7.97861217521131">
        <ele>2736.0500000000002</ele>
        <time>2016-07-30T14:35:49Z</time>
      </trkpt>
      <trkpt lat="46.14459564909339" lon="7.978557189926505">
        <ele>2735.0900000000001</ele>
        <time>2016-07-30T14:35:57Z</time>
      </trkpt>
      <trkpt lat="46.144590033218265" lon="7.978545539081097">
        <ele>2735.0900000000001</ele>
        <time>2016-07-30T14:36:08Z</time>
      </trkpt>
      <trkpt lat="46.144583830609918" lon="7.978546628728509">
        <ele>2735.0900000000001</ele>
        <time>2016-07-30T14:36:22Z</time>
      </trkpt>
      <trkpt lat="46.144577376544476" lon="7.978527517989278">
        <ele>2735.0900000000001</ele>
        <time>2016-07-30T14:36:36Z</time>
      </trkpt>
      <trkpt lat="46.144534796476364" lon="7.978487620130181">
        <ele>2735.5700000000002</ele>
        <time>2016-07-30T14:36:43Z</time>
      </trkpt>
      <trkpt lat="46.144519541412592" lon="7.978459289297462">
        <ele>2736.0500000000002</ele>
        <time>2016-07-30T14:36:47Z</time>
      </trkpt>
      <trkpt lat="46.144444104284048" lon="7.978371195495129">
        <ele>2737.4899999999998</ele>
        <time>2016-07-30T14:36:57Z</time>
      </trkpt>
      <trkpt lat="46.144365733489394" lon="7.978280419483781">
        <ele>2738.9299999999998</ele>
        <time>2016-07-30T14:37:08Z</time>
      </trkpt>
      <trkpt lat="46.14428442902863" lon="7.978196684271097">
        <ele>2738.9299999999998</ele>
        <time>2016-07-30T14:37:19Z</time>
      </trkpt>
      <trkpt lat="46.144200274720788" lon="7.97816650941968">
        <ele>2740.3800000000001</ele>
        <time>2016-07-30T14:37:30Z</time>
      </trkpt>
      <trkpt lat="46.144152078777552" lon="7.978064669296145">
        <ele>2740.3800000000001</ele>
        <time>2016-07-30T14:37:41Z</time>
      </trkpt>
      <trkpt lat="46.144141685217619" lon="7.978000631555915">
        <ele>2739.4099999999999</ele>
        <time>2016-07-30T14:37:46Z</time>
      </trkpt>
      <trkpt lat="46.144096422940493" lon="7.977953525260091">
        <ele>2738.4499999999998</ele>
        <time>2016-07-30T14:37:51Z</time>
      </trkpt>
      <trkpt lat="46.144005144014955" lon="7.977916058152914">
        <ele>2737.9699999999998</ele>
        <time>2016-07-30T14:38:03Z</time>
      </trkpt>
      <trkpt lat="46.143995504826307" lon="7.977921422570944">
        <ele>2737.9699999999998</ele>
        <time>2016-07-30T14:38:04Z</time>
      </trkpt>
      <trkpt lat="46.143948314711452" lon="7.977963918820024">
        <ele>2737.9699999999998</ele>
        <time>2016-07-30T14:38:10Z</time>
      </trkpt>
      <trkpt lat="46.143827280029655" lon="7.977932570502162">
        <ele>2738.4499999999998</ele>
        <time>2016-07-30T14:38:24Z</time>
      </trkpt>
      <trkpt lat="46.143833650276065" lon="7.97798621468246">
        <ele>2738.4499999999998</ele>
        <time>2016-07-30T14:38:39Z</time>
      </trkpt>
      <trkpt lat="46.143776904791594" lon="7.977940030395985">
        <ele>2738.9299999999998</ele>
        <time>2016-07-30T14:38:49Z</time>
      </trkpt>
      <trkpt lat="46.143728205934167" lon="7.977821007370949">
        <ele>2738.4499999999998</ele>
        <time>2016-07-30T14:39:06Z</time>
      </trkpt>
      <trkpt lat="46.143715465441346" lon="7.977875741198659">
        <ele>2738.4499999999998</ele>
        <time>2016-07-30T14:39:23Z</time>
      </trkpt>
      <trkpt lat="46.143782939761877" lon="7.977833831682801">
        <ele>2738.9299999999998</ele>
        <time>2016-07-30T14:39:43Z</time>
      </trkpt>
      <trkpt lat="46.143786376342177" lon="7.977844811975956">
        <ele>2738.4499999999998</ele>
        <time>2016-07-30T14:39:59Z</time>
      </trkpt>
      <trkpt lat="46.143791573122144" lon="7.977866353467107">
        <ele>2737.9699999999998</ele>
        <time>2016-07-30T14:40:21Z</time>
      </trkpt>
      <trkpt lat="46.143856197595596" lon="7.977836849167943">
        <ele>2737.9699999999998</ele>
        <time>2016-07-30T14:40:42Z</time>
      </trkpt>
      <trkpt lat="46.143773887306452" lon="7.977867862209678">
        <ele>2738.4499999999998</ele>
        <time>2016-07-30T14:41:02Z</time>
      </trkpt>
    </trkseg>
  </trk>

  <trk>
    <name>kreuzboden-weissmashutte2016-07-30</name>
    <extensions>
      <gpxx:TrackExtension>
        <gpxx:DisplayColor>Yellow</gpxx:DisplayColor>
      </gpxx:TrackExtension>
      <gpxtrkx:TrackStatsExtension xmlns:gpxtrkx="http://www.garmin.com/xmlschemas/TrackStatsExtension/v1">
        <gpxtrkx:Distance>2069</gpxtrkx:Distance>
        <gpxtrkx:TotalElapsedTime>3803</gpxtrkx:TotalElapsedTime>
        <gpxtrkx:MovingTime>2727</gpxtrkx:MovingTime>
        <gpxtrkx:StoppedTime>1043</gpxtrkx:StoppedTime>
        <gpxtrkx:MovingSpeed>1</gpxtrkx:MovingSpeed>
        <gpxtrkx:MaxSpeed>1</gpxtrkx:MaxSpeed>
        <gpxtrkx:MaxElevation>2733</gpxtrkx:MaxElevation>
        <gpxtrkx:MinElevation>2410</gpxtrkx:MinElevation>
        <gpxtrkx:Ascent>320</gpxtrkx:Ascent>
        <gpxtrkx:Descent>0</gpxtrkx:Descent>
        <gpxtrkx:AvgAscentRate>0</gpxtrkx:AvgAscentRate>
        <gpxtrkx:MaxAscentRate>0</gpxtrkx:MaxAscentRate>
        <gpxtrkx:AvgDescentRate>-0</gpxtrkx:AvgDescentRate>
        <gpxtrkx:MaxDescentRate>0</gpxtrkx:MaxDescentRate>
      </gpxtrkx:TrackStatsExtension>
    </extensions>
    <trkseg>
      <trkpt lat="46.138541316613555" lon="7.963731782510877">
        <ele>2410.1599999999999</ele>
        <time>2016-07-30T09:42:00Z</time>
      </trkpt>
      <trkpt lat="46.138540646061301" lon="7.963727423921228">
        <ele>2410.1599999999999</ele>
        <time>2016-07-30T09:42:01Z</time>
      </trkpt>
      <trkpt lat="46.138547267764807" lon="7.963757012039423">
        <ele>2410.6399999999999</ele>
        <time>2016-07-30T09:42:16Z</time>
      </trkpt>
      <trkpt lat="46.138564702123404" lon="7.963778469711542">
        <ele>2410.6399999999999</ele>
        <time>2016-07-30T09:42:29Z</time>
      </trkpt>
      <trkpt lat="46.138570988550782" lon="7.96379690989852">
        <ele>2410.6399999999999</ele>
        <time>2016-07-30T09:42:48Z</time>
      </trkpt>
      <trkpt lat="46.138578448444605" lon="7.963784672319889">
        <ele>2410.6399999999999</ele>
        <time>2016-07-30T09:43:10Z</time>
      </trkpt>
      <trkpt lat="46.138587081804872" lon="7.963787103071809">
        <ele>2410.6399999999999</ele>
        <time>2016-07-30T09:43:24Z</time>
      </trkpt>
      <trkpt lat="46.13856403157115" lon="7.963802190497518">
        <ele>2412.5700000000002</ele>
        <time>2016-07-30T09:43:35Z</time>
      </trkpt>
      <trkpt lat="46.138631254434586" lon="7.963844183832407">
        <ele>2411.5999999999999</ele>
        <time>2016-07-30T09:43:43Z</time>
      </trkpt>
      <trkpt lat="46.138565288856626" lon="7.963782157748938">
        <ele>2411.1199999999999</ele>
        <time>2016-07-30T09:43:55Z</time>
      </trkpt>
      <trkpt lat="46.138568557798862" lon="7.963764807209373">
        <ele>2410.6399999999999</ele>
        <time>2016-07-30T09:44:21Z</time>
      </trkpt>
      <trkpt lat="46.138579873368144" lon="7.963773189112544">
        <ele>2411.1199999999999</ele>
        <time>2016-07-30T09:44:38Z</time>
      </trkpt>
      <trkpt lat="46.138560846447945" lon="7.963782325387001">
        <ele>2411.1199999999999</ele>
        <time>2016-07-30T09:44:54Z</time>
      </trkpt>
      <trkpt lat="46.138575933873653" lon="7.963761119171977">
        <ele>2411.1199999999999</ele>
        <time>2016-07-30T09:45:10Z</time>
      </trkpt>
      <trkpt lat="46.138563193380833" lon="7.963776541873813">
        <ele>2411.5999999999999</ele>
        <time>2016-07-30T09:45:17Z</time>
      </trkpt>
      <trkpt lat="46.138589512556791" lon="7.963798670098186">
        <ele>2405.3600000000001</ele>
        <time>2016-07-30T09:45:29Z</time>
      </trkpt>
      <trkpt lat="46.138609293848276" lon="7.963866647332907">
        <ele>2413.0500000000002</ele>
        <time>2016-07-30T09:45:31Z</time>
      </trkpt>
      <trkpt lat="46.138605773448944" lon="7.963874945417047">
        <ele>2411.5999999999999</ele>
        <time>2016-07-30T09:45:32Z</time>
      </trkpt>
      <trkpt lat="46.138570737093687" lon="7.96378668397665">
        <ele>2411.1199999999999</ele>
        <time>2016-07-30T09:45:43Z</time>
      </trkpt>
      <trkpt lat="46.138577526435256" lon="7.963760029524565">
        <ele>2410.6399999999999</ele>
        <time>2016-07-30T09:46:09Z</time>
      </trkpt>
      <trkpt lat="46.138572916388512" lon="7.963795065879822">
        <ele>2411.5999999999999</ele>
        <time>2016-07-30T09:46:37Z</time>
      </trkpt>
      <trkpt lat="46.138550871983171" lon="7.96379498206079">
        <ele>2411.1199999999999</ele>
        <time>2016-07-30T09:46:57Z</time>
      </trkpt>
      <trkpt lat="46.138553805649281" lon="7.963789450004697">
        <ele>2411.1199999999999</ele>
        <time>2016-07-30T09:47:14Z</time>
      </trkpt>
      <trkpt lat="46.138541987165809" lon="7.96377738006413">
        <ele>2411.1199999999999</ele>
        <time>2016-07-30T09:47:36Z</time>
      </trkpt>
      <trkpt lat="46.138557242229581" lon="7.963802274316549">
        <ele>2411.1199999999999</ele>
        <time>2016-07-30T09:47:57Z</time>
      </trkpt>
      <trkpt lat="46.138573084026575" lon="7.96379255130887">
        <ele>2411.1199999999999</ele>
        <time>2016-07-30T09:48:21Z</time>
      </trkpt>
      <trkpt lat="46.138598313555121" lon="7.963766986504197">
        <ele>2411.1199999999999</ele>
        <time>2016-07-30T09:48:40Z</time>
      </trkpt>
      <trkpt lat="46.138588422909379" lon="7.963759023696184">
        <ele>2411.1199999999999</ele>
        <time>2016-07-30T09:48:55Z</time>
      </trkpt>
      <trkpt lat="46.138583393767476" lon="7.963749635964632">
        <ele>2411.5999999999999</ele>
        <time>2016-07-30T09:49:05Z</time>
      </trkpt>
      <trkpt lat="46.138586746528745" lon="7.963742259889841">
        <ele>2411.5999999999999</ele>
        <time>2016-07-30T09:49:18Z</time>
      </trkpt>
      <trkpt lat="46.138583729043603" lon="7.963772937655449">
        <ele>2411.1199999999999</ele>
        <time>2016-07-30T09:49:35Z</time>
      </trkpt>
      <trkpt lat="46.138623375445604" lon="7.963831778615713">
        <ele>2410.6399999999999</ele>
        <time>2016-07-30T09:49:52Z</time>
      </trkpt>
      <trkpt lat="46.138660172000527" lon="7.963916603475809">
        <ele>2410.6399999999999</ele>
        <time>2016-07-30T09:50:03Z</time>
      </trkpt>
      <trkpt lat="46.138696298003197" lon="7.96400067396462">
        <ele>2411.1199999999999</ele>
        <time>2016-07-30T09:50:14Z</time>
      </trkpt>
      <trkpt lat="46.138720186427236" lon="7.963985083624721">
        <ele>2412.0900000000001</ele>
        <time>2016-07-30T09:50:26Z</time>
      </trkpt>
      <trkpt lat="46.138703674077988" lon="7.964000757783651">
        <ele>2412.0900000000001</ele>
        <time>2016-07-30T09:50:47Z</time>
      </trkpt>
      <trkpt lat="46.138706272467971" lon="7.963982988148928">
        <ele>2412.0900000000001</ele>
        <time>2016-07-30T09:51:00Z</time>
      </trkpt>
      <trkpt lat="46.138758407905698" lon="7.96396748162806">
        <ele>2412.5700000000002</ele>
        <time>2016-07-30T09:51:11Z</time>
      </trkpt>
      <trkpt lat="46.138848345726728" lon="7.963971002027392">
        <ele>2413.5300000000002</ele>
        <time>2016-07-30T09:51:24Z</time>
      </trkpt>
      <trkpt lat="46.138914059847593" lon="7.964014755561948">
        <ele>2414.9699999999998</ele>
        <time>2016-07-30T09:51:35Z</time>
      </trkpt>
      <trkpt lat="46.138936774805188" lon="7.964046858251095">
        <ele>2414.9699999999998</ele>
        <time>2016-07-30T09:51:39Z</time>
      </trkpt>
      <trkpt lat="46.13896083086729" lon="7.964185159653425">
        <ele>2416.4099999999999</ele>
        <time>2016-07-30T09:51:51Z</time>
      </trkpt>
      <trkpt lat="46.138970972970128" lon="7.96431977301836">
        <ele>2417.3699999999999</ele>
        <time>2016-07-30T09:52:03Z</time>
      </trkpt>
      <trkpt lat="46.138980528339744" lon="7.96436570584774">
        <ele>2417.8499999999999</ele>
        <time>2016-07-30T09:52:12Z</time>
      </trkpt>
      <trkpt lat="46.13899745978415" lon="7.964507611468434">
        <ele>2418.8099999999999</ele>
        <time>2016-07-30T09:52:26Z</time>
      </trkpt>
      <trkpt lat="46.139015648514032" lon="7.964610122144222">
        <ele>2419.7800000000002</ele>
        <time>2016-07-30T09:52:38Z</time>
      </trkpt>
      <trkpt lat="46.139023192226887" lon="7.964761247858405">
        <ele>2422.1799999999998</ele>
        <time>2016-07-30T09:52:53Z</time>
      </trkpt>
      <trkpt lat="46.139029394835234" lon="7.964797960594297">
        <ele>2422.6599999999999</ele>
        <time>2016-07-30T09:52:57Z</time>
      </trkpt>
      <trkpt lat="46.13904582336545" lon="7.964952355250716">
        <ele>2424.5799999999999</ele>
        <time>2016-07-30T09:53:11Z</time>
      </trkpt>
      <trkpt lat="46.139090498909354" lon="7.965058637782931">
        <ele>2426.02</ele>
        <time>2016-07-30T09:53:23Z</time>
      </trkpt>
      <trkpt lat="46.139145651832223" lon="7.965180007740855">
        <ele>2428.4299999999998</ele>
        <time>2016-07-30T09:53:38Z</time>
      </trkpt>
      <trkpt lat="46.139187309890985" lon="7.965295510366559">
        <ele>2429.3899999999999</ele>
        <time>2016-07-30T09:53:50Z</time>
      </trkpt>
      <trkpt lat="46.139240702614188" lon="7.965426770970225">
        <ele>2431.3099999999999</ele>
        <time>2016-07-30T09:54:04Z</time>
      </trkpt>
      <trkpt lat="46.13928722217679" lon="7.96552911400795">
        <ele>2432.75</ele>
        <time>2016-07-30T09:54:15Z</time>
      </trkpt>
      <trkpt lat="46.139317061752081" lon="7.965653082355857">
        <ele>2434.1999999999998</ele>
        <time>2016-07-30T09:54:27Z</time>
      </trkpt>
      <trkpt lat="46.139377998188138" lon="7.965753749012947">
        <ele>2435.6399999999999</ele>
        <time>2016-07-30T09:54:39Z</time>
      </trkpt>
      <trkpt lat="46.13941085524857" lon="7.965835221111774">
        <ele>2437.0799999999999</ele>
        <time>2016-07-30T09:54:49Z</time>
      </trkpt>
      <trkpt lat="46.139486711472273" lon="7.965896744281054">
        <ele>2439</ele>
        <time>2016-07-30T09:55:02Z</time>
      </trkpt>
      <trkpt lat="46.139576900750399" lon="7.96593127772212">
        <ele>2441.4099999999999</ele>
        <time>2016-07-30T09:55:16Z</time>
      </trkpt>
      <trkpt lat="46.139641357585788" lon="7.965947203338146">
        <ele>2443.3299999999999</ele>
        <time>2016-07-30T09:55:30Z</time>
      </trkpt>
      <trkpt lat="46.139703802764416" lon="7.965934714302421">
        <ele>2445.25</ele>
        <time>2016-07-30T09:55:41Z</time>
      </trkpt>
      <trkpt lat="46.139768678694963" lon="7.965918034315109">
        <ele>2447.1700000000001</ele>
        <time>2016-07-30T09:55:52Z</time>
      </trkpt>
      <trkpt lat="46.139822071418166" lon="7.96589314006269">
        <ele>2448.6199999999999</ele>
        <time>2016-07-30T09:56:04Z</time>
      </trkpt>
      <trkpt lat="46.13988627679646" lon="7.965878304094076">
        <ele>2450.54</ele>
        <time>2016-07-30T09:56:17Z</time>
      </trkpt>
      <trkpt lat="46.139862472191453" lon="7.965995231643319">
        <ele>2451.98</ele>
        <time>2016-07-30T09:56:27Z</time>
      </trkpt>
      <trkpt lat="46.139867585152388" lon="7.966063125059009">
        <ele>2452.46</ele>
        <time>2016-07-30T09:56:38Z</time>
      </trkpt>
      <trkpt lat="46.139890048652887" lon="7.966164378449321">
        <ele>2453.9000000000001</ele>
        <time>2016-07-30T09:56:49Z</time>
      </trkpt>
      <trkpt lat="46.139923743903637" lon="7.966276695951819">
        <ele>2454.8600000000001</ele>
        <time>2016-07-30T09:57:01Z</time>
      </trkpt>
      <trkpt lat="46.139943860471249" lon="7.966384738683701">
        <ele>2456.3099999999999</ele>
        <time>2016-07-30T09:57:12Z</time>
      </trkpt>
      <trkpt lat="46.139960121363401" lon="7.966485992074013">
        <ele>2457.75</ele>
        <time>2016-07-30T09:57:24Z</time>
      </trkpt>
      <trkpt lat="46.139934724196792" lon="7.966551287099719">
        <ele>2459.1900000000001</ele>
        <time>2016-07-30T09:57:34Z</time>
      </trkpt>
      <trkpt lat="46.139891892671585" lon="7.96653812751174">
        <ele>2459.6700000000001</ele>
        <time>2016-07-30T09:57:47Z</time>
      </trkpt>
      <trkpt lat="46.139826430007815" lon="7.966542402282357">
        <ele>2461.5900000000001</ele>
        <time>2016-07-30T09:57:58Z</time>
      </trkpt>
      <trkpt lat="46.139747723937035" lon="7.966543911024928">
        <ele>2463.52</ele>
        <time>2016-07-30T09:58:11Z</time>
      </trkpt>
      <trkpt lat="46.13967471756041" lon="7.966604428365827">
        <ele>2465.4400000000001</ele>
        <time>2016-07-30T09:58:25Z</time>
      </trkpt>
      <trkpt lat="46.139650410041213" lon="7.966700820252299">
        <ele>2466.8800000000001</ele>
        <time>2016-07-30T09:58:38Z</time>
      </trkpt>
      <trkpt lat="46.139632472768426" lon="7.966804336756468">
        <ele>2468.8000000000002</ele>
        <time>2016-07-30T09:58:52Z</time>
      </trkpt>
      <trkpt lat="46.139620905742049" lon="7.966860746964812">
        <ele>2469.7600000000002</ele>
        <time>2016-07-30T09:59:02Z</time>
      </trkpt>
      <trkpt lat="46.139610931277275" lon="7.966963676735759">
        <ele>2471.6900000000001</ele>
        <time>2016-07-30T09:59:13Z</time>
      </trkpt>
      <trkpt lat="46.139638675376773" lon="7.967041209340096">
        <ele>2473.1300000000001</ele>
        <time>2016-07-30T09:59:23Z</time>
      </trkpt>
      <trkpt lat="46.139654433354735" lon="7.9671117849648">
        <ele>2475.0500000000002</ele>
        <time>2016-07-30T09:59:32Z</time>
      </trkpt>
      <trkpt lat="46.139682596549392" lon="7.967171715572476">
        <ele>2475.5300000000002</ele>
        <time>2016-07-30T09:59:43Z</time>
      </trkpt>
      <trkpt lat="46.139726769179106" lon="7.967232316732407">
        <ele>2477.9400000000001</ele>
        <time>2016-07-30T09:59:54Z</time>
      </trkpt>
      <trkpt lat="46.139747807756066" lon="7.967308256775141">
        <ele>2478.9000000000001</ele>
        <time>2016-07-30T10:00:04Z</time>
      </trkpt>
      <trkpt lat="46.139727775007486" lon="7.967444881796837">
        <ele>2480.8200000000002</ele>
        <time>2016-07-30T10:00:18Z</time>
      </trkpt>
      <trkpt lat="46.139721153303981" lon="7.967536160722375">
        <ele>2482.2600000000002</ele>
        <time>2016-07-30T10:00:30Z</time>
      </trkpt>
      <trkpt lat="46.139700869098306" lon="7.967652836814523">
        <ele>2485.1500000000001</ele>
        <time>2016-07-30T10:00:47Z</time>
      </trkpt>
      <trkpt lat="46.139705646783113" lon="7.96775333583355">
        <ele>2487.0700000000002</ele>
        <time>2016-07-30T10:01:02Z</time>
      </trkpt>
      <trkpt lat="46.139716543257236" lon="7.967831790447235">
        <ele>2488.5100000000002</ele>
        <time>2016-07-30T10:01:14Z</time>
      </trkpt>
      <trkpt lat="46.139725428074598" lon="7.967948466539383">
        <ele>2490.9099999999999</ele>
        <time>2016-07-30T10:01:30Z</time>
      </trkpt>
      <trkpt lat="46.139751747250557" lon="7.96802113763988">
        <ele>2493.3200000000002</ele>
        <time>2016-07-30T10:01:44Z</time>
      </trkpt>
      <trkpt lat="46.139779994264245" lon="7.967902701348066">
        <ele>2495.2399999999998</ele>
        <time>2016-07-30T10:01:57Z</time>
      </trkpt>
      <trkpt lat="46.139757614582777" lon="7.967899013310671">
        <ele>2495.7199999999998</ele>
        <time>2016-07-30T10:02:08Z</time>
      </trkpt>
      <trkpt lat="46.139769433066249" lon="7.967899264767766">
        <ele>2495.7199999999998</ele>
        <time>2016-07-30T10:02:24Z</time>
      </trkpt>
      <trkpt lat="46.139800865203142" lon="7.967971852049232">
        <ele>2495.7199999999998</ele>
        <time>2016-07-30T10:02:37Z</time>
      </trkpt>
      <trkpt lat="46.139834811910987" lon="7.96795760281384">
        <ele>2496.1999999999998</ele>
        <time>2016-07-30T10:02:46Z</time>
      </trkpt>
      <trkpt lat="46.139871692284942" lon="7.967948215082288">
        <ele>2497.1599999999999</ele>
        <time>2016-07-30T10:02:57Z</time>
      </trkpt>
      <trkpt lat="46.139931622892618" lon="7.967944778501988">
        <ele>2498.5999999999999</ele>
        <time>2016-07-30T10:03:08Z</time>
      </trkpt>
      <trkpt lat="46.140004796907306" lon="7.968017281964421">
        <ele>2500.5300000000002</ele>
        <time>2016-07-30T10:03:23Z</time>
      </trkpt>
      <trkpt lat="46.140048131346703" lon="7.968108979985118">
        <ele>2502.4499999999998</ele>
        <time>2016-07-30T10:03:37Z</time>
      </trkpt>
      <trkpt lat="46.140085430815816" lon="7.968193721026182">
        <ele>2504.3699999999999</ele>
        <time>2016-07-30T10:03:51Z</time>
      </trkpt>
      <trkpt lat="46.140112588182092" lon="7.968290783464909">
        <ele>2506.29</ele>
        <time>2016-07-30T10:04:04Z</time>
      </trkpt>
      <trkpt lat="46.140084089711308" lon="7.9683240596205">
        <ele>2507.7399999999998</ele>
        <time>2016-07-30T10:04:14Z</time>
      </trkpt>
      <trkpt lat="46.140037653967738" lon="7.968393294140697">
        <ele>2508.2199999999998</ele>
        <time>2016-07-30T10:04:25Z</time>
      </trkpt>
      <trkpt lat="46.140002114698291" lon="7.968497313559055">
        <ele>2509.1799999999998</ele>
        <time>2016-07-30T10:04:35Z</time>
      </trkpt>
      <trkpt lat="46.140033630654216" lon="7.968604769557715">
        <ele>2510.6199999999999</ele>
        <time>2016-07-30T10:04:48Z</time>
      </trkpt>
      <trkpt lat="46.140067158266902" lon="7.968716835603118">
        <ele>2513.02</ele>
        <time>2016-07-30T10:05:02Z</time>
      </trkpt>
      <trkpt lat="46.140083838254213" lon="7.968830661848187">
        <ele>2514.4699999999998</ele>
        <time>2016-07-30T10:05:16Z</time>
      </trkpt>
      <trkpt lat="46.140113426372409" lon="7.968916324898601">
        <ele>2516.3899999999999</ele>
        <time>2016-07-30T10:05:28Z</time>
      </trkpt>
      <trkpt lat="46.140155587345362" lon="7.969038113951683">
        <ele>2517.8299999999999</ele>
        <time>2016-07-30T10:05:41Z</time>
      </trkpt>
      <trkpt lat="46.140222558751702" lon="7.96914154663682">
        <ele>2518.79</ele>
        <time>2016-07-30T10:05:54Z</time>
      </trkpt>
      <trkpt lat="46.140291793271899" lon="7.96925981529057">
        <ele>2520.23</ele>
        <time>2016-07-30T10:06:08Z</time>
      </trkpt>
      <trkpt lat="46.140349460765719" lon="7.969348328188062">
        <ele>2520.71</ele>
        <time>2016-07-30T10:06:19Z</time>
      </trkpt>
      <trkpt lat="46.140392459928989" lon="7.969398200511932">
        <ele>2521.1900000000001</ele>
        <time>2016-07-30T10:06:30Z</time>
      </trkpt>
      <trkpt lat="46.140385922044516" lon="7.969395602121949">
        <ele>2521.1900000000001</ele>
        <time>2016-07-30T10:06:47Z</time>
      </trkpt>
      <trkpt lat="46.140402685850859" lon="7.969423094764352">
        <ele>2521.1900000000001</ele>
        <time>2016-07-30T10:07:02Z</time>
      </trkpt>
      <trkpt lat="46.140449540689588" lon="7.969544380903244">
        <ele>2521.6799999999998</ele>
        <time>2016-07-30T10:07:12Z</time>
      </trkpt>
      <trkpt lat="46.140517015010118" lon="7.969674132764339">
        <ele>2522.6399999999999</ele>
        <time>2016-07-30T10:07:24Z</time>
      </trkpt>
      <trkpt lat="46.140561522915959" lon="7.969789383932948">
        <ele>2523.5999999999999</ele>
        <time>2016-07-30T10:07:35Z</time>
      </trkpt>
      <trkpt lat="46.140596391633153" lon="7.969915280118585">
        <ele>2525.04</ele>
        <time>2016-07-30T10:07:46Z</time>
      </trkpt>
      <trkpt lat="46.140636373311281" lon="7.969988118857145">
        <ele>2525.52</ele>
        <time>2016-07-30T10:07:56Z</time>
      </trkpt>
      <trkpt lat="46.140686497092247" lon="7.970123067498207">
        <ele>2526.48</ele>
        <time>2016-07-30T10:08:09Z</time>
      </trkpt>
      <trkpt lat="46.140717677772045" lon="7.970274109393358">
        <ele>2528.4000000000001</ele>
        <time>2016-07-30T10:08:21Z</time>
      </trkpt>
      <trkpt lat="46.14075263030827" lon="7.970371758565307">
        <ele>2528.8899999999999</ele>
        <time>2016-07-30T10:08:30Z</time>
      </trkpt>
      <trkpt lat="46.140768053010106" lon="7.970405202358961">
        <ele>2528.8899999999999</ele>
        <time>2016-07-30T10:08:33Z</time>
      </trkpt>
      <trkpt lat="46.14080929197371" lon="7.970554567873478">
        <ele>2529.8499999999999</ele>
        <time>2016-07-30T10:08:44Z</time>
      </trkpt>
      <trkpt lat="46.140888249501586" lon="7.970720278099179">
        <ele>2530.8099999999999</ele>
        <time>2016-07-30T10:08:58Z</time>
      </trkpt>
      <trkpt lat="46.140918089076877" lon="7.970871739089489">
        <ele>2531.29</ele>
        <time>2016-07-30T10:09:09Z</time>
      </trkpt>
      <trkpt lat="46.140965446829796" lon="7.970999730750918">
        <ele>2531.77</ele>
        <time>2016-07-30T10:09:21Z</time>
      </trkpt>
      <trkpt lat="46.141014480963349" lon="7.971177008002996">
        <ele>2532.73</ele>
        <time>2016-07-30T10:09:35Z</time>
      </trkpt>
      <trkpt lat="46.14106728695333" lon="7.971281027421355">
        <ele>2533.6900000000001</ele>
        <time>2016-07-30T10:09:45Z</time>
      </trkpt>
      <trkpt lat="46.141109028831124" lon="7.971420334652066">
        <ele>2535.1300000000001</ele>
        <time>2016-07-30T10:09:58Z</time>
      </trkpt>
      <trkpt lat="46.141142304986715" lon="7.97156953252852">
        <ele>2536.5799999999999</ele>
        <time>2016-07-30T10:10:11Z</time>
      </trkpt>
      <trkpt lat="46.141121266409755" lon="7.971714958548546">
        <ele>2538.5</ele>
        <time>2016-07-30T10:10:24Z</time>
      </trkpt>
      <trkpt lat="46.141092097386718" lon="7.971830377355218">
        <ele>2539.46</ele>
        <time>2016-07-30T10:10:36Z</time>
      </trkpt>
      <trkpt lat="46.141079105436802" lon="7.971897097304463">
        <ele>2540.9000000000001</ele>
        <time>2016-07-30T10:10:43Z</time>
      </trkpt>
      <trkpt lat="46.141071645542979" lon="7.971999272704125">
        <ele>2542.3400000000001</ele>
        <time>2016-07-30T10:10:55Z</time>
      </trkpt>
      <trkpt lat="46.141087487339973" lon="7.972074961289764">
        <ele>2542.8200000000002</ele>
        <time>2016-07-30T10:11:05Z</time>
      </trkpt>
      <trkpt lat="46.141063682734966" lon="7.972179064527154">
        <ele>2544.75</ele>
        <time>2016-07-30T10:11:18Z</time>
      </trkpt>
      <trkpt lat="46.141110202297568" lon="7.972258357331157">
        <ele>2547.1500000000001</ele>
        <time>2016-07-30T10:11:32Z</time>
      </trkpt>
      <trkpt lat="46.141122775152326" lon="7.972274534404278">
        <ele>2548.5900000000001</ele>
        <time>2016-07-30T10:11:36Z</time>
      </trkpt>
      <trkpt lat="46.14116258919239" lon="7.972338823601604">
        <ele>2549.0700000000002</ele>
        <time>2016-07-30T10:11:44Z</time>
      </trkpt>
      <trkpt lat="46.141220005229115" lon="7.972414176911116">
        <ele>2550.0300000000002</ele>
        <time>2016-07-30T10:11:55Z</time>
      </trkpt>
      <trkpt lat="46.141285384073853" lon="7.972485590726137">
        <ele>2551.48</ele>
        <time>2016-07-30T10:12:07Z</time>
      </trkpt>
      <trkpt lat="46.141378507018089" lon="7.972608469426632">
        <ele>2553.4000000000001</ele>
        <time>2016-07-30T10:12:21Z</time>
      </trkpt>
      <trkpt lat="46.141409939154983" lon="7.972727995365858">
        <ele>2553.8800000000001</ele>
        <time>2016-07-30T10:12:33Z</time>
      </trkpt>
      <trkpt lat="46.141416225582361" lon="7.97286537475884">
        <ele>2555.3200000000002</ele>
        <time>2016-07-30T10:12:47Z</time>
      </trkpt>
      <trkpt lat="46.141435503959656" lon="7.97294307500124">
        <ele>2557.73</ele>
        <time>2016-07-30T10:13:01Z</time>
      </trkpt>
      <trkpt lat="46.141482023522258" lon="7.973051201552153">
        <ele>2559.6500000000001</ele>
        <time>2016-07-30T10:13:14Z</time>
      </trkpt>
      <trkpt lat="46.14153784699738" lon="7.973105683922768">
        <ele>2561.0900000000001</ele>
        <time>2016-07-30T10:13:26Z</time>
      </trkpt>
      <trkpt lat="46.141592161729932" lon="7.973172068595886">
        <ele>2563.9699999999998</ele>
        <time>2016-07-30T10:13:39Z</time>
      </trkpt>
      <trkpt lat="46.141658294945955" lon="7.97321816906333">
        <ele>2565.4200000000001</ele>
        <time>2016-07-30T10:13:54Z</time>
      </trkpt>
      <trkpt lat="46.141722248867154" lon="7.973257731646299">
        <ele>2566.3800000000001</ele>
        <time>2016-07-30T10:14:04Z</time>
      </trkpt>
      <trkpt lat="46.141776898875833" lon="7.973286984488368">
        <ele>2568.3000000000002</ele>
        <time>2016-07-30T10:14:16Z</time>
      </trkpt>
      <trkpt lat="46.141830375418067" lon="7.973294528201222">
        <ele>2569.2600000000002</ele>
        <time>2016-07-30T10:14:26Z</time>
      </trkpt>
      <trkpt lat="46.141829956322908" lon="7.973396368324757">
        <ele>2571.1799999999998</ele>
        <time>2016-07-30T10:14:38Z</time>
      </trkpt>
      <trkpt lat="46.141780083999038" lon="7.973498040810227">
        <ele>2572.6300000000001</ele>
        <time>2016-07-30T10:14:51Z</time>
      </trkpt>
      <trkpt lat="46.141806654632092" lon="7.973528550937772">
        <ele>2574.0700000000002</ele>
        <time>2016-07-30T10:15:01Z</time>
      </trkpt>
      <trkpt lat="46.141845714300871" lon="7.973577417433262">
        <ele>2575.5100000000002</ele>
        <time>2016-07-30T10:15:08Z</time>
      </trkpt>
      <trkpt lat="46.141888462007046" lon="7.97358512878418">
        <ele>2575.9899999999998</ele>
        <time>2016-07-30T10:15:16Z</time>
      </trkpt>
      <trkpt lat="46.141929868608713" lon="7.973606837913394">
        <ele>2576.9499999999998</ele>
        <time>2016-07-30T10:15:29Z</time>
      </trkpt>
      <trkpt lat="46.141939088702202" lon="7.973617818206549">
        <ele>2577.4299999999998</ele>
        <time>2016-07-30T10:15:39Z</time>
      </trkpt>
      <trkpt lat="46.142006479203701" lon="7.973685208708048">
        <ele>2579.3499999999999</ele>
        <time>2016-07-30T10:15:52Z</time>
      </trkpt>
      <trkpt lat="46.142031876370311" lon="7.973751090466976">
        <ele>2580.3200000000002</ele>
        <time>2016-07-30T10:16:03Z</time>
      </trkpt>
      <trkpt lat="46.142078228294849" lon="7.973792497068644">
        <ele>2582.2399999999998</ele>
        <time>2016-07-30T10:16:14Z</time>
      </trkpt>
      <trkpt lat="46.142117455601692" lon="7.973803225904703">
        <ele>2583.6799999999998</ele>
        <time>2016-07-30T10:16:21Z</time>
      </trkpt>
      <trkpt lat="46.142163807526231" lon="7.973862150683999">
        <ele>2585.1199999999999</ele>
        <time>2016-07-30T10:16:30Z</time>
      </trkpt>
      <trkpt lat="46.142222061753273" lon="7.973917471244931">
        <ele>2586.0799999999999</ele>
        <time>2016-07-30T10:16:40Z</time>
      </trkpt>
      <trkpt lat="46.142216194421053" lon="7.973961979150772">
        <ele>2586.5599999999999</ele>
        <time>2016-07-30T10:16:49Z</time>
      </trkpt>
      <trkpt lat="46.142299510538578" lon="7.973999446257949">
        <ele>2586.5599999999999</ele>
        <time>2016-07-30T10:17:00Z</time>
      </trkpt>
      <trkpt lat="46.142316861078143" lon="7.97402199357748">
        <ele>2587.04</ele>
        <time>2016-07-30T10:17:03Z</time>
      </trkpt>
      <trkpt lat="46.14237729460001" lon="7.974088881164789">
        <ele>2588.4899999999998</ele>
        <time>2016-07-30T10:17:14Z</time>
      </trkpt>
      <trkpt lat="46.142435381188989" lon="7.974104974418879">
        <ele>2588.9699999999998</ele>
        <time>2016-07-30T10:17:24Z</time>
      </trkpt>
      <trkpt lat="46.142520373687148" lon="7.974159540608525">
        <ele>2590.4099999999999</ele>
        <time>2016-07-30T10:17:36Z</time>
      </trkpt>
      <trkpt lat="46.142557337880135" lon="7.974156271666288">
        <ele>2591.3699999999999</ele>
        <time>2016-07-30T10:17:46Z</time>
      </trkpt>
      <trkpt lat="46.142567060887814" lon="7.974218297749758">
        <ele>2591.3699999999999</ele>
        <time>2016-07-30T10:18:02Z</time>
      </trkpt>
      <trkpt lat="46.142590446397662" lon="7.974301781505346">
        <ele>2592.8099999999999</ele>
        <time>2016-07-30T10:18:13Z</time>
      </trkpt>
      <trkpt lat="46.142596732825041" lon="7.974333046004176">
        <ele>2593.77</ele>
        <time>2016-07-30T10:18:21Z</time>
      </trkpt>
      <trkpt lat="46.142589105293155" lon="7.974324999377132">
        <ele>2594.25</ele>
        <time>2016-07-30T10:18:36Z</time>
      </trkpt>
      <trkpt lat="46.142611233517528" lon="7.974311085417867">
        <ele>2594.25</ele>
        <time>2016-07-30T10:18:50Z</time>
      </trkpt>
      <trkpt lat="46.142589440569282" lon="7.974314438179135">
        <ele>2594.25</ele>
        <time>2016-07-30T10:19:05Z</time>
      </trkpt>
      <trkpt lat="46.142605701461434" lon="7.974299937486649">
        <ele>2594.7399999999998</ele>
        <time>2016-07-30T10:19:20Z</time>
      </trkpt>
      <trkpt lat="46.142613915726542" lon="7.974293399602175">
        <ele>2594.25</ele>
        <time>2016-07-30T10:19:36Z</time>
      </trkpt>
      <trkpt lat="46.142620034515858" lon="7.97428728081286">
        <ele>2594.7399999999998</ele>
        <time>2016-07-30T10:19:53Z</time>
      </trkpt>
      <trkpt lat="46.142607713118196" lon="7.974301027134061">
        <ele>2594.7399999999998</ele>
        <time>2016-07-30T10:20:08Z</time>
      </trkpt>
      <trkpt lat="46.142608551308513" lon="7.974309576675296">
        <ele>2595.2199999999998</ele>
        <time>2016-07-30T10:20:24Z</time>
      </trkpt>
      <trkpt lat="46.142623219639063" lon="7.974300859495997">
        <ele>2594.7399999999998</ele>
        <time>2016-07-30T10:20:36Z</time>
      </trkpt>
      <trkpt lat="46.142616849392653" lon="7.974330112338066">
        <ele>2595.2199999999998</ele>
        <time>2016-07-30T10:20:49Z</time>
      </trkpt>
      <trkpt lat="46.142645934596658" lon="7.974329693242908">
        <ele>2595.2199999999998</ele>
        <time>2016-07-30T10:21:06Z</time>
      </trkpt>
      <trkpt lat="46.142674433067441" lon="7.974387528374791">
        <ele>2597.1399999999999</ele>
        <time>2016-07-30T10:21:17Z</time>
      </trkpt>
      <trkpt lat="46.142684575170279" lon="7.974424324929714">
        <ele>2598.0999999999999</ele>
        <time>2016-07-30T10:21:28Z</time>
      </trkpt>
      <trkpt lat="46.142712403088808" lon="7.974524907767773">
        <ele>2599.54</ele>
        <time>2016-07-30T10:21:40Z</time>
      </trkpt>
      <trkpt lat="46.142703266814351" lon="7.974566565826535">
        <ele>2599.54</ele>
        <time>2016-07-30T10:21:52Z</time>
      </trkpt>
      <trkpt lat="46.142768729478121" lon="7.974624820053577">
        <ele>2601.46</ele>
        <time>2016-07-30T10:22:05Z</time>
      </trkpt>
      <trkpt lat="46.142808962613344" lon="7.974643679335713">
        <ele>2602.9099999999999</ele>
        <time>2016-07-30T10:22:16Z</time>
      </trkpt>
      <trkpt lat="46.142812147736549" lon="7.97468701377511">
        <ele>2603.3899999999999</ele>
        <time>2016-07-30T10:22:28Z</time>
      </trkpt>
      <trkpt lat="46.142844082787633" lon="7.974775526672602">
        <ele>2604.8299999999999</ele>
        <time>2016-07-30T10:22:40Z</time>
      </trkpt>
      <trkpt lat="46.142822708934546" lon="7.974843587726355">
        <ele>2605.79</ele>
        <time>2016-07-30T10:22:51Z</time>
      </trkpt>
      <trkpt lat="46.14282195456326" lon="7.974855992943049">
        <ele>2607.23</ele>
        <time>2016-07-30T10:22:53Z</time>
      </trkpt>
      <trkpt lat="46.142778033390641" lon="7.974948193877935">
        <ele>2608.1900000000001</ele>
        <time>2016-07-30T10:23:04Z</time>
      </trkpt>
      <trkpt lat="46.142831929028034" lon="7.974982392042875">
        <ele>2609.1599999999999</ele>
        <time>2016-07-30T10:23:18Z</time>
      </trkpt>
      <trkpt lat="46.142920693382621" lon="7.974968897178769">
        <ele>2611.0799999999999</ele>
        <time>2016-07-30T10:23:30Z</time>
      </trkpt>
      <trkpt lat="46.142983306199312" lon="7.97498993575573">
        <ele>2612.04</ele>
        <time>2016-07-30T10:23:41Z</time>
      </trkpt>
      <trkpt lat="46.143050948157907" lon="7.975000748410821">
        <ele>2613.96</ele>
        <time>2016-07-30T10:23:56Z</time>
      </trkpt>
      <trkpt lat="46.143036112189293" lon="7.975089261308312">
        <ele>2615.8800000000001</ele>
        <time>2016-07-30T10:24:07Z</time>
      </trkpt>
      <trkpt lat="46.142979450523853" lon="7.97518540173769">
        <ele>2617.3299999999999</ele>
        <time>2016-07-30T10:24:18Z</time>
      </trkpt>
      <trkpt lat="46.142930332571268" lon="7.975240219384432">
        <ele>2618.77</ele>
        <time>2016-07-30T10:24:26Z</time>
      </trkpt>
      <trkpt lat="46.142877945676446" lon="7.975321188569069">
        <ele>2620.6900000000001</ele>
        <time>2016-07-30T10:24:37Z</time>
      </trkpt>
      <trkpt lat="46.142980623990297" lon="7.975299647077918">
        <ele>2622.1300000000001</ele>
        <time>2016-07-30T10:24:51Z</time>
      </trkpt>
      <trkpt lat="46.143047260120511" lon="7.975315153598785">
        <ele>2624.54</ele>
        <time>2016-07-30T10:25:04Z</time>
      </trkpt>
      <trkpt lat="46.143093779683113" lon="7.97538329847157">
        <ele>2625.98</ele>
        <time>2016-07-30T10:25:15Z</time>
      </trkpt>
      <trkpt lat="46.14314348436892" lon="7.975431410595775">
        <ele>2628.3800000000001</ele>
        <time>2016-07-30T10:25:28Z</time>
      </trkpt>
      <trkpt lat="46.143205929547548" lon="7.975506680086255">
        <ele>2630.3000000000002</ele>
        <time>2016-07-30T10:25:43Z</time>
      </trkpt>
      <trkpt lat="46.143227638676763" lon="7.975606424733996">
        <ele>2632.71</ele>
        <time>2016-07-30T10:25:55Z</time>
      </trkpt>
      <trkpt lat="46.143174078315496" lon="7.975676078349352">
        <ele>2634.1500000000001</ele>
        <time>2016-07-30T10:26:06Z</time>
      </trkpt>
      <trkpt lat="46.143119931221008" lon="7.975733242928982">
        <ele>2636.5500000000002</ele>
        <time>2016-07-30T10:26:18Z</time>
      </trkpt>
      <trkpt lat="46.14305354654789" lon="7.975759981200099">
        <ele>2637.9899999999998</ele>
        <time>2016-07-30T10:26:30Z</time>
      </trkpt>
      <trkpt lat="46.143000992015004" lon="7.975813206285238">
        <ele>2638.48</ele>
        <time>2016-07-30T10:26:42Z</time>
      </trkpt>
      <trkpt lat="46.142973667010665" lon="7.975879674777389">
        <ele>2641.3600000000001</ele>
        <time>2016-07-30T10:26:54Z</time>
      </trkpt>
      <trkpt lat="46.143040889874101" lon="7.97586408443749">
        <ele>2642.3200000000002</ele>
        <time>2016-07-30T10:27:05Z</time>
      </trkpt>
      <trkpt lat="46.143102496862411" lon="7.97593591734767">
        <ele>2644.2399999999998</ele>
        <time>2016-07-30T10:27:18Z</time>
      </trkpt>
      <trkpt lat="46.143013648688793" lon="7.976049073040485">
        <ele>2646.6500000000001</ele>
        <time>2016-07-30T10:27:32Z</time>
      </trkpt>
      <trkpt lat="46.142988419160247" lon="7.9761260189116">
        <ele>2649.0500000000002</ele>
        <time>2016-07-30T10:27:44Z</time>
      </trkpt>
      <trkpt lat="46.142980959266424" lon="7.976190308108926">
        <ele>2650.4899999999998</ele>
        <time>2016-07-30T10:27:54Z</time>
      </trkpt>
      <trkpt lat="46.143004763871431" lon="7.976149739697576">
        <ele>2651.4499999999998</ele>
        <time>2016-07-30T10:28:07Z</time>
      </trkpt>
      <trkpt lat="46.143056647852063" lon="7.976126857101917">
        <ele>2652.4200000000001</ele>
        <time>2016-07-30T10:28:17Z</time>
      </trkpt>
      <trkpt lat="46.143080536276102" lon="7.976120319217444">
        <ele>2653.3800000000001</ele>
        <time>2016-07-30T10:28:29Z</time>
      </trkpt>
      <trkpt lat="46.143126720562577" lon="7.976123504340649">
        <ele>2653.8600000000001</ele>
        <time>2016-07-30T10:28:39Z</time>
      </trkpt>
      <trkpt lat="46.143121607601643" lon="7.976140268146992">
        <ele>2653.3800000000001</ele>
        <time>2016-07-30T10:28:53Z</time>
      </trkpt>
      <trkpt lat="46.143134348094463" lon="7.976107746362686">
        <ele>2653.8600000000001</ele>
        <time>2016-07-30T10:29:14Z</time>
      </trkpt>
      <trkpt lat="46.143127726390958" lon="7.976191146299243">
        <ele>2654.8200000000002</ele>
        <time>2016-07-30T10:29:34Z</time>
      </trkpt>
      <trkpt lat="46.143106436356902" lon="7.976207993924618">
        <ele>2655.7800000000002</ele>
        <time>2016-07-30T10:29:44Z</time>
      </trkpt>
      <trkpt lat="46.143071986734867" lon="7.976306565105915">
        <ele>2657.6999999999998</ele>
        <time>2016-07-30T10:29:56Z</time>
      </trkpt>
      <trkpt lat="46.143158236518502" lon="7.976289298385382">
        <ele>2659.6199999999999</ele>
        <time>2016-07-30T10:30:08Z</time>
      </trkpt>
      <trkpt lat="46.143210958689451" lon="7.9762779828161">
        <ele>2662.0300000000002</ele>
        <time>2016-07-30T10:30:19Z</time>
      </trkpt>
      <trkpt lat="46.143191177397966" lon="7.976431706920266">
        <ele>2664.9099999999999</ele>
        <time>2016-07-30T10:30:33Z</time>
      </trkpt>
      <trkpt lat="46.143175922334194" lon="7.976489458233118">
        <ele>2666.8299999999999</ele>
        <time>2016-07-30T10:30:45Z</time>
      </trkpt>
      <trkpt lat="46.143203163519502" lon="7.976492894813418">
        <ele>2667.8000000000002</ele>
        <time>2016-07-30T10:31:02Z</time>
      </trkpt>
      <trkpt lat="46.143198804929852" lon="7.976484261453152">
        <ele>2668.2800000000002</ele>
        <time>2016-07-30T10:31:14Z</time>
      </trkpt>
      <trkpt lat="46.143201235681772" lon="7.976475963369012">
        <ele>2668.2800000000002</ele>
        <time>2016-07-30T10:31:27Z</time>
      </trkpt>
      <trkpt lat="46.143204756081104" lon="7.976581742987037">
        <ele>2669.7199999999998</ele>
        <time>2016-07-30T10:31:36Z</time>
      </trkpt>
      <trkpt lat="46.143261417746544" lon="7.976640583947301">
        <ele>2673.5599999999999</ele>
        <time>2016-07-30T10:31:48Z</time>
      </trkpt>
      <trkpt lat="46.143354373052716" lon="7.976630106568337">
        <ele>2674.04</ele>
        <time>2016-07-30T10:32:00Z</time>
      </trkpt>
      <trkpt lat="46.143419919535518" lon="7.97661560587585">
        <ele>2675.9699999999998</ele>
        <time>2016-07-30T10:32:12Z</time>
      </trkpt>
      <trkpt lat="46.143423775210977" lon="7.976781148463488">
        <ele>2678.8499999999999</ele>
        <time>2016-07-30T10:32:25Z</time>
      </trkpt>
      <trkpt lat="46.14340684376657" lon="7.976807383820415">
        <ele>2679.8099999999999</ele>
        <time>2016-07-30T10:32:37Z</time>
      </trkpt>
      <trkpt lat="46.143375998362899" lon="7.976891286671162">
        <ele>2681.25</ele>
        <time>2016-07-30T10:32:47Z</time>
      </trkpt>
      <trkpt lat="46.143378345295787" lon="7.976956833153963">
        <ele>2682.6999999999998</ele>
        <time>2016-07-30T10:32:57Z</time>
      </trkpt>
      <trkpt lat="46.14336627535522" lon="7.977006370201707">
        <ele>2684.6199999999999</ele>
        <time>2016-07-30T10:33:09Z</time>
      </trkpt>
      <trkpt lat="46.143359988927841" lon="7.977008884772658">
        <ele>2685.5799999999999</ele>
        <time>2016-07-30T10:33:25Z</time>
      </trkpt>
      <trkpt lat="46.143370717763901" lon="7.977081555873156">
        <ele>2687.02</ele>
        <time>2016-07-30T10:33:35Z</time>
      </trkpt>
      <trkpt lat="46.143385637551546" lon="7.977124052122235">
        <ele>2688.46</ele>
        <time>2016-07-30T10:33:48Z</time>
      </trkpt>
      <trkpt lat="46.14343324676156" lon="7.977037383243442">
        <ele>2689.9099999999999</ele>
        <time>2016-07-30T10:34:00Z</time>
      </trkpt>
      <trkpt lat="46.14350407384336" lon="7.976994635537267">
        <ele>2692.3099999999999</ele>
        <time>2016-07-30T10:34:12Z</time>
      </trkpt>
      <trkpt lat="46.143549419939518" lon="7.976968232542276">
        <ele>2694.23</ele>
        <time>2016-07-30T10:34:23Z</time>
      </trkpt>
      <trkpt lat="46.143584456294775" lon="7.976943589746952">
        <ele>2694.71</ele>
        <time>2016-07-30T10:34:35Z</time>
      </trkpt>
      <trkpt lat="46.143607003614306" lon="7.976912744343281">
        <ele>2695.1900000000001</ele>
        <time>2016-07-30T10:34:50Z</time>
      </trkpt>
      <trkpt lat="46.143655870109797" lon="7.976847868412733">
        <ele>2697.1199999999999</ele>
        <time>2016-07-30T10:35:00Z</time>
      </trkpt>
      <trkpt lat="46.143692331388593" lon="7.976935543119907">
        <ele>2698.0799999999999</ele>
        <time>2016-07-30T10:35:11Z</time>
      </trkpt>
      <trkpt lat="46.14366240799427" lon="7.977053225040436">
        <ele>2700</ele>
        <time>2016-07-30T10:35:22Z</time>
      </trkpt>
      <trkpt lat="46.143690068274736" lon="7.977044004946947">
        <ele>2701.9200000000001</ele>
        <time>2016-07-30T10:35:34Z</time>
      </trkpt>
      <trkpt lat="46.143738767132163" lon="7.977046268060803">
        <ele>2703.8499999999999</ele>
        <time>2016-07-30T10:35:45Z</time>
      </trkpt>
      <trkpt lat="46.143724685534835" lon="7.977023553103209">
        <ele>2703.3600000000001</ele>
        <time>2016-07-30T10:36:01Z</time>
      </trkpt>
      <trkpt lat="46.143713369965553" lon="7.977133188396692">
        <ele>2703.3600000000001</ele>
        <time>2016-07-30T10:36:18Z</time>
      </trkpt>
      <trkpt lat="46.143711106851697" lon="7.977180210873485">
        <ele>2705.29</ele>
        <time>2016-07-30T10:36:29Z</time>
      </trkpt>
      <trkpt lat="46.143726194277406" lon="7.977210134267807">
        <ele>2706.73</ele>
        <time>2016-07-30T10:36:39Z</time>
      </trkpt>
      <trkpt lat="46.143735079094768" lon="7.977271489799023">
        <ele>2709.1300000000001</ele>
        <time>2016-07-30T10:36:51Z</time>
      </trkpt>
      <trkpt lat="46.143735162913799" lon="7.977254474535584">
        <ele>2709.6100000000001</ele>
        <time>2016-07-30T10:37:06Z</time>
      </trkpt>
      <trkpt lat="46.143729714676738" lon="7.977239806205034">
        <ele>2709.6100000000001</ele>
        <time>2016-07-30T10:37:21Z</time>
      </trkpt>
      <trkpt lat="46.143731893971562" lon="7.977252127602696">
        <ele>2710.0900000000001</ele>
        <time>2016-07-30T10:37:41Z</time>
      </trkpt>
      <trkpt lat="46.143735079094768" lon="7.977226730436087">
        <ele>2710.5700000000002</ele>
        <time>2016-07-30T10:37:55Z</time>
      </trkpt>
      <trkpt lat="46.143792830407619" lon="7.977188173681498">
        <ele>2713.46</ele>
        <time>2016-07-30T10:38:06Z</time>
      </trkpt>
      <trkpt lat="46.143814790993929" lon="7.977201165631414">
        <ele>2713.46</ele>
        <time>2016-07-30T10:38:14Z</time>
      </trkpt>
      <trkpt lat="46.143834488466382" lon="7.977200914174318">
        <ele>2713.9400000000001</ele>
        <time>2016-07-30T10:38:24Z</time>
      </trkpt>
      <trkpt lat="46.143848737701774" lon="7.977244835346937">
        <ele>2713.9400000000001</ele>
        <time>2016-07-30T10:38:33Z</time>
      </trkpt>
      <trkpt lat="46.143830129876733" lon="7.977278446778655">
        <ele>2714.9000000000001</ele>
        <time>2016-07-30T10:38:38Z</time>
      </trkpt>
      <trkpt lat="46.143838847056031" lon="7.977276016026735">
        <ele>2715.3800000000001</ele>
        <time>2016-07-30T10:38:47Z</time>
      </trkpt>
      <trkpt lat="46.143833734095097" lon="7.977351704612374">
        <ele>2716.3400000000001</ele>
        <time>2016-07-30T10:38:56Z</time>
      </trkpt>
      <trkpt lat="46.143817221745849" lon="7.97747315838933">
        <ele>2718.27</ele>
        <time>2016-07-30T10:39:10Z</time>
      </trkpt>
      <trkpt lat="46.143815964460373" lon="7.977587236091495">
        <ele>2720.6700000000001</ele>
        <time>2016-07-30T10:39:23Z</time>
      </trkpt>
      <trkpt lat="46.14379333332181" lon="7.977671893313527">
        <ele>2722.1100000000001</ele>
        <time>2016-07-30T10:39:35Z</time>
      </trkpt>
      <trkpt lat="46.143842032179236" lon="7.977670216932893">
        <ele>2722.5900000000001</ele>
        <time>2016-07-30T10:39:45Z</time>
      </trkpt>
      <trkpt lat="46.143912607803941" lon="7.977608693763614">
        <ele>2724.9899999999998</ele>
        <time>2016-07-30T10:39:58Z</time>
      </trkpt>
      <trkpt lat="46.14395217038691" lon="7.977644735947251">
        <ele>2726.9200000000001</ele>
        <time>2016-07-30T10:40:11Z</time>
      </trkpt>
      <trkpt lat="46.143957870081067" lon="7.977632414549589">
        <ele>2726.4400000000001</ele>
        <time>2016-07-30T10:40:26Z</time>
      </trkpt>
      <trkpt lat="46.143960971385241" lon="7.977617830038071">
        <ele>2725.96</ele>
        <time>2016-07-30T10:40:39Z</time>
      </trkpt>
      <trkpt lat="46.143980752676725" lon="7.977611124515533">
        <ele>2725.96</ele>
        <time>2016-07-30T10:40:55Z</time>
      </trkpt>
      <trkpt lat="46.143945967778563" lon="7.977631827816367">
        <ele>2726.4400000000001</ele>
        <time>2016-07-30T10:41:10Z</time>
      </trkpt>
      <trkpt lat="46.143962563946843" lon="7.977655548602343">
        <ele>2726.4400000000001</ele>
        <time>2016-07-30T10:41:26Z</time>
      </trkpt>
      <trkpt lat="46.143920738250017" lon="7.97771061770618">
        <ele>2726.9200000000001</ele>
        <time>2016-07-30T10:41:36Z</time>
      </trkpt>
      <trkpt lat="46.143898190930486" lon="7.97777658328414">
        <ele>2727.8800000000001</ele>
        <time>2016-07-30T10:41:47Z</time>
      </trkpt>
      <trkpt lat="46.143868938088417" lon="7.977821594104171">
        <ele>2728.3600000000001</ele>
        <time>2016-07-30T10:41:59Z</time>
      </trkpt>
      <trkpt lat="46.143835745751858" lon="7.977918405085802">
        <ele>2729.8000000000002</ele>
        <time>2016-07-30T10:42:11Z</time>
      </trkpt>
      <trkpt lat="46.143871368840337" lon="7.977907340973616">
        <ele>2730.2800000000002</ele>
        <time>2016-07-30T10:42:23Z</time>
      </trkpt>
      <trkpt lat="46.143896263092756" lon="7.977892756462097">
        <ele>2730.2800000000002</ele>
        <time>2016-07-30T10:42:43Z</time>
      </trkpt>
      <trkpt lat="46.143897771835327" lon="7.977908682078123">
        <ele>2730.2800000000002</ele>
        <time>2016-07-30T10:42:57Z</time>
      </trkpt>
      <trkpt lat="46.143885282799602" lon="7.977920416742563">
        <ele>2730.7600000000002</ele>
        <time>2016-07-30T10:43:12Z</time>
      </trkpt>
      <trkpt lat="46.143877655267715" lon="7.977927206084132">
        <ele>2731.2399999999998</ele>
        <time>2016-07-30T10:43:30Z</time>
      </trkpt>
      <trkpt lat="46.143875559791923" lon="7.977924020960927">
        <ele>2731.7199999999998</ele>
        <time>2016-07-30T10:43:51Z</time>
      </trkpt>
      <trkpt lat="46.143884193152189" lon="7.977942293509841">
        <ele>2732.1999999999998</ele>
        <time>2016-07-30T10:44:05Z</time>
      </trkpt>
      <trkpt lat="46.143874637782574" lon="7.9779686126858">
        <ele>2731.2399999999998</ele>
        <time>2016-07-30T10:44:22Z</time>
      </trkpt>
      <trkpt lat="46.143875643610954" lon="7.977938437834382">
        <ele>2730.7600000000002</ele>
        <time>2016-07-30T10:44:33Z</time>
      </trkpt>
      <trkpt lat="46.14385343156755" lon="7.977927206084132">
        <ele>2731.2399999999998</ele>
        <time>2016-07-30T10:44:43Z</time>
      </trkpt>
      <trkpt lat="46.143867094069719" lon="7.977926870808005">
        <ele>2731.7199999999998</ele>
        <time>2016-07-30T10:44:49Z</time>
      </trkpt>
      <trkpt lat="46.143871368840337" lon="7.977970791980624">
        <ele>2731.7199999999998</ele>
        <time>2016-07-30T10:45:09Z</time>
      </trkpt>
      <trkpt lat="46.143876481801271" lon="7.977971043437719">
        <ele>2731.2399999999998</ele>
        <time>2016-07-30T10:45:13Z</time>
      </trkpt>
    </trkseg>
  </trk>

  <trk>
    <name>weissmashutte-hossas2016-07-31</name>
    <extensions>
      <gpxx:TrackExtension>
        <gpxx:DisplayColor>Yellow</gpxx:DisplayColor>
      </gpxx:TrackExtension>
      <gpxtrkx:TrackStatsExtension xmlns:gpxtrkx="http://www.garmin.com/xmlschemas/TrackStatsExtension/v1">
        <gpxtrkx:Distance>9390</gpxtrkx:Distance>
        <gpxtrkx:TotalElapsedTime>17378</gpxtrkx:TotalElapsedTime>
        <gpxtrkx:MovingTime>9763</gpxtrkx:MovingTime>
        <gpxtrkx:StoppedTime>7520</gpxtrkx:StoppedTime>
        <gpxtrkx:MovingSpeed>1</gpxtrkx:MovingSpeed>
        <gpxtrkx:MaxSpeed>3</gpxtrkx:MaxSpeed>
        <gpxtrkx:MaxElevation>3148</gpxtrkx:MaxElevation>
        <gpxtrkx:MinElevation>2424</gpxtrkx:MinElevation>
        <gpxtrkx:Ascent>454</gpxtrkx:Ascent>
        <gpxtrkx:Descent>763</gpxtrkx:Descent>
        <gpxtrkx:AvgAscentRate>0</gpxtrkx:AvgAscentRate>
        <gpxtrkx:MaxAscentRate>0</gpxtrkx:MaxAscentRate>
        <gpxtrkx:AvgDescentRate>0</gpxtrkx:AvgDescentRate>
        <gpxtrkx:MaxDescentRate>-0</gpxtrkx:MaxDescentRate>
      </gpxtrkx:TrackStatsExtension>
    </extensions>
    <trkseg>
      <trkpt lat="46.143824346363544" lon="7.977985879406333">
        <ele>2732.1999999999998</ele>
        <time>2016-07-31T06:22:25Z</time>
      </trkpt>
      <trkpt lat="46.143824011087418" lon="7.977987388148904">
        <ele>2732.1999999999998</ele>
        <time>2016-07-31T06:22:26Z</time>
      </trkpt>
      <trkpt lat="46.143834739923477" lon="7.977993171662092">
        <ele>2733.6500000000001</ele>
        <time>2016-07-31T06:22:40Z</time>
      </trkpt>
      <trkpt lat="46.143835578113794" lon="7.977976826950908">
        <ele>2734.1300000000001</ele>
        <time>2016-07-31T06:22:51Z</time>
      </trkpt>
      <trkpt lat="46.143820909783244" lon="7.977999122813344">
        <ele>2733.6500000000001</ele>
        <time>2016-07-31T06:23:11Z</time>
      </trkpt>
      <trkpt lat="46.143819568678737" lon="7.978007001802325">
        <ele>2733.6500000000001</ele>
        <time>2016-07-31T06:23:28Z</time>
      </trkpt>
      <trkpt lat="46.143835661932826" lon="7.978009264916182">
        <ele>2733.6500000000001</ele>
        <time>2016-07-31T06:23:43Z</time>
      </trkpt>
      <trkpt lat="46.143841110169888" lon="7.977997111156583">
        <ele>2733.6500000000001</ele>
        <time>2016-07-31T06:24:01Z</time>
      </trkpt>
      <trkpt lat="46.143824011087418" lon="7.977991830557585">
        <ele>2733.6500000000001</ele>
        <time>2016-07-31T06:24:18Z</time>
      </trkpt>
      <trkpt lat="46.143838763237" lon="7.977976659312844">
        <ele>2733.6500000000001</ele>
        <time>2016-07-31T06:24:33Z</time>
      </trkpt>
      <trkpt lat="46.143820993602276" lon="7.977964170277119">
        <ele>2733.6500000000001</ele>
        <time>2016-07-31T06:24:55Z</time>
      </trkpt>
      <trkpt lat="46.143805906176567" lon="7.977946819737554">
        <ele>2733.6500000000001</ele>
        <time>2016-07-31T06:25:12Z</time>
      </trkpt>
      <trkpt lat="46.143820742145181" lon="7.97792661935091">
        <ele>2733.6500000000001</ele>
        <time>2016-07-31T06:25:14Z</time>
      </trkpt>
      <trkpt lat="46.143879499286413" lon="7.977969953790307">
        <ele>2733.1700000000001</ele>
        <time>2016-07-31T06:25:25Z</time>
      </trkpt>
      <trkpt lat="46.143886959180236" lon="7.977974563837051">
        <ele>2733.1700000000001</ele>
        <time>2016-07-31T06:25:32Z</time>
      </trkpt>
      <trkpt lat="46.143983937799931" lon="7.977904323488474">
        <ele>2733.6500000000001</ele>
        <time>2016-07-31T06:25:36Z</time>
      </trkpt>
      <trkpt lat="46.143998773768544" lon="7.977904658764601">
        <ele>2733.6500000000001</ele>
        <time>2016-07-31T06:25:37Z</time>
      </trkpt>
      <trkpt lat="46.144052501767874" lon="7.977896109223366">
        <ele>2733.6500000000001</ele>
        <time>2016-07-31T06:25:42Z</time>
      </trkpt>
      <trkpt lat="46.144130285829306" lon="7.977929804474115">
        <ele>2733.6500000000001</ele>
        <time>2016-07-31T06:25:53Z</time>
      </trkpt>
      <trkpt lat="46.144123245030642" lon="7.977953525260091">
        <ele>2733.6500000000001</ele>
        <time>2016-07-31T06:26:04Z</time>
      </trkpt>
      <trkpt lat="46.144096758216619" lon="7.977956626564264">
        <ele>2733.1700000000001</ele>
        <time>2016-07-31T06:26:19Z</time>
      </trkpt>
      <trkpt lat="46.144086113199592" lon="7.977944640442729">
        <ele>2733.6500000000001</ele>
        <time>2016-07-31T06:26:20Z</time>
      </trkpt>
      <trkpt lat="46.144076641649008" lon="7.977936090901494">
        <ele>2733.6500000000001</ele>
        <time>2016-07-31T06:26:21Z</time>
      </trkpt>
      <trkpt lat="46.144064571708441" lon="7.977925697341561">
        <ele>2733.6500000000001</ele>
        <time>2016-07-31T06:26:22Z</time>
      </trkpt>
      <trkpt lat="46.144052753224969" lon="7.977920668199658">
        <ele>2733.6500000000001</ele>
        <time>2016-07-31T06:26:23Z</time>
      </trkpt>
      <trkpt lat="46.143995840102434" lon="7.977918824180961">
        <ele>2733.6500000000001</ele>
        <time>2016-07-31T06:26:30Z</time>
      </trkpt>
      <trkpt lat="46.143986033275723" lon="7.97792561352253">
        <ele>2733.1700000000001</ele>
        <time>2016-07-31T06:26:31Z</time>
      </trkpt>
      <trkpt lat="46.143974717706442" lon="7.977932738140225">
        <ele>2733.1700000000001</ele>
        <time>2016-07-31T06:26:32Z</time>
      </trkpt>
      <trkpt lat="46.143961725756526" lon="7.977946987375617">
        <ele>2733.1700000000001</ele>
        <time>2016-07-31T06:26:33Z</time>
      </trkpt>
      <trkpt lat="46.143945883959532" lon="7.977953776717186">
        <ele>2733.6500000000001</ele>
        <time>2016-07-31T06:26:34Z</time>
      </trkpt>
      <trkpt lat="46.143927108496428" lon="7.977954195812345">
        <ele>2733.1700000000001</ele>
        <time>2016-07-31T06:26:35Z</time>
      </trkpt>
      <trkpt lat="46.143916379660368" lon="7.977948915213347">
        <ele>2733.1700000000001</ele>
        <time>2016-07-31T06:26:36Z</time>
      </trkpt>
      <trkpt lat="46.143906321376562" lon="7.977950004860759">
        <ele>2733.6500000000001</ele>
        <time>2016-07-31T06:26:37Z</time>
      </trkpt>
      <trkpt lat="46.143818981945515" lon="7.977912370115519">
        <ele>2734.6100000000001</ele>
        <time>2016-07-31T06:26:51Z</time>
      </trkpt>
      <trkpt lat="46.143777826800942" lon="7.977873980998993">
        <ele>2734.6100000000001</ele>
        <time>2016-07-31T06:27:06Z</time>
      </trkpt>
      <trkpt lat="46.143772546201944" lon="7.977850008755922">
        <ele>2734.1300000000001</ele>
        <time>2016-07-31T06:27:19Z</time>
      </trkpt>
      <trkpt lat="46.143781766295433" lon="7.977867610752583">
        <ele>2737.0100000000002</ele>
        <time>2016-07-31T06:27:32Z</time>
      </trkpt>
      <trkpt lat="46.143753938376904" lon="7.977911615744233">
        <ele>2736.5300000000002</ele>
        <time>2016-07-31T06:27:47Z</time>
      </trkpt>
      <trkpt lat="46.143808588385582" lon="7.977885128930211">
        <ele>2735.0900000000001</ele>
        <time>2016-07-31T06:28:00Z</time>
      </trkpt>
      <trkpt lat="46.143815461546183" lon="7.977941874414682">
        <ele>2733.6500000000001</ele>
        <time>2016-07-31T06:28:11Z</time>
      </trkpt>
      <trkpt lat="46.143828621134162" lon="7.977931732311845">
        <ele>2733.6500000000001</ele>
        <time>2016-07-31T06:28:20Z</time>
      </trkpt>
      <trkpt lat="46.14385929889977" lon="7.977960398420692">
        <ele>2733.6500000000001</ele>
        <time>2016-07-31T06:28:33Z</time>
      </trkpt>
      <trkpt lat="46.143852844834328" lon="7.977936258539558">
        <ele>2733.6500000000001</ele>
        <time>2016-07-31T06:28:47Z</time>
      </trkpt>
      <trkpt lat="46.14385686814785" lon="7.977916141971946">
        <ele>2733.6500000000001</ele>
        <time>2016-07-31T06:29:03Z</time>
      </trkpt>
      <trkpt lat="46.14387053065002" lon="7.977937934920192">
        <ele>2733.6500000000001</ele>
        <time>2016-07-31T06:29:18Z</time>
      </trkpt>
      <trkpt lat="46.143816886469722" lon="7.978012366220355">
        <ele>2733.6500000000001</ele>
        <time>2016-07-31T06:29:26Z</time>
      </trkpt>
      <trkpt lat="46.143860891461372" lon="7.978045977652073">
        <ele>2734.1300000000001</ele>
        <time>2016-07-31T06:29:36Z</time>
      </trkpt>
      <trkpt lat="46.143901208415627" lon="7.978043546900153">
        <ele>2734.6100000000001</ele>
        <time>2016-07-31T06:29:46Z</time>
      </trkpt>
      <trkpt lat="46.14394630305469" lon="7.978093083947897">
        <ele>2735.0900000000001</ele>
        <time>2016-07-31T06:29:55Z</time>
      </trkpt>
      <trkpt lat="46.14399366080761" lon="7.978087132796645">
        <ele>2736.5300000000002</ele>
        <time>2016-07-31T06:30:05Z</time>
      </trkpt>
      <trkpt lat="46.14404110237956" lon="7.978093838319182">
        <ele>2737.0100000000002</ele>
        <time>2016-07-31T06:30:14Z</time>
      </trkpt>
      <trkpt lat="46.144088711589575" lon="7.978173131123185">
        <ele>2738.4499999999998</ele>
        <time>2016-07-31T06:30:26Z</time>
      </trkpt>
      <trkpt lat="46.144089968875051" lon="7.978231301531196">
        <ele>2739.8899999999999</ele>
        <time>2016-07-31T06:30:36Z</time>
      </trkpt>
      <trkpt lat="46.144088124856353" lon="7.978311600163579">
        <ele>2741.8200000000002</ele>
        <time>2016-07-31T06:30:48Z</time>
      </trkpt>
      <trkpt lat="46.144109750166535" lon="7.97841084189713">
        <ele>2743.7399999999998</ele>
        <time>2016-07-31T06:31:00Z</time>
      </trkpt>
      <trkpt lat="46.1440943274647" lon="7.978514274582267">
        <ele>2745.6599999999999</ele>
        <time>2016-07-31T06:31:13Z</time>
      </trkpt>
      <trkpt lat="46.144129447638988" lon="7.978572612628341">
        <ele>2747.0999999999999</ele>
        <time>2016-07-31T06:31:23Z</time>
      </trkpt>
      <trkpt lat="46.144146881997585" lon="7.978664478287101">
        <ele>2748.5500000000002</ele>
        <time>2016-07-31T06:31:35Z</time>
      </trkpt>
      <trkpt lat="46.144153252243996" lon="7.978755757212639">
        <ele>2749.9899999999998</ele>
        <time>2016-07-31T06:31:45Z</time>
      </trkpt>
      <trkpt lat="46.144139422103763" lon="7.978780986741185">
        <ele>2750.4699999999998</ele>
        <time>2016-07-31T06:31:53Z</time>
      </trkpt>
      <trkpt lat="46.144131710752845" lon="7.978779561817646">
        <ele>2749.9899999999998</ele>
        <time>2016-07-31T06:31:59Z</time>
      </trkpt>
      <trkpt lat="46.144142774865031" lon="7.978770006448031">
        <ele>2750.9499999999998</ele>
        <time>2016-07-31T06:32:15Z</time>
      </trkpt>
      <trkpt lat="46.144120143726468" lon="7.97878316603601">
        <ele>2750.4699999999998</ele>
        <time>2016-07-31T06:32:31Z</time>
      </trkpt>
      <trkpt lat="46.144118718802929" lon="7.978783249855042">
        <ele>2750.9499999999998</ele>
        <time>2016-07-31T06:32:51Z</time>
      </trkpt>
      <trkpt lat="46.144122071564198" lon="7.978790458291769">
        <ele>2750.4699999999998</ele>
        <time>2016-07-31T06:33:07Z</time>
      </trkpt>
      <trkpt lat="46.144122406840324" lon="7.978805294260383">
        <ele>2750.9499999999998</ele>
        <time>2016-07-31T06:33:22Z</time>
      </trkpt>
      <trkpt lat="46.14414419978857" lon="7.978929597884417">
        <ele>2752.3899999999999</ele>
        <time>2016-07-31T06:33:34Z</time>
      </trkpt>
      <trkpt lat="46.14418082870543" lon="7.979053650051355">
        <ele>2753.8299999999999</ele>
        <time>2016-07-31T06:33:45Z</time>
      </trkpt>
      <trkpt lat="46.144161466509104" lon="7.979077873751521">
        <ele>2754.3099999999999</ele>
        <time>2016-07-31T06:33:59Z</time>
      </trkpt>
      <trkpt lat="46.144171943888068" lon="7.979093044996262">
        <ele>2754.3099999999999</ele>
        <time>2016-07-31T06:34:13Z</time>
      </trkpt>
      <trkpt lat="46.144184684380889" lon="7.979080891236663">
        <ele>2754.3099999999999</ele>
        <time>2016-07-31T06:34:26Z</time>
      </trkpt>
      <trkpt lat="46.144182169809937" lon="7.979103438556194">
        <ele>2754.3099999999999</ele>
        <time>2016-07-31T06:34:51Z</time>
      </trkpt>
      <trkpt lat="46.14418082870543" lon="7.979103606194258">
        <ele>2754.3099999999999</ele>
        <time>2016-07-31T06:35:16Z</time>
      </trkpt>
      <trkpt lat="46.144181163981557" lon="7.979086171835661">
        <ele>2754.8000000000002</ele>
        <time>2016-07-31T06:35:26Z</time>
      </trkpt>
      <trkpt lat="46.144202034920454" lon="7.979136630892754">
        <ele>2754.3099999999999</ele>
        <time>2016-07-31T06:35:36Z</time>
      </trkpt>
      <trkpt lat="46.144222738221288" lon="7.979217767715454">
        <ele>2754.8000000000002</ele>
        <time>2016-07-31T06:35:43Z</time>
      </trkpt>
      <trkpt lat="46.144233047962189" lon="7.979263113811612">
        <ele>2756.2399999999998</ele>
        <time>2016-07-31T06:35:52Z</time>
      </trkpt>
      <trkpt lat="46.144262216985226" lon="7.979384819045663">
        <ele>2757.6799999999998</ele>
        <time>2016-07-31T06:36:03Z</time>
      </trkpt>
      <trkpt lat="46.1442946549505" lon="7.979527479037643">
        <ele>2759.1199999999999</ele>
        <time>2016-07-31T06:36:16Z</time>
      </trkpt>
      <trkpt lat="46.144346622750163" lon="7.979605263099074">
        <ele>2760.5599999999999</ele>
        <time>2016-07-31T06:36:27Z</time>
      </trkpt>
      <trkpt lat="46.144389705732465" lon="7.979672737419605">
        <ele>2762</ele>
        <time>2016-07-31T06:36:38Z</time>
      </trkpt>
      <trkpt lat="46.144455336034298" lon="7.979731746017933">
        <ele>2764.4099999999999</ele>
        <time>2016-07-31T06:36:50Z</time>
      </trkpt>
      <trkpt lat="46.144503531977534" lon="7.979821767657995">
        <ele>2765.8499999999999</ele>
        <time>2016-07-31T06:37:02Z</time>
      </trkpt>
      <trkpt lat="46.144532784819603" lon="7.979859905317426">
        <ele>2766.8099999999999</ele>
        <time>2016-07-31T06:37:08Z</time>
      </trkpt>
      <trkpt lat="46.144606042653322" lon="7.979931822046638">
        <ele>2767.29</ele>
        <time>2016-07-31T06:37:22Z</time>
      </trkpt>
      <trkpt lat="46.144657591357827" lon="7.979981526732445">
        <ele>2769.6999999999998</ele>
        <time>2016-07-31T06:37:31Z</time>
      </trkpt>
      <trkpt lat="46.144709307700396" lon="7.980050845071673">
        <ele>2772.0999999999999</ele>
        <time>2016-07-31T06:37:43Z</time>
      </trkpt>
      <trkpt lat="46.144760940223932" lon="7.980083366855979">
        <ele>2773.0599999999999</ele>
        <time>2016-07-31T06:37:51Z</time>
      </trkpt>
      <trkpt lat="46.144814500585198" lon="7.980104153975844">
        <ele>2773.54</ele>
        <time>2016-07-31T06:38:02Z</time>
      </trkpt>
      <trkpt lat="46.144832354038954" lon="7.980094011873007">
        <ele>2773.54</ele>
        <time>2016-07-31T06:38:12Z</time>
      </trkpt>
      <trkpt lat="46.144833443686366" lon="7.980088731274009">
        <ele>2773.54</ele>
        <time>2016-07-31T06:38:16Z</time>
      </trkpt>
      <trkpt lat="46.144856410101056" lon="7.98010247759521">
        <ele>2773.54</ele>
        <time>2016-07-31T06:38:18Z</time>
      </trkpt>
      <trkpt lat="46.144934445619583" lon="7.980110105127096">
        <ele>2774.02</ele>
        <time>2016-07-31T06:38:27Z</time>
      </trkpt>
      <trkpt lat="46.14498658105731" lon="7.980102058500052">
        <ele>2774.5</ele>
        <time>2016-07-31T06:38:32Z</time>
      </trkpt>
      <trkpt lat="46.145083559677005" lon="7.980071296915412">
        <ele>2775.9400000000001</ele>
        <time>2016-07-31T06:38:43Z</time>
      </trkpt>
      <trkpt lat="46.145137455314398" lon="7.98006584867835">
        <ele>2775.46</ele>
        <time>2016-07-31T06:38:49Z</time>
      </trkpt>
      <trkpt lat="46.145260753110051" lon="7.980092167854309">
        <ele>2777.8699999999999</ele>
        <time>2016-07-31T06:39:01Z</time>
      </trkpt>
      <trkpt lat="46.145371058955789" lon="7.980127204209566">
        <ele>2778.8299999999999</ele>
        <time>2016-07-31T06:39:13Z</time>
      </trkpt>
      <trkpt lat="46.145471390336752" lon="7.980163330212236">
        <ele>2780.27</ele>
        <time>2016-07-31T06:39:24Z</time>
      </trkpt>
      <trkpt lat="46.145497458055615" lon="7.980171460658312">
        <ele>2781.71</ele>
        <time>2016-07-31T06:39:27Z</time>
      </trkpt>
      <trkpt lat="46.145583875477314" lon="7.98020901158452">
        <ele>2781.23</ele>
        <time>2016-07-31T06:39:36Z</time>
      </trkpt>
      <trkpt lat="46.145708514377475" lon="7.980243293568492">
        <ele>2781.71</ele>
        <time>2016-07-31T06:39:48Z</time>
      </trkpt>
      <trkpt lat="46.145771211013198" lon="7.980258883908391">
        <ele>2782.6700000000001</ele>
        <time>2016-07-31T06:39:54Z</time>
      </trkpt>
      <trkpt lat="46.145889228209853" lon="7.980282604694367">
        <ele>2783.6300000000001</ele>
        <time>2016-07-31T06:40:06Z</time>
      </trkpt>
      <trkpt lat="46.145975226536393" lon="7.980266595259309">
        <ele>2784.5999999999999</ele>
        <time>2016-07-31T06:40:16Z</time>
      </trkpt>
      <trkpt lat="46.146020237356424" lon="7.980267852544785">
        <ele>2785.5599999999999</ele>
        <time>2016-07-31T06:40:22Z</time>
      </trkpt>
      <trkpt lat="46.146099949255586" lon="7.980268187820911">
        <ele>2787</ele>
        <time>2016-07-31T06:40:32Z</time>
      </trkpt>
      <trkpt lat="46.146207321435213" lon="7.980267517268658">
        <ele>2788.4400000000001</ele>
        <time>2016-07-31T06:40:44Z</time>
      </trkpt>
      <trkpt lat="46.146300192922354" lon="7.980248741805553">
        <ele>2789.4000000000001</ele>
        <time>2016-07-31T06:40:54Z</time>
      </trkpt>
      <trkpt lat="46.146391471847892" lon="7.980216136202216">
        <ele>2791.3299999999999</ele>
        <time>2016-07-31T06:41:06Z</time>
      </trkpt>
      <trkpt lat="46.146478308364749" lon="7.980157881975174">
        <ele>2793.25</ele>
        <time>2016-07-31T06:41:18Z</time>
      </trkpt>
      <trkpt lat="46.146564558148384" lon="7.980115385726094">
        <ele>2794.6900000000001</ele>
        <time>2016-07-31T06:41:30Z</time>
      </trkpt>
      <trkpt lat="46.146546034142375" lon="7.980202725157142">
        <ele>2796.1300000000001</ele>
        <time>2016-07-31T06:41:40Z</time>
      </trkpt>
      <trkpt lat="46.146504878997803" lon="7.980294926092029">
        <ele>2797.5700000000002</ele>
        <time>2016-07-31T06:41:51Z</time>
      </trkpt>
      <trkpt lat="46.146451150998473" lon="7.980396933853626">
        <ele>2799.02</ele>
        <time>2016-07-31T06:42:03Z</time>
      </trkpt>
      <trkpt lat="46.146533545106649" lon="7.980377152562141">
        <ele>2800.46</ele>
        <time>2016-07-31T06:42:14Z</time>
      </trkpt>
      <trkpt lat="46.146613257005811" lon="7.9803516715765">
        <ele>2802.3800000000001</ele>
        <time>2016-07-31T06:42:26Z</time>
      </trkpt>
      <trkpt lat="46.146688526496291" lon="7.980301463976502">
        <ele>2804.3000000000002</ele>
        <time>2016-07-31T06:42:38Z</time>
      </trkpt>
      <trkpt lat="46.146733453497291" lon="7.980279754847288">
        <ele>2805.2600000000002</ele>
        <time>2016-07-31T06:42:44Z</time>
      </trkpt>
      <trkpt lat="46.146771172061563" lon="7.980302385985851">
        <ele>2805.75</ele>
        <time>2016-07-31T06:42:49Z</time>
      </trkpt>
      <trkpt lat="46.146714175119996" lon="7.980418391525745">
        <ele>2808.1500000000001</ele>
        <time>2016-07-31T06:43:01Z</time>
      </trkpt>
      <trkpt lat="46.146710654720664" lon="7.980484357103705">
        <ele>2809.5900000000001</ele>
        <time>2016-07-31T06:43:11Z</time>
      </trkpt>
      <trkpt lat="46.146770333871245" lon="7.980501120910049">
        <ele>2811.0300000000002</ele>
        <time>2016-07-31T06:43:21Z</time>
      </trkpt>
      <trkpt lat="46.146758012473583" lon="7.980533726513386">
        <ele>2811.5100000000002</ele>
        <time>2016-07-31T06:43:31Z</time>
      </trkpt>
      <trkpt lat="46.14673831500113" lon="7.980583095923066">
        <ele>2811.9899999999998</ele>
        <time>2016-07-31T06:43:42Z</time>
      </trkpt>
      <trkpt lat="46.146728340536356" lon="7.980594662949443">
        <ele>2812.4699999999998</ele>
        <time>2016-07-31T06:43:56Z</time>
      </trkpt>
      <trkpt lat="46.146740829572082" lon="7.980584688484669">
        <ele>2812.96</ele>
        <time>2016-07-31T06:44:05Z</time>
      </trkpt>
      <trkpt lat="46.146744349971414" lon="7.980575133115053">
        <ele>2813.4400000000001</ele>
        <time>2016-07-31T06:44:21Z</time>
      </trkpt>
      <trkpt lat="46.14673730917275" lon="7.980591561645269">
        <ele>2813.4400000000001</ele>
        <time>2016-07-31T06:44:33Z</time>
      </trkpt>
      <trkpt lat="46.146722054108977" lon="7.980624586343765">
        <ele>2813.9200000000001</ele>
        <time>2016-07-31T06:44:49Z</time>
      </trkpt>
      <trkpt lat="46.146676708012819" lon="7.980703795328736">
        <ele>2814.8800000000001</ele>
        <time>2016-07-31T06:44:58Z</time>
      </trkpt>
      <trkpt lat="46.146630188450217" lon="7.980788117274642">
        <ele>2816.8000000000002</ele>
        <time>2016-07-31T06:45:09Z</time>
      </trkpt>
      <trkpt lat="46.146637396886945" lon="7.980855843052268">
        <ele>2818.2399999999998</ele>
        <time>2016-07-31T06:45:20Z</time>
      </trkpt>
      <trkpt lat="46.146637815982103" lon="7.980869170278311">
        <ele>2819.1999999999998</ele>
        <time>2016-07-31T06:45:31Z</time>
      </trkpt>
      <trkpt lat="46.146639492362738" lon="7.980865482240915">
        <ele>2819.1999999999998</ele>
        <time>2016-07-31T06:45:44Z</time>
      </trkpt>
      <trkpt lat="46.14666111767292" lon="7.980901189148426">
        <ele>2819.1999999999998</ele>
        <time>2016-07-31T06:45:57Z</time>
      </trkpt>
      <trkpt lat="46.146628931164742" lon="7.980876713991165">
        <ele>2818.2399999999998</ele>
        <time>2016-07-31T06:46:08Z</time>
      </trkpt>
      <trkpt lat="46.146600600332022" lon="7.980863302946091">
        <ele>2818.7199999999998</ele>
        <time>2016-07-31T06:46:33Z</time>
      </trkpt>
      <trkpt lat="46.146607808768749" lon="7.980861961841583">
        <ele>2819.1999999999998</ele>
        <time>2016-07-31T06:46:56Z</time>
      </trkpt>
      <trkpt lat="46.146632116287947" lon="7.980892471969128">
        <ele>2819.6799999999998</ele>
        <time>2016-07-31T06:47:07Z</time>
      </trkpt>
      <trkpt lat="46.146618537604809" lon="7.980863219127059">
        <ele>2819.6799999999998</ele>
        <time>2016-07-31T06:47:22Z</time>
      </trkpt>
      <trkpt lat="46.146609904244542" lon="7.980929687619209">
        <ele>2820.6500000000001</ele>
        <time>2016-07-31T06:47:33Z</time>
      </trkpt>
      <trkpt lat="46.146576125174761" lon="7.980960281565785">
        <ele>2821.6100000000001</ele>
        <time>2016-07-31T06:47:42Z</time>
      </trkpt>
      <trkpt lat="46.146583752706647" lon="7.981031946837902">
        <ele>2823.5300000000002</ele>
        <time>2016-07-31T06:47:51Z</time>
      </trkpt>
      <trkpt lat="46.146537233144045" lon="7.981068156659603">
        <ele>2824.4899999999998</ele>
        <time>2016-07-31T06:48:01Z</time>
      </trkpt>
      <trkpt lat="46.146500688046217" lon="7.981092967092991">
        <ele>2826.4099999999999</ele>
        <time>2016-07-31T06:48:13Z</time>
      </trkpt>
      <trkpt lat="46.146489623934031" lon="7.981138648465276">
        <ele>2827.8499999999999</ele>
        <time>2016-07-31T06:48:24Z</time>
      </trkpt>
      <trkpt lat="46.146483588963747" lon="7.981185922399163">
        <ele>2829.3000000000002</ele>
        <time>2016-07-31T06:48:32Z</time>
      </trkpt>
      <trkpt lat="46.146492557600141" lon="7.981244428083301">
        <ele>2830.2600000000002</ele>
        <time>2016-07-31T06:48:41Z</time>
      </trkpt>
      <trkpt lat="46.146430866792798" lon="7.98125415109098">
        <ele>2831.6999999999998</ele>
        <time>2016-07-31T06:48:50Z</time>
      </trkpt>
      <trkpt lat="46.146370600908995" lon="7.981275357306004">
        <ele>2833.1399999999999</ele>
        <time>2016-07-31T06:49:00Z</time>
      </trkpt>
      <trkpt lat="46.146418964490294" lon="7.981319697573781">
        <ele>2834.5799999999999</ele>
        <time>2016-07-31T06:49:09Z</time>
      </trkpt>
      <trkpt lat="46.146417874842882" lon="7.981361523270607">
        <ele>2836.0300000000002</ele>
        <time>2016-07-31T06:49:19Z</time>
      </trkpt>
      <trkpt lat="46.146405469626188" lon="7.981417095288634">
        <ele>2837.9499999999998</ele>
        <time>2016-07-31T06:49:29Z</time>
      </trkpt>
      <trkpt lat="46.146369846537709" lon="7.981442408636212">
        <ele>2838.4299999999998</ele>
        <time>2016-07-31T06:49:41Z</time>
      </trkpt>
      <trkpt lat="46.146363979205489" lon="7.981507619842887">
        <ele>2840.8299999999999</ele>
        <time>2016-07-31T06:49:52Z</time>
      </trkpt>
      <trkpt lat="46.146336738020182" lon="7.981552882120013">
        <ele>2842.2800000000002</ele>
        <time>2016-07-31T06:50:02Z</time>
      </trkpt>
      <trkpt lat="46.146263396367431" lon="7.981560761108995">
        <ele>2843.7199999999998</ele>
        <time>2016-07-31T06:50:13Z</time>
      </trkpt>
      <trkpt lat="46.146232802420855" lon="7.981630833819509">
        <ele>2845.1599999999999</ele>
        <time>2016-07-31T06:50:24Z</time>
      </trkpt>
      <trkpt lat="46.146228946745396" lon="7.981671318411827">
        <ele>2847.0799999999999</ele>
        <time>2016-07-31T06:50:34Z</time>
      </trkpt>
      <trkpt lat="46.14619642496109" lon="7.981733931228519">
        <ele>2849</ele>
        <time>2016-07-31T06:50:45Z</time>
      </trkpt>
      <trkpt lat="46.146223247051239" lon="7.981815654784441">
        <ele>2849.9699999999998</ele>
        <time>2016-07-31T06:50:56Z</time>
      </trkpt>
      <trkpt lat="46.146237244829535" lon="7.981890086084604">
        <ele>2851.4099999999999</ele>
        <time>2016-07-31T06:51:06Z</time>
      </trkpt>
      <trkpt lat="46.146232886239886" lon="7.981963763013482">
        <ele>2852.3699999999999</ele>
        <time>2016-07-31T06:51:16Z</time>
      </trkpt>
      <trkpt lat="46.146192653104663" lon="7.981946244835854">
        <ele>2853.3299999999999</ele>
        <time>2016-07-31T06:51:21Z</time>
      </trkpt>
      <trkpt lat="46.146099027246237" lon="7.981907185167074">
        <ele>2855.25</ele>
        <time>2016-07-31T06:51:33Z</time>
      </trkpt>
      <trkpt lat="46.14610112272203" lon="7.98196510411799">
        <ele>2855.73</ele>
        <time>2016-07-31T06:51:45Z</time>
      </trkpt>
      <trkpt lat="46.146121993660927" lon="7.982014557346702">
        <ele>2856.6900000000001</ele>
        <time>2016-07-31T06:51:56Z</time>
      </trkpt>
      <trkpt lat="46.14613389596343" lon="7.982084127143025">
        <ele>2857.6599999999999</ele>
        <time>2016-07-31T06:52:07Z</time>
      </trkpt>
      <trkpt lat="46.146131884306669" lon="7.982124947011471">
        <ele>2858.1399999999999</ele>
        <time>2016-07-31T06:52:17Z</time>
      </trkpt>
      <trkpt lat="46.146147139370441" lon="7.982121426612139">
        <ele>2858.1399999999999</ele>
        <time>2016-07-31T06:52:33Z</time>
      </trkpt>
      <trkpt lat="46.146146552637219" lon="7.982194265350699">
        <ele>2859.0999999999999</ele>
        <time>2016-07-31T06:52:48Z</time>
      </trkpt>
      <trkpt lat="46.146167004480958" lon="7.98229543492198">
        <ele>2860.54</ele>
        <time>2016-07-31T06:52:58Z</time>
      </trkpt>
      <trkpt lat="46.146172787994146" lon="7.982399873435497">
        <ele>2861.5</ele>
        <time>2016-07-31T06:53:09Z</time>
      </trkpt>
      <trkpt lat="46.14610699005425" lon="7.982389982789755">
        <ele>2862.46</ele>
        <time>2016-07-31T06:53:17Z</time>
      </trkpt>
      <trkpt lat="46.146020069718361" lon="7.982355952262878">
        <ele>2863.4200000000001</ele>
        <time>2016-07-31T06:53:28Z</time>
      </trkpt>
      <trkpt lat="46.145926276221871" lon="7.982302978634834">
        <ele>2865.3499999999999</ele>
        <time>2016-07-31T06:53:40Z</time>
      </trkpt>
      <trkpt lat="46.145883863791823" lon="7.982259811833501">
        <ele>2866.3099999999999</ele>
        <time>2016-07-31T06:53:49Z</time>
      </trkpt>
      <trkpt lat="46.145871793851256" lon="7.982241120189428">
        <ele>2866.3099999999999</ele>
        <time>2016-07-31T06:54:10Z</time>
      </trkpt>
      <trkpt lat="46.145872715860605" lon="7.982255285605788">
        <ele>2866.3099999999999</ele>
        <time>2016-07-31T06:54:26Z</time>
      </trkpt>
      <trkpt lat="46.145867854356766" lon="7.982285125181079">
        <ele>2866.79</ele>
        <time>2016-07-31T06:54:36Z</time>
      </trkpt>
      <trkpt lat="46.145785711705685" lon="7.982362154871225">
        <ele>2868.23</ele>
        <time>2016-07-31T06:54:48Z</time>
      </trkpt>
      <trkpt lat="46.14570633508265" lon="7.982342205941677">
        <ele>2869.6700000000001</ele>
        <time>2016-07-31T06:54:57Z</time>
      </trkpt>
      <trkpt lat="46.145632658153772" lon="7.982327202335">
        <ele>2871.5999999999999</ele>
        <time>2016-07-31T06:55:07Z</time>
      </trkpt>
      <trkpt lat="46.14559737034142" lon="7.98231890425086">
        <ele>2872.5599999999999</ele>
        <time>2016-07-31T06:55:18Z</time>
      </trkpt>
      <trkpt lat="46.145633077248931" lon="7.982409261167049">
        <ele>2874</ele>
        <time>2016-07-31T06:55:27Z</time>
      </trkpt>
      <trkpt lat="46.145622516050935" lon="7.982486542314291">
        <ele>2876.4000000000001</ele>
        <time>2016-07-31T06:55:38Z</time>
      </trkpt>
      <trkpt lat="46.145561831071973" lon="7.982514118775725">
        <ele>2878.3200000000002</ele>
        <time>2016-07-31T06:55:49Z</time>
      </trkpt>
      <trkpt lat="46.145515982061625" lon="7.982528284192085">
        <ele>2880.25</ele>
        <time>2016-07-31T06:55:59Z</time>
      </trkpt>
      <trkpt lat="46.145442053675652" lon="7.982510682195425">
        <ele>2882.1700000000001</ele>
        <time>2016-07-31T06:56:10Z</time>
      </trkpt>
      <trkpt lat="46.145445574074984" lon="7.982580335810781">
        <ele>2884.0900000000001</ele>
        <time>2016-07-31T06:56:21Z</time>
      </trkpt>
      <trkpt lat="46.145432330667973" lon="7.982601206749678">
        <ele>2885.0500000000002</ele>
        <time>2016-07-31T06:56:34Z</time>
      </trkpt>
      <trkpt lat="46.145440377295017" lon="7.98259005881846">
        <ele>2885.0500000000002</ele>
        <time>2016-07-31T06:56:51Z</time>
      </trkpt>
      <trkpt lat="46.145429564639926" lon="7.982584107667208">
        <ele>2884.5700000000002</ele>
        <time>2016-07-31T06:57:07Z</time>
      </trkpt>
      <trkpt lat="46.145429983735085" lon="7.982590142637491">
        <ele>2883.6100000000001</ele>
        <time>2016-07-31T06:57:18Z</time>
      </trkpt>
      <trkpt lat="46.145425960421562" lon="7.982561644166708">
        <ele>2883.6100000000001</ele>
        <time>2016-07-31T06:57:40Z</time>
      </trkpt>
      <trkpt lat="46.14542244002223" lon="7.98257446847856">
        <ele>2883.6100000000001</ele>
        <time>2016-07-31T06:57:56Z</time>
      </trkpt>
      <trkpt lat="46.145429732277989" lon="7.982582179829478">
        <ele>2885.0500000000002</ele>
        <time>2016-07-31T06:58:05Z</time>
      </trkpt>
      <trkpt lat="46.145415315404534" lon="7.982667256146669">
        <ele>2885.5300000000002</ele>
        <time>2016-07-31T06:58:16Z</time>
      </trkpt>
      <trkpt lat="46.145400395616889" lon="7.982765240594745">
        <ele>2886.5</ele>
        <time>2016-07-31T06:58:27Z</time>
      </trkpt>
      <trkpt lat="46.145372902974486" lon="7.982890047132969">
        <ele>2887.9400000000001</ele>
        <time>2016-07-31T06:58:40Z</time>
      </trkpt>
      <trkpt lat="46.145325629040599" lon="7.983004041016102">
        <ele>2889.8600000000001</ele>
        <time>2016-07-31T06:58:52Z</time>
      </trkpt>
      <trkpt lat="46.145287156105042" lon="7.983086099848151">
        <ele>2891.7800000000002</ele>
        <time>2016-07-31T06:59:03Z</time>
      </trkpt>
      <trkpt lat="46.145254047587514" lon="7.983152316883206">
        <ele>2893.23</ele>
        <time>2016-07-31T06:59:13Z</time>
      </trkpt>
      <trkpt lat="46.145206857472658" lon="7.983240159228444">
        <ele>2894.6700000000001</ele>
        <time>2016-07-31T06:59:25Z</time>
      </trkpt>
      <trkpt lat="46.145223286002874" lon="7.983320709317923">
        <ele>2895.6300000000001</ele>
        <time>2016-07-31T06:59:35Z</time>
      </trkpt>
      <trkpt lat="46.145217083394527" lon="7.983436798676848">
        <ele>2897.0700000000002</ele>
        <time>2016-07-31T06:59:46Z</time>
      </trkpt>
      <trkpt lat="46.145235104486346" lon="7.9835463501513">
        <ele>2898.5100000000002</ele>
        <time>2016-07-31T06:59:58Z</time>
      </trkpt>
      <trkpt lat="46.145248850807548" lon="7.983642742037773">
        <ele>2900.4400000000001</ele>
        <time>2016-07-31T07:00:10Z</time>
      </trkpt>
      <trkpt lat="46.14523527212441" lon="7.983695715665817">
        <ele>2901.4000000000001</ele>
        <time>2016-07-31T07:00:21Z</time>
      </trkpt>
      <trkpt lat="46.145233428105712" lon="7.983723627403379">
        <ele>2901.4000000000001</ele>
        <time>2016-07-31T07:00:39Z</time>
      </trkpt>
      <trkpt lat="46.14522940479219" lon="7.983778025954962">
        <ele>2901.8800000000001</ele>
        <time>2016-07-31T07:00:55Z</time>
      </trkpt>
      <trkpt lat="46.145211970433593" lon="7.983919177204371">
        <ele>2903.3200000000002</ele>
        <time>2016-07-31T07:01:09Z</time>
      </trkpt>
      <trkpt lat="46.145210461691022" lon="7.98402663320303">
        <ele>2904.2800000000002</ele>
        <time>2016-07-31T07:01:20Z</time>
      </trkpt>
      <trkpt lat="46.145200151950121" lon="7.984138028696179">
        <ele>2905.7199999999998</ele>
        <time>2016-07-31T07:01:31Z</time>
      </trkpt>
      <trkpt lat="46.145192356780171" lon="7.984265349805355">
        <ele>2907.1599999999999</ele>
        <time>2016-07-31T07:01:44Z</time>
      </trkpt>
      <trkpt lat="46.145199816673994" lon="7.984373141080141">
        <ele>2909.5700000000002</ele>
        <time>2016-07-31T07:01:56Z</time>
      </trkpt>
      <trkpt lat="46.145208030939102" lon="7.984388396143913">
        <ele>2909.5700000000002</ele>
        <time>2016-07-31T07:02:05Z</time>
      </trkpt>
      <trkpt lat="46.14520501345396" lon="7.984396861866117">
        <ele>2909.0900000000001</ele>
        <time>2016-07-31T07:02:12Z</time>
      </trkpt>
      <trkpt lat="46.145201828330755" lon="7.984380852431059">
        <ele>2910.0500000000002</ele>
        <time>2016-07-31T07:02:25Z</time>
      </trkpt>
      <trkpt lat="46.145202163606882" lon="7.984391581267119">
        <ele>2910.0500000000002</ele>
        <time>2016-07-31T07:02:34Z</time>
      </trkpt>
      <trkpt lat="46.145202750340104" lon="7.984472047537565">
        <ele>2911.4899999999998</ele>
        <time>2016-07-31T07:02:50Z</time>
      </trkpt>
      <trkpt lat="46.145222363993526" lon="7.984584113582969">
        <ele>2913.4099999999999</ele>
        <time>2016-07-31T07:03:02Z</time>
      </trkpt>
      <trkpt lat="46.145235942676663" lon="7.984733646735549">
        <ele>2915.3400000000001</ele>
        <time>2016-07-31T07:03:18Z</time>
      </trkpt>
      <trkpt lat="46.14522160962224" lon="7.984863985329866">
        <ele>2917.7399999999998</ele>
        <time>2016-07-31T07:03:39Z</time>
      </trkpt>
      <trkpt lat="46.145236026495695" lon="7.984831044450402">
        <ele>2917.7399999999998</ele>
        <time>2016-07-31T07:04:10Z</time>
      </trkpt>
      <trkpt lat="46.145206019282341" lon="7.984927436336875">
        <ele>2919.1799999999998</ele>
        <time>2016-07-31T07:04:27Z</time>
      </trkpt>
      <trkpt lat="46.145207025110722" lon="7.985120136290789">
        <ele>2921.0999999999999</ele>
        <time>2016-07-31T07:04:47Z</time>
      </trkpt>
      <trkpt lat="46.145226135849953" lon="7.985260114073753">
        <ele>2922.54</ele>
        <time>2016-07-31T07:04:58Z</time>
      </trkpt>
      <trkpt lat="46.145233260467649" lon="7.985366564244032">
        <ele>2923.0300000000002</ele>
        <time>2016-07-31T07:05:09Z</time>
      </trkpt>
      <trkpt lat="46.145262680947781" lon="7.985491035506129">
        <ele>2923.9899999999998</ele>
        <time>2016-07-31T07:05:22Z</time>
      </trkpt>
      <trkpt lat="46.145338704809546" lon="7.985574435442686">
        <ele>2925.4299999999998</ele>
        <time>2016-07-31T07:05:35Z</time>
      </trkpt>
      <trkpt lat="46.14538287743926" lon="7.985674012452364">
        <ele>2926.8699999999999</ele>
        <time>2016-07-31T07:05:47Z</time>
      </trkpt>
      <trkpt lat="46.14535597153008" lon="7.985696978867054">
        <ele>2927.3499999999999</ele>
        <time>2016-07-31T07:05:55Z</time>
      </trkpt>
      <trkpt lat="46.14535354077816" lon="7.985820528119803">
        <ele>2928.3099999999999</ele>
        <time>2016-07-31T07:06:05Z</time>
      </trkpt>
      <trkpt lat="46.145291179418564" lon="7.985914573073387">
        <ele>2929.27</ele>
        <time>2016-07-31T07:06:15Z</time>
      </trkpt>
      <trkpt lat="46.145216077566147" lon="7.985995542258024">
        <ele>2930.7199999999998</ele>
        <time>2016-07-31T07:06:26Z</time>
      </trkpt>
      <trkpt lat="46.145161343738437" lon="7.986173490062356">
        <ele>2930.7199999999998</ele>
        <time>2016-07-31T07:06:39Z</time>
      </trkpt>
      <trkpt lat="46.145138964056969" lon="7.986340457573533">
        <ele>2931.1999999999998</ele>
        <time>2016-07-31T07:06:51Z</time>
      </trkpt>
      <trkpt lat="46.145095210522413" lon="7.986531732603908">
        <ele>2932.1599999999999</ele>
        <time>2016-07-31T07:07:06Z</time>
      </trkpt>
      <trkpt lat="46.145082721486688" lon="7.986692748963833">
        <ele>2932.6399999999999</ele>
        <time>2016-07-31T07:07:17Z</time>
      </trkpt>
      <trkpt lat="46.145058497786522" lon="7.986880000680685">
        <ele>2933.5999999999999</ele>
        <time>2016-07-31T07:07:30Z</time>
      </trkpt>
      <trkpt lat="46.14503787830472" lon="7.987000616267324">
        <ele>2934.5599999999999</ele>
        <time>2016-07-31T07:07:41Z</time>
      </trkpt>
      <trkpt lat="46.145004518330097" lon="7.987132798880339">
        <ele>2935.52</ele>
        <time>2016-07-31T07:07:53Z</time>
      </trkpt>
      <trkpt lat="46.1449870839715" lon="7.987263221293688">
        <ele>2936.9699999999998</ele>
        <time>2016-07-31T07:08:03Z</time>
      </trkpt>
      <trkpt lat="46.144925393164158" lon="7.987410156056285">
        <ele>2938.4099999999999</ele>
        <time>2016-07-31T07:08:15Z</time>
      </trkpt>
      <trkpt lat="46.144910892471671" lon="7.987486515194178">
        <ele>2938.8899999999999</ele>
        <time>2016-07-31T07:08:22Z</time>
      </trkpt>
      <trkpt lat="46.144885243847966" lon="7.987621463835239">
        <ele>2940.8099999999999</ele>
        <time>2016-07-31T07:08:34Z</time>
      </trkpt>
      <trkpt lat="46.144876861944795" lon="7.987695895135403">
        <ele>2941.77</ele>
        <time>2016-07-31T07:08:40Z</time>
      </trkpt>
      <trkpt lat="46.144866216927767" lon="7.987860096618533">
        <ele>2943.21</ele>
        <time>2016-07-31T07:08:54Z</time>
      </trkpt>
      <trkpt lat="46.14487468264997" lon="7.987835286185145">
        <ele>2943.6900000000001</ele>
        <time>2016-07-31T07:09:04Z</time>
      </trkpt>
      <trkpt lat="46.144887506961823" lon="7.987808547914028">
        <ele>2943.6900000000001</ele>
        <time>2016-07-31T07:09:21Z</time>
      </trkpt>
      <trkpt lat="46.144853224977851" lon="7.987898318096995">
        <ele>2944.1700000000001</ele>
        <time>2016-07-31T07:09:34Z</time>
      </trkpt>
      <trkpt lat="46.144840903580189" lon="7.988012479618192">
        <ele>2945.6199999999999</ele>
        <time>2016-07-31T07:09:46Z</time>
      </trkpt>
      <trkpt lat="46.144813327118754" lon="7.988133933395147">
        <ele>2947.0599999999999</ele>
        <time>2016-07-31T07:09:58Z</time>
      </trkpt>
      <trkpt lat="46.144743338227272" lon="7.988257315009832">
        <ele>2948.5</ele>
        <time>2016-07-31T07:10:10Z</time>
      </trkpt>
      <trkpt lat="46.144729675725102" lon="7.988373823463917">
        <ele>2949.9400000000001</ele>
        <time>2016-07-31T07:10:21Z</time>
      </trkpt>
      <trkpt lat="46.144682317972183" lon="7.98854012042284">
        <ele>2950.9000000000001</ele>
        <time>2016-07-31T07:10:34Z</time>
      </trkpt>
      <trkpt lat="46.144674019888043" lon="7.988598374649882">
        <ele>2951.3800000000001</ele>
        <time>2016-07-31T07:10:39Z</time>
      </trkpt>
      <trkpt lat="46.144642001017928" lon="7.988791242241859">
        <ele>2952.8299999999999</ele>
        <time>2016-07-31T07:10:53Z</time>
      </trkpt>
      <trkpt lat="46.144609395414591" lon="7.988945888355374">
        <ele>2954.27</ele>
        <time>2016-07-31T07:11:06Z</time>
      </trkpt>
      <trkpt lat="46.144572431221604" lon="7.989080836996436">
        <ele>2955.71</ele>
        <time>2016-07-31T07:11:17Z</time>
      </trkpt>
      <trkpt lat="46.144530856981874" lon="7.989200865849853">
        <ele>2956.1900000000001</ele>
        <time>2016-07-31T07:11:27Z</time>
      </trkpt>
      <trkpt lat="46.144522055983543" lon="7.989232214167714">
        <ele>2956.6700000000001</ele>
        <time>2016-07-31T07:11:30Z</time>
      </trkpt>
      <trkpt lat="46.144501520320773" lon="7.989373113960028">
        <ele>2958.1100000000001</ele>
        <time>2016-07-31T07:11:43Z</time>
      </trkpt>
      <trkpt lat="46.144498167559505" lon="7.98938593827188">
        <ele>2960.04</ele>
        <time>2016-07-31T07:11:44Z</time>
      </trkpt>
      <trkpt lat="46.144395908340812" lon="7.989492975175381">
        <ele>2960.04</ele>
        <time>2016-07-31T07:11:58Z</time>
      </trkpt>
      <trkpt lat="46.144336815923452" lon="7.989577380940318">
        <ele>2961</ele>
        <time>2016-07-31T07:12:11Z</time>
      </trkpt>
      <trkpt lat="46.144285183399916" lon="7.989621385931969">
        <ele>2962.4400000000001</ele>
        <time>2016-07-31T07:12:20Z</time>
      </trkpt>
      <trkpt lat="46.14421796053648" lon="7.989650722593069">
        <ele>2962.9200000000001</ele>
        <time>2016-07-31T07:12:28Z</time>
      </trkpt>
      <trkpt lat="46.144193736836314" lon="7.989671006798744">
        <ele>2963.4000000000001</ele>
        <time>2016-07-31T07:12:31Z</time>
      </trkpt>
      <trkpt lat="46.144110169261694" lon="7.989682322368026">
        <ele>2964.3600000000001</ele>
        <time>2016-07-31T07:12:42Z</time>
      </trkpt>
      <trkpt lat="46.144068595021963" lon="7.989682322368026">
        <ele>2964.8400000000001</ele>
        <time>2016-07-31T07:12:47Z</time>
      </trkpt>
      <trkpt lat="46.143986620008945" lon="7.989626666530967">
        <ele>2965.8000000000002</ele>
        <time>2016-07-31T07:12:58Z</time>
      </trkpt>
      <trkpt lat="46.143964994698763" lon="7.989571765065193">
        <ele>2967.25</ele>
        <time>2016-07-31T07:13:06Z</time>
      </trkpt>
      <trkpt lat="46.1439492367208" lon="7.989538908004761">
        <ele>2968.21</ele>
        <time>2016-07-31T07:13:15Z</time>
      </trkpt>
      <trkpt lat="46.143949152901769" lon="7.989526418969035">
        <ele>2968.6900000000001</ele>
        <time>2016-07-31T07:13:29Z</time>
      </trkpt>
      <trkpt lat="46.143952002748847" lon="7.989535974338651">
        <ele>2970.1300000000001</ele>
        <time>2016-07-31T07:13:46Z</time>
      </trkpt>
      <trkpt lat="46.143938256427646" lon="7.989484593272209">
        <ele>2969.1700000000001</ele>
        <time>2016-07-31T07:14:11Z</time>
      </trkpt>
      <trkpt lat="46.143950074911118" lon="7.989496411755681">
        <ele>2969.1700000000001</ele>
        <time>2016-07-31T07:14:29Z</time>
      </trkpt>
      <trkpt lat="46.143965749070048" lon="7.989486856386066">
        <ele>2969.6500000000001</ele>
        <time>2016-07-31T07:14:50Z</time>
      </trkpt>
      <trkpt lat="46.14389643073082" lon="7.989474283531308">
        <ele>2970.6100000000001</ele>
        <time>2016-07-31T07:15:02Z</time>
      </trkpt>
      <trkpt lat="46.143839517608285" lon="7.989389542490244">
        <ele>2972.0500000000002</ele>
        <time>2016-07-31T07:15:16Z</time>
      </trkpt>
      <trkpt lat="46.143815796822309" lon="7.989323325455189">
        <ele>2973.0100000000002</ele>
        <time>2016-07-31T07:15:24Z</time>
      </trkpt>
      <trkpt lat="46.143797859549522" lon="7.989263813942671">
        <ele>2973.98</ele>
        <time>2016-07-31T07:15:34Z</time>
      </trkpt>
      <trkpt lat="46.14375863224268" lon="7.989192986860871">
        <ele>2975.9000000000001</ele>
        <time>2016-07-31T07:15:44Z</time>
      </trkpt>
      <trkpt lat="46.143676992505789" lon="7.989141857251525">
        <ele>2977.3400000000001</ele>
        <time>2016-07-31T07:15:55Z</time>
      </trkpt>
      <trkpt lat="46.143599040806293" lon="7.989088715985417">
        <ele>2978.7800000000002</ele>
        <time>2016-07-31T07:16:09Z</time>
      </trkpt>
      <trkpt lat="46.143530309200287" lon="7.989014117047191">
        <ele>2979.7399999999998</ele>
        <time>2016-07-31T07:16:20Z</time>
      </trkpt>
      <trkpt lat="46.143482197076082" lon="7.988959131762385">
        <ele>2980.71</ele>
        <time>2016-07-31T07:16:31Z</time>
      </trkpt>
      <trkpt lat="46.143469708040357" lon="7.988966256380081">
        <ele>2980.71</ele>
        <time>2016-07-31T07:16:42Z</time>
      </trkpt>
      <trkpt lat="46.143445735797286" lon="7.98891831189394">
        <ele>2980.71</ele>
        <time>2016-07-31T07:17:00Z</time>
      </trkpt>
      <trkpt lat="46.143423523753881" lon="7.988902805373073">
        <ele>2981.1900000000001</ele>
        <time>2016-07-31T07:17:14Z</time>
      </trkpt>
      <trkpt lat="46.143463589251041" lon="7.988897692412138">
        <ele>2981.1900000000001</ele>
        <time>2016-07-31T07:17:25Z</time>
      </trkpt>
      <trkpt lat="46.143434001132846" lon="7.988900877535343">
        <ele>2981.1900000000001</ele>
        <time>2016-07-31T07:17:41Z</time>
      </trkpt>
      <trkpt lat="46.143430648371577" lon="7.988902889192104">
        <ele>2981.1900000000001</ele>
        <time>2016-07-31T07:17:51Z</time>
      </trkpt>
      <trkpt lat="46.14342100918293" lon="7.988887215033174">
        <ele>2981.1900000000001</ele>
        <time>2016-07-31T07:18:05Z</time>
      </trkpt>
      <trkpt lat="46.143446154892445" lon="7.988877575844526">
        <ele>2980.71</ele>
        <time>2016-07-31T07:18:15Z</time>
      </trkpt>
      <trkpt lat="46.143451435491443" lon="7.98889827914536">
        <ele>2980.2199999999998</ele>
        <time>2016-07-31T07:18:25Z</time>
      </trkpt>
      <trkpt lat="46.143465433269739" lon="7.988908588886261">
        <ele>2980.2199999999998</ele>
        <time>2016-07-31T07:18:44Z</time>
      </trkpt>
      <trkpt lat="46.143482699990273" lon="7.98890464939177">
        <ele>2980.71</ele>
        <time>2016-07-31T07:19:01Z</time>
      </trkpt>
      <trkpt lat="46.143458811566234" lon="7.988913701847196">
        <ele>2981.6700000000001</ele>
        <time>2016-07-31T07:19:08Z</time>
      </trkpt>
      <trkpt lat="46.143428971990943" lon="7.988940440118313">
        <ele>2982.6300000000001</ele>
        <time>2016-07-31T07:19:16Z</time>
      </trkpt>
      <trkpt lat="46.143387900665402" lon="7.988963993266225">
        <ele>2984.0700000000002</ele>
        <time>2016-07-31T07:19:25Z</time>
      </trkpt>
      <trkpt lat="46.143348254263401" lon="7.989036832004786">
        <ele>2985.5100000000002</ele>
        <time>2016-07-31T07:19:34Z</time>
      </trkpt>
      <trkpt lat="46.143267871811986" lon="7.989129535853863">
        <ele>2985.5100000000002</ele>
        <time>2016-07-31T07:19:46Z</time>
      </trkpt>
      <trkpt lat="46.14324951544404" lon="7.989186784252524">
        <ele>2987.4299999999998</ele>
        <time>2016-07-31T07:19:53Z</time>
      </trkpt>
      <trkpt lat="46.143219927325845" lon="7.989270268008113">
        <ele>2988.8800000000001</ele>
        <time>2016-07-31T07:20:03Z</time>
      </trkpt>
      <trkpt lat="46.14319771528244" lon="7.989341514185071">
        <ele>2990.3200000000002</ele>
        <time>2016-07-31T07:20:13Z</time>
      </trkpt>
      <trkpt lat="46.143182376399636" lon="7.989453412592411">
        <ele>2991.2800000000002</ele>
        <time>2016-07-31T07:20:24Z</time>
      </trkpt>
      <trkpt lat="46.143116410821676" lon="7.989538488909602">
        <ele>2993.6799999999998</ele>
        <time>2016-07-31T07:20:38Z</time>
      </trkpt>
      <trkpt lat="46.143090846017003" lon="7.989627085626125">
        <ele>2995.1199999999999</ele>
        <time>2016-07-31T07:20:50Z</time>
      </trkpt>
      <trkpt lat="46.143052289262414" lon="7.989703444764018">
        <ele>2997.0500000000002</ele>
        <time>2016-07-31T07:21:02Z</time>
      </trkpt>
      <trkpt lat="46.14300032146275" lon="7.989791790023446">
        <ele>2998.9699999999998</ele>
        <time>2016-07-31T07:21:14Z</time>
      </trkpt>
      <trkpt lat="46.142954975366592" lon="7.989871837198734">
        <ele>3000.4099999999999</ele>
        <time>2016-07-31T07:21:26Z</time>
      </trkpt>
      <trkpt lat="46.142953298985958" lon="7.989874519407749">
        <ele>3001.3699999999999</ele>
        <time>2016-07-31T07:21:36Z</time>
      </trkpt>
      <trkpt lat="46.142923375591636" lon="7.989897150546312">
        <ele>3001.8499999999999</ele>
        <time>2016-07-31T07:21:47Z</time>
      </trkpt>
      <trkpt lat="46.142894541844726" lon="7.98996202647686">
        <ele>3002.3299999999999</ele>
        <time>2016-07-31T07:22:03Z</time>
      </trkpt>
      <trkpt lat="46.142858164384961" lon="7.990076607093215">
        <ele>3004.7399999999998</ele>
        <time>2016-07-31T07:22:15Z</time>
      </trkpt>
      <trkpt lat="46.142784738913178" lon="7.990139555186033">
        <ele>3006.1799999999998</ele>
        <time>2016-07-31T07:22:26Z</time>
      </trkpt>
      <trkpt lat="46.142725646495819" lon="7.990222619846463">
        <ele>3008.5799999999999</ele>
        <time>2016-07-31T07:22:39Z</time>
      </trkpt>
      <trkpt lat="46.14267535507679" lon="7.99028598703444">
        <ele>3010.5100000000002</ele>
        <time>2016-07-31T07:22:52Z</time>
      </trkpt>
      <trkpt lat="46.142620285972953" lon="7.990335272625089">
        <ele>3012.9099999999999</ele>
        <time>2016-07-31T07:23:04Z</time>
      </trkpt>
      <trkpt lat="46.142561947926879" lon="7.990399142727256">
        <ele>3015.3099999999999</ele>
        <time>2016-07-31T07:23:16Z</time>
      </trkpt>
      <trkpt lat="46.142525989562273" lon="7.990447087213397">
        <ele>3017.23</ele>
        <time>2016-07-31T07:23:28Z</time>
      </trkpt>
      <trkpt lat="46.142480140551925" lon="7.99051221460104">
        <ele>3019.1599999999999</ele>
        <time>2016-07-31T07:23:39Z</time>
      </trkpt>
      <trkpt lat="46.142480056732893" lon="7.990487404167652">
        <ele>3019.1599999999999</ele>
        <time>2016-07-31T07:23:54Z</time>
      </trkpt>
      <trkpt lat="46.142447786405683" lon="7.990600727498531">
        <ele>3021.5599999999999</ele>
        <time>2016-07-31T07:24:07Z</time>
      </trkpt>
      <trkpt lat="46.142447115853429" lon="7.990599637851119">
        <ele>3022.04</ele>
        <time>2016-07-31T07:24:21Z</time>
      </trkpt>
      <trkpt lat="46.142441164702177" lon="7.990602487698197">
        <ele>3022.52</ele>
        <time>2016-07-31T07:24:38Z</time>
      </trkpt>
      <trkpt lat="46.142417611554265" lon="7.990589244291186">
        <ele>3022.52</ele>
        <time>2016-07-31T07:25:00Z</time>
      </trkpt>
      <trkpt lat="46.142427166923881" lon="7.990578263998032">
        <ele>3022.52</ele>
        <time>2016-07-31T07:25:21Z</time>
      </trkpt>
      <trkpt lat="46.142415851354599" lon="7.99056937918067">
        <ele>3022.04</ele>
        <time>2016-07-31T07:25:40Z</time>
      </trkpt>
      <trkpt lat="46.142397411167622" lon="7.990562170743942">
        <ele>3022.04</ele>
        <time>2016-07-31T07:25:59Z</time>
      </trkpt>
      <trkpt lat="46.142398500815034" lon="7.990551944822073">
        <ele>3022.52</ele>
        <time>2016-07-31T07:26:20Z</time>
      </trkpt>
      <trkpt lat="46.142409900203347" lon="7.990562254562974">
        <ele>3022.52</ele>
        <time>2016-07-31T07:26:36Z</time>
      </trkpt>
      <trkpt lat="46.142410906031728" lon="7.990565691143274">
        <ele>3022.52</ele>
        <time>2016-07-31T07:26:57Z</time>
      </trkpt>
      <trkpt lat="46.142410067841411" lon="7.990554124116898">
        <ele>3022.52</ele>
        <time>2016-07-31T07:27:21Z</time>
      </trkpt>
      <trkpt lat="46.142406212165952" lon="7.990578096359968">
        <ele>3023</ele>
        <time>2016-07-31T07:27:34Z</time>
      </trkpt>
      <trkpt lat="46.142401937395334" lon="7.990569965913892">
        <ele>3023</ele>
        <time>2016-07-31T07:27:52Z</time>
      </trkpt>
      <trkpt lat="46.142405876889825" lon="7.990538366138935">
        <ele>3023.48</ele>
        <time>2016-07-31T07:28:17Z</time>
      </trkpt>
      <trkpt lat="46.14241392351687" lon="7.990542976185679">
        <ele>3023.48</ele>
        <time>2016-07-31T07:28:42Z</time>
      </trkpt>
      <trkpt lat="46.142384335398674" lon="7.99062947742641">
        <ele>3024.4400000000001</ele>
        <time>2016-07-31T07:28:55Z</time>
      </trkpt>
      <trkpt lat="46.142366146668792" lon="7.990708267316222">
        <ele>3026.8499999999999</ele>
        <time>2016-07-31T07:29:06Z</time>
      </trkpt>
      <trkpt lat="46.142347287386656" lon="7.990811616182327">
        <ele>3028.77</ele>
        <time>2016-07-31T07:29:17Z</time>
      </trkpt>
      <trkpt lat="46.142309485003352" lon="7.990908343344927">
        <ele>3031.1700000000001</ele>
        <time>2016-07-31T07:29:30Z</time>
      </trkpt>
      <trkpt lat="46.142278304323554" lon="7.990987971425057">
        <ele>3033.5799999999999</ele>
        <time>2016-07-31T07:29:42Z</time>
      </trkpt>
      <trkpt lat="46.142256176099181" lon="7.991084447130561">
        <ele>3035.98</ele>
        <time>2016-07-31T07:29:55Z</time>
      </trkpt>
      <trkpt lat="46.142229018732905" lon="7.991177570074797">
        <ele>3037.9000000000001</ele>
        <time>2016-07-31T07:30:08Z</time>
      </trkpt>
      <trkpt lat="46.142202531918883" lon="7.991271195933223">
        <ele>3039.8299999999999</ele>
        <time>2016-07-31T07:30:20Z</time>
      </trkpt>
      <trkpt lat="46.142181577160954" lon="7.991385357454419">
        <ele>3041.27</ele>
        <time>2016-07-31T07:30:33Z</time>
      </trkpt>
      <trkpt lat="46.14215592853725" lon="7.991496669128537">
        <ele>3043.6700000000001</ele>
        <time>2016-07-31T07:30:46Z</time>
      </trkpt>
      <trkpt lat="46.142145618796349" lon="7.991563472896814">
        <ele>3045.5900000000001</ele>
        <time>2016-07-31T07:30:57Z</time>
      </trkpt>
      <trkpt lat="46.142130279913545" lon="7.991638658568263">
        <ele>3047.52</ele>
        <time>2016-07-31T07:31:08Z</time>
      </trkpt>
      <trkpt lat="46.142100691795349" lon="7.991742845624685">
        <ele>3050.4000000000001</ele>
        <time>2016-07-31T07:31:23Z</time>
      </trkpt>
      <trkpt lat="46.142089460045099" lon="7.991848457604647">
        <ele>3052.3200000000002</ele>
        <time>2016-07-31T07:31:36Z</time>
      </trkpt>
      <trkpt lat="46.14208267070353" lon="7.991845356300473">
        <ele>3052.3200000000002</ele>
        <time>2016-07-31T07:31:57Z</time>
      </trkpt>
      <trkpt lat="46.142074204981327" lon="7.991921631619334">
        <ele>3054.25</ele>
        <time>2016-07-31T07:32:06Z</time>
      </trkpt>
      <trkpt lat="46.142046041786671" lon="7.992012072354555">
        <ele>3056.1700000000001</ele>
        <time>2016-07-31T07:32:18Z</time>
      </trkpt>
      <trkpt lat="46.141998767852783" lon="7.99210318364203">
        <ele>3058.0900000000001</ele>
        <time>2016-07-31T07:32:30Z</time>
      </trkpt>
      <trkpt lat="46.141933472827077" lon="7.992156660184264">
        <ele>3059.5300000000002</ele>
        <time>2016-07-31T07:32:40Z</time>
      </trkpt>
      <trkpt lat="46.141875050961971" lon="7.992241736501455">
        <ele>3061.9400000000001</ele>
        <time>2016-07-31T07:32:53Z</time>
      </trkpt>
      <trkpt lat="46.141807744279504" lon="7.99232454970479">
        <ele>3064.3400000000001</ele>
        <time>2016-07-31T07:33:06Z</time>
      </trkpt>
      <trkpt lat="46.141757620498538" lon="7.992410380393267">
        <ele>3065.7800000000002</ele>
        <time>2016-07-31T07:33:17Z</time>
      </trkpt>
      <trkpt lat="46.141716716811061" lon="7.992467796429992">
        <ele>3067.6999999999998</ele>
        <time>2016-07-31T07:33:28Z</time>
      </trkpt>
      <trkpt lat="46.141661060974002" lon="7.992545329034329">
        <ele>3069.6300000000001</ele>
        <time>2016-07-31T07:33:41Z</time>
      </trkpt>
      <trkpt lat="46.141676651313901" lon="7.992551615461707">
        <ele>3070.1100000000001</ele>
        <time>2016-07-31T07:33:51Z</time>
      </trkpt>
      <trkpt lat="46.141689140349627" lon="7.992551028728485">
        <ele>3069.6300000000001</ele>
        <time>2016-07-31T07:34:08Z</time>
      </trkpt>
      <trkpt lat="46.141644129529595" lon="7.992595620453358">
        <ele>3070.5900000000001</ele>
        <time>2016-07-31T07:34:23Z</time>
      </trkpt>
      <trkpt lat="46.141560645774007" lon="7.99267340451479">
        <ele>3072.5100000000002</ele>
        <time>2016-07-31T07:34:35Z</time>
      </trkpt>
      <trkpt lat="46.141497865319252" lon="7.992733083665371">
        <ele>3074.4299999999998</ele>
        <time>2016-07-31T07:34:45Z</time>
      </trkpt>
      <trkpt lat="46.14142594859004" lon="7.992793768644333">
        <ele>3076.3600000000001</ele>
        <time>2016-07-31T07:34:57Z</time>
      </trkpt>
      <trkpt lat="46.14133358001709" lon="7.992815561592579">
        <ele>3077.8000000000002</ele>
        <time>2016-07-31T07:35:10Z</time>
      </trkpt>
      <trkpt lat="46.141264261677861" lon="7.992718163877726">
        <ele>3078.7600000000002</ele>
        <time>2016-07-31T07:35:23Z</time>
      </trkpt>
      <trkpt lat="46.141210785135627" lon="7.992614647373557">
        <ele>3079.7199999999998</ele>
        <time>2016-07-31T07:35:35Z</time>
      </trkpt>
      <trkpt lat="46.141176838427782" lon="7.992539377883077">
        <ele>3080.6799999999998</ele>
        <time>2016-07-31T07:35:44Z</time>
      </trkpt>
      <trkpt lat="46.141120931133628" lon="7.992456313222647">
        <ele>3082.5999999999999</ele>
        <time>2016-07-31T07:35:55Z</time>
      </trkpt>
      <trkpt lat="46.141051026061177" lon="7.992393365129829">
        <ele>3084.0500000000002</ele>
        <time>2016-07-31T07:36:07Z</time>
      </trkpt>
      <trkpt lat="46.140978103503585" lon="7.99231281504035">
        <ele>3085.4899999999998</ele>
        <time>2016-07-31T07:36:19Z</time>
      </trkpt>
      <trkpt lat="46.140929823741317" lon="7.992227319628">
        <ele>3086.9299999999998</ele>
        <time>2016-07-31T07:36:31Z</time>
      </trkpt>
      <trkpt lat="46.140880370512605" lon="7.99215498380363">
        <ele>3087.8899999999999</ele>
        <time>2016-07-31T07:36:39Z</time>
      </trkpt>
      <trkpt lat="46.140807196497917" lon="7.992036212235689">
        <ele>3089.8099999999999</ele>
        <time>2016-07-31T07:36:51Z</time>
      </trkpt>
      <trkpt lat="46.140754809603095" lon="7.991913752630353">
        <ele>3090.7800000000002</ele>
        <time>2016-07-31T07:37:03Z</time>
      </trkpt>
      <trkpt lat="46.140734441578388" lon="7.991834543645382">
        <ele>3091.7399999999998</ele>
        <time>2016-07-31T07:37:09Z</time>
      </trkpt>
      <trkpt lat="46.140698064118624" lon="7.991685932502151">
        <ele>3093.1799999999998</ele>
        <time>2016-07-31T07:37:21Z</time>
      </trkpt>
      <trkpt lat="46.140686077997088" lon="7.991653075441718">
        <ele>3093.6599999999999</ele>
        <time>2016-07-31T07:37:25Z</time>
      </trkpt>
      <trkpt lat="46.140670739114285" lon="7.99161116592586">
        <ele>3094.1399999999999</ele>
        <time>2016-07-31T07:37:29Z</time>
      </trkpt>
      <trkpt lat="46.140628159046173" lon="7.991500105708838">
        <ele>3096.0599999999999</ele>
        <time>2016-07-31T07:37:41Z</time>
      </trkpt>
      <trkpt lat="46.140598235651851" lon="7.991419555619359">
        <ele>3097.9899999999998</ele>
        <time>2016-07-31T07:37:51Z</time>
      </trkpt>
      <trkpt lat="46.140587674453855" lon="7.991400025784969">
        <ele>3098.4699999999998</ele>
        <time>2016-07-31T07:38:01Z</time>
      </trkpt>
      <trkpt lat="46.14062799140811" lon="7.991323666647077">
        <ele>3098.9499999999998</ele>
        <time>2016-07-31T07:38:25Z</time>
      </trkpt>
      <trkpt lat="46.140555823221803" lon="7.991290474310517">
        <ele>3099.4299999999998</ele>
        <time>2016-07-31T07:38:34Z</time>
      </trkpt>
      <trkpt lat="46.140538137406111" lon="7.991221826523542">
        <ele>3099.9099999999999</ele>
        <time>2016-07-31T07:38:43Z</time>
      </trkpt>
      <trkpt lat="46.140521122142673" lon="7.99115083180368">
        <ele>3100.8699999999999</ele>
        <time>2016-07-31T07:38:52Z</time>
      </trkpt>
      <trkpt lat="46.140484157949686" lon="7.991077406331897">
        <ele>3101.3499999999999</ele>
        <time>2016-07-31T07:39:02Z</time>
      </trkpt>
      <trkpt lat="46.140464376658201" lon="7.991024013608694">
        <ele>3101.8299999999999</ele>
        <time>2016-07-31T07:39:11Z</time>
      </trkpt>
      <trkpt lat="46.140391789376736" lon="7.990876995027065">
        <ele>3103.27</ele>
        <time>2016-07-31T07:39:24Z</time>
      </trkpt>
      <trkpt lat="46.140331523492932" lon="7.990747410804033">
        <ele>3105.1999999999998</ele>
        <time>2016-07-31T07:39:36Z</time>
      </trkpt>
      <trkpt lat="46.14026790484786" lon="7.990607181563973">
        <ele>3106.1599999999999</ele>
        <time>2016-07-31T07:39:48Z</time>
      </trkpt>
      <trkpt lat="46.140195652842522" lon="7.990462258458138">
        <ele>3107.1199999999999</ele>
        <time>2016-07-31T07:40:00Z</time>
      </trkpt>
      <trkpt lat="46.14012910053134" lon="7.990340972319245">
        <ele>3108.5599999999999</ele>
        <time>2016-07-31T07:40:12Z</time>
      </trkpt>
      <trkpt lat="46.140056764706969" lon="7.990242904052138">
        <ele>3110.48</ele>
        <time>2016-07-31T07:40:25Z</time>
      </trkpt>
      <trkpt lat="46.139977388083935" lon="7.990170819684863">
        <ele>3112.4099999999999</ele>
        <time>2016-07-31T07:40:38Z</time>
      </trkpt>
      <trkpt lat="46.139922821894288" lon="7.990099824965">
        <ele>3114.3299999999999</ele>
        <time>2016-07-31T07:40:50Z</time>
      </trkpt>
      <trkpt lat="46.139828944578767" lon="7.990056658163667">
        <ele>3116.25</ele>
        <time>2016-07-31T07:41:04Z</time>
      </trkpt>
      <trkpt lat="46.13979491405189" lon="7.990034865215421">
        <ele>3116.25</ele>
        <time>2016-07-31T07:41:15Z</time>
      </trkpt>
      <trkpt lat="46.13979734480381" lon="7.990051629021764">
        <ele>3116.73</ele>
        <time>2016-07-31T07:41:32Z</time>
      </trkpt>
      <trkpt lat="46.139794746413827" lon="7.990054227411747">
        <ele>3116.73</ele>
        <time>2016-07-31T07:41:53Z</time>
      </trkpt>
      <trkpt lat="46.139795333147049" lon="7.990042576566339">
        <ele>3117.21</ele>
        <time>2016-07-31T07:42:08Z</time>
      </trkpt>
      <trkpt lat="46.139755770564079" lon="7.99006562680006">
        <ele>3117.21</ele>
        <time>2016-07-31T07:42:23Z</time>
      </trkpt>
      <trkpt lat="46.13971134647727" lon="7.99015648663044">
        <ele>3119.6199999999999</ele>
        <time>2016-07-31T07:42:35Z</time>
      </trkpt>
      <trkpt lat="46.139662228524685" lon="7.990254973992705">
        <ele>3122.02</ele>
        <time>2016-07-31T07:42:48Z</time>
      </trkpt>
      <trkpt lat="46.139630377292633" lon="7.99037391319871">
        <ele>3124.9000000000001</ele>
        <time>2016-07-31T07:43:02Z</time>
      </trkpt>
      <trkpt lat="46.13962191157043" lon="7.990434681996703">
        <ele>3126.3400000000001</ele>
        <time>2016-07-31T07:43:09Z</time>
      </trkpt>
      <trkpt lat="46.139523424208164" lon="7.990534510463476">
        <ele>3128.27</ele>
        <time>2016-07-31T07:43:23Z</time>
      </trkpt>
      <trkpt lat="46.139469193294644" lon="7.990629812702537">
        <ele>3130.6700000000001</ele>
        <time>2016-07-31T07:43:35Z</time>
      </trkpt>
      <trkpt lat="46.13942108117044" lon="7.990723019465804">
        <ele>3132.1100000000001</ele>
        <time>2016-07-31T07:43:46Z</time>
      </trkpt>
      <trkpt lat="46.139432564377785" lon="7.990711368620396">
        <ele>3131.6300000000001</ele>
        <time>2016-07-31T07:43:54Z</time>
      </trkpt>
      <trkpt lat="46.139411609619856" lon="7.990687815472484">
        <ele>3131.6300000000001</ele>
        <time>2016-07-31T07:44:06Z</time>
      </trkpt>
      <trkpt lat="46.139406077563763" lon="7.990664010867477">
        <ele>3131.1500000000001</ele>
        <time>2016-07-31T07:44:23Z</time>
      </trkpt>
      <trkpt lat="46.139420410618186" lon="7.990695862099528">
        <ele>3131.6300000000001</ele>
        <time>2016-07-31T07:44:52Z</time>
      </trkpt>
      <trkpt lat="46.139416135847569" lon="7.990706842392683">
        <ele>3132.1100000000001</ele>
        <time>2016-07-31T07:45:08Z</time>
      </trkpt>
      <trkpt lat="46.139426110312343" lon="7.990715559571981">
        <ele>3133.0700000000002</ele>
        <time>2016-07-31T07:45:16Z</time>
      </trkpt>
      <trkpt lat="46.13942644558847" lon="7.990742549300194">
        <ele>3132.5900000000001</ele>
        <time>2016-07-31T07:45:27Z</time>
      </trkpt>
      <trkpt lat="46.1394352465868" lon="7.990742046386004">
        <ele>3132.1100000000001</ele>
        <time>2016-07-31T07:45:40Z</time>
      </trkpt>
      <trkpt lat="46.139440191909671" lon="7.990750428289175">
        <ele>3132.5900000000001</ele>
        <time>2016-07-31T07:45:58Z</time>
      </trkpt>
      <trkpt lat="46.139428205788136" lon="7.990744896233082">
        <ele>3132.5900000000001</ele>
        <time>2016-07-31T07:46:11Z</time>
      </trkpt>
      <trkpt lat="46.139429546892643" lon="7.990757552906871">
        <ele>3133.0700000000002</ele>
        <time>2016-07-31T07:46:25Z</time>
      </trkpt>
      <trkpt lat="46.13941915333271" lon="7.990843970328569">
        <ele>3134.52</ele>
        <time>2016-07-31T07:46:34Z</time>
      </trkpt>
      <trkpt lat="46.139382356777787" lon="7.990939607843757">
        <ele>3136.4400000000001</ele>
        <time>2016-07-31T07:46:46Z</time>
      </trkpt>
      <trkpt lat="46.139362994581461" lon="7.990996772423387">
        <ele>3137.8800000000001</ele>
        <time>2016-07-31T07:46:59Z</time>
      </trkpt>
      <trkpt lat="46.139371627941728" lon="7.991001131013036">
        <ele>3138.3600000000001</ele>
        <time>2016-07-31T07:47:11Z</time>
      </trkpt>
      <trkpt lat="46.139374058693647" lon="7.991087967529893">
        <ele>3139.3200000000002</ele>
        <time>2016-07-31T07:47:22Z</time>
      </trkpt>
      <trkpt lat="46.139369448646903" lon="7.991185616701841">
        <ele>3142.21</ele>
        <time>2016-07-31T07:47:34Z</time>
      </trkpt>
      <trkpt lat="46.139389649033546" lon="7.991288881748915">
        <ele>3143.1700000000001</ele>
        <time>2016-07-31T07:47:45Z</time>
      </trkpt>
      <trkpt lat="46.139389565214515" lon="7.991315703839064">
        <ele>3143.1700000000001</ele>
        <time>2016-07-31T07:47:47Z</time>
      </trkpt>
      <trkpt lat="46.139395516365767" lon="7.991504883393645">
        <ele>3143.1700000000001</ele>
        <time>2016-07-31T07:48:00Z</time>
      </trkpt>
      <trkpt lat="46.139329550787807" lon="7.991609573364258">
        <ele>3144.1300000000001</ele>
        <time>2016-07-31T07:48:11Z</time>
      </trkpt>
      <trkpt lat="46.139303483068943" lon="7.991564394906163">
        <ele>3144.1300000000001</ele>
        <time>2016-07-31T07:48:21Z</time>
      </trkpt>
      <trkpt lat="46.139281271025538" lon="7.991523491218686">
        <ele>3143.6500000000001</ele>
        <time>2016-07-31T07:48:37Z</time>
      </trkpt>
      <trkpt lat="46.139270206913352" lon="7.991495914757252">
        <ele>3144.1300000000001</ele>
        <time>2016-07-31T07:48:48Z</time>
      </trkpt>
      <trkpt lat="46.139277331531048" lon="7.991550480946899">
        <ele>3142.21</ele>
        <time>2016-07-31T07:48:57Z</time>
      </trkpt>
      <trkpt lat="46.139276828616858" lon="7.991555258631706">
        <ele>3143.6500000000001</ele>
        <time>2016-07-31T07:49:13Z</time>
      </trkpt>
      <trkpt lat="46.139281438663602" lon="7.99157009460032">
        <ele>3144.1300000000001</ele>
        <time>2016-07-31T07:49:24Z</time>
      </trkpt>
      <trkpt lat="46.139273811131716" lon="7.991541512310505">
        <ele>3144.1300000000001</ele>
        <time>2016-07-31T07:49:36Z</time>
      </trkpt>
      <trkpt lat="46.139266015961766" lon="7.991516869515181">
        <ele>3143.6500000000001</ele>
        <time>2016-07-31T07:49:46Z</time>
      </trkpt>
      <trkpt lat="46.139256041496992" lon="7.991503793746233">
        <ele>3143.6500000000001</ele>
        <time>2016-07-31T07:50:01Z</time>
      </trkpt>
      <trkpt lat="46.139252269640565" lon="7.991485940292478">
        <ele>3143.6500000000001</ele>
        <time>2016-07-31T07:50:16Z</time>
      </trkpt>
      <trkpt lat="46.13923785276711" lon="7.991485018283129">
        <ele>3144.1300000000001</ele>
        <time>2016-07-31T07:50:20Z</time>
      </trkpt>
      <trkpt lat="46.139289820566773" lon="7.99157939851284">
        <ele>3143.6500000000001</ele>
        <time>2016-07-31T07:50:27Z</time>
      </trkpt>
      <trkpt lat="46.139274900779128" lon="7.991561125963926">
        <ele>3143.1700000000001</ele>
        <time>2016-07-31T07:50:43Z</time>
      </trkpt>
      <trkpt lat="46.139258304610848" lon="7.991533381864429">
        <ele>3143.1700000000001</ele>
        <time>2016-07-31T07:51:01Z</time>
      </trkpt>
      <trkpt lat="46.139265345409513" lon="7.991497842594981">
        <ele>3143.6500000000001</ele>
        <time>2016-07-31T07:51:11Z</time>
      </trkpt>
      <trkpt lat="46.139290658757091" lon="7.991520138457418">
        <ele>3144.1300000000001</ele>
        <time>2016-07-31T07:51:18Z</time>
      </trkpt>
      <trkpt lat="46.139300633221865" lon="7.991524245589972">
        <ele>3144.1300000000001</ele>
        <time>2016-07-31T07:51:34Z</time>
      </trkpt>
      <trkpt lat="46.139313792809844" lon="7.991551654413343">
        <ele>3144.1300000000001</ele>
        <time>2016-07-31T07:51:49Z</time>
      </trkpt>
      <trkpt lat="46.139315385371447" lon="7.991569004952908">
        <ele>3144.1300000000001</ele>
        <time>2016-07-31T07:52:03Z</time>
      </trkpt>
      <trkpt lat="46.139306835830212" lon="7.991556767374277">
        <ele>3144.6100000000001</ele>
        <time>2016-07-31T07:52:20Z</time>
      </trkpt>
      <trkpt lat="46.139262495562434" lon="7.99149239435792">
        <ele>3144.6100000000001</ele>
        <time>2016-07-31T07:52:35Z</time>
      </trkpt>
      <trkpt lat="46.139262160286307" lon="7.991532795131207">
        <ele>3145.5700000000002</ele>
        <time>2016-07-31T07:52:45Z</time>
      </trkpt>
      <trkpt lat="46.139305746182799" lon="7.991545367985964">
        <ele>3144.6100000000001</ele>
        <time>2016-07-31T07:52:56Z</time>
      </trkpt>
      <trkpt lat="46.139322929084301" lon="7.991578476503491">
        <ele>3144.6100000000001</ele>
        <time>2016-07-31T07:53:06Z</time>
      </trkpt>
      <trkpt lat="46.139321587979794" lon="7.99157889559865">
        <ele>3145.0900000000001</ele>
        <time>2016-07-31T07:53:19Z</time>
      </trkpt>
      <trkpt lat="46.139318905770779" lon="7.991589289158583">
        <ele>3145.0900000000001</ele>
        <time>2016-07-31T07:53:34Z</time>
      </trkpt>
      <trkpt lat="46.139325862750411" lon="7.991591636091471">
        <ele>3145.0900000000001</ele>
        <time>2016-07-31T07:53:53Z</time>
      </trkpt>
      <trkpt lat="46.139354947954416" lon="7.991571687161923">
        <ele>3145.0900000000001</ele>
        <time>2016-07-31T07:54:10Z</time>
      </trkpt>
      <trkpt lat="46.139317397028208" lon="7.9915711004287">
        <ele>3145.0900000000001</ele>
        <time>2016-07-31T07:54:24Z</time>
      </trkpt>
      <trkpt lat="46.139311864972115" lon="7.991587948054075">
        <ele>3145.0900000000001</ele>
        <time>2016-07-31T07:54:34Z</time>
      </trkpt>
      <trkpt lat="46.139349080622196" lon="7.991580320522189">
        <ele>3145.0900000000001</ele>
        <time>2016-07-31T07:54:45Z</time>
      </trkpt>
      <trkpt lat="46.139372298493981" lon="7.991453167051077">
        <ele>3144.1300000000001</ele>
        <time>2016-07-31T07:54:56Z</time>
      </trkpt>
      <trkpt lat="46.139347488060594" lon="7.991379406303167">
        <ele>3143.6500000000001</ele>
        <time>2016-07-31T07:55:05Z</time>
      </trkpt>
      <trkpt lat="46.139324521645904" lon="7.991370772942901">
        <ele>3143.1700000000001</ele>
        <time>2016-07-31T07:55:13Z</time>
      </trkpt>
      <trkpt lat="46.139279343187809" lon="7.991394074633718">
        <ele>3142.6900000000001</ele>
        <time>2016-07-31T07:55:23Z</time>
      </trkpt>
      <trkpt lat="46.139219412580132" lon="7.991473535075784">
        <ele>3141.73</ele>
        <time>2016-07-31T07:55:35Z</time>
      </trkpt>
      <trkpt lat="46.139212120324373" lon="7.991543356329203">
        <ele>3141.25</ele>
        <time>2016-07-31T07:55:44Z</time>
      </trkpt>
      <trkpt lat="46.13919435068965" lon="7.991576632484794">
        <ele>3141.25</ele>
        <time>2016-07-31T07:55:57Z</time>
      </trkpt>
      <trkpt lat="46.139182448387146" lon="7.991596078500152">
        <ele>3140.7600000000002</ele>
        <time>2016-07-31T07:55:59Z</time>
      </trkpt>
      <trkpt lat="46.139086140319705" lon="7.99173622392118">
        <ele>3138.3600000000001</ele>
        <time>2016-07-31T07:56:12Z</time>
      </trkpt>
      <trkpt lat="46.139060826972127" lon="7.991780396550894">
        <ele>3137.4000000000001</ele>
        <time>2016-07-31T07:56:16Z</time>
      </trkpt>
      <trkpt lat="46.138918418437243" lon="7.991876704618335">
        <ele>3134.52</ele>
        <time>2016-07-31T07:56:30Z</time>
      </trkpt>
      <trkpt lat="46.1388308275491" lon="7.991951052099466">
        <ele>3132.5900000000001</ele>
        <time>2016-07-31T07:56:42Z</time>
      </trkpt>
      <trkpt lat="46.138748014345765" lon="7.992012910544872">
        <ele>3131.1500000000001</ele>
        <time>2016-07-31T07:56:54Z</time>
      </trkpt>
      <trkpt lat="46.13865883089602" lon="7.992083318531513">
        <ele>3130.1900000000001</ele>
        <time>2016-07-31T07:57:04Z</time>
      </trkpt>
      <trkpt lat="46.138562941923738" lon="7.992135202512145">
        <ele>3128.75</ele>
        <time>2016-07-31T07:57:14Z</time>
      </trkpt>
      <trkpt lat="46.138413827866316" lon="7.992200748994947">
        <ele>3127.3099999999999</ele>
        <time>2016-07-31T07:57:28Z</time>
      </trkpt>
      <trkpt lat="46.138253146782517" lon="7.992260092869401">
        <ele>3124.4200000000001</ele>
        <time>2016-07-31T07:57:42Z</time>
      </trkpt>
      <trkpt lat="46.138123981654644" lon="7.992296889424324">
        <ele>3123.46</ele>
        <time>2016-07-31T07:57:54Z</time>
      </trkpt>
      <trkpt lat="46.138077294453979" lon="7.992328573018313">
        <ele>3122.98</ele>
        <time>2016-07-31T07:57:59Z</time>
      </trkpt>
      <trkpt lat="46.138038318604231" lon="7.992374254390597">
        <ele>3123.46</ele>
        <time>2016-07-31T07:58:03Z</time>
      </trkpt>
      <trkpt lat="46.13801971077919" lon="7.992390096187592">
        <ele>3123.46</ele>
        <time>2016-07-31T07:58:05Z</time>
      </trkpt>
      <trkpt lat="46.137979561462998" lon="7.992422031238675">
        <ele>3122.98</ele>
        <time>2016-07-31T07:58:09Z</time>
      </trkpt>
      <trkpt lat="46.137894401326776" lon="7.992513980716467">
        <ele>3123.46</ele>
        <time>2016-07-31T07:58:20Z</time>
      </trkpt>
      <trkpt lat="46.137886270880699" lon="7.992523871362209">
        <ele>3123.46</ele>
        <time>2016-07-31T07:58:21Z</time>
      </trkpt>
      <trkpt lat="46.137854922562838" lon="7.992551196366549">
        <ele>3122.98</ele>
        <time>2016-07-31T07:58:25Z</time>
      </trkpt>
      <trkpt lat="46.137802032753825" lon="7.992643397301436">
        <ele>3122.98</ele>
        <time>2016-07-31T07:58:32Z</time>
      </trkpt>
      <trkpt lat="46.137751406058669" lon="7.992736604064703">
        <ele>3122.98</ele>
        <time>2016-07-31T07:58:43Z</time>
      </trkpt>
      <trkpt lat="46.137704886496067" lon="7.992823859676719">
        <ele>3123.46</ele>
        <time>2016-07-31T07:58:51Z</time>
      </trkpt>
      <trkpt lat="46.137686697766185" lon="7.992852022871375">
        <ele>3123.46</ele>
        <time>2016-07-31T07:58:54Z</time>
      </trkpt>
      <trkpt lat="46.137658450752497" lon="7.992966854944825">
        <ele>3123.46</ele>
        <time>2016-07-31T07:59:04Z</time>
      </trkpt>
      <trkpt lat="46.13765518181026" lon="7.992982780560851">
        <ele>3123.46</ele>
        <time>2016-07-31T07:59:06Z</time>
      </trkpt>
      <trkpt lat="46.137643363326788" lon="7.993050003424287">
        <ele>3123.46</ele>
        <time>2016-07-31T07:59:12Z</time>
      </trkpt>
      <trkpt lat="46.137576727196574" lon="7.993203056976199">
        <ele>3123.46</ele>
        <time>2016-07-31T07:59:26Z</time>
      </trkpt>
      <trkpt lat="46.137588880956173" lon="7.993269022554159">
        <ele>3123.46</ele>
        <time>2016-07-31T07:59:38Z</time>
      </trkpt>
      <trkpt lat="46.13757211714983" lon="7.993283187970519">
        <ele>3123.46</ele>
        <time>2016-07-31T07:59:51Z</time>
      </trkpt>
      <trkpt lat="46.137593993917108" lon="7.993271788582206">
        <ele>3123.46</ele>
        <time>2016-07-31T08:00:06Z</time>
      </trkpt>
      <trkpt lat="46.137533728033304" lon="7.993306824937463">
        <ele>3123.46</ele>
        <time>2016-07-31T08:00:15Z</time>
      </trkpt>
      <trkpt lat="46.137545462697744" lon="7.993360636755824">
        <ele>3123.9400000000001</ele>
        <time>2016-07-31T08:00:25Z</time>
      </trkpt>
      <trkpt lat="46.137512605637312" lon="7.993459040299058">
        <ele>3123.9400000000001</ele>
        <time>2016-07-31T08:00:35Z</time>
      </trkpt>
      <trkpt lat="46.13747974857688" lon="7.993557611480355">
        <ele>3122.98</ele>
        <time>2016-07-31T08:00:45Z</time>
      </trkpt>
      <trkpt lat="46.137480000033975" lon="7.993570603430271">
        <ele>3122.98</ele>
        <time>2016-07-31T08:00:46Z</time>
      </trkpt>
      <trkpt lat="46.137459799647331" lon="7.993775876238942">
        <ele>3121.0599999999999</ele>
        <time>2016-07-31T08:01:00Z</time>
      </trkpt>
      <trkpt lat="46.137442281469703" lon="7.993806134909391">
        <ele>3121.0599999999999</ele>
        <time>2016-07-31T08:01:03Z</time>
      </trkpt>
      <trkpt lat="46.137428535148501" lon="7.993827927857637">
        <ele>3120.0999999999999</ele>
        <time>2016-07-31T08:01:05Z</time>
      </trkpt>
      <trkpt lat="46.137378411367536" lon="7.993996907025576">
        <ele>3119.1300000000001</ele>
        <time>2016-07-31T08:01:18Z</time>
      </trkpt>
      <trkpt lat="46.137344883754849" lon="7.994146356359124">
        <ele>3118.6500000000001</ele>
        <time>2016-07-31T08:01:29Z</time>
      </trkpt>
      <trkpt lat="46.137329880148172" lon="7.994214417412877">
        <ele>3119.1300000000001</ele>
        <time>2016-07-31T08:01:34Z</time>
      </trkpt>
      <trkpt lat="46.137284282594919" lon="7.994329500943422">
        <ele>3118.1700000000001</ele>
        <time>2016-07-31T08:01:45Z</time>
      </trkpt>
      <trkpt lat="46.137265423312783" lon="7.994371829554439">
        <ele>3118.6500000000001</ele>
        <time>2016-07-31T08:01:50Z</time>
      </trkpt>
      <trkpt lat="46.137235416099429" lon="7.994494372978807">
        <ele>3118.1700000000001</ele>
        <time>2016-07-31T08:02:01Z</time>
      </trkpt>
      <trkpt lat="46.137222172692418" lon="7.994550280272961">
        <ele>3117.6900000000001</ele>
        <time>2016-07-31T08:02:15Z</time>
      </trkpt>
      <trkpt lat="46.137225525453687" lon="7.994567714631558">
        <ele>3117.6900000000001</ele>
        <time>2016-07-31T08:02:28Z</time>
      </trkpt>
      <trkpt lat="46.137200128287077" lon="7.994629153981805">
        <ele>3117.6900000000001</ele>
        <time>2016-07-31T08:02:37Z</time>
      </trkpt>
      <trkpt lat="46.137189064174891" lon="7.994765108451247">
        <ele>3115.29</ele>
        <time>2016-07-31T08:02:47Z</time>
      </trkpt>
      <trkpt lat="46.137143047526479" lon="7.994943056255579">
        <ele>3114.8099999999999</ele>
        <time>2016-07-31T08:03:00Z</time>
      </trkpt>
      <trkpt lat="46.137110944837332" lon="7.995011452585459">
        <ele>3114.3299999999999</ele>
        <time>2016-07-31T08:03:13Z</time>
      </trkpt>
      <trkpt lat="46.137116141617298" lon="7.994987396523356">
        <ele>3114.8099999999999</ele>
        <time>2016-07-31T08:03:31Z</time>
      </trkpt>
      <trkpt lat="46.137098791077733" lon="7.995060654357076">
        <ele>3114.3299999999999</ele>
        <time>2016-07-31T08:03:40Z</time>
      </trkpt>
      <trkpt lat="46.13708789460361" lon="7.995045818388462">
        <ele>3114.3299999999999</ele>
        <time>2016-07-31T08:03:50Z</time>
      </trkpt>
      <trkpt lat="46.137100216001272" lon="7.995018744841218">
        <ele>3114.3299999999999</ele>
        <time>2016-07-31T08:04:01Z</time>
      </trkpt>
      <trkpt lat="46.137113040313125" lon="7.995003992691636">
        <ele>3114.3299999999999</ele>
        <time>2016-07-31T08:04:15Z</time>
      </trkpt>
      <trkpt lat="46.137114632874727" lon="7.995016230270267">
        <ele>3114.3299999999999</ele>
        <time>2016-07-31T08:04:24Z</time>
      </trkpt>
      <trkpt lat="46.137124691158533" lon="7.995034502819181">
        <ele>3113.8499999999999</ele>
        <time>2016-07-31T08:04:36Z</time>
      </trkpt>
      <trkpt lat="46.137108849361539" lon="7.995024109259248">
        <ele>3113.8499999999999</ele>
        <time>2016-07-31T08:04:47Z</time>
      </trkpt>
      <trkpt lat="46.137119494378567" lon="7.995059564709663">
        <ele>3114.3299999999999</ele>
        <time>2016-07-31T08:05:03Z</time>
      </trkpt>
      <trkpt lat="46.137102311477065" lon="7.995036263018847">
        <ele>3114.3299999999999</ele>
        <time>2016-07-31T08:05:27Z</time>
      </trkpt>
      <trkpt lat="46.137101724743843" lon="7.995049254968762">
        <ele>3114.3299999999999</ele>
        <time>2016-07-31T08:05:42Z</time>
      </trkpt>
      <trkpt lat="46.137115806341171" lon="7.995007177814841">
        <ele>3113.8499999999999</ele>
        <time>2016-07-31T08:06:01Z</time>
      </trkpt>
      <trkpt lat="46.137111950665712" lon="7.995003070682287">
        <ele>3114.3299999999999</ele>
        <time>2016-07-31T08:06:14Z</time>
      </trkpt>
      <trkpt lat="46.137109352275729" lon="7.995044980198145">
        <ele>3113.8499999999999</ele>
        <time>2016-07-31T08:06:35Z</time>
      </trkpt>
      <trkpt lat="46.137105412781239" lon="7.99502762965858">
        <ele>3114.3299999999999</ele>
        <time>2016-07-31T08:06:50Z</time>
      </trkpt>
      <trkpt lat="46.137103401124477" lon="7.995020002126694">
        <ele>3114.3299999999999</ele>
        <time>2016-07-31T08:07:05Z</time>
      </trkpt>
      <trkpt lat="46.137132905423641" lon="7.995038107037544">
        <ele>3114.3299999999999</ele>
        <time>2016-07-31T08:07:26Z</time>
      </trkpt>
      <trkpt lat="46.137113878503442" lon="7.994995694607496">
        <ele>3113.8499999999999</ele>
        <time>2016-07-31T08:07:41Z</time>
      </trkpt>
      <trkpt lat="46.137091834098101" lon="7.995016314089298">
        <ele>3112.8899999999999</ele>
        <time>2016-07-31T08:07:49Z</time>
      </trkpt>
      <trkpt lat="46.137123936787248" lon="7.995029892772436">
        <ele>3112.8899999999999</ele>
        <time>2016-07-31T08:08:02Z</time>
      </trkpt>
      <trkpt lat="46.137102143839002" lon="7.995019415393472">
        <ele>3113.3699999999999</ele>
        <time>2016-07-31T08:08:18Z</time>
      </trkpt>
      <trkpt lat="46.137105915695429" lon="7.995012458413839">
        <ele>3113.8499999999999</ele>
        <time>2016-07-31T08:08:28Z</time>
      </trkpt>
      <trkpt lat="46.137105831876397" lon="7.994984798133373">
        <ele>3113.3699999999999</ele>
        <time>2016-07-31T08:08:41Z</time>
      </trkpt>
      <trkpt lat="46.137106083333492" lon="7.994949007406831">
        <ele>3113.8499999999999</ele>
        <time>2016-07-31T08:09:01Z</time>
      </trkpt>
      <trkpt lat="46.137097869068384" lon="7.995015978813171">
        <ele>3113.8499999999999</ele>
        <time>2016-07-31T08:09:13Z</time>
      </trkpt>
      <trkpt lat="46.137118153274059" lon="7.994996532797813">
        <ele>3113.3699999999999</ele>
        <time>2016-07-31T08:09:23Z</time>
      </trkpt>
      <trkpt lat="46.137139443308115" lon="7.995026791468263">
        <ele>3113.8499999999999</ele>
        <time>2016-07-31T08:09:38Z</time>
      </trkpt>
      <trkpt lat="46.137124942615628" lon="7.994999047368765">
        <ele>3113.8499999999999</ele>
        <time>2016-07-31T08:09:55Z</time>
      </trkpt>
      <trkpt lat="46.137145813554525" lon="7.995003154501319">
        <ele>3113.8499999999999</ele>
        <time>2016-07-31T08:10:10Z</time>
      </trkpt>
      <trkpt lat="46.137149836868048" lon="7.994971890002489">
        <ele>3113.8499999999999</ele>
        <time>2016-07-31T08:10:22Z</time>
      </trkpt>
      <trkpt lat="46.137144807726145" lon="7.994970213621855">
        <ele>3113.8499999999999</ele>
        <time>2016-07-31T08:10:36Z</time>
      </trkpt>
      <trkpt lat="46.137137934565544" lon="7.99496459774673">
        <ele>3113.8499999999999</ele>
        <time>2016-07-31T08:10:49Z</time>
      </trkpt>
      <trkpt lat="46.137138186022639" lon="7.994980858638883">
        <ele>3113.3699999999999</ele>
        <time>2016-07-31T08:11:08Z</time>
      </trkpt>
      <trkpt lat="46.137128630653024" lon="7.994936015456915">
        <ele>3113.8499999999999</ele>
        <time>2016-07-31T08:11:26Z</time>
      </trkpt>
      <trkpt lat="46.137117901816964" lon="7.994930315762758">
        <ele>3113.8499999999999</ele>
        <time>2016-07-31T08:11:37Z</time>
      </trkpt>
      <trkpt lat="46.137099042534828" lon="7.994952779263258">
        <ele>3113.3699999999999</ele>
        <time>2016-07-31T08:12:03Z</time>
      </trkpt>
      <trkpt lat="46.137121170759201" lon="7.994938027113676">
        <ele>3113.3699999999999</ele>
        <time>2016-07-31T08:12:23Z</time>
      </trkpt>
      <trkpt lat="46.137109603732824" lon="7.994917742908001">
        <ele>3113.8499999999999</ele>
        <time>2016-07-31T08:12:41Z</time>
      </trkpt>
      <trkpt lat="46.137109184637666" lon="7.994886981323361">
        <ele>3113.8499999999999</ele>
        <time>2016-07-31T08:12:57Z</time>
      </trkpt>
      <trkpt lat="46.137144807726145" lon="7.994902487844229">
        <ele>3113.8499999999999</ele>
        <time>2016-07-31T08:13:17Z</time>
      </trkpt>
      <trkpt lat="46.137151597067714" lon="7.994811795651913">
        <ele>3114.3299999999999</ele>
        <time>2016-07-31T08:13:27Z</time>
      </trkpt>
      <trkpt lat="46.137161571532488" lon="7.994751529768109">
        <ele>3114.3299999999999</ele>
        <time>2016-07-31T08:13:32Z</time>
      </trkpt>
      <trkpt lat="46.137164505198598" lon="7.994708279147744">
        <ele>3114.3299999999999</ele>
        <time>2016-07-31T08:13:35Z</time>
      </trkpt>
      <trkpt lat="46.13717389293015" lon="7.994577940553427">
        <ele>3115.29</ele>
        <time>2016-07-31T08:13:47Z</time>
      </trkpt>
      <trkpt lat="46.137208845466375" lon="7.994481297209859">
        <ele>3117.21</ele>
        <time>2016-07-31T08:13:58Z</time>
      </trkpt>
      <trkpt lat="46.13724472001195" lon="7.99434844404459">
        <ele>3118.1700000000001</ele>
        <time>2016-07-31T08:14:10Z</time>
      </trkpt>
      <trkpt lat="46.137280343100429" lon="7.99423118121922">
        <ele>3118.1700000000001</ele>
        <time>2016-07-31T08:14:21Z</time>
      </trkpt>
      <trkpt lat="46.137334993109107" lon="7.99410704523325">
        <ele>3118.6500000000001</ele>
        <time>2016-07-31T08:14:33Z</time>
      </trkpt>
      <trkpt lat="46.137353014200926" lon="7.994014760479331">
        <ele>3119.1300000000001</ele>
        <time>2016-07-31T08:14:43Z</time>
      </trkpt>
      <trkpt lat="46.137397773563862" lon="7.993896240368486">
        <ele>3120.0999999999999</ele>
        <time>2016-07-31T08:14:54Z</time>
      </trkpt>
      <trkpt lat="46.137427948415279" lon="7.99378895200789">
        <ele>3121.0599999999999</ele>
        <time>2016-07-31T08:15:05Z</time>
      </trkpt>
      <trkpt lat="46.137457201257348" lon="7.993656015023589">
        <ele>3122.5</ele>
        <time>2016-07-31T08:15:17Z</time>
      </trkpt>
      <trkpt lat="46.137486202642322" lon="7.993507403880358">
        <ele>3123.46</ele>
        <time>2016-07-31T08:15:30Z</time>
      </trkpt>
      <trkpt lat="46.137492321431637" lon="7.993477983400226">
        <ele>3123.46</ele>
        <time>2016-07-31T08:15:32Z</time>
      </trkpt>
      <trkpt lat="46.137513360008597" lon="7.993404138833284">
        <ele>3123.9400000000001</ele>
        <time>2016-07-31T08:15:39Z</time>
      </trkpt>
      <trkpt lat="46.137522747740149" lon="7.99335896037519">
        <ele>3124.4200000000001</ele>
        <time>2016-07-31T08:15:50Z</time>
      </trkpt>
      <trkpt lat="46.137527357786894" lon="7.993306573480368">
        <ele>3124.4200000000001</ele>
        <time>2016-07-31T08:16:02Z</time>
      </trkpt>
      <trkpt lat="46.137584438547492" lon="7.993097864091396">
        <ele>3123.9400000000001</ele>
        <time>2016-07-31T08:16:15Z</time>
      </trkpt>
      <trkpt lat="46.137629197910428" lon="7.992983032017946">
        <ele>3123.9400000000001</ele>
        <time>2016-07-31T08:16:26Z</time>
      </trkpt>
      <trkpt lat="46.137681165710092" lon="7.992850430309773">
        <ele>3124.4200000000001</ele>
        <time>2016-07-31T08:16:37Z</time>
      </trkpt>
      <trkpt lat="46.137742772698402" lon="7.992697292938829">
        <ele>3123.9400000000001</ele>
        <time>2016-07-31T08:16:49Z</time>
      </trkpt>
      <trkpt lat="46.137832039967179" lon="7.992532923817635">
        <ele>3124.4200000000001</ele>
        <time>2016-07-31T08:17:02Z</time>
      </trkpt>
      <trkpt lat="46.137889036908746" lon="7.992472490295768">
        <ele>3124.4200000000001</ele>
        <time>2016-07-31T08:17:08Z</time>
      </trkpt>
      <trkpt lat="46.137918122112751" lon="7.992438124492765">
        <ele>3124.4200000000001</ele>
        <time>2016-07-31T08:17:13Z</time>
      </trkpt>
      <trkpt lat="46.137983752414584" lon="7.992367632687092">
        <ele>3124.4200000000001</ele>
        <time>2016-07-31T08:17:21Z</time>
      </trkpt>
      <trkpt lat="46.138009820133448" lon="7.992350533604622">
        <ele>3124.9000000000001</ele>
        <time>2016-07-31T08:17:24Z</time>
      </trkpt>
      <trkpt lat="46.138102859258652" lon="7.992279957979918">
        <ele>3124.4200000000001</ele>
        <time>2016-07-31T08:17:33Z</time>
      </trkpt>
      <trkpt lat="46.138133956119418" lon="7.992271324619651">
        <ele>3124.9000000000001</ele>
        <time>2016-07-31T08:17:36Z</time>
      </trkpt>
      <trkpt lat="46.138245267793536" lon="7.992237880825996">
        <ele>3125.8600000000001</ele>
        <time>2016-07-31T08:17:47Z</time>
      </trkpt>
      <trkpt lat="46.138324225321412" lon="7.99220435321331">
        <ele>3127.3099999999999</ele>
        <time>2016-07-31T08:17:56Z</time>
      </trkpt>
      <trkpt lat="46.138358255848289" lon="7.992199156433344">
        <ele>3127.79</ele>
        <time>2016-07-31T08:18:00Z</time>
      </trkpt>
      <trkpt lat="46.138401422649622" lon="7.992181302979589">
        <ele>3128.27</ele>
        <time>2016-07-31T08:18:04Z</time>
      </trkpt>
      <trkpt lat="46.138454228639603" lon="7.992170574143529">
        <ele>3128.75</ele>
        <time>2016-07-31T08:18:10Z</time>
      </trkpt>
      <trkpt lat="46.138523546978831" lon="7.992118773981929">
        <ele>3130.1900000000001</ele>
        <time>2016-07-31T08:18:18Z</time>
      </trkpt>
      <trkpt lat="46.138570653274655" lon="7.992114750668407">
        <ele>3130.1900000000001</ele>
        <time>2016-07-31T08:18:23Z</time>
      </trkpt>
      <trkpt lat="46.138652376830578" lon="7.992078205570579">
        <ele>3131.1500000000001</ele>
        <time>2016-07-31T08:18:32Z</time>
      </trkpt>
      <trkpt lat="46.138660339638591" lon="7.992070661857724">
        <ele>3131.6300000000001</ele>
        <time>2016-07-31T08:18:33Z</time>
      </trkpt>
      <trkpt lat="46.13867592997849" lon="7.992061022669077">
        <ele>3131.6300000000001</ele>
        <time>2016-07-31T08:18:35Z</time>
      </trkpt>
      <trkpt lat="46.138717588037252" lon="7.992031266912818">
        <ele>3132.5900000000001</ele>
        <time>2016-07-31T08:18:40Z</time>
      </trkpt>
      <trkpt lat="46.138765448704362" lon="7.991986004635692">
        <ele>3133.0700000000002</ele>
        <time>2016-07-31T08:18:47Z</time>
      </trkpt>
      <trkpt lat="46.138817835599184" lon="7.991936970502138">
        <ele>3134.04</ele>
        <time>2016-07-31T08:18:54Z</time>
      </trkpt>
      <trkpt lat="46.138866869732738" lon="7.991873184219003">
        <ele>3135</ele>
        <time>2016-07-31T08:19:03Z</time>
      </trkpt>
      <trkpt lat="46.138877095654607" lon="7.991858348250389">
        <ele>3135.48</ele>
        <time>2016-07-31T08:19:05Z</time>
      </trkpt>
      <trkpt lat="46.138941720128059" lon="7.991806631907821">
        <ele>3136.4400000000001</ele>
        <time>2016-07-31T08:19:14Z</time>
      </trkpt>
      <trkpt lat="46.139013888314366" lon="7.991749132052064">
        <ele>3138.3600000000001</ele>
        <time>2016-07-31T08:19:24Z</time>
      </trkpt>
      <trkpt lat="46.139081949368119" lon="7.99170009791851">
        <ele>3139.8000000000002</ele>
        <time>2016-07-31T08:19:34Z</time>
      </trkpt>
      <trkpt lat="46.139126121997833" lon="7.991648716852069">
        <ele>3140.7600000000002</ele>
        <time>2016-07-31T08:19:43Z</time>
      </trkpt>
      <trkpt lat="46.139168618246913" lon="7.991576548665762">
        <ele>3142.21</ele>
        <time>2016-07-31T08:19:53Z</time>
      </trkpt>
      <trkpt lat="46.139174401760101" lon="7.99156523309648">
        <ele>3142.6900000000001</ele>
        <time>2016-07-31T08:19:54Z</time>
      </trkpt>
      <trkpt lat="46.139241959899664" lon="7.991448137909174">
        <ele>3143.1700000000001</ele>
        <time>2016-07-31T08:20:08Z</time>
      </trkpt>
      <trkpt lat="46.139270793646574" lon="7.991381082683802">
        <ele>3144.6100000000001</ele>
        <time>2016-07-31T08:20:18Z</time>
      </trkpt>
      <trkpt lat="46.139319324865937" lon="7.991359792649746">
        <ele>3145.5700000000002</ele>
        <time>2016-07-31T08:20:25Z</time>
      </trkpt>
      <trkpt lat="46.139395600184798" lon="7.991427853703499">
        <ele>3146.5300000000002</ele>
        <time>2016-07-31T08:20:36Z</time>
      </trkpt>
      <trkpt lat="46.139380177482963" lon="7.991432379931212">
        <ele>3146.0500000000002</ele>
        <time>2016-07-31T08:20:52Z</time>
      </trkpt>
      <trkpt lat="46.139375232160091" lon="7.991464817896485">
        <ele>3146.5300000000002</ele>
        <time>2016-07-31T08:21:05Z</time>
      </trkpt>
      <trkpt lat="46.139374896883965" lon="7.991473032161593">
        <ele>3146.5300000000002</ele>
        <time>2016-07-31T08:21:06Z</time>
      </trkpt>
      <trkpt lat="46.139349164441228" lon="7.991599012166262">
        <ele>3147.0100000000002</ele>
        <time>2016-07-31T08:21:17Z</time>
      </trkpt>
      <trkpt lat="46.139288982376456" lon="7.991591636091471">
        <ele>3147.4899999999998</ele>
        <time>2016-07-31T08:21:28Z</time>
      </trkpt>
      <trkpt lat="46.1392124556005" lon="7.991699762642384">
        <ele>3147.4899999999998</ele>
        <time>2016-07-31T08:21:46Z</time>
      </trkpt>
      <trkpt lat="46.139118662104011" lon="7.991711413487792">
        <ele>3146.0500000000002</ele>
        <time>2016-07-31T08:22:01Z</time>
      </trkpt>
      <trkpt lat="46.138948677107692" lon="7.991615273058415">
        <ele>3146.0500000000002</ele>
        <time>2016-07-31T08:22:21Z</time>
      </trkpt>
      <trkpt lat="46.138966362923384" lon="7.991611417382956">
        <ele>3145.5700000000002</ele>
        <time>2016-07-31T08:22:39Z</time>
      </trkpt>
      <trkpt lat="46.13893635571003" lon="7.991625750437379">
        <ele>3145.5700000000002</ele>
        <time>2016-07-31T08:22:58Z</time>
      </trkpt>
      <trkpt lat="46.1389793548733" lon="7.991722393780947">
        <ele>3145.5700000000002</ele>
        <time>2016-07-31T08:23:24Z</time>
      </trkpt>
      <trkpt lat="46.138984719291329" lon="7.991776121780276">
        <ele>3145.5700000000002</ele>
        <time>2016-07-31T08:23:43Z</time>
      </trkpt>
      <trkpt lat="46.138888411223888" lon="7.991694482043386">
        <ele>3145.5700000000002</ele>
        <time>2016-07-31T08:24:04Z</time>
      </trkpt>
      <trkpt lat="46.138847507536411" lon="7.991656847298145">
        <ele>3145.5700000000002</ele>
        <time>2016-07-31T08:24:23Z</time>
      </trkpt>
      <trkpt lat="46.138734351843596" lon="7.991597503423691">
        <ele>3145.5700000000002</ele>
        <time>2016-07-31T08:24:42Z</time>
      </trkpt>
      <trkpt lat="46.138339815661311" lon="7.991252588108182">
        <ele>3145.5700000000002</ele>
        <time>2016-07-31T08:26:45Z</time>
      </trkpt>
      <trkpt lat="46.138416342437267" lon="7.991306651383638">
        <ele>3145.5700000000002</ele>
        <time>2016-07-31T08:27:27Z</time>
      </trkpt>
      <trkpt lat="46.138496054336429" lon="7.991409245878458">
        <ele>3145.0900000000001</ele>
        <time>2016-07-31T08:27:53Z</time>
      </trkpt>
      <trkpt lat="46.139236511662602" lon="7.992090610787273">
        <ele>3145.0900000000001</ele>
        <time>2016-07-31T09:02:07Z</time>
      </trkpt>
      <trkpt lat="46.139193261042237" lon="7.992040738463402">
        <ele>3144.6100000000001</ele>
        <time>2016-07-31T09:02:33Z</time>
      </trkpt>
      <trkpt lat="46.139234080910683" lon="7.992006959393621">
        <ele>3145.0900000000001</ele>
        <time>2016-07-31T09:03:01Z</time>
      </trkpt>
      <trkpt lat="46.139225866645575" lon="7.991942502558231">
        <ele>3144.6100000000001</ele>
        <time>2016-07-31T09:03:31Z</time>
      </trkpt>
      <trkpt lat="46.139275236055255" lon="7.991944346576929">
        <ele>3145.0900000000001</ele>
        <time>2016-07-31T09:04:01Z</time>
      </trkpt>
      <trkpt lat="46.139305997639894" lon="7.991862371563911">
        <ele>3146.0500000000002</ele>
        <time>2016-07-31T09:04:31Z</time>
      </trkpt>
      <trkpt lat="46.139263669028878" lon="7.991807637736201">
        <ele>3145.0900000000001</ele>
        <time>2016-07-31T09:04:55Z</time>
      </trkpt>
      <trkpt lat="46.139285545796156" lon="7.991800764575601">
        <ele>3145.0900000000001</ele>
        <time>2016-07-31T09:05:25Z</time>
      </trkpt>
      <trkpt lat="46.139336256310344" lon="7.991822306066752">
        <ele>3144.6100000000001</ele>
        <time>2016-07-31T09:05:45Z</time>
      </trkpt>
      <trkpt lat="46.139360144734383" lon="7.991700265556574">
        <ele>3144.6100000000001</ele>
        <time>2016-07-31T09:06:07Z</time>
      </trkpt>
      <trkpt lat="46.139320582151413" lon="7.991660283878446">
        <ele>3144.6100000000001</ele>
        <time>2016-07-31T09:06:28Z</time>
      </trkpt>
      <trkpt lat="46.139291161671281" lon="7.991699511185288">
        <ele>3144.6100000000001</ele>
        <time>2016-07-31T09:06:48Z</time>
      </trkpt>
      <trkpt lat="46.139112208038568" lon="7.991839069873095">
        <ele>3144.6100000000001</ele>
        <time>2016-07-31T09:07:22Z</time>
      </trkpt>
      <trkpt lat="46.139114387333393" lon="7.991952057927847">
        <ele>3144.6100000000001</ele>
        <time>2016-07-31T09:07:31Z</time>
      </trkpt>
      <trkpt lat="46.139087984338403" lon="7.992278449237347">
        <ele>3144.6100000000001</ele>
        <time>2016-07-31T09:08:01Z</time>
      </trkpt>
      <trkpt lat="46.139185717329383" lon="7.99173915758729">
        <ele>3142.6900000000001</ele>
        <time>2016-07-31T09:16:14Z</time>
      </trkpt>
      <trkpt lat="46.139121009036899" lon="7.99180462025106">
        <ele>3142.6900000000001</ele>
        <time>2016-07-31T09:16:38Z</time>
      </trkpt>
      <trkpt lat="46.139140790328383" lon="7.991875112056732">
        <ele>3143.1700000000001</ele>
        <time>2016-07-31T09:16:56Z</time>
      </trkpt>
      <trkpt lat="46.139170881360769" lon="7.991823395714164">
        <ele>3142.6900000000001</ele>
        <time>2016-07-31T09:17:16Z</time>
      </trkpt>
      <trkpt lat="46.139186136424541" lon="7.99180906265974">
        <ele>3143.1700000000001</ele>
        <time>2016-07-31T09:17:22Z</time>
      </trkpt>
      <trkpt lat="46.139283198863268" lon="7.991654081270099">
        <ele>3143.1700000000001</ele>
        <time>2016-07-31T09:17:38Z</time>
      </trkpt>
      <trkpt lat="46.139322845265269" lon="7.991704707965255">
        <ele>3143.6500000000001</ele>
        <time>2016-07-31T09:17:59Z</time>
      </trkpt>
      <trkpt lat="46.139222932979465" lon="7.991776457056403">
        <ele>3143.6500000000001</ele>
        <time>2016-07-31T09:18:16Z</time>
      </trkpt>
      <trkpt lat="46.139190662652254" lon="7.991903610527515">
        <ele>3145.0900000000001</ele>
        <time>2016-07-31T09:18:35Z</time>
      </trkpt>
      <trkpt lat="46.139309266582131" lon="7.991665313020349">
        <ele>3144.1300000000001</ele>
        <time>2016-07-31T09:19:01Z</time>
      </trkpt>
      <trkpt lat="46.139294514432549" lon="7.991644525900483">
        <ele>3144.1300000000001</ele>
        <time>2016-07-31T09:19:13Z</time>
      </trkpt>
      <trkpt lat="46.139303063973784" lon="7.991619044914842">
        <ele>3144.1300000000001</ele>
        <time>2016-07-31T09:19:28Z</time>
      </trkpt>
      <trkpt lat="46.139317899942398" lon="7.991560455411673">
        <ele>3144.6100000000001</ele>
        <time>2016-07-31T09:19:47Z</time>
      </trkpt>
      <trkpt lat="46.139319995418191" lon="7.991534136235714">
        <ele>3144.6100000000001</ele>
        <time>2016-07-31T09:20:01Z</time>
      </trkpt>
      <trkpt lat="46.139328880235553" lon="7.991536566987634">
        <ele>3144.6100000000001</ele>
        <time>2016-07-31T09:20:14Z</time>
      </trkpt>
      <trkpt lat="46.139343716204166" lon="7.991534890606999">
        <ele>3144.6100000000001</ele>
        <time>2016-07-31T09:20:23Z</time>
      </trkpt>
      <trkpt lat="46.1393609829247" lon="7.991491556167603">
        <ele>3144.1300000000001</ele>
        <time>2016-07-31T09:20:31Z</time>
      </trkpt>
      <trkpt lat="46.139372633770108" lon="7.99143866635859">
        <ele>3145.0900000000001</ele>
        <time>2016-07-31T09:20:36Z</time>
      </trkpt>
      <trkpt lat="46.139375232160091" lon="7.99139223061502">
        <ele>3143.6500000000001</ele>
        <time>2016-07-31T09:20:39Z</time>
      </trkpt>
      <trkpt lat="46.139404233545065" lon="7.99124663695693">
        <ele>3144.6100000000001</ele>
        <time>2016-07-31T09:20:51Z</time>
      </trkpt>
      <trkpt lat="46.13933902233839" lon="7.991176564246416">
        <ele>3143.6500000000001</ele>
        <time>2016-07-31T09:21:03Z</time>
      </trkpt>
      <trkpt lat="46.139321085065603" lon="7.991074807941914">
        <ele>3141.25</ele>
        <time>2016-07-31T09:21:12Z</time>
      </trkpt>
      <trkpt lat="46.1393350828439" lon="7.99093097448349">
        <ele>3138.3600000000001</ele>
        <time>2016-07-31T09:21:24Z</time>
      </trkpt>
      <trkpt lat="46.139366012066603" lon="7.990888394415379">
        <ele>3137.4000000000001</ele>
        <time>2016-07-31T09:21:33Z</time>
      </trkpt>
      <trkpt lat="46.139397528022528" lon="7.990799965336919">
        <ele>3135.48</ele>
        <time>2016-07-31T09:21:42Z</time>
      </trkpt>
      <trkpt lat="46.139448154717684" lon="7.990674152970314">
        <ele>3133.5500000000002</ele>
        <time>2016-07-31T09:21:53Z</time>
      </trkpt>
      <trkpt lat="46.139448741450906" lon="7.990663256496191">
        <ele>3133.0700000000002</ele>
        <time>2016-07-31T09:21:54Z</time>
      </trkpt>
      <trkpt lat="46.139506157487631" lon="7.990530235692859">
        <ele>3131.6300000000001</ele>
        <time>2016-07-31T09:22:06Z</time>
      </trkpt>
      <trkpt lat="46.139578074216843" lon="7.990420097485185">
        <ele>3129.71</ele>
        <time>2016-07-31T09:22:17Z</time>
      </trkpt>
      <trkpt lat="46.13963071256876" lon="7.990321274846792">
        <ele>3127.3099999999999</ele>
        <time>2016-07-31T09:22:27Z</time>
      </trkpt>
      <trkpt lat="46.139686955139041" lon="7.990216081961989">
        <ele>3124.4200000000001</ele>
        <time>2016-07-31T09:22:39Z</time>
      </trkpt>
      <trkpt lat="46.139723416417837" lon="7.990131760016084">
        <ele>3122.02</ele>
        <time>2016-07-31T09:22:50Z</time>
      </trkpt>
      <trkpt lat="46.139755267649889" lon="7.990105105563998">
        <ele>3121.0599999999999</ele>
        <time>2016-07-31T09:22:56Z</time>
      </trkpt>
      <trkpt lat="46.13987990655005" lon="7.990088509395719">
        <ele>3118.6500000000001</ele>
        <time>2016-07-31T09:23:09Z</time>
      </trkpt>
      <trkpt lat="46.139904130250216" lon="7.99008172005415">
        <ele>3117.21</ele>
        <time>2016-07-31T09:23:12Z</time>
      </trkpt>
      <trkpt lat="46.139986524358392" lon="7.990157911553979">
        <ele>3115.29</ele>
        <time>2016-07-31T09:23:21Z</time>
      </trkpt>
      <trkpt lat="46.140022063627839" lon="7.990193786099553">
        <ele>3114.3299999999999</ele>
        <time>2016-07-31T09:23:25Z</time>
      </trkpt>
      <trkpt lat="46.140095321461558" lon="7.990298476070166">
        <ele>3112.4099999999999</ele>
        <time>2016-07-31T09:23:35Z</time>
      </trkpt>
      <trkpt lat="46.140165142714977" lon="7.990389252081513">
        <ele>3110.48</ele>
        <time>2016-07-31T09:23:44Z</time>
      </trkpt>
      <trkpt lat="46.140242256224155" lon="7.990539455786347">
        <ele>3109.52</ele>
        <time>2016-07-31T09:23:55Z</time>
      </trkpt>
      <trkpt lat="46.140249632298946" lon="7.990551609545946">
        <ele>3109.52</ele>
        <time>2016-07-31T09:23:56Z</time>
      </trkpt>
      <trkpt lat="46.140267988666892" lon="7.990612126886845">
        <ele>3109.04</ele>
        <time>2016-07-31T09:24:05Z</time>
      </trkpt>
      <trkpt lat="46.140295397490263" lon="7.990684127435088">
        <ele>3108.5599999999999</ele>
        <time>2016-07-31T09:24:10Z</time>
      </trkpt>
      <trkpt lat="46.140345605090261" lon="7.990799881517887">
        <ele>3107.5999999999999</ele>
        <time>2016-07-31T09:24:18Z</time>
      </trkpt>
      <trkpt lat="46.140431351959705" lon="7.990926196798682">
        <ele>3104.71</ele>
        <time>2016-07-31T09:24:30Z</time>
      </trkpt>
      <trkpt lat="46.140472758561373" lon="7.991064749658108">
        <ele>3104.23</ele>
        <time>2016-07-31T09:24:40Z</time>
      </trkpt>
      <trkpt lat="46.140520954504609" lon="7.991159297525883">
        <ele>3103.27</ele>
        <time>2016-07-31T09:24:48Z</time>
      </trkpt>
      <trkpt lat="46.140526318922639" lon="7.991172540932894">
        <ele>3102.79</ele>
        <time>2016-07-31T09:24:49Z</time>
      </trkpt>
      <trkpt lat="46.140520703047514" lon="7.991242865100503">
        <ele>3102.79</ele>
        <time>2016-07-31T09:24:58Z</time>
      </trkpt>
      <trkpt lat="46.140529671683908" lon="7.991274548694491">
        <ele>3102.3099999999999</ele>
        <time>2016-07-31T09:25:01Z</time>
      </trkpt>
      <trkpt lat="46.14056839607656" lon="7.991335904225707">
        <ele>3101.8299999999999</ele>
        <time>2016-07-31T09:25:11Z</time>
      </trkpt>
      <trkpt lat="46.140578957274556" lon="7.991391476243734">
        <ele>3100.8699999999999</ele>
        <time>2016-07-31T09:25:17Z</time>
      </trkpt>
      <trkpt lat="46.14061189815402" lon="7.991492729634047">
        <ele>3099.4299999999998</ele>
        <time>2016-07-31T09:25:26Z</time>
      </trkpt>
      <trkpt lat="46.140614077448845" lon="7.991522820666432">
        <ele>3099.4299999999998</ele>
        <time>2016-07-31T09:25:27Z</time>
      </trkpt>
      <trkpt lat="46.140629332512617" lon="7.99157939851284">
        <ele>3098.4699999999998</ele>
        <time>2016-07-31T09:25:35Z</time>
      </trkpt>
      <trkpt lat="46.140631092712283" lon="7.991591719910502">
        <ele>3097.9899999999998</ele>
        <time>2016-07-31T09:25:43Z</time>
      </trkpt>
      <trkpt lat="46.140665039420128" lon="7.991619128733873">
        <ele>3097.5100000000002</ele>
        <time>2016-07-31T09:25:57Z</time>
      </trkpt>
      <trkpt lat="46.140721365809441" lon="7.99179975874722">
        <ele>3095.0999999999999</ele>
        <time>2016-07-31T09:26:09Z</time>
      </trkpt>
      <trkpt lat="46.140760760754347" lon="7.991953399032354">
        <ele>3093.1799999999998</ele>
        <time>2016-07-31T09:26:20Z</time>
      </trkpt>
      <trkpt lat="46.140804514288902" lon="7.992052892223001">
        <ele>3092.2199999999998</ele>
        <time>2016-07-31T09:26:28Z</time>
      </trkpt>
      <trkpt lat="46.140806442126632" lon="7.992095220834017">
        <ele>3092.2199999999998</ele>
        <time>2016-07-31T09:26:32Z</time>
      </trkpt>
      <trkpt lat="46.140892524272203" lon="7.992182392627001">
        <ele>3090.7800000000002</ele>
        <time>2016-07-31T09:26:42Z</time>
      </trkpt>
      <trkpt lat="46.140962261706591" lon="7.992266798391938">
        <ele>3088.8499999999999</ele>
        <time>2016-07-31T09:26:54Z</time>
      </trkpt>
      <trkpt lat="46.141014564782381" lon="7.992321029305458">
        <ele>3087.4099999999999</ele>
        <time>2016-07-31T09:27:01Z</time>
      </trkpt>
      <trkpt lat="46.141073489561677" lon="7.992397472262383">
        <ele>3085.4899999999998</ele>
        <time>2016-07-31T09:27:11Z</time>
      </trkpt>
      <trkpt lat="46.141138533130288" lon="7.992452206090093">
        <ele>3084.0500000000002</ele>
        <time>2016-07-31T09:27:18Z</time>
      </trkpt>
      <trkpt lat="46.14120215177536" lon="7.992603583261371">
        <ele>3082.5999999999999</ele>
        <time>2016-07-31T09:27:30Z</time>
      </trkpt>
      <trkpt lat="46.141269877552986" lon="7.992717577144504">
        <ele>3081.1599999999999</ele>
        <time>2016-07-31T09:27:40Z</time>
      </trkpt>
      <trkpt lat="46.141314469277859" lon="7.992771808058024">
        <ele>3080.1999999999998</ele>
        <time>2016-07-31T09:27:46Z</time>
      </trkpt>
      <trkpt lat="46.141333663836122" lon="7.992790248245001">
        <ele>3079.7199999999998</ele>
        <time>2016-07-31T09:27:49Z</time>
      </trkpt>
      <trkpt lat="46.141375238075852" lon="7.992792762815952">
        <ele>3079.7199999999998</ele>
        <time>2016-07-31T09:27:55Z</time>
      </trkpt>
      <trkpt lat="46.141453860327601" lon="7.992729395627976">
        <ele>3078.2800000000002</ele>
        <time>2016-07-31T09:28:06Z</time>
      </trkpt>
      <trkpt lat="46.141517478972673" lon="7.992651695385575">
        <ele>3076.8400000000001</ele>
        <time>2016-07-31T09:28:15Z</time>
      </trkpt>
      <trkpt lat="46.141535332426429" lon="7.992620598524809">
        <ele>3076.3600000000001</ele>
        <time>2016-07-31T09:28:18Z</time>
      </trkpt>
      <trkpt lat="46.141558969393373" lon="7.992595201358199">
        <ele>3075.4000000000001</ele>
        <time>2016-07-31T09:28:21Z</time>
      </trkpt>
      <trkpt lat="46.141641531139612" lon="7.992507694289088">
        <ele>3072.9899999999998</ele>
        <time>2016-07-31T09:28:31Z</time>
      </trkpt>
      <trkpt lat="46.141705401241779" lon="7.992416331544519">
        <ele>3071.0700000000002</ele>
        <time>2016-07-31T09:28:41Z</time>
      </trkpt>
      <trkpt lat="46.141793746501207" lon="7.992320945486426">
        <ele>3067.6999999999998</ele>
        <time>2016-07-31T09:28:52Z</time>
      </trkpt>
      <trkpt lat="46.141864322125912" lon="7.992247687652707">
        <ele>3065.7800000000002</ele>
        <time>2016-07-31T09:29:02Z</time>
      </trkpt>
      <trkpt lat="46.141934311017394" lon="7.992150960490108">
        <ele>3062.4200000000001</ele>
        <time>2016-07-31T09:29:15Z</time>
      </trkpt>
      <trkpt lat="46.141951326280832" lon="7.992126736789942">
        <ele>3061.46</ele>
        <time>2016-07-31T09:29:18Z</time>
      </trkpt>
      <trkpt lat="46.142009580507874" lon="7.992021795362234">
        <ele>3059.5300000000002</ele>
        <time>2016-07-31T09:29:29Z</time>
      </trkpt>
      <trkpt lat="46.142044700682163" lon="7.991952393203974">
        <ele>3058.0900000000001</ele>
        <time>2016-07-31T09:29:38Z</time>
      </trkpt>
      <trkpt lat="46.142056016251445" lon="7.991889780387282">
        <ele>3056.6500000000001</ele>
        <time>2016-07-31T09:29:48Z</time>
      </trkpt>
      <trkpt lat="46.142088454216719" lon="7.991773439571261">
        <ele>3054.25</ele>
        <time>2016-07-31T09:29:58Z</time>
      </trkpt>
      <trkpt lat="46.142107481136918" lon="7.991638323292136">
        <ele>3050.8800000000001</ele>
        <time>2016-07-31T09:30:10Z</time>
      </trkpt>
      <trkpt lat="46.142129441723228" lon="7.991503961384296">
        <ele>3047.04</ele>
        <time>2016-07-31T09:30:21Z</time>
      </trkpt>
      <trkpt lat="46.142132123932242" lon="7.991495160385966">
        <ele>3047.04</ele>
        <time>2016-07-31T09:30:22Z</time>
      </trkpt>
      <trkpt lat="46.142145618796349" lon="7.991441432386637">
        <ele>3045.1100000000001</ele>
        <time>2016-07-31T09:30:27Z</time>
      </trkpt>
      <trkpt lat="46.142173195257783" lon="7.991341939195991">
        <ele>3043.1900000000001</ele>
        <time>2016-07-31T09:30:34Z</time>
      </trkpt>
      <trkpt lat="46.142190126702189" lon="7.991226688027382">
        <ele>3042.71</ele>
        <time>2016-07-31T09:30:41Z</time>
      </trkpt>
      <trkpt lat="46.142237316817045" lon="7.991053937003017">
        <ele>3038.3800000000001</ele>
        <time>2016-07-31T09:30:54Z</time>
      </trkpt>
      <trkpt lat="46.142281070351601" lon="7.990912450477481">
        <ele>3035.02</ele>
        <time>2016-07-31T09:31:04Z</time>
      </trkpt>
      <trkpt lat="46.142318956553936" lon="7.990813292562962">
        <ele>3031.6599999999999</ele>
        <time>2016-07-31T09:31:14Z</time>
      </trkpt>
      <trkpt lat="46.142361285164952" lon="7.99070717766881">
        <ele>3029.25</ele>
        <time>2016-07-31T09:31:24Z</time>
      </trkpt>
      <trkpt lat="46.142400512471795" lon="7.990626292303205">
        <ele>3026.3699999999999</ele>
        <time>2016-07-31T09:31:32Z</time>
      </trkpt>
      <trkpt lat="46.142458515241742" lon="7.990494947880507">
        <ele>3023</ele>
        <time>2016-07-31T09:31:44Z</time>
      </trkpt>
      <trkpt lat="46.142508639022708" lon="7.990381708368659">
        <ele>3021.0799999999999</ele>
        <time>2016-07-31T09:31:55Z</time>
      </trkpt>
      <trkpt lat="46.142568066716194" lon="7.990305935963988">
        <ele>3018.1999999999998</ele>
        <time>2016-07-31T09:32:04Z</time>
      </trkpt>
      <trkpt lat="46.142643503844738" lon="7.990234354510903">
        <ele>3014.8299999999999</ele>
        <time>2016-07-31T09:32:14Z</time>
      </trkpt>
      <trkpt lat="46.142716007307172" lon="7.990135531872511">
        <ele>3012.4299999999998</ele>
        <time>2016-07-31T09:32:25Z</time>
      </trkpt>
      <trkpt lat="46.142754731699824" lon="7.990123126655817">
        <ele>3010.9899999999998</ele>
        <time>2016-07-31T09:32:30Z</time>
      </trkpt>
      <trkpt lat="46.14279018715024" lon="7.990122707560659">
        <ele>3009.54</ele>
        <time>2016-07-31T09:32:33Z</time>
      </trkpt>
      <trkpt lat="46.142852129414678" lon="7.990109883248806">
        <ele>3008.0999999999999</ele>
        <time>2016-07-31T09:32:39Z</time>
      </trkpt>
      <trkpt lat="46.142961513251066" lon="7.990076187998056">
        <ele>3006.6599999999999</ele>
        <time>2016-07-31T09:32:51Z</time>
      </trkpt>
      <trkpt lat="46.142975175753236" lon="7.990059088915587">
        <ele>3006.1799999999998</ele>
        <time>2016-07-31T09:32:53Z</time>
      </trkpt>
      <trkpt lat="46.143044577911496" lon="7.990050707012415">
        <ele>3004.2600000000002</ele>
        <time>2016-07-31T09:32:59Z</time>
      </trkpt>
      <trkpt lat="46.143116829916835" lon="7.990063698962331">
        <ele>3003.7800000000002</ele>
        <time>2016-07-31T09:33:06Z</time>
      </trkpt>
      <trkpt lat="46.14323970861733" lon="7.990146763622761">
        <ele>3002.8200000000002</ele>
        <time>2016-07-31T09:33:18Z</time>
      </trkpt>
      <trkpt lat="46.143286395817995" lon="7.990290429443121">
        <ele>3002.3299999999999</ele>
        <time>2016-07-31T09:33:28Z</time>
      </trkpt>
      <trkpt lat="46.143324114382267" lon="7.990417080000043">
        <ele>3001.3699999999999</ele>
        <time>2016-07-31T09:33:38Z</time>
      </trkpt>
      <trkpt lat="46.143380524590611" lon="7.990530235692859">
        <ele>2998.9699999999998</ele>
        <time>2016-07-31T09:33:50Z</time>
      </trkpt>
      <trkpt lat="46.143432073295116" lon="7.990650935098529">
        <ele>2996.5700000000002</ele>
        <time>2016-07-31T09:34:01Z</time>
      </trkpt>
      <trkpt lat="46.143502397462726" lon="7.990807760506868">
        <ele>2995.5999999999999</ele>
        <time>2016-07-31T09:34:13Z</time>
      </trkpt>
      <trkpt lat="46.143579510971904" lon="7.990918988361955">
        <ele>2995.5999999999999</ele>
        <time>2016-07-31T09:34:26Z</time>
      </trkpt>
      <trkpt lat="46.143588814884424" lon="7.990917982533574">
        <ele>2995.1199999999999</ele>
        <time>2016-07-31T09:34:27Z</time>
      </trkpt>
      <trkpt lat="46.143696941435337" lon="7.99092267639935">
        <ele>2993.1999999999998</ele>
        <time>2016-07-31T09:34:39Z</time>
      </trkpt>
      <trkpt lat="46.143744634464383" lon="7.99093340523541">
        <ele>2992.7199999999998</ele>
        <time>2016-07-31T09:34:47Z</time>
      </trkpt>
      <trkpt lat="46.143763326108456" lon="7.990932986140251">
        <ele>2993.1999999999998</ele>
        <time>2016-07-31T09:34:50Z</time>
      </trkpt>
      <trkpt lat="46.143808253109455" lon="7.990969447419047">
        <ele>2992.7199999999998</ele>
        <time>2016-07-31T09:34:58Z</time>
      </trkpt>
      <trkpt lat="46.143871117383242" lon="7.990967687219381">
        <ele>2991.7600000000002</ele>
        <time>2016-07-31T09:35:07Z</time>
      </trkpt>
      <trkpt lat="46.143973041325808" lon="7.990960897877812">
        <ele>2990.3200000000002</ele>
        <time>2016-07-31T09:35:18Z</time>
      </trkpt>
      <trkpt lat="46.143981423228979" lon="7.990956455469132">
        <ele>2989.8400000000001</ele>
        <time>2016-07-31T09:35:20Z</time>
      </trkpt>
      <trkpt lat="46.144000366330147" lon="7.99095394089818">
        <ele>2989.8400000000001</ele>
        <time>2016-07-31T09:35:22Z</time>
      </trkpt>
      <trkpt lat="46.144014867022634" lon="7.990949749946594">
        <ele>2989.3600000000001</ele>
        <time>2016-07-31T09:35:24Z</time>
      </trkpt>
      <trkpt lat="46.144034815952182" lon="7.990943882614374">
        <ele>2988.8800000000001</ele>
        <time>2016-07-31T09:35:26Z</time>
      </trkpt>
      <trkpt lat="46.144091561436653" lon="7.990942038595676">
        <ele>2988.4000000000001</ele>
        <time>2016-07-31T09:35:32Z</time>
      </trkpt>
      <trkpt lat="46.144170854240656" lon="7.990895183756948">
        <ele>2987.4299999999998</ele>
        <time>2016-07-31T09:35:40Z</time>
      </trkpt>
      <trkpt lat="46.144238747656345" lon="7.990789907053113">
        <ele>2985.0300000000002</ele>
        <time>2016-07-31T09:35:51Z</time>
      </trkpt>
      <trkpt lat="46.144279902800918" lon="7.990664094686508">
        <ele>2983.1100000000001</ele>
        <time>2016-07-31T09:36:03Z</time>
      </trkpt>
      <trkpt lat="46.144304294139147" lon="7.990553453564644">
        <ele>2982.1500000000001</ele>
        <time>2016-07-31T09:36:13Z</time>
      </trkpt>
      <trkpt lat="46.144330529496074" lon="7.990407440811396">
        <ele>2980.71</ele>
        <time>2016-07-31T09:36:26Z</time>
      </trkpt>
      <trkpt lat="46.144357267767191" lon="7.990282718092203">
        <ele>2978.3000000000002</ele>
        <time>2016-07-31T09:36:37Z</time>
      </trkpt>
      <trkpt lat="46.144408565014601" lon="7.990146931260824">
        <ele>2976.8600000000001</ele>
        <time>2016-07-31T09:36:50Z</time>
      </trkpt>
      <trkpt lat="46.144450725987554" lon="7.990086749196053">
        <ele>2976.3800000000001</ele>
        <time>2016-07-31T09:36:58Z</time>
      </trkpt>
      <trkpt lat="46.144547201693058" lon="7.989980550482869">
        <ele>2974.9400000000001</ele>
        <time>2016-07-31T09:37:10Z</time>
      </trkpt>
      <trkpt lat="46.144601767882705" lon="7.989926738664508">
        <ele>2974.46</ele>
        <time>2016-07-31T09:37:18Z</time>
      </trkpt>
      <trkpt lat="46.144667649641633" lon="7.989784497767687">
        <ele>2972.0500000000002</ele>
        <time>2016-07-31T09:37:31Z</time>
      </trkpt>
      <trkpt lat="46.144690280780196" lon="7.989718113094568">
        <ele>2971.0900000000001</ele>
        <time>2016-07-31T09:37:36Z</time>
      </trkpt>
      <trkpt lat="46.144715761765838" lon="7.989559359848499">
        <ele>2968.6900000000001</ele>
        <time>2016-07-31T09:37:48Z</time>
      </trkpt>
      <trkpt lat="46.144737638533115" lon="7.989412592723966">
        <ele>2966.77</ele>
        <time>2016-07-31T09:37:59Z</time>
      </trkpt>
      <trkpt lat="46.144744511693716" lon="7.989277392625809">
        <ele>2965.3200000000002</ele>
        <time>2016-07-31T09:38:10Z</time>
      </trkpt>
      <trkpt lat="46.144742835313082" lon="7.989221652969718">
        <ele>2964.3600000000001</ele>
        <time>2016-07-31T09:38:14Z</time>
      </trkpt>
      <trkpt lat="46.144758006557822" lon="7.989063570275903">
        <ele>2962.4400000000001</ele>
        <time>2016-07-31T09:38:25Z</time>
      </trkpt>
      <trkpt lat="46.144761778414249" lon="7.989052087068558">
        <ele>2961.96</ele>
        <time>2016-07-31T09:38:26Z</time>
      </trkpt>
      <trkpt lat="46.144781392067671" lon="7.988862404599786">
        <ele>2960.04</ele>
        <time>2016-07-31T09:38:39Z</time>
      </trkpt>
      <trkpt lat="46.144789606332779" lon="7.988746231421828">
        <ele>2959.5599999999999</ele>
        <time>2016-07-31T09:38:48Z</time>
      </trkpt>
      <trkpt lat="46.144797401502728" lon="7.988725611940026">
        <ele>2959.0799999999999</ele>
        <time>2016-07-31T09:38:50Z</time>
      </trkpt>
      <trkpt lat="46.14481994882226" lon="7.988591836765409">
        <ele>2958.5900000000001</ele>
        <time>2016-07-31T09:39:00Z</time>
      </trkpt>
      <trkpt lat="46.14484291523695" lon="7.988425707444549">
        <ele>2956.6700000000001</ele>
        <time>2016-07-31T09:39:13Z</time>
      </trkpt>
      <trkpt lat="46.144866468384862" lon="7.988292519003153">
        <ele>2955.71</ele>
        <time>2016-07-31T09:39:24Z</time>
      </trkpt>
      <trkpt lat="46.144881974905729" lon="7.988123204559088">
        <ele>2953.79</ele>
        <time>2016-07-31T09:39:38Z</time>
      </trkpt>
      <trkpt lat="46.144903264939785" lon="7.987986579537392">
        <ele>2952.8299999999999</ele>
        <time>2016-07-31T09:39:49Z</time>
      </trkpt>
      <trkpt lat="46.144940815865993" lon="7.987831765785813">
        <ele>2950.9000000000001</ele>
        <time>2016-07-31T09:40:02Z</time>
      </trkpt>
      <trkpt lat="46.144971493631601" lon="7.987663205713034">
        <ele>2948.98</ele>
        <time>2016-07-31T09:40:14Z</time>
      </trkpt>
      <trkpt lat="46.144995130598545" lon="7.987521635368466">
        <ele>2947.0599999999999</ele>
        <time>2016-07-31T09:40:26Z</time>
      </trkpt>
      <trkpt lat="46.14501440897584" lon="7.987393978983164">
        <ele>2945.6199999999999</ele>
        <time>2016-07-31T09:40:37Z</time>
      </trkpt>
      <trkpt lat="46.145054139196873" lon="7.987217539921403">
        <ele>2944.1700000000001</ele>
        <time>2016-07-31T09:40:50Z</time>
      </trkpt>
      <trkpt lat="46.145088672637939" lon="7.987044788897038">
        <ele>2943.21</ele>
        <time>2016-07-31T09:41:03Z</time>
      </trkpt>
      <trkpt lat="46.145125720649958" lon="7.986862314864993">
        <ele>2941.77</ele>
        <time>2016-07-31T09:41:16Z</time>
      </trkpt>
      <trkpt lat="46.145166624337435" lon="7.986691994592547">
        <ele>2940.3299999999999</ele>
        <time>2016-07-31T09:41:29Z</time>
      </trkpt>
      <trkpt lat="46.145205264911056" lon="7.986527625471354">
        <ele>2939.3699999999999</ele>
        <time>2016-07-31T09:41:41Z</time>
      </trkpt>
      <trkpt lat="46.145216580480337" lon="7.986370213329792">
        <ele>2939.3699999999999</ele>
        <time>2016-07-31T09:41:53Z</time>
      </trkpt>
      <trkpt lat="46.145227309316397" lon="7.986313048750162">
        <ele>2938.4099999999999</ele>
        <time>2016-07-31T09:41:57Z</time>
      </trkpt>
      <trkpt lat="46.145257232710719" lon="7.986147757619619">
        <ele>2937.9299999999998</ele>
        <time>2016-07-31T09:42:09Z</time>
      </trkpt>
      <trkpt lat="46.145274499431252" lon="7.986000906676054">
        <ele>2936.9699999999998</ele>
        <time>2016-07-31T09:42:20Z</time>
      </trkpt>
      <trkpt lat="46.145285563543439" lon="7.985915746539831">
        <ele>2937.4499999999998</ele>
        <time>2016-07-31T09:42:26Z</time>
      </trkpt>
      <trkpt lat="46.145353959873319" lon="7.985716089606285">
        <ele>2936</ele>
        <time>2016-07-31T09:42:41Z</time>
      </trkpt>
      <trkpt lat="46.14532764069736" lon="7.985581140965223">
        <ele>2935.04</ele>
        <time>2016-07-31T09:42:51Z</time>
      </trkpt>
      <trkpt lat="46.145235188305378" lon="7.985511822625995">
        <ele>2932.6399999999999</ele>
        <time>2016-07-31T09:43:02Z</time>
      </trkpt>
      <trkpt lat="46.145230494439602" lon="7.985499920323491">
        <ele>2932.6399999999999</ele>
        <time>2016-07-31T09:43:03Z</time>
      </trkpt>
      <trkpt lat="46.145205097272992" lon="7.985309567302465">
        <ele>2931.6799999999998</ele>
        <time>2016-07-31T09:43:15Z</time>
      </trkpt>
      <trkpt lat="46.145204594358802" lon="7.985114771872759">
        <ele>2929.75</ele>
        <time>2016-07-31T09:43:28Z</time>
      </trkpt>
      <trkpt lat="46.14519570954144" lon="7.984947301447392">
        <ele>2928.3099999999999</ele>
        <time>2016-07-31T09:43:39Z</time>
      </trkpt>
      <trkpt lat="46.145194452255964" lon="7.984945960342884">
        <ele>2928.3099999999999</ele>
        <time>2016-07-31T09:43:40Z</time>
      </trkpt>
      <trkpt lat="46.145194200798869" lon="7.984925759956241">
        <ele>2927.8299999999999</ele>
        <time>2016-07-31T09:43:42Z</time>
      </trkpt>
      <trkpt lat="46.145193446427584" lon="7.984742280095816">
        <ele>2925.9099999999999</ele>
        <time>2016-07-31T09:43:54Z</time>
      </trkpt>
      <trkpt lat="46.145182885229588" lon="7.984553435817361">
        <ele>2922.54</ele>
        <time>2016-07-31T09:44:07Z</time>
      </trkpt>
      <trkpt lat="46.145174922421575" lon="7.98448889516294">
        <ele>2922.0599999999999</ele>
        <time>2016-07-31T09:44:11Z</time>
      </trkpt>
      <trkpt lat="46.14516343921423" lon="7.984317485243082">
        <ele>2918.6999999999998</ele>
        <time>2016-07-31T09:44:23Z</time>
      </trkpt>
      <trkpt lat="46.145177185535431" lon="7.984114643186331">
        <ele>2915.3400000000001</ele>
        <time>2016-07-31T09:44:36Z</time>
      </trkpt>
      <trkpt lat="46.145178526639938" lon="7.984099052846432">
        <ele>2914.8499999999999</ele>
        <time>2016-07-31T09:44:37Z</time>
      </trkpt>
      <trkpt lat="46.145180622115731" lon="7.983911046758294">
        <ele>2912.9299999999998</ele>
        <time>2016-07-31T09:44:49Z</time>
      </trkpt>
      <trkpt lat="46.14518347196281" lon="7.98389763571322">
        <ele>2912.9299999999998</ele>
        <time>2016-07-31T09:44:50Z</time>
      </trkpt>
      <trkpt lat="46.145207611843944" lon="7.983737122267485">
        <ele>2910.5300000000002</ele>
        <time>2016-07-31T09:45:03Z</time>
      </trkpt>
      <trkpt lat="46.145202834159136" lon="7.983734859153628">
        <ele>2910.5300000000002</ele>
        <time>2016-07-31T09:45:15Z</time>
      </trkpt>
      <trkpt lat="46.145208869129419" lon="7.983730165287852">
        <ele>2910.0500000000002</ele>
        <time>2016-07-31T09:45:33Z</time>
      </trkpt>
      <trkpt lat="46.145217502489686" lon="7.983730919659138">
        <ele>2910.0500000000002</ele>
        <time>2016-07-31T09:46:08Z</time>
      </trkpt>
      <trkpt lat="46.145216915756464" lon="7.983732679858804">
        <ele>2911.0100000000002</ele>
        <time>2016-07-31T09:46:21Z</time>
      </trkpt>
      <trkpt lat="46.145234685391188" lon="7.983689764514566">
        <ele>2911.0100000000002</ele>
        <time>2016-07-31T09:46:29Z</time>
      </trkpt>
      <trkpt lat="46.145214317366481" lon="7.983678281307221">
        <ele>2911.0100000000002</ele>
        <time>2016-07-31T09:46:47Z</time>
      </trkpt>
      <trkpt lat="46.145218508318067" lon="7.98367484472692">
        <ele>2911.0100000000002</ele>
        <time>2016-07-31T09:47:01Z</time>
      </trkpt>
      <trkpt lat="46.145219765603542" lon="7.983690267428756">
        <ele>2910.5300000000002</ele>
        <time>2016-07-31T09:47:14Z</time>
      </trkpt>
      <trkpt lat="46.145226387307048" lon="7.983689932152629">
        <ele>2910.5300000000002</ele>
        <time>2016-07-31T09:47:26Z</time>
      </trkpt>
      <trkpt lat="46.145213060081005" lon="7.983581051230431">
        <ele>2908.6100000000001</ele>
        <time>2016-07-31T09:47:36Z</time>
      </trkpt>
      <trkpt lat="46.145207276567817" lon="7.983583230525255">
        <ele>2908.6100000000001</ele>
        <time>2016-07-31T09:47:47Z</time>
      </trkpt>
      <trkpt lat="46.145200151950121" lon="7.983517432585359">
        <ele>2907.6500000000001</ele>
        <time>2016-07-31T09:48:01Z</time>
      </trkpt>
      <trkpt lat="46.145186489447951" lon="7.98335918225348">
        <ele>2905.7199999999998</ele>
        <time>2016-07-31T09:48:12Z</time>
      </trkpt>
      <trkpt lat="46.145178526639938" lon="7.983223143965006">
        <ele>2903.8000000000002</ele>
        <time>2016-07-31T09:48:24Z</time>
      </trkpt>
      <trkpt lat="46.145202834159136" lon="7.983170002698898">
        <ele>2902.8400000000001</ele>
        <time>2016-07-31T09:48:30Z</time>
      </trkpt>
      <trkpt lat="46.145236529409885" lon="7.983112083747983">
        <ele>2902.3600000000001</ele>
        <time>2016-07-31T09:48:36Z</time>
      </trkpt>
      <trkpt lat="46.145262010395527" lon="7.983068665489554">
        <ele>2900.9200000000001</ele>
        <time>2016-07-31T09:48:40Z</time>
      </trkpt>
      <trkpt lat="46.14528170786798" lon="7.983037233352661">
        <ele>2900.4400000000001</ele>
        <time>2016-07-31T09:48:43Z</time>
      </trkpt>
      <trkpt lat="46.145299393683672" lon="7.982980823144317">
        <ele>2899.4699999999998</ele>
        <time>2016-07-31T09:48:47Z</time>
      </trkpt>
      <trkpt lat="46.145321689546108" lon="7.9829316213727">
        <ele>2898.5100000000002</ele>
        <time>2016-07-31T09:48:51Z</time>
      </trkpt>
      <trkpt lat="46.145349098369479" lon="7.982875965535641">
        <ele>2897.5500000000002</ele>
        <time>2016-07-31T09:48:56Z</time>
      </trkpt>
      <trkpt lat="46.145388325676322" lon="7.982707321643829">
        <ele>2895.6300000000001</ele>
        <time>2016-07-31T09:49:08Z</time>
      </trkpt>
      <trkpt lat="46.145417997613549" lon="7.982600536197424">
        <ele>2894.1900000000001</ele>
        <time>2016-07-31T09:49:19Z</time>
      </trkpt>
      <trkpt lat="46.145430989563465" lon="7.982593663036823">
        <ele>2894.1900000000001</ele>
        <time>2016-07-31T09:49:21Z</time>
      </trkpt>
      <trkpt lat="46.145515479147434" lon="7.982692318037152">
        <ele>2892.2600000000002</ele>
        <time>2016-07-31T09:49:29Z</time>
      </trkpt>
      <trkpt lat="46.145538529381156" lon="7.982702627778053">
        <ele>2892.2600000000002</ele>
        <time>2016-07-31T09:49:31Z</time>
      </trkpt>
      <trkpt lat="46.145605249330401" lon="7.982706483453512">
        <ele>2890.3400000000001</ele>
        <time>2016-07-31T09:49:37Z</time>
      </trkpt>
      <trkpt lat="46.145684374496341" lon="7.982689300552011">
        <ele>2887.9400000000001</ele>
        <time>2016-07-31T09:49:48Z</time>
      </trkpt>
      <trkpt lat="46.145676663145423" lon="7.982599698007107">
        <ele>2886.02</ele>
        <time>2016-07-31T09:49:55Z</time>
      </trkpt>
      <trkpt lat="46.145634585991502" lon="7.982495259493589">
        <ele>2885.0500000000002</ele>
        <time>2016-07-31T09:50:05Z</time>
      </trkpt>
      <trkpt lat="46.145629556849599" lon="7.9824826028198">
        <ele>2885.0500000000002</ele>
        <time>2016-07-31T09:50:06Z</time>
      </trkpt>
      <trkpt lat="46.145612960681319" lon="7.98243859782815">
        <ele>2884.0900000000001</ele>
        <time>2016-07-31T09:50:10Z</time>
      </trkpt>
      <trkpt lat="46.145611116662621" lon="7.982407752424479">
        <ele>2883.6100000000001</ele>
        <time>2016-07-31T09:50:12Z</time>
      </trkpt>
      <trkpt lat="46.145593682304025" lon="7.982365256175399">
        <ele>2882.1700000000001</ele>
        <time>2016-07-31T09:50:16Z</time>
      </trkpt>
      <trkpt lat="46.145625114440918" lon="7.982316808775067">
        <ele>2881.21</ele>
        <time>2016-07-31T09:50:24Z</time>
      </trkpt>
      <trkpt lat="46.145635256543756" lon="7.98231203109026">
        <ele>2881.21</ele>
        <time>2016-07-31T09:50:25Z</time>
      </trkpt>
      <trkpt lat="46.145715387538075" lon="7.982339942827821">
        <ele>2879.29</ele>
        <time>2016-07-31T09:50:33Z</time>
      </trkpt>
      <trkpt lat="46.145746484398842" lon="7.98235796391964">
        <ele>2878.3200000000002</ele>
        <time>2016-07-31T09:50:36Z</time>
      </trkpt>
      <trkpt lat="46.145773222669959" lon="7.982351006940007">
        <ele>2877.8400000000001</ele>
        <time>2016-07-31T09:50:39Z</time>
      </trkpt>
      <trkpt lat="46.145860813558102" lon="7.982258722186089">
        <ele>2877.3600000000001</ele>
        <time>2016-07-31T09:50:50Z</time>
      </trkpt>
      <trkpt lat="46.145900459960103" lon="7.982253357768059">
        <ele>2875.4400000000001</ele>
        <time>2016-07-31T09:50:55Z</time>
      </trkpt>
      <trkpt lat="46.146059297025204" lon="7.982327789068222">
        <ele>2873.04</ele>
        <time>2016-07-31T09:51:10Z</time>
      </trkpt>
      <trkpt lat="46.146138506010175" lon="7.982372799888253">
        <ele>2871.5999999999999</ele>
        <time>2016-07-31T09:51:20Z</time>
      </trkpt>
      <trkpt lat="46.146143283694983" lon="7.982313120737672">
        <ele>2870.1500000000001</ele>
        <time>2016-07-31T09:51:29Z</time>
      </trkpt>
      <trkpt lat="46.146144540980458" lon="7.982304990291596">
        <ele>2869.1900000000001</ele>
        <time>2016-07-31T09:51:37Z</time>
      </trkpt>
      <trkpt lat="46.146108582615852" lon="7.982095275074244">
        <ele>2866.3099999999999</ele>
        <time>2016-07-31T09:51:50Z</time>
      </trkpt>
      <trkpt lat="46.146103218197823" lon="7.982025537639856">
        <ele>2865.8299999999999</ele>
        <time>2016-07-31T09:51:55Z</time>
      </trkpt>
      <trkpt lat="46.146160885691643" lon="7.982021598145366">
        <ele>2865.3499999999999</ele>
        <time>2016-07-31T09:52:00Z</time>
      </trkpt>
      <trkpt lat="46.146208662539721" lon="7.982036601752043">
        <ele>2864.3899999999999</ele>
        <time>2016-07-31T09:52:05Z</time>
      </trkpt>
      <trkpt lat="46.146213691681623" lon="7.981919758021832">
        <ele>2861.5</ele>
        <time>2016-07-31T09:52:16Z</time>
      </trkpt>
      <trkpt lat="46.146207237616181" lon="7.981900228187442">
        <ele>2860.0599999999999</ele>
        <time>2016-07-31T09:52:18Z</time>
      </trkpt>
      <trkpt lat="46.146197346970439" lon="7.981778858229518">
        <ele>2858.1399999999999</ele>
        <time>2016-07-31T09:52:28Z</time>
      </trkpt>
      <trkpt lat="46.146216290071607" lon="7.981691518798471">
        <ele>2856.6900000000001</ele>
        <time>2016-07-31T09:52:36Z</time>
      </trkpt>
      <trkpt lat="46.146216625347733" lon="7.981657655909658">
        <ele>2855.73</ele>
        <time>2016-07-31T09:52:39Z</time>
      </trkpt>
      <trkpt lat="46.146211763843894" lon="7.981648771092296">
        <ele>2855.25</ele>
        <time>2016-07-31T09:52:40Z</time>
      </trkpt>
      <trkpt lat="46.146265910938382" lon="7.981543326750398">
        <ele>2852.8499999999999</ele>
        <time>2016-07-31T09:52:50Z</time>
      </trkpt>
      <trkpt lat="46.146373366937041" lon="7.981547182425857">
        <ele>2850.4499999999998</ele>
        <time>2016-07-31T09:53:00Z</time>
      </trkpt>
      <trkpt lat="46.146402787417173" lon="7.981517175212503">
        <ele>2849</ele>
        <time>2016-07-31T09:53:07Z</time>
      </trkpt>
      <trkpt lat="46.146384347230196" lon="7.98142321407795">
        <ele>2846.5999999999999</ele>
        <time>2016-07-31T09:53:18Z</time>
      </trkpt>
      <trkpt lat="46.146393148228526" lon="7.981425058096647">
        <ele>2846.5999999999999</ele>
        <time>2016-07-31T09:53:19Z</time>
      </trkpt>
      <trkpt lat="46.146404799073935" lon="7.98136169090867">
        <ele>2845.6399999999999</ele>
        <time>2016-07-31T09:53:25Z</time>
      </trkpt>
      <trkpt lat="46.146419635042548" lon="7.981342831626535">
        <ele>2844.1999999999998</ele>
        <time>2016-07-31T09:53:27Z</time>
      </trkpt>
      <trkpt lat="46.146429106593132" lon="7.981324559077621">
        <ele>2843.2399999999998</ele>
        <time>2016-07-31T09:53:30Z</time>
      </trkpt>
      <trkpt lat="46.146393148228526" lon="7.981249708682299">
        <ele>2841.79</ele>
        <time>2016-07-31T09:53:41Z</time>
      </trkpt>
      <trkpt lat="46.14640211686492" lon="7.981248032301664">
        <ele>2841.3099999999999</ele>
        <time>2016-07-31T09:53:42Z</time>
      </trkpt>
      <trkpt lat="46.146422233432531" lon="7.981240823864937">
        <ele>2841.3099999999999</ele>
        <time>2016-07-31T09:53:44Z</time>
      </trkpt>
      <trkpt lat="46.146453665569425" lon="7.981236381456256">
        <ele>2840.3499999999999</ele>
        <time>2016-07-31T09:53:47Z</time>
      </trkpt>
      <trkpt lat="46.146525079384446" lon="7.981273932382464">
        <ele>2839.3899999999999</ele>
        <time>2016-07-31T09:53:53Z</time>
      </trkpt>
      <trkpt lat="46.146564055234194" lon="7.981297569349408">
        <ele>2838.4299999999998</ele>
        <time>2016-07-31T09:53:57Z</time>
      </trkpt>
      <trkpt lat="46.146650891751051" lon="7.981327073648572">
        <ele>2836.5100000000002</ele>
        <time>2016-07-31T09:54:08Z</time>
      </trkpt>
      <trkpt lat="46.146658100187778" lon="7.981338473036885">
        <ele>2836.9899999999998</ele>
        <time>2016-07-31T09:54:27Z</time>
      </trkpt>
      <trkpt lat="46.146626081317663" lon="7.981265215203166">
        <ele>2836.5100000000002</ele>
        <time>2016-07-31T09:54:46Z</time>
      </trkpt>
      <trkpt lat="46.14664401859045" lon="7.981200674548745">
        <ele>2834.0999999999999</ele>
        <time>2016-07-31T09:54:54Z</time>
      </trkpt>
      <trkpt lat="46.146640749648213" lon="7.981163207441568">
        <ele>2833.6199999999999</ele>
        <time>2016-07-31T09:54:57Z</time>
      </trkpt>
      <trkpt lat="46.146626500412822" lon="7.981100091710687">
        <ele>2832.1799999999998</ele>
        <time>2016-07-31T09:55:02Z</time>
      </trkpt>
      <trkpt lat="46.146632367745042" lon="7.981072682887316">
        <ele>2831.6999999999998</ele>
        <time>2016-07-31T09:55:04Z</time>
      </trkpt>
      <trkpt lat="46.146628931164742" lon="7.980948379263282">
        <ele>2829.3000000000002</ele>
        <time>2016-07-31T09:55:12Z</time>
      </trkpt>
      <trkpt lat="46.146611999720335" lon="7.9808593634516">
        <ele>2827.8499999999999</ele>
        <time>2016-07-31T09:55:18Z</time>
      </trkpt>
      <trkpt lat="46.146632200106978" lon="7.980792559683323">
        <ele>2826.8899999999999</ele>
        <time>2016-07-31T09:55:22Z</time>
      </trkpt>
      <trkpt lat="46.146651227027178" lon="7.980703543871641">
        <ele>2824.9699999999998</ele>
        <time>2016-07-31T09:55:28Z</time>
      </trkpt>
      <trkpt lat="46.146693471819162" lon="7.980618635192514">
        <ele>2823.5300000000002</ele>
        <time>2016-07-31T09:55:34Z</time>
      </trkpt>
      <trkpt lat="46.146732112392783" lon="7.980540096759796">
        <ele>2821.6100000000001</ele>
        <time>2016-07-31T09:55:40Z</time>
      </trkpt>
      <trkpt lat="46.146700428798795" lon="7.980518722906709">
        <ele>2820.1599999999999</ele>
        <time>2016-07-31T09:55:44Z</time>
      </trkpt>
      <trkpt lat="46.14668408408761" lon="7.980469185858965">
        <ele>2818.7199999999998</ele>
        <time>2016-07-31T09:55:49Z</time>
      </trkpt>
      <trkpt lat="46.146701350808144" lon="7.980383858084679">
        <ele>2816.8000000000002</ele>
        <time>2016-07-31T09:55:55Z</time>
      </trkpt>
      <trkpt lat="46.146682575345039" lon="7.980343122035265">
        <ele>2815.3600000000001</ele>
        <time>2016-07-31T09:55:58Z</time>
      </trkpt>
      <trkpt lat="46.14666891284287" lon="7.98033650033176">
        <ele>2814.4000000000001</ele>
        <time>2016-07-31T09:56:00Z</time>
      </trkpt>
      <trkpt lat="46.146611329168081" lon="7.980397772043943">
        <ele>2812.96</ele>
        <time>2016-07-31T09:56:05Z</time>
      </trkpt>
      <trkpt lat="46.14658291451633" lon="7.980399113148451">
        <ele>2812.96</ele>
        <time>2016-07-31T09:56:08Z</time>
      </trkpt>
      <trkpt lat="46.146541675552726" lon="7.980408165603876">
        <ele>2812.96</ele>
        <time>2016-07-31T09:56:12Z</time>
      </trkpt>
      <trkpt lat="46.146485097706318" lon="7.980402549728751">
        <ele>2810.5500000000002</ele>
        <time>2016-07-31T09:56:17Z</time>
      </trkpt>
      <trkpt lat="46.14645978435874" lon="7.980413362383843">
        <ele>2810.5500000000002</ele>
        <time>2016-07-31T09:56:19Z</time>
      </trkpt>
      <trkpt lat="46.146467663347721" lon="7.98033113591373">
        <ele>2808.6300000000001</ele>
        <time>2016-07-31T09:56:24Z</time>
      </trkpt>
      <trkpt lat="46.146552488207817" lon="7.980140950530767">
        <ele>2805.2600000000002</ele>
        <time>2016-07-31T09:56:37Z</time>
      </trkpt>
      <trkpt lat="46.146422820165753" lon="7.980234827846289">
        <ele>2803.3400000000001</ele>
        <time>2016-07-31T09:56:48Z</time>
      </trkpt>
      <trkpt lat="46.146307988092303" lon="7.980284951627255">
        <ele>2801.4200000000001</ele>
        <time>2016-07-31T09:56:56Z</time>
      </trkpt>
      <trkpt lat="46.146101709455252" lon="7.980306409299374">
        <ele>2798.54</ele>
        <time>2016-07-31T09:57:10Z</time>
      </trkpt>
      <trkpt lat="46.145933736115694" lon="7.980304816737771">
        <ele>2796.6100000000001</ele>
        <time>2016-07-31T09:57:22Z</time>
      </trkpt>
      <trkpt lat="46.145740700885653" lon="7.980277994647622">
        <ele>2794.6900000000001</ele>
        <time>2016-07-31T09:57:36Z</time>
      </trkpt>
      <trkpt lat="46.145587144419551" lon="7.980247819796205">
        <ele>2793.25</ele>
        <time>2016-07-31T09:57:48Z</time>
      </trkpt>
      <trkpt lat="46.145442388951778" lon="7.980176908895373">
        <ele>2792.29</ele>
        <time>2016-07-31T09:58:00Z</time>
      </trkpt>
      <trkpt lat="46.145322527736425" lon="7.980131059885025">
        <ele>2790.8400000000001</ele>
        <time>2016-07-31T09:58:10Z</time>
      </trkpt>
      <trkpt lat="46.145170982927084" lon="7.980086132884026">
        <ele>2789.4000000000001</ele>
        <time>2016-07-31T09:58:22Z</time>
      </trkpt>
      <trkpt lat="46.145057827234268" lon="7.98008780926466">
        <ele>2787.96</ele>
        <time>2016-07-31T09:58:32Z</time>
      </trkpt>
      <trkpt lat="46.144904941320419" lon="7.980144806206226">
        <ele>2786.04</ele>
        <time>2016-07-31T09:58:46Z</time>
      </trkpt>
      <trkpt lat="46.144868396222591" lon="7.980161402374506">
        <ele>2785.5599999999999</ele>
        <time>2016-07-31T09:58:50Z</time>
      </trkpt>
      <trkpt lat="46.14468751475215" lon="7.980045145377517">
        <ele>2783.6300000000001</ele>
        <time>2016-07-31T09:59:06Z</time>
      </trkpt>
      <trkpt lat="46.144567569717765" lon="7.979926373809576">
        <ele>2780.27</ele>
        <time>2016-07-31T09:59:18Z</time>
      </trkpt>
      <trkpt lat="46.144437398761511" lon="7.979780780151486">
        <ele>2776.9099999999999</ele>
        <time>2016-07-31T09:59:31Z</time>
      </trkpt>
      <trkpt lat="46.144426837563515" lon="7.979753874242306">
        <ele>2776.4200000000001</ele>
        <time>2016-07-31T09:59:33Z</time>
      </trkpt>
      <trkpt lat="46.14431468769908" lon="7.979636946693063">
        <ele>2773.0599999999999</ele>
        <time>2016-07-31T09:59:46Z</time>
      </trkpt>
      <trkpt lat="46.144304126501083" lon="7.979589588940144">
        <ele>2772.0999999999999</ele>
        <time>2016-07-31T09:59:49Z</time>
      </trkpt>
      <trkpt lat="46.144247129559517" lon="7.979410300031304">
        <ele>2769.6999999999998</ele>
        <time>2016-07-31T10:00:02Z</time>
      </trkpt>
      <trkpt lat="46.144210835918784" lon="7.979287672787905">
        <ele>2767.77</ele>
        <time>2016-07-31T10:00:12Z</time>
      </trkpt>
      <trkpt lat="46.14417739212513" lon="7.979094302281737">
        <ele>2765.3699999999999</ele>
        <time>2016-07-31T10:00:22Z</time>
      </trkpt>
      <trkpt lat="46.144137661904097" lon="7.978925239294767">
        <ele>2764.8899999999999</ele>
        <time>2016-07-31T10:00:33Z</time>
      </trkpt>
      <trkpt lat="46.144131375476718" lon="7.978873942047358">
        <ele>2763.4499999999998</ele>
        <time>2016-07-31T10:00:36Z</time>
      </trkpt>
      <trkpt lat="46.144120059907436" lon="7.978671099990606">
        <ele>2760.0799999999999</ele>
        <time>2016-07-31T10:00:49Z</time>
      </trkpt>
      <trkpt lat="46.144100530073047" lon="7.97857747413218">
        <ele>2759.5999999999999</ele>
        <time>2016-07-31T10:00:56Z</time>
      </trkpt>
      <trkpt lat="46.144070187583566" lon="7.978534307330847">
        <ele>2757.1999999999998</ele>
        <time>2016-07-31T10:01:00Z</time>
      </trkpt>
      <trkpt lat="46.144067421555519" lon="7.978520058095455">
        <ele>2757.1999999999998</ele>
        <time>2016-07-31T10:01:01Z</time>
      </trkpt>
      <trkpt lat="46.144057950004935" lon="7.978455852717161">
        <ele>2755.2800000000002</ele>
        <time>2016-07-31T10:01:06Z</time>
      </trkpt>
      <trkpt lat="46.144072618335485" lon="7.978370189666748">
        <ele>2753.8299999999999</ele>
        <time>2016-07-31T10:01:11Z</time>
      </trkpt>
      <trkpt lat="46.144045712426305" lon="7.978267511352897">
        <ele>2751.9099999999999</ele>
        <time>2016-07-31T10:01:18Z</time>
      </trkpt>
      <trkpt lat="46.14405769854784" lon="7.978145973756909">
        <ele>2749.9899999999998</ele>
        <time>2016-07-31T10:01:26Z</time>
      </trkpt>
      <trkpt lat="46.143919983878732" lon="7.978087216615677">
        <ele>2746.1399999999999</ele>
        <time>2016-07-31T10:01:39Z</time>
      </trkpt>
      <trkpt lat="46.143892323598266" lon="7.978062657639384">
        <ele>2745.6599999999999</ele>
        <time>2016-07-31T10:01:43Z</time>
      </trkpt>
      <trkpt lat="46.143842870369554" lon="7.978062238544226">
        <ele>2745.1799999999998</ele>
        <time>2016-07-31T10:01:53Z</time>
      </trkpt>
      <trkpt lat="46.143802301958203" lon="7.978035416454077">
        <ele>2744.2199999999998</ele>
        <time>2016-07-31T10:02:04Z</time>
      </trkpt>
      <trkpt lat="46.143856449052691" lon="7.977955536916852">
        <ele>2743.7399999999998</ele>
        <time>2016-07-31T10:02:13Z</time>
      </trkpt>
      <trkpt lat="46.143891485407948" lon="7.977960230782628">
        <ele>2742.7800000000002</ele>
        <time>2016-07-31T10:02:22Z</time>
      </trkpt>
      <trkpt lat="46.143879080191255" lon="7.977965511381626">
        <ele>2743.2600000000002</ele>
        <time>2016-07-31T10:02:25Z</time>
      </trkpt>
      <trkpt lat="46.143901878967881" lon="7.977983029559255">
        <ele>2743.2600000000002</ele>
        <time>2016-07-31T10:02:36Z</time>
      </trkpt>
      <trkpt lat="46.143905567005277" lon="7.977974396198988">
        <ele>2743.2600000000002</ele>
        <time>2016-07-31T10:02:51Z</time>
      </trkpt>
      <trkpt lat="46.143848905339837" lon="7.977969953790307">
        <ele>2743.2600000000002</ele>
        <time>2016-07-31T10:03:06Z</time>
      </trkpt>
      <trkpt lat="46.143899532034993" lon="7.977980431169272">
        <ele>2743.2600000000002</ele>
        <time>2016-07-31T10:03:26Z</time>
      </trkpt>
      <trkpt lat="46.143876062706113" lon="7.977975066751242">
        <ele>2742.7800000000002</ele>
        <time>2016-07-31T10:03:43Z</time>
      </trkpt>
      <trkpt lat="46.143901962786913" lon="7.977999206632376">
        <ele>2742.7800000000002</ele>
        <time>2016-07-31T10:03:55Z</time>
      </trkpt>
      <trkpt lat="46.143944123759866" lon="7.977988729253411">
        <ele>2743.2600000000002</ele>
        <time>2016-07-31T10:04:21Z</time>
      </trkpt>
      <trkpt lat="46.143933646380901" lon="7.977971127256751">
        <ele>2743.2600000000002</ele>
        <time>2016-07-31T10:04:47Z</time>
      </trkpt>
      <trkpt lat="46.143889306113124" lon="7.977973809465766">
        <ele>2743.2600000000002</ele>
        <time>2016-07-31T10:05:14Z</time>
      </trkpt>
      <trkpt lat="46.143879750743508" lon="7.977997111156583">
        <ele>2742.7800000000002</ele>
        <time>2016-07-31T10:05:34Z</time>
      </trkpt>
      <trkpt lat="46.143870195373893" lon="7.978018065914512">
        <ele>2745.1799999999998</ele>
        <time>2016-07-31T10:05:58Z</time>
      </trkpt>
      <trkpt lat="46.143881091848016" lon="7.978042038157582">
        <ele>2740.8600000000001</ele>
        <time>2016-07-31T10:06:04Z</time>
      </trkpt>
      <trkpt lat="46.143868518993258" lon="7.978005409240723">
        <ele>2744.2199999999998</ele>
        <time>2016-07-31T10:06:21Z</time>
      </trkpt>
      <trkpt lat="46.143860220909119" lon="7.978011360391974">
        <ele>2742.3000000000002</ele>
        <time>2016-07-31T10:06:35Z</time>
      </trkpt>
      <trkpt lat="46.143861226737499" lon="7.977995350956917">
        <ele>2743.7399999999998</ele>
        <time>2016-07-31T10:06:58Z</time>
      </trkpt>
      <trkpt lat="46.143860975280404" lon="7.97799744643271">
        <ele>2743.7399999999998</ele>
        <time>2016-07-31T10:06:59Z</time>
      </trkpt>
      <trkpt lat="46.143876314163208" lon="7.977959560230374">
        <ele>2742.7800000000002</ele>
        <time>2016-07-31T10:07:15Z</time>
      </trkpt>
      <trkpt lat="46.143870446830988" lon="7.977945813909173">
        <ele>2742.7800000000002</ele>
        <time>2016-07-31T10:07:39Z</time>
      </trkpt>
      <trkpt lat="46.143838763237" lon="7.977961236611009">
        <ele>2742.7800000000002</ele>
        <time>2016-07-31T10:08:06Z</time>
      </trkpt>
      <trkpt lat="46.143847815692425" lon="7.977975150570273">
        <ele>2741.8200000000002</ele>
        <time>2016-07-31T10:08:28Z</time>
      </trkpt>
      <trkpt lat="46.143858963623643" lon="7.977991746738553">
        <ele>2741.8200000000002</ele>
        <time>2016-07-31T10:08:56Z</time>
      </trkpt>
      <trkpt lat="46.143837254494429" lon="7.977971294894815">
        <ele>2741.8200000000002</ele>
        <time>2016-07-31T10:09:21Z</time>
      </trkpt>
      <trkpt lat="46.143833650276065" lon="7.977968025952578">
        <ele>2741.8200000000002</ele>
        <time>2016-07-31T10:09:44Z</time>
      </trkpt>
      <trkpt lat="46.143847145140171" lon="7.977970875799656">
        <ele>2741.8200000000002</ele>
        <time>2016-07-31T10:10:13Z</time>
      </trkpt>
      <trkpt lat="46.14384027197957" lon="7.977971127256751">
        <ele>2742.3000000000002</ele>
        <time>2016-07-31T10:10:38Z</time>
      </trkpt>
      <trkpt lat="46.143828285858035" lon="7.977980431169272">
        <ele>2743.2600000000002</ele>
        <time>2016-07-31T10:11:02Z</time>
      </trkpt>
      <trkpt lat="46.143842451274395" lon="7.977992417290807">
        <ele>2742.3000000000002</ele>
        <time>2016-07-31T10:11:19Z</time>
      </trkpt>
      <trkpt lat="46.143848653882742" lon="7.977997111156583">
        <ele>2742.3000000000002</ele>
        <time>2016-07-31T10:11:47Z</time>
      </trkpt>
      <trkpt lat="46.143846726045012" lon="7.977993758395314">
        <ele>2742.3000000000002</ele>
        <time>2016-07-31T10:12:05Z</time>
      </trkpt>
      <trkpt lat="46.143851587548852" lon="7.97798965126276">
        <ele>2742.7800000000002</ele>
        <time>2016-07-31T10:12:37Z</time>
      </trkpt>
      <trkpt lat="46.143863154575229" lon="7.977981520816684">
        <ele>2743.2600000000002</ele>
        <time>2016-07-31T10:13:00Z</time>
      </trkpt>
      <trkpt lat="46.143853599205613" lon="7.97797154635191">
        <ele>2743.7399999999998</ele>
        <time>2016-07-31T10:13:28Z</time>
      </trkpt>
      <trkpt lat="46.143851084634662" lon="7.977986298501492">
        <ele>2743.7399999999998</ele>
        <time>2016-07-31T10:13:43Z</time>
      </trkpt>
      <trkpt lat="46.143838427960873" lon="7.977968864142895">
        <ele>2743.7399999999998</ele>
        <time>2016-07-31T10:14:02Z</time>
      </trkpt>
      <trkpt lat="46.143834823742509" lon="7.977969199419022">
        <ele>2743.7399999999998</ele>
        <time>2016-07-31T10:14:30Z</time>
      </trkpt>
      <trkpt lat="46.143831973895431" lon="7.977995099499822">
        <ele>2743.7399999999998</ele>
        <time>2016-07-31T10:15:00Z</time>
      </trkpt>
      <trkpt lat="46.143815210089087" lon="7.977993423119187">
        <ele>2743.2600000000002</ele>
        <time>2016-07-31T10:15:34Z</time>
      </trkpt>
      <trkpt lat="46.143804145976901" lon="7.977968696504831">
        <ele>2743.7399999999998</ele>
        <time>2016-07-31T10:15:59Z</time>
      </trkpt>
      <trkpt lat="46.143798781558871" lon="7.977977246046066">
        <ele>2743.7399999999998</ele>
        <time>2016-07-31T10:16:28Z</time>
      </trkpt>
      <trkpt lat="46.143793249502778" lon="7.977969450876117">
        <ele>2743.2600000000002</ele>
        <time>2016-07-31T10:17:00Z</time>
      </trkpt>
      <trkpt lat="46.143798613920808" lon="7.977962326258421">
        <ele>2743.7399999999998</ele>
        <time>2016-07-31T10:17:22Z</time>
      </trkpt>
      <trkpt lat="46.143807582557201" lon="7.977967523038387">
        <ele>2743.2600000000002</ele>
        <time>2016-07-31T10:17:30Z</time>
      </trkpt>
      <trkpt lat="46.14377673715353" lon="7.977999877184629">
        <ele>2743.2600000000002</ele>
        <time>2016-07-31T10:17:52Z</time>
      </trkpt>
      <trkpt lat="46.143760727718472" lon="7.978029632940888">
        <ele>2743.2600000000002</ele>
        <time>2016-07-31T10:18:14Z</time>
      </trkpt>
      <trkpt lat="46.143743209540844" lon="7.97802435234189">
        <ele>2743.7399999999998</ele>
        <time>2016-07-31T10:18:28Z</time>
      </trkpt>
      <trkpt lat="46.143742287531495" lon="7.978001553565264">
        <ele>2743.7399999999998</ele>
        <time>2016-07-31T10:18:49Z</time>
      </trkpt>
      <trkpt lat="46.143741449341178" lon="7.978008259087801">
        <ele>2743.7399999999998</ele>
        <time>2016-07-31T10:19:07Z</time>
      </trkpt>
      <trkpt lat="46.143749244511127" lon="7.978007504716516">
        <ele>2743.7399999999998</ele>
        <time>2016-07-31T10:19:32Z</time>
      </trkpt>
      <trkpt lat="46.143761314451694" lon="7.978004403412342">
        <ele>2743.2600000000002</ele>
        <time>2016-07-31T10:19:57Z</time>
      </trkpt>
      <trkpt lat="46.143762739375234" lon="7.978016640990973">
        <ele>2743.2600000000002</ele>
        <time>2016-07-31T10:20:20Z</time>
      </trkpt>
      <trkpt lat="46.143755279481411" lon="7.978021334856749">
        <ele>2743.2600000000002</ele>
        <time>2016-07-31T10:20:39Z</time>
      </trkpt>
      <trkpt lat="46.143746897578239" lon="7.978028291836381">
        <ele>2743.7399999999998</ele>
        <time>2016-07-31T10:21:07Z</time>
      </trkpt>
      <trkpt lat="46.143722422420979" lon="7.97801161184907">
        <ele>2743.7399999999998</ele>
        <time>2016-07-31T10:21:16Z</time>
      </trkpt>
      <trkpt lat="46.143692331388593" lon="7.977898037061095">
        <ele>2744.6999999999998</ele>
        <time>2016-07-31T10:21:28Z</time>
      </trkpt>
      <trkpt lat="46.14383926615119" lon="7.977921338751912">
        <ele>2744.2199999999998</ele>
        <time>2016-07-31T10:22:34Z</time>
      </trkpt>
      <trkpt lat="46.143896011635661" lon="7.977997027337551">
        <ele>2743.7399999999998</ele>
        <time>2016-07-31T10:22:47Z</time>
      </trkpt>
      <trkpt lat="46.143864830955863" lon="7.977988310158253">
        <ele>2744.2199999999998</ele>
        <time>2016-07-31T10:23:05Z</time>
      </trkpt>
      <trkpt lat="46.143870195373893" lon="7.977990489453077">
        <ele>2743.7399999999998</ele>
        <time>2016-07-31T10:23:27Z</time>
      </trkpt>
      <trkpt lat="46.143854772672057" lon="7.977964337915182">
        <ele>2744.2199999999998</ele>
        <time>2016-07-31T10:23:43Z</time>
      </trkpt>
      <trkpt lat="46.143872877582908" lon="7.977999458089471">
        <ele>2744.2199999999998</ele>
        <time>2016-07-31T10:23:59Z</time>
      </trkpt>
      <trkpt lat="46.143884947523475" lon="7.97802921384573">
        <ele>2743.7399999999998</ele>
        <time>2016-07-31T10:24:26Z</time>
      </trkpt>
      <trkpt lat="46.143889389932156" lon="7.97801798209548">
        <ele>2744.2199999999998</ele>
        <time>2016-07-31T10:24:59Z</time>
      </trkpt>
      <trkpt lat="46.143893580883741" lon="7.977996608242393">
        <ele>2744.2199999999998</ele>
        <time>2016-07-31T10:25:29Z</time>
      </trkpt>
      <trkpt lat="46.143894586712122" lon="7.977993255481124">
        <ele>2743.7399999999998</ele>
        <time>2016-07-31T10:25:55Z</time>
      </trkpt>
      <trkpt lat="46.143902465701103" lon="7.977996105328202">
        <ele>2744.2199999999998</ele>
        <time>2016-07-31T10:26:08Z</time>
      </trkpt>
      <trkpt lat="46.143880756571889" lon="7.977988226339221">
        <ele>2743.7399999999998</ele>
        <time>2016-07-31T10:26:25Z</time>
      </trkpt>
      <trkpt lat="46.143835242837667" lon="7.978021334856749">
        <ele>2744.2199999999998</ele>
        <time>2016-07-31T10:26:42Z</time>
      </trkpt>
      <trkpt lat="46.143827363848686" lon="7.978033991530538">
        <ele>2743.7399999999998</ele>
        <time>2016-07-31T10:27:06Z</time>
      </trkpt>
      <trkpt lat="46.143827280029655" lon="7.978002140298486">
        <ele>2743.2600000000002</ele>
        <time>2016-07-31T10:27:20Z</time>
      </trkpt>
      <trkpt lat="46.14383926615119" lon="7.978014377877116">
        <ele>2743.7399999999998</ele>
        <time>2016-07-31T10:27:38Z</time>
      </trkpt>
      <trkpt lat="46.143837505951524" lon="7.977993926033378">
        <ele>2743.7399999999998</ele>
        <time>2016-07-31T10:27:54Z</time>
      </trkpt>
      <trkpt lat="46.143825519829988" lon="7.977979173883796">
        <ele>2743.7399999999998</ele>
        <time>2016-07-31T10:28:14Z</time>
      </trkpt>
      <trkpt lat="46.143837003037333" lon="7.978006079792976">
        <ele>2744.2199999999998</ele>
        <time>2016-07-31T10:28:29Z</time>
      </trkpt>
      <trkpt lat="46.143846893683076" lon="7.978016892448068">
        <ele>2744.2199999999998</ele>
        <time>2016-07-31T10:28:43Z</time>
      </trkpt>
      <trkpt lat="46.143841529265046" lon="7.978000966832042">
        <ele>2743.7399999999998</ele>
        <time>2016-07-31T10:29:00Z</time>
      </trkpt>
      <trkpt lat="46.143819903954864" lon="7.977989735081792">
        <ele>2743.7399999999998</ele>
        <time>2016-07-31T10:29:17Z</time>
      </trkpt>
      <trkpt lat="46.14385686814785" lon="7.977992249652743">
        <ele>2743.2600000000002</ele>
        <time>2016-07-31T10:29:41Z</time>
      </trkpt>
      <trkpt lat="46.143858628347516" lon="7.978001721203327">
        <ele>2743.2600000000002</ele>
        <time>2016-07-31T10:29:59Z</time>
      </trkpt>
      <trkpt lat="46.143869860097766" lon="7.977992836385965">
        <ele>2743.2600000000002</ele>
        <time>2016-07-31T10:30:12Z</time>
      </trkpt>
      <trkpt lat="46.143878996372223" lon="7.977978503331542">
        <ele>2742.7800000000002</ele>
        <time>2016-07-31T10:30:30Z</time>
      </trkpt>
      <trkpt lat="46.143886791542172" lon="7.977984705939889">
        <ele>2742.7800000000002</ele>
        <time>2016-07-31T10:30:57Z</time>
      </trkpt>
      <trkpt lat="46.143893245607615" lon="7.977998368442059">
        <ele>2744.2199999999998</ele>
        <time>2016-07-31T10:31:14Z</time>
      </trkpt>
      <trkpt lat="46.143886456266046" lon="7.977985460311174">
        <ele>2742.7800000000002</ele>
        <time>2016-07-31T10:31:40Z</time>
      </trkpt>
      <trkpt lat="46.143873212859035" lon="7.977968696504831">
        <ele>2743.2600000000002</ele>
        <time>2016-07-31T10:31:55Z</time>
      </trkpt>
      <trkpt lat="46.143864244222641" lon="7.977984705939889">
        <ele>2742.7800000000002</ele>
        <time>2016-07-31T10:32:13Z</time>
      </trkpt>
      <trkpt lat="46.143878912553191" lon="7.977989902719855">
        <ele>2743.2600000000002</ele>
        <time>2016-07-31T10:32:32Z</time>
      </trkpt>
      <trkpt lat="46.143885953351855" lon="7.977986130863428">
        <ele>2743.2600000000002</ele>
        <time>2016-07-31T10:32:50Z</time>
      </trkpt>
      <trkpt lat="46.143872290849686" lon="7.977998284623027">
        <ele>2743.7399999999998</ele>
        <time>2016-07-31T10:33:08Z</time>
      </trkpt>
      <trkpt lat="46.143867932260036" lon="7.977995434775949">
        <ele>2743.2600000000002</ele>
        <time>2016-07-31T10:33:29Z</time>
      </trkpt>
      <trkpt lat="46.143866255879402" lon="7.977984789758921">
        <ele>2743.7399999999998</ele>
        <time>2016-07-31T10:33:47Z</time>
      </trkpt>
      <trkpt lat="46.143858879804611" lon="7.977994680404663">
        <ele>2743.7399999999998</ele>
        <time>2016-07-31T10:34:05Z</time>
      </trkpt>
      <trkpt lat="46.143869692459702" lon="7.977991914376617">
        <ele>2743.7399999999998</ele>
        <time>2016-07-31T10:34:18Z</time>
      </trkpt>
      <trkpt lat="46.143870865926147" lon="7.978010773658752">
        <ele>2744.2199999999998</ele>
        <time>2016-07-31T10:34:34Z</time>
      </trkpt>
      <trkpt lat="46.143882684409618" lon="7.97800281085074">
        <ele>2744.2199999999998</ele>
        <time>2016-07-31T10:34:52Z</time>
      </trkpt>
      <trkpt lat="46.143881510943174" lon="7.978036757558584">
        <ele>2744.2199999999998</ele>
        <time>2016-07-31T10:35:10Z</time>
      </trkpt>
      <trkpt lat="46.143896682187915" lon="7.978011779487133">
        <ele>2744.6999999999998</ele>
        <time>2016-07-31T10:35:28Z</time>
      </trkpt>
      <trkpt lat="46.143890144303441" lon="7.978012450039387">
        <ele>2744.6999999999998</ele>
        <time>2016-07-31T10:35:46Z</time>
      </trkpt>
      <trkpt lat="46.14386172965169" lon="7.977982861921191">
        <ele>2744.6999999999998</ele>
        <time>2016-07-31T10:36:06Z</time>
      </trkpt>
      <trkpt lat="46.143856616690755" lon="7.97798034735024">
        <ele>2744.6999999999998</ele>
        <time>2016-07-31T10:36:23Z</time>
      </trkpt>
      <trkpt lat="46.143859215080738" lon="7.978006163612008">
        <ele>2744.6999999999998</ele>
        <time>2016-07-31T10:36:40Z</time>
      </trkpt>
      <trkpt lat="46.143859634175897" lon="7.97800624743104">
        <ele>2744.6999999999998</ele>
        <time>2016-07-31T10:37:00Z</time>
      </trkpt>
      <trkpt lat="46.143860472366214" lon="7.978007839992642">
        <ele>2746.6199999999999</ele>
        <time>2016-07-31T10:37:17Z</time>
      </trkpt>
      <trkpt lat="46.143870027735829" lon="7.977999458089471">
        <ele>2745.1799999999998</ele>
        <time>2016-07-31T10:37:32Z</time>
      </trkpt>
      <trkpt lat="46.143878409639001" lon="7.977995602414012">
        <ele>2745.6599999999999</ele>
        <time>2016-07-31T10:37:49Z</time>
      </trkpt>
      <trkpt lat="46.143891736865044" lon="7.977996356785297">
        <ele>2745.6599999999999</ele>
        <time>2016-07-31T10:38:01Z</time>
      </trkpt>
      <trkpt lat="46.143870949745178" lon="7.97802577726543">
        <ele>2746.1399999999999</ele>
        <time>2016-07-31T10:38:22Z</time>
      </trkpt>
      <trkpt lat="46.143846306949854" lon="7.978046899661422">
        <ele>2746.1399999999999</ele>
        <time>2016-07-31T10:38:39Z</time>
      </trkpt>
      <trkpt lat="46.143842786550522" lon="7.978004654869437">
        <ele>2745.1799999999998</ele>
        <time>2016-07-31T10:38:55Z</time>
      </trkpt>
      <trkpt lat="46.143853683024645" lon="7.977979928255081">
        <ele>2745.6599999999999</ele>
        <time>2016-07-31T10:39:19Z</time>
      </trkpt>
      <trkpt lat="46.143850916996598" lon="7.977998033165932">
        <ele>2745.6599999999999</ele>
        <time>2016-07-31T10:39:43Z</time>
      </trkpt>
      <trkpt lat="46.143850414082408" lon="7.977985208854079">
        <ele>2746.1399999999999</ele>
        <time>2016-07-31T10:40:08Z</time>
      </trkpt>
      <trkpt lat="46.14385737106204" lon="7.97797448001802">
        <ele>2746.6199999999999</ele>
        <time>2016-07-31T10:40:28Z</time>
      </trkpt>
      <trkpt lat="46.143867177888751" lon="7.977985963225365">
        <ele>2746.1399999999999</ele>
        <time>2016-07-31T10:40:52Z</time>
      </trkpt>
      <trkpt lat="46.143885115161538" lon="7.977984203025699">
        <ele>2746.1399999999999</ele>
        <time>2016-07-31T10:41:13Z</time>
      </trkpt>
      <trkpt lat="46.14385100081563" lon="7.977997362613678">
        <ele>2746.1399999999999</ele>
        <time>2016-07-31T10:41:36Z</time>
      </trkpt>
      <trkpt lat="46.14385150372982" lon="7.977992417290807">
        <ele>2746.1399999999999</ele>
        <time>2016-07-31T10:41:59Z</time>
      </trkpt>
      <trkpt lat="46.143858041614294" lon="7.978011025115848">
        <ele>2745.6599999999999</ele>
        <time>2016-07-31T10:42:23Z</time>
      </trkpt>
      <trkpt lat="46.143856029957533" lon="7.977978084236383">
        <ele>2745.6599999999999</ele>
        <time>2016-07-31T10:42:29Z</time>
      </trkpt>
      <trkpt lat="46.143871452659369" lon="7.977926786988974">
        <ele>2746.1399999999999</ele>
        <time>2016-07-31T10:42:37Z</time>
      </trkpt>
      <trkpt lat="46.143862819299102" lon="7.977936677634716">
        <ele>2746.1399999999999</ele>
        <time>2016-07-31T10:42:47Z</time>
      </trkpt>
      <trkpt lat="46.143874386325479" lon="7.977939946576953">
        <ele>2746.1399999999999</ele>
        <time>2016-07-31T10:43:04Z</time>
      </trkpt>
      <trkpt lat="46.143844546750188" lon="7.977883787825704">
        <ele>2746.1399999999999</ele>
        <time>2016-07-31T10:43:15Z</time>
      </trkpt>
      <trkpt lat="46.143849072977901" lon="7.977841626852751">
        <ele>2745.6599999999999</ele>
        <time>2016-07-31T10:43:18Z</time>
      </trkpt>
      <trkpt lat="46.143927108496428" lon="7.977668037638068">
        <ele>2743.2600000000002</ele>
        <time>2016-07-31T10:43:32Z</time>
      </trkpt>
      <trkpt lat="46.143925515934825" lon="7.97762855887413">
        <ele>2741.8200000000002</ele>
        <time>2016-07-31T10:43:38Z</time>
      </trkpt>
      <trkpt lat="46.143886791542172" lon="7.977648675441742">
        <ele>2741.3400000000001</ele>
        <time>2016-07-31T10:43:42Z</time>
      </trkpt>
      <trkpt lat="46.143868351355195" lon="7.977663679048419">
        <ele>2740.8600000000001</ele>
        <time>2016-07-31T10:43:44Z</time>
      </trkpt>
      <trkpt lat="46.143817137926817" lon="7.977695614099503">
        <ele>2739.4099999999999</ele>
        <time>2016-07-31T10:43:51Z</time>
      </trkpt>
      <trkpt lat="46.143792662769556" lon="7.977632330730557">
        <ele>2737.9699999999998</ele>
        <time>2016-07-31T10:43:57Z</time>
      </trkpt>
      <trkpt lat="46.143831219524145" lon="7.977501740679145">
        <ele>2735.5700000000002</ele>
        <time>2016-07-31T10:44:08Z</time>
      </trkpt>
      <trkpt lat="46.143841277807951" lon="7.977406270802021">
        <ele>2734.1300000000001</ele>
        <time>2016-07-31T10:44:18Z</time>
      </trkpt>
      <trkpt lat="46.143873045220971" lon="7.977259671315551">
        <ele>2730.7600000000002</ele>
        <time>2016-07-31T10:44:29Z</time>
      </trkpt>
      <trkpt lat="46.143876817077398" lon="7.977230586111546">
        <ele>2730.2800000000002</ele>
        <time>2016-07-31T10:44:31Z</time>
      </trkpt>
      <trkpt lat="46.143834320828319" lon="7.97722396440804">
        <ele>2729.3200000000002</ele>
        <time>2016-07-31T10:44:36Z</time>
      </trkpt>
      <trkpt lat="46.143753603100777" lon="7.977270903065801">
        <ele>2727.4000000000001</ele>
        <time>2016-07-31T10:44:43Z</time>
      </trkpt>
      <trkpt lat="46.143682189285755" lon="7.977301832288504">
        <ele>2725.96</ele>
        <time>2016-07-31T10:44:49Z</time>
      </trkpt>
      <trkpt lat="46.143709095194936" lon="7.97718096524477">
        <ele>2724.0300000000002</ele>
        <time>2016-07-31T10:44:58Z</time>
      </trkpt>
      <trkpt lat="46.143709346652031" lon="7.977156825363636">
        <ele>2723.5500000000002</ele>
        <time>2016-07-31T10:45:02Z</time>
      </trkpt>
      <trkpt lat="46.143681854009628" lon="7.977169146761298">
        <ele>2722.5900000000001</ele>
        <time>2016-07-31T10:45:07Z</time>
      </trkpt>
      <trkpt lat="46.143671292811632" lon="7.977138552814722">
        <ele>2722.1100000000001</ele>
        <time>2016-07-31T10:45:10Z</time>
      </trkpt>
      <trkpt lat="46.143710184842348" lon="7.977067390456796">
        <ele>2720.6700000000001</ele>
        <time>2016-07-31T10:45:21Z</time>
      </trkpt>
      <trkpt lat="46.143672131001949" lon="7.977092703804374">
        <ele>2719.71</ele>
        <time>2016-07-31T10:45:25Z</time>
      </trkpt>
      <trkpt lat="46.143688559532166" lon="7.977000502869487">
        <ele>2717.7800000000002</ele>
        <time>2016-07-31T10:45:32Z</time>
      </trkpt>
      <trkpt lat="46.143708173185587" lon="7.976908637210727">
        <ele>2715.8600000000001</ele>
        <time>2016-07-31T10:45:39Z</time>
      </trkpt>
      <trkpt lat="46.143663413822651" lon="7.976922718808055">
        <ele>2715.3800000000001</ele>
        <time>2016-07-31T10:45:43Z</time>
      </trkpt>
      <trkpt lat="46.143637010827661" lon="7.976956916972995">
        <ele>2714.4200000000001</ele>
        <time>2016-07-31T10:45:48Z</time>
      </trkpt>
      <trkpt lat="46.143587976694107" lon="7.97701483592391">
        <ele>2713.9400000000001</ele>
        <time>2016-07-31T10:45:53Z</time>
      </trkpt>
      <trkpt lat="46.143545815721154" lon="7.97705439850688">
        <ele>2712.98</ele>
        <time>2016-07-31T10:45:57Z</time>
      </trkpt>
      <trkpt lat="46.143482783809304" lon="7.977088512852788">
        <ele>2711.0599999999999</ele>
        <time>2016-07-31T10:46:03Z</time>
      </trkpt>
      <trkpt lat="46.143405335023999" lon="7.977149281650782">
        <ele>2709.1300000000001</ele>
        <time>2016-07-31T10:46:10Z</time>
      </trkpt>
      <trkpt lat="46.143336687237024" lon="7.977114329114556">
        <ele>2706.25</ele>
        <time>2016-07-31T10:46:20Z</time>
      </trkpt>
      <trkpt lat="46.143341129645705" lon="7.976968148723245">
        <ele>2703.8499999999999</ele>
        <time>2016-07-31T10:46:28Z</time>
      </trkpt>
      <trkpt lat="46.143357558175921" lon="7.976868487894535">
        <ele>2700.96</ele>
        <time>2016-07-31T10:46:35Z</time>
      </trkpt>
      <trkpt lat="46.143359988927841" lon="7.976838648319244">
        <ele>2700.48</ele>
        <time>2016-07-31T10:46:37Z</time>
      </trkpt>
      <trkpt lat="46.143408017233014" lon="7.976677464321256">
        <ele>2697.5999999999999</ele>
        <time>2016-07-31T10:46:49Z</time>
      </trkpt>
      <trkpt lat="46.143401563167572" lon="7.9766527377069">
        <ele>2697.1199999999999</ele>
        <time>2016-07-31T10:46:51Z</time>
      </trkpt>
      <trkpt lat="46.143383122980595" lon="7.976656509563327">
        <ele>2696.6399999999999</ele>
        <time>2016-07-31T10:46:53Z</time>
      </trkpt>
      <trkpt lat="46.143259489908814" lon="7.976692719385028">
        <ele>2693.75</ele>
        <time>2016-07-31T10:47:03Z</time>
      </trkpt>
      <trkpt lat="46.143188243731856" lon="7.976585095748305">
        <ele>2690.3899999999999</ele>
        <time>2016-07-31T10:47:12Z</time>
      </trkpt>
      <trkpt lat="46.143158152699471" lon="7.976465653628111">
        <ele>2687.5</ele>
        <time>2016-07-31T10:47:20Z</time>
      </trkpt>
      <trkpt lat="46.143187070265412" lon="7.976405806839466">
        <ele>2686.0599999999999</ele>
        <time>2016-07-31T10:47:24Z</time>
      </trkpt>
      <trkpt lat="46.143210120499134" lon="7.976335566490889">
        <ele>2683.6599999999999</ele>
        <time>2016-07-31T10:47:29Z</time>
      </trkpt>
      <trkpt lat="46.14319528453052" lon="7.976307487115264">
        <ele>2683.1799999999998</ele>
        <time>2016-07-31T10:47:34Z</time>
      </trkpt>
      <trkpt lat="46.143135186284781" lon="7.9763488098979">
        <ele>2682.2199999999998</ele>
        <time>2016-07-31T10:47:39Z</time>
      </trkpt>
      <trkpt lat="46.143084978684783" lon="7.976356185972691">
        <ele>2680.77</ele>
        <time>2016-07-31T10:47:43Z</time>
      </trkpt>
      <trkpt lat="46.143062599003315" lon="7.976334812119603">
        <ele>2679.8099999999999</ele>
        <time>2016-07-31T10:47:45Z</time>
      </trkpt>
      <trkpt lat="46.143070226535201" lon="7.976290136575699">
        <ele>2678.8499999999999</ele>
        <time>2016-07-31T10:47:47Z</time>
      </trkpt>
      <trkpt lat="46.143108867108822" lon="7.976238839328289">
        <ele>2677.4099999999999</ele>
        <time>2016-07-31T10:47:51Z</time>
      </trkpt>
      <trkpt lat="46.143116746097803" lon="7.976225595921278">
        <ele>2677.4099999999999</ele>
        <time>2016-07-31T10:47:52Z</time>
      </trkpt>
      <trkpt lat="46.143137868493795" lon="7.976161642000079">
        <ele>2675.4899999999998</ele>
        <time>2016-07-31T10:48:01Z</time>
      </trkpt>
      <trkpt lat="46.143015325069427" lon="7.976201036944985">
        <ele>2673.0799999999999</ele>
        <time>2016-07-31T10:48:10Z</time>
      </trkpt>
      <trkpt lat="46.142984731122851" lon="7.976208413019776">
        <ele>2673.0799999999999</ele>
        <time>2016-07-31T10:48:12Z</time>
      </trkpt>
      <trkpt lat="46.142987832427025" lon="7.976149320602417">
        <ele>2671.6399999999999</ele>
        <time>2016-07-31T10:48:15Z</time>
      </trkpt>
      <trkpt lat="46.143081290647388" lon="7.976022670045495">
        <ele>2668.7600000000002</ele>
        <time>2016-07-31T10:48:25Z</time>
      </trkpt>
      <trkpt lat="46.143118422478437" lon="7.975938683375716">
        <ele>2666.8299999999999</ele>
        <time>2016-07-31T10:48:34Z</time>
      </trkpt>
      <trkpt lat="46.143070058897138" lon="7.975929211825132">
        <ele>2665.3899999999999</ele>
        <time>2016-07-31T10:48:38Z</time>
      </trkpt>
      <trkpt lat="46.143008284270763" lon="7.975922338664532">
        <ele>2663.9499999999998</ele>
        <time>2016-07-31T10:48:43Z</time>
      </trkpt>
      <trkpt lat="46.14301985129714" lon="7.975808763876557">
        <ele>2661.5500000000002</ele>
        <time>2016-07-31T10:48:51Z</time>
      </trkpt>
      <trkpt lat="46.143160834908485" lon="7.975685717537999">
        <ele>2659.6199999999999</ele>
        <time>2016-07-31T10:49:04Z</time>
      </trkpt>
      <trkpt lat="46.143265776336193" lon="7.97557189129293">
        <ele>2655.7800000000002</ele>
        <time>2016-07-31T10:49:16Z</time>
      </trkpt>
      <trkpt lat="46.143273906782269" lon="7.975532999262214">
        <ele>2654.3400000000001</ele>
        <time>2016-07-31T10:49:20Z</time>
      </trkpt>
      <trkpt lat="46.14319670945406" lon="7.975470721721649">
        <ele>2652.4200000000001</ele>
        <time>2016-07-31T10:49:27Z</time>
      </trkpt>
      <trkpt lat="46.143076345324516" lon="7.975433003157377">
        <ele>2649.0500000000002</ele>
        <time>2016-07-31T10:49:38Z</time>
      </trkpt>
      <trkpt lat="46.143041225150228" lon="7.975389081984758">
        <ele>2647.6100000000001</ele>
        <time>2016-07-31T10:49:43Z</time>
      </trkpt>
      <trkpt lat="46.142943324521184" lon="7.97538036480546">
        <ele>2644.7199999999998</ele>
        <time>2016-07-31T10:49:51Z</time>
      </trkpt>
      <trkpt lat="46.142869228497148" lon="7.975376676768065">
        <ele>2642.8000000000002</ele>
        <time>2016-07-31T10:49:57Z</time>
      </trkpt>
      <trkpt lat="46.143022365868092" lon="7.975147934630513">
        <ele>2640.4000000000001</ele>
        <time>2016-07-31T10:50:10Z</time>
      </trkpt>
      <trkpt lat="46.143102496862411" lon="7.97502413392067">
        <ele>2637.9899999999998</ele>
        <time>2016-07-31T10:50:21Z</time>
      </trkpt>
      <trkpt lat="46.143092103302479" lon="7.975034276023507">
        <ele>2637.5100000000002</ele>
        <time>2016-07-31T10:50:26Z</time>
      </trkpt>
      <trkpt lat="46.142932008951902" lon="7.975060259923339">
        <ele>2634.1500000000001</ele>
        <time>2016-07-31T10:50:38Z</time>
      </trkpt>
      <trkpt lat="46.142822876572609" lon="7.975087249651551">
        <ele>2631.75</ele>
        <time>2016-07-31T10:50:48Z</time>
      </trkpt>
      <trkpt lat="46.14282782189548" lon="7.975039556622505">
        <ele>2631.27</ele>
        <time>2016-07-31T10:50:52Z</time>
      </trkpt>
      <trkpt lat="46.142839891836047" lon="7.974920701235533">
        <ele>2629.3400000000001</ele>
        <time>2016-07-31T10:51:01Z</time>
      </trkpt>
      <trkpt lat="46.142885405570269" lon="7.97482380643487">
        <ele>2627.9000000000001</ele>
        <time>2016-07-31T10:51:07Z</time>
      </trkpt>
      <trkpt lat="46.142892027273774" lon="7.974814167246223">
        <ele>2627.9000000000001</ele>
        <time>2016-07-31T10:51:08Z</time>
      </trkpt>
      <trkpt lat="46.142892027273774" lon="7.97477594576776">
        <ele>2627.4200000000001</ele>
        <time>2016-07-31T10:51:12Z</time>
      </trkpt>
      <trkpt lat="46.142884567379951" lon="7.974767899140716">
        <ele>2626.9400000000001</ele>
        <time>2016-07-31T10:51:13Z</time>
      </trkpt>
      <trkpt lat="46.142851039767265" lon="7.974709728732705">
        <ele>2625.02</ele>
        <time>2016-07-31T10:51:18Z</time>
      </trkpt>
      <trkpt lat="46.142751798033714" lon="7.974654324352741">
        <ele>2623.0900000000001</ele>
        <time>2016-07-31T10:51:27Z</time>
      </trkpt>
      <trkpt lat="46.142735872417688" lon="7.974624652415514">
        <ele>2622.1300000000001</ele>
        <time>2016-07-31T10:51:30Z</time>
      </trkpt>
      <trkpt lat="46.142726736143231" lon="7.97457410953939">
        <ele>2621.6500000000001</ele>
        <time>2016-07-31T10:51:33Z</time>
      </trkpt>
      <trkpt lat="46.14266412332654" lon="7.974455421790481">
        <ele>2619.73</ele>
        <time>2016-07-31T10:51:45Z</time>
      </trkpt>
      <trkpt lat="46.142580639570951" lon="7.974389791488648">
        <ele>2616.8499999999999</ele>
        <time>2016-07-31T10:51:56Z</time>
      </trkpt>
      <trkpt lat="46.142536299303174" lon="7.974258447065949">
        <ele>2614.9200000000001</ele>
        <time>2016-07-31T10:52:06Z</time>
      </trkpt>
      <trkpt lat="46.142449714243412" lon="7.974252495914698">
        <ele>2612.52</ele>
        <time>2016-07-31T10:52:15Z</time>
      </trkpt>
      <trkpt lat="46.14236899651587" lon="7.974221231415868">
        <ele>2611.5599999999999</ele>
        <time>2016-07-31T10:52:24Z</time>
      </trkpt>
      <trkpt lat="46.14231082610786" lon="7.974181668832898">
        <ele>2610.5999999999999</ele>
        <time>2016-07-31T10:52:33Z</time>
      </trkpt>
      <trkpt lat="46.142253745347261" lon="7.974101956933737">
        <ele>2609.1599999999999</ele>
        <time>2016-07-31T10:52:44Z</time>
      </trkpt>
      <trkpt lat="46.142202029004693" lon="7.974075805395842">
        <ele>2608.6700000000001</ele>
        <time>2016-07-31T10:52:49Z</time>
      </trkpt>
      <trkpt lat="46.142170680686831" lon="7.974023250862956">
        <ele>2608.6700000000001</ele>
        <time>2016-07-31T10:52:54Z</time>
      </trkpt>
      <trkpt lat="46.142041264101863" lon="7.973947897553444">
        <ele>2606.27</ele>
        <time>2016-07-31T10:53:08Z</time>
      </trkpt>
      <trkpt lat="46.141996420919895" lon="7.973923338577151">
        <ele>2604.3499999999999</ele>
        <time>2016-07-31T10:53:15Z</time>
      </trkpt>
      <trkpt lat="46.142017543315887" lon="7.973880507051945">
        <ele>2603.8699999999999</ele>
        <time>2016-07-31T10:53:22Z</time>
      </trkpt>
      <trkpt lat="46.142012597993016" lon="7.973843291401863">
        <ele>2603.8699999999999</ele>
        <time>2016-07-31T10:53:39Z</time>
      </trkpt>
      <trkpt lat="46.142037576064467" lon="7.973844297230244">
        <ele>2604.3499999999999</ele>
        <time>2016-07-31T10:53:48Z</time>
      </trkpt>
      <trkpt lat="46.142034977674484" lon="7.973812529817224">
        <ele>2603.8699999999999</ele>
        <time>2016-07-31T10:53:57Z</time>
      </trkpt>
      <trkpt lat="46.142014693468809" lon="7.973688645288348">
        <ele>2602.4299999999998</ele>
        <time>2016-07-31T10:54:08Z</time>
      </trkpt>
      <trkpt lat="46.141923246905208" lon="7.973644640296698">
        <ele>2600.02</ele>
        <time>2016-07-31T10:54:19Z</time>
      </trkpt>
      <trkpt lat="46.141806989908218" lon="7.973606334999204">
        <ele>2598.0999999999999</ele>
        <time>2016-07-31T10:54:30Z</time>
      </trkpt>
      <trkpt lat="46.14179827272892" lon="7.973495693877339">
        <ele>2596.6599999999999</ele>
        <time>2016-07-31T10:54:39Z</time>
      </trkpt>
      <trkpt lat="46.141874128952622" lon="7.973321601748467">
        <ele>2593.77</ele>
        <time>2016-07-31T10:54:52Z</time>
      </trkpt>
      <trkpt lat="46.141841858625412" lon="7.973346244543791">
        <ele>2593.77</ele>
        <time>2016-07-31T10:54:55Z</time>
      </trkpt>
      <trkpt lat="46.141802379861474" lon="7.973354961723089">
        <ele>2592.8099999999999</ele>
        <time>2016-07-31T10:54:58Z</time>
      </trkpt>
      <trkpt lat="46.141672292724252" lon="7.973306933417916">
        <ele>2589.9299999999998</ele>
        <time>2016-07-31T10:55:10Z</time>
      </trkpt>
      <trkpt lat="46.141602052375674" lon="7.973266365006566">
        <ele>2588.0100000000002</ele>
        <time>2016-07-31T10:55:17Z</time>
      </trkpt>
      <trkpt lat="46.141553102061152" lon="7.973210792988539">
        <ele>2587.04</ele>
        <time>2016-07-31T10:55:23Z</time>
      </trkpt>
      <trkpt lat="46.141483532264829" lon="7.973104678094387">
        <ele>2584.1599999999999</ele>
        <time>2016-07-31T10:55:33Z</time>
      </trkpt>
      <trkpt lat="46.14144304767251" lon="7.972981967031956">
        <ele>2581.7600000000002</ele>
        <time>2016-07-31T10:55:43Z</time>
      </trkpt>
      <trkpt lat="46.141418404877186" lon="7.972931256517768">
        <ele>2580.8000000000002</ele>
        <time>2016-07-31T10:55:47Z</time>
      </trkpt>
      <trkpt lat="46.141431061550975" lon="7.972845509648323">
        <ele>2579.3499999999999</ele>
        <time>2016-07-31T10:55:53Z</time>
      </trkpt>
      <trkpt lat="46.141369286924601" lon="7.972655827179551">
        <ele>2576.4699999999998</ele>
        <time>2016-07-31T10:56:06Z</time>
      </trkpt>
      <trkpt lat="46.141251772642136" lon="7.972456170246005">
        <ele>2574.0700000000002</ele>
        <time>2016-07-31T10:56:22Z</time>
      </trkpt>
      <trkpt lat="46.141244312748313" lon="7.972450638189912">
        <ele>2574.0700000000002</ele>
        <time>2016-07-31T10:56:23Z</time>
      </trkpt>
      <trkpt lat="46.141140293329954" lon="7.972321808338165">
        <ele>2571.6599999999999</ele>
        <time>2016-07-31T10:56:35Z</time>
      </trkpt>
      <trkpt lat="46.141065945848823" lon="7.972175879403949">
        <ele>2568.7800000000002</ele>
        <time>2016-07-31T10:56:46Z</time>
      </trkpt>
      <trkpt lat="46.141068795695901" lon="7.972142267972231">
        <ele>2568.3000000000002</ele>
        <time>2016-07-31T10:56:48Z</time>
      </trkpt>
      <trkpt lat="46.141088576987386" lon="7.972074877470732">
        <ele>2567.3400000000001</ele>
        <time>2016-07-31T10:56:53Z</time>
      </trkpt>
      <trkpt lat="46.14108975045383" lon="7.972029782831669">
        <ele>2566.3800000000001</ele>
        <time>2016-07-31T10:56:56Z</time>
      </trkpt>
      <trkpt lat="46.14107558503747" lon="7.97186809591949">
        <ele>2564.4499999999998</ele>
        <time>2016-07-31T10:57:07Z</time>
      </trkpt>
      <trkpt lat="46.141091007739305" lon="7.971791569143534">
        <ele>2563.0100000000002</ele>
        <time>2016-07-31T10:57:12Z</time>
      </trkpt>
      <trkpt lat="46.141109615564346" lon="7.971578584983945">
        <ele>2559.6500000000001</ele>
        <time>2016-07-31T10:57:26Z</time>
      </trkpt>
      <trkpt lat="46.141057480126619" lon="7.971405163407326">
        <ele>2557.73</ele>
        <time>2016-07-31T10:57:38Z</time>
      </trkpt>
      <trkpt lat="46.140987826511264" lon="7.97120600938797">
        <ele>2556.2800000000002</ele>
        <time>2016-07-31T10:57:51Z</time>
      </trkpt>
      <trkpt lat="46.140941139310598" lon="7.971040131524205">
        <ele>2555.3200000000002</ele>
        <time>2016-07-31T10:58:01Z</time>
      </trkpt>
      <trkpt lat="46.140891015529633" lon="7.97087425366044">
        <ele>2554.3600000000001</ele>
        <time>2016-07-31T10:58:12Z</time>
      </trkpt>
      <trkpt lat="46.140840137377381" lon="7.970686918124557">
        <ele>2553.4000000000001</ele>
        <time>2016-07-31T10:58:24Z</time>
      </trkpt>
      <trkpt lat="46.140790013596416" lon="7.970532439649105">
        <ele>2552.4400000000001</ele>
        <time>2016-07-31T10:58:34Z</time>
      </trkpt>
      <trkpt lat="46.14073988981545" lon="7.970358096063137">
        <ele>2551.48</ele>
        <time>2016-07-31T10:58:46Z</time>
      </trkpt>
      <trkpt lat="46.140684066340327" lon="7.970198839902878">
        <ele>2550.5100000000002</ele>
        <time>2016-07-31T10:58:56Z</time>
      </trkpt>
      <trkpt lat="46.140669314190745" lon="7.970121810212731">
        <ele>2549.5500000000002</ele>
        <time>2016-07-31T10:59:00Z</time>
      </trkpt>
      <trkpt lat="46.140585578978062" lon="7.969918129965663">
        <ele>2547.6300000000001</ele>
        <time>2016-07-31T10:59:13Z</time>
      </trkpt>
      <trkpt lat="46.140530090779066" lon="7.969753257930279">
        <ele>2545.71</ele>
        <time>2016-07-31T10:59:25Z</time>
      </trkpt>
      <trkpt lat="46.140488013625145" lon="7.969644125550985">
        <ele>2544.27</ele>
        <time>2016-07-31T10:59:33Z</time>
      </trkpt>
      <trkpt lat="46.140397991985083" lon="7.969443211331964">
        <ele>2542.8200000000002</ele>
        <time>2016-07-31T10:59:46Z</time>
      </trkpt>
      <trkpt lat="46.140370080247521" lon="7.96939761377871">
        <ele>2542.3400000000001</ele>
        <time>2016-07-31T10:59:50Z</time>
      </trkpt>
      <trkpt lat="46.140292128548026" lon="7.969288481399417">
        <ele>2542.3400000000001</ele>
        <time>2016-07-31T11:00:00Z</time>
      </trkpt>
      <trkpt lat="46.140232114121318" lon="7.969174655154347">
        <ele>2540.9000000000001</ele>
        <time>2016-07-31T11:00:08Z</time>
      </trkpt>
      <trkpt lat="46.140199257060885" lon="7.969130733981729">
        <ele>2540.4200000000001</ele>
        <time>2016-07-31T11:00:12Z</time>
      </trkpt>
      <trkpt lat="46.140123652294278" lon="7.968961587175727">
        <ele>2538.5</ele>
        <time>2016-07-31T11:00:24Z</time>
      </trkpt>
      <trkpt lat="46.140083000063896" lon="7.968797804787755">
        <ele>2535.1300000000001</ele>
        <time>2016-07-31T11:00:35Z</time>
      </trkpt>
      <trkpt lat="46.140073696151376" lon="7.968732761219144">
        <ele>2534.1700000000001</ele>
        <time>2016-07-31T11:00:39Z</time>
      </trkpt>
      <trkpt lat="46.140065146610141" lon="7.968693030998111">
        <ele>2533.6900000000001</ele>
        <time>2016-07-31T11:00:42Z</time>
      </trkpt>
      <trkpt lat="46.140001025050879" lon="7.968521537259221">
        <ele>2530.3299999999999</ele>
        <time>2016-07-31T11:00:54Z</time>
      </trkpt>
      <trkpt lat="46.140005551278591" lon="7.968411734327674">
        <ele>2529.3699999999999</ele>
        <time>2016-07-31T11:01:00Z</time>
      </trkpt>
      <trkpt lat="46.140053914859891" lon="7.968307044357061">
        <ele>2528.4000000000001</ele>
        <time>2016-07-31T11:01:12Z</time>
      </trkpt>
      <trkpt lat="46.140080317854881" lon="7.968288604170084">
        <ele>2528.4000000000001</ele>
        <time>2016-07-31T11:01:17Z</time>
      </trkpt>
      <trkpt lat="46.140113594010472" lon="7.968286508694291">
        <ele>2527.4400000000001</ele>
        <time>2016-07-31T11:01:25Z</time>
      </trkpt>
      <trkpt lat="46.140090711414814" lon="7.968247951939702">
        <ele>2526.48</ele>
        <time>2016-07-31T11:01:29Z</time>
      </trkpt>
      <trkpt lat="46.140044275671244" lon="7.968134041875601">
        <ele>2524.0799999999999</ele>
        <time>2016-07-31T11:01:39Z</time>
      </trkpt>
      <trkpt lat="46.14004016853869" lon="7.968102525919676">
        <ele>2523.1199999999999</ele>
        <time>2016-07-31T11:01:41Z</time>
      </trkpt>
      <trkpt lat="46.140026422217488" lon="7.968059107661247">
        <ele>2521.6799999999998</ele>
        <time>2016-07-31T11:01:45Z</time>
      </trkpt>
      <trkpt lat="46.14000990986824" lon="7.968051144853234">
        <ele>2521.6799999999998</ele>
        <time>2016-07-31T11:01:47Z</time>
      </trkpt>
      <trkpt lat="46.139931371435523" lon="7.967969505116344">
        <ele>2519.27</ele>
        <time>2016-07-31T11:01:58Z</time>
      </trkpt>
      <trkpt lat="46.139842607080936" lon="7.967986268922687">
        <ele>2517.3499999999999</ele>
        <time>2016-07-31T11:02:07Z</time>
      </trkpt>
      <trkpt lat="46.139781000092626" lon="7.967970343306661">
        <ele>2515.4299999999998</ele>
        <time>2016-07-31T11:02:15Z</time>
      </trkpt>
      <trkpt lat="46.139754932373762" lon="7.968025412410498">
        <ele>2513.98</ele>
        <time>2016-07-31T11:02:21Z</time>
      </trkpt>
      <trkpt lat="46.139713190495968" lon="7.967982413247228">
        <ele>2512.54</ele>
        <time>2016-07-31T11:02:26Z</time>
      </trkpt>
      <trkpt lat="46.139695839956403" lon="7.967825839295983">
        <ele>2509.1799999999998</ele>
        <time>2016-07-31T11:02:37Z</time>
      </trkpt>
      <trkpt lat="46.139676561579108" lon="7.967677898705006">
        <ele>2506.29</ele>
        <time>2016-07-31T11:02:48Z</time>
      </trkpt>
      <trkpt lat="46.139672370627522" lon="7.967581758275628">
        <ele>2504.3699999999999</ele>
        <time>2016-07-31T11:02:55Z</time>
      </trkpt>
      <trkpt lat="46.139705395326018" lon="7.967445803806186">
        <ele>2501.0100000000002</ele>
        <time>2016-07-31T11:03:06Z</time>
      </trkpt>
      <trkpt lat="46.139706652611494" lon="7.967380341142416">
        <ele>2500.0500000000002</ele>
        <time>2016-07-31T11:03:13Z</time>
      </trkpt>
      <trkpt lat="46.139721404761076" lon="7.967285206541419">
        <ele>2498.1199999999999</ele>
        <time>2016-07-31T11:03:22Z</time>
      </trkpt>
      <trkpt lat="46.139700785279274" lon="7.967190993949771">
        <ele>2496.1999999999998</ele>
        <time>2016-07-31T11:03:30Z</time>
      </trkpt>
      <trkpt lat="46.139656696468592" lon="7.967166434973478">
        <ele>2494.7600000000002</ele>
        <time>2016-07-31T11:03:35Z</time>
      </trkpt>
      <trkpt lat="46.139620486646891" lon="7.967002987861633">
        <ele>2491.3899999999999</ele>
        <time>2016-07-31T11:03:47Z</time>
      </trkpt>
      <trkpt lat="46.139606740325689" lon="7.966840630397201">
        <ele>2488.9899999999998</ele>
        <time>2016-07-31T11:03:59Z</time>
      </trkpt>
      <trkpt lat="46.139608416706324" lon="7.966794362291694">
        <ele>2488.0300000000002</ele>
        <time>2016-07-31T11:04:13Z</time>
      </trkpt>
      <trkpt lat="46.139618391171098" lon="7.96673652715981">
        <ele>2487.0700000000002</ele>
        <time>2016-07-31T11:04:18Z</time>
      </trkpt>
      <trkpt lat="46.139612859115005" lon="7.966685732826591">
        <ele>2486.1100000000001</ele>
        <time>2016-07-31T11:04:28Z</time>
      </trkpt>
      <trkpt lat="46.13963708281517" lon="7.966597890481353">
        <ele>2484.1799999999998</ele>
        <time>2016-07-31T11:04:36Z</time>
      </trkpt>
      <trkpt lat="46.139657534658909" lon="7.96655623242259">
        <ele>2483.6999999999998</ele>
        <time>2016-07-31T11:04:39Z</time>
      </trkpt>
      <trkpt lat="46.139757614582777" lon="7.966485405340791">
        <ele>2481.3000000000002</ele>
        <time>2016-07-31T11:04:50Z</time>
      </trkpt>
      <trkpt lat="46.139854760840535" lon="7.966488841921091">
        <ele>2478.4200000000001</ele>
        <time>2016-07-31T11:05:00Z</time>
      </trkpt>
      <trkpt lat="46.13995224237442" lon="7.966474508866668">
        <ele>2475.5300000000002</ele>
        <time>2016-07-31T11:05:11Z</time>
      </trkpt>
      <trkpt lat="46.139926007017493" lon="7.966310894116759">
        <ele>2473.1300000000001</ele>
        <time>2016-07-31T11:05:23Z</time>
      </trkpt>
      <trkpt lat="46.139884265139699" lon="7.966157086193562">
        <ele>2470.73</ele>
        <time>2016-07-31T11:05:35Z</time>
      </trkpt>
      <trkpt lat="46.139857023954391" lon="7.966056084260345">
        <ele>2469.7600000000002</ele>
        <time>2016-07-31T11:05:43Z</time>
      </trkpt>
      <trkpt lat="46.139864819124341" lon="7.965936390683055">
        <ele>2468.3200000000002</ele>
        <time>2016-07-31T11:05:50Z</time>
      </trkpt>
      <trkpt lat="46.139881331473589" lon="7.965906634926796">
        <ele>2467.8400000000001</ele>
        <time>2016-07-31T11:05:53Z</time>
      </trkpt>
      <trkpt lat="46.139869764447212" lon="7.965875789523125">
        <ele>2467.8400000000001</ele>
        <time>2016-07-31T11:05:56Z</time>
      </trkpt>
      <trkpt lat="46.139854257926345" lon="7.965876208618283">
        <ele>2467.3600000000001</ele>
        <time>2016-07-31T11:05:58Z</time>
      </trkpt>
      <trkpt lat="46.139746718108654" lon="7.965936390683055">
        <ele>2464</ele>
        <time>2016-07-31T11:06:10Z</time>
      </trkpt>
      <trkpt lat="46.139663569629192" lon="7.965958015993238">
        <ele>2460.6300000000001</ele>
        <time>2016-07-31T11:06:20Z</time>
      </trkpt>
      <trkpt lat="46.139598023146391" lon="7.965953825041652">
        <ele>2458.71</ele>
        <time>2016-07-31T11:06:27Z</time>
      </trkpt>
      <trkpt lat="46.139544881880283" lon="7.965941168367863">
        <ele>2457.27</ele>
        <time>2016-07-31T11:06:34Z</time>
      </trkpt>
      <trkpt lat="46.139430636540055" lon="7.965870173648">
        <ele>2453.9000000000001</ele>
        <time>2016-07-31T11:06:46Z</time>
      </trkpt>
      <trkpt lat="46.139388140290976" lon="7.965768584981561">
        <ele>2452.46</ele>
        <time>2016-07-31T11:06:53Z</time>
      </trkpt>
      <trkpt lat="46.139348074793816" lon="7.965690465644002">
        <ele>2451.02</ele>
        <time>2016-07-31T11:06:59Z</time>
      </trkpt>
      <trkpt lat="46.139295184984803" lon="7.965607987716794">
        <ele>2449.5799999999999</ele>
        <time>2016-07-31T11:07:06Z</time>
      </trkpt>
      <trkpt lat="46.139246234670281" lon="7.965414030477405">
        <ele>2447.6500000000001</ele>
        <time>2016-07-31T11:07:19Z</time>
      </trkpt>
      <trkpt lat="46.139208599925041" lon="7.965318057686091">
        <ele>2446.6900000000001</ele>
        <time>2016-07-31T11:07:29Z</time>
      </trkpt>
      <trkpt lat="46.139199631288648" lon="7.965304395183921">
        <ele>2446.21</ele>
        <time>2016-07-31T11:07:45Z</time>
      </trkpt>
      <trkpt lat="46.139197200536728" lon="7.965294755995274">
        <ele>2446.21</ele>
        <time>2016-07-31T11:07:46Z</time>
      </trkpt>
      <trkpt lat="46.139193428680301" lon="7.965275058522821">
        <ele>2445.73</ele>
        <time>2016-07-31T11:07:48Z</time>
      </trkpt>
      <trkpt lat="46.139120003208518" lon="7.96517338603735">
        <ele>2443.8099999999999</ele>
        <time>2016-07-31T11:08:00Z</time>
      </trkpt>
      <trkpt lat="46.139053786173463" lon="7.965027540922165">
        <ele>2440.9200000000001</ele>
        <time>2016-07-31T11:08:12Z</time>
      </trkpt>
      <trkpt lat="46.13903216086328" lon="7.964966269209981">
        <ele>2439.96</ele>
        <time>2016-07-31T11:08:20Z</time>
      </trkpt>
      <trkpt lat="46.139023778960109" lon="7.964877253398299">
        <ele>2439</ele>
        <time>2016-07-31T11:08:25Z</time>
      </trkpt>
      <trkpt lat="46.138997627422214" lon="7.964675752446055">
        <ele>2436.5999999999999</ele>
        <time>2016-07-31T11:08:37Z</time>
      </trkpt>
      <trkpt lat="46.138998046517372" lon="7.96462026424706">
        <ele>2435.6399999999999</ele>
        <time>2016-07-31T11:08:46Z</time>
      </trkpt>
      <trkpt lat="46.138986311852932" lon="7.964500403031707">
        <ele>2434.1999999999998</ele>
        <time>2016-07-31T11:08:54Z</time>
      </trkpt>
      <trkpt lat="46.138949934393167" lon="7.964315749704838">
        <ele>2432.27</ele>
        <time>2016-07-31T11:09:06Z</time>
      </trkpt>
      <trkpt lat="46.13891489803791" lon="7.964111650362611">
        <ele>2430.8299999999999</ele>
        <time>2016-07-31T11:09:18Z</time>
      </trkpt>
      <trkpt lat="46.138874748721719" lon="7.964059179648757">
        <ele>2430.3499999999999</ele>
        <time>2016-07-31T11:09:23Z</time>
      </trkpt>
      <trkpt lat="46.138800233602524" lon="7.964044343680143">
        <ele>2428.4299999999998</ele>
        <time>2016-07-31T11:09:30Z</time>
      </trkpt>
      <trkpt lat="46.138774752616882" lon="7.964047696441412">
        <ele>2427.9499999999998</ele>
        <time>2016-07-31T11:09:32Z</time>
      </trkpt>
      <trkpt lat="46.138741811737418" lon="7.96404417604208">
        <ele>2427.9499999999998</ele>
        <time>2016-07-31T11:09:35Z</time>
      </trkpt>
      <trkpt lat="46.138673750683665" lon="7.963974019512534">
        <ele>2426.02</ele>
        <time>2016-07-31T11:09:42Z</time>
      </trkpt>
      <trkpt lat="46.138571994379163" lon="7.963828761130571">
        <ele>2425.54</ele>
        <time>2016-07-31T11:09:55Z</time>
      </trkpt>
      <trkpt lat="46.138553721830249" lon="7.963796658441424">
        <ele>2424.5799999999999</ele>
        <time>2016-07-31T11:10:05Z</time>
      </trkpt>
      <trkpt lat="46.138545675203204" lon="7.96377394348383">
        <ele>2424.5799999999999</ele>
        <time>2016-07-31T11:10:25Z</time>
      </trkpt>
      <trkpt lat="46.138546681031585" lon="7.96377494931221">
        <ele>2424.5799999999999</ele>
        <time>2016-07-31T11:10:50Z</time>
      </trkpt>
      <trkpt lat="46.138547770678997" lon="7.963788444176316">
        <ele>2424.0999999999999</ele>
        <time>2016-07-31T11:11:11Z</time>
      </trkpt>
      <trkpt lat="46.138540143147111" lon="7.963764388114214">
        <ele>2424.0999999999999</ele>
        <time>2016-07-31T11:11:33Z</time>
      </trkpt>
      <trkpt lat="46.138526732102036" lon="7.963776122778654">
        <ele>2424.5799999999999</ele>
        <time>2016-07-31T11:11:56Z</time>
      </trkpt>
    </trkseg>
  </trk>

</gpx>